<?xml version="1.0" encoding="UTF-8"?>
<gpx version="1.1" creator="https://www.youtrack.es" xsi:schemaLocation="http://www.topografix.com/GPX/1/1 http://www.topografix.com/GPX/1/1/gpx.xsd http://www.garmin.com/xmlschemas/GpxExtensions/v3 http://www.garmin.com/xmlschemas/GpxExtensionsv3.xsd http://www.garmin.com/xmlschemas/TrackPointExtension/v1 http://www.garmin.com/xmlschemas/TrackPointExtensionv1.xsd" xmlns:gpxtpx="http://www.garmin.com/xmlschemas/TrackPointExtension/v1" xmlns:gpxx="http://www.garmin.com/xmlschemas/GpxExtensions/v3" xmlns:xsi="http://www.w3.org/2001/XMLSchema-instance">
  <metadata>
    <link href="https://www.youtrack.es">
      <text>YouTrack.es</text>
    </link>
    <time>2026-05-09T00:56:00Z</time>
  </metadata>
  <trk>
    <src>https://www.youtrack.es</src>
    <link href="https://www.youtrack.es/ruta/4397-quilimari-alto-limahuida">
      <text>YouTrack.es</text>
    </link>
    <trkseg>
      <trkpt lat="-31.93099690488524" lon="-71.13422599452611">
        <time>2019-03-07T04:32:33Z</time>
      </trkpt>
      <trkpt lat="-31.92941222996133" lon="-71.13424219841812">
        <time>2019-03-07T04:32:33Z</time>
      </trkpt>
      <trkpt lat="-31.9292579509226" lon="-71.13424578829418">
        <time>2019-03-07T04:32:33Z</time>
      </trkpt>
      <trkpt lat="-31.92909172429648" lon="-71.13425481662097">
        <time>2019-03-07T04:32:33Z</time>
      </trkpt>
      <trkpt lat="-31.92894641937918" lon="-71.13427259193915">
        <time>2019-03-07T04:32:33Z</time>
      </trkpt>
      <trkpt lat="-31.928825048535" lon="-71.13429145025307">
        <time>2019-03-07T04:32:33Z</time>
      </trkpt>
      <trkpt lat="-31.92872013813405" lon="-71.13432684865609">
        <time>2019-03-07T04:32:33Z</time>
      </trkpt>
      <trkpt lat="-31.92858852532527" lon="-71.13438812129434">
        <time>2019-03-07T04:32:33Z</time>
      </trkpt>
      <trkpt lat="-31.92844046658465" lon="-71.13448810673224">
        <time>2019-03-07T04:32:33Z</time>
      </trkpt>
      <trkpt lat="-31.9277245887936" lon="-71.13501469320487">
        <time>2019-03-07T04:32:33Z</time>
      </trkpt>
      <trkpt lat="-31.92692154941389" lon="-71.13564095960848">
        <time>2019-03-07T04:32:33Z</time>
      </trkpt>
      <trkpt lat="-31.9266802731627" lon="-71.13581958860961">
        <time>2019-03-07T04:32:33Z</time>
      </trkpt>
      <trkpt lat="-31.92635902341807" lon="-71.13608021920896">
        <time>2019-03-07T04:32:33Z</time>
      </trkpt>
      <trkpt lat="-31.92619584052971" lon="-71.13618689492226">
        <time>2019-03-07T04:32:33Z</time>
      </trkpt>
      <trkpt lat="-31.92606477964045" lon="-71.13625883998995">
        <time>2019-03-07T04:32:33Z</time>
      </trkpt>
      <trkpt lat="-31.92587472157089" lon="-71.13633988523748">
        <time>2019-03-07T04:32:33Z</time>
      </trkpt>
      <trkpt lat="-31.92568500422558" lon="-71.13637087894365">
        <time>2019-03-07T04:32:33Z</time>
      </trkpt>
      <trkpt lat="-31.92528313953472" lon="-71.1363705843296">
        <time>2019-03-07T04:32:33Z</time>
      </trkpt>
      <trkpt lat="-31.92463616252146" lon="-71.136351760588">
        <time>2019-03-07T04:32:33Z</time>
      </trkpt>
      <trkpt lat="-31.92380957014843" lon="-71.13634356738004">
        <time>2019-03-07T04:32:33Z</time>
      </trkpt>
      <trkpt lat="-31.92339848757764" lon="-71.13635333952077">
        <time>2019-03-07T04:32:33Z</time>
      </trkpt>
      <trkpt lat="-31.92309511544215" lon="-71.13636201396732">
        <time>2019-03-07T04:32:33Z</time>
      </trkpt>
      <trkpt lat="-31.9228883537853" lon="-71.1363511159699">
        <time>2019-03-07T04:32:33Z</time>
      </trkpt>
      <trkpt lat="-31.92276178197363" lon="-71.13632956479479">
        <time>2019-03-07T04:32:33Z</time>
      </trkpt>
      <trkpt lat="-31.92267276459497" lon="-71.13630321291174">
        <time>2019-03-07T04:32:33Z</time>
      </trkpt>
      <trkpt lat="-31.9225561941149" lon="-71.13625483227534">
        <time>2019-03-07T04:32:33Z</time>
      </trkpt>
      <trkpt lat="-31.92244421040822" lon="-71.13619147734886">
        <time>2019-03-07T04:32:33Z</time>
      </trkpt>
      <trkpt lat="-31.92191007601851" lon="-71.13582537381458">
        <time>2019-03-07T04:32:33Z</time>
      </trkpt>
      <trkpt lat="-31.92112205595025" lon="-71.13527411114974">
        <time>2019-03-07T04:32:33Z</time>
      </trkpt>
      <trkpt lat="-31.91988909694417" lon="-71.13438837932587">
        <time>2019-03-07T04:32:33Z</time>
      </trkpt>
      <trkpt lat="-31.91960484421863" lon="-71.13419745561781">
        <time>2019-03-07T04:32:33Z</time>
      </trkpt>
      <trkpt lat="-31.91942995219048" lon="-71.13410976906525">
        <time>2019-03-07T04:32:33Z</time>
      </trkpt>
      <trkpt lat="-31.91916626757183" lon="-71.13404954655611">
        <time>2019-03-07T04:32:33Z</time>
      </trkpt>
      <trkpt lat="-31.91886593530869" lon="-71.13404586725781">
        <time>2019-03-07T04:32:33Z</time>
      </trkpt>
      <trkpt lat="-31.91880092606893" lon="-71.13405040603611">
        <time>2019-03-07T04:32:33Z</time>
      </trkpt>
      <trkpt lat="-31.91874074175243" lon="-71.1340629055174">
        <time>2019-03-07T04:32:33Z</time>
      </trkpt>
      <trkpt lat="-31.91869447298242" lon="-71.13407419050648">
        <time>2019-03-07T04:32:33Z</time>
      </trkpt>
      <trkpt lat="-31.91757294577392" lon="-71.13435518633268">
        <time>2019-03-07T04:32:33Z</time>
      </trkpt>
      <trkpt lat="-31.91690261617985" lon="-71.13452581393229">
        <time>2019-03-07T04:32:33Z</time>
      </trkpt>
      <trkpt lat="-31.91652115851084" lon="-71.13459771254696">
        <time>2019-03-07T04:32:33Z</time>
      </trkpt>
      <trkpt lat="-31.91632115503843" lon="-71.13461006368927">
        <time>2019-03-07T04:32:33Z</time>
      </trkpt>
      <trkpt lat="-31.91603831090458" lon="-71.134587733815">
        <time>2019-03-07T04:32:33Z</time>
      </trkpt>
      <trkpt lat="-31.91578102274419" lon="-71.13450551947193">
        <time>2019-03-07T04:32:33Z</time>
      </trkpt>
      <trkpt lat="-31.91442696256123" lon="-71.1336702207532">
        <time>2019-03-07T04:32:33Z</time>
      </trkpt>
      <trkpt lat="-31.91319648642965" lon="-71.13294587968098">
        <time>2019-03-07T04:32:33Z</time>
      </trkpt>
      <trkpt lat="-31.91174186089909" lon="-71.13199863577739">
        <time>2019-03-07T04:32:33Z</time>
      </trkpt>
      <trkpt lat="-31.9116425120299" lon="-71.13196469336121">
        <time>2019-03-07T04:32:33Z</time>
      </trkpt>
      <trkpt lat="-31.91147914785971" lon="-71.13194525848155">
        <time>2019-03-07T04:32:33Z</time>
      </trkpt>
      <trkpt lat="-31.9113508610445" lon="-71.13195721422912">
        <time>2019-03-07T04:32:33Z</time>
      </trkpt>
      <trkpt lat="-31.91112348906815" lon="-71.13203566981299">
        <time>2019-03-07T04:32:33Z</time>
      </trkpt>
      <trkpt lat="-31.91092042188107" lon="-71.13221114937441">
        <time>2019-03-07T04:32:33Z</time>
      </trkpt>
      <trkpt lat="-31.91079348152307" lon="-71.13236776093099">
        <time>2019-03-07T04:32:33Z</time>
      </trkpt>
      <trkpt lat="-31.91067509522894" lon="-71.13258862962915">
        <time>2019-03-07T04:32:33Z</time>
      </trkpt>
      <trkpt lat="-31.91062152417588" lon="-71.13280434902121">
        <time>2019-03-07T04:32:33Z</time>
      </trkpt>
      <trkpt lat="-31.91062451647031" lon="-71.13305130332635">
        <time>2019-03-07T04:32:33Z</time>
      </trkpt>
      <trkpt lat="-31.91062231740924" lon="-71.13312609886715">
        <time>2019-03-07T04:32:33Z</time>
      </trkpt>
      <trkpt lat="-31.91065917848378" lon="-71.13327390882124">
        <time>2019-03-07T04:32:33Z</time>
      </trkpt>
      <trkpt lat="-31.91075095170971" lon="-71.13343783330113">
        <time>2019-03-07T04:32:33Z</time>
      </trkpt>
      <trkpt lat="-31.91089584938342" lon="-71.13361931991558">
        <time>2019-03-07T04:32:33Z</time>
      </trkpt>
      <trkpt lat="-31.9111529610859" lon="-71.1339158294126">
        <time>2019-03-07T04:32:33Z</time>
      </trkpt>
      <trkpt lat="-31.91123308348753" lon="-71.13407368312615">
        <time>2019-03-07T04:32:33Z</time>
      </trkpt>
      <trkpt lat="-31.91130674283578" lon="-71.13427044557318">
        <time>2019-03-07T04:32:33Z</time>
      </trkpt>
      <trkpt lat="-31.9114369756738" lon="-71.13479618595234">
        <time>2019-03-07T04:32:33Z</time>
      </trkpt>
      <trkpt lat="-31.91149085277595" lon="-71.13501191631433">
        <time>2019-03-07T04:32:33Z</time>
      </trkpt>
      <trkpt lat="-31.91156027705404" lon="-71.13517300768673">
        <time>2019-03-07T04:32:33Z</time>
      </trkpt>
      <trkpt lat="-31.91164033995831" lon="-71.13529370470765">
        <time>2019-03-07T04:32:33Z</time>
      </trkpt>
      <trkpt lat="-31.91171624580279" lon="-71.13540072756673">
        <time>2019-03-07T04:32:33Z</time>
      </trkpt>
      <trkpt lat="-31.91185139439477" lon="-71.13554437367876">
        <time>2019-03-07T04:32:33Z</time>
      </trkpt>
      <trkpt lat="-31.91229106316557" lon="-71.13597058618703">
        <time>2019-03-07T04:32:33Z</time>
      </trkpt>
      <trkpt lat="-31.91238860231358" lon="-71.1361012728747">
        <time>2019-03-07T04:32:33Z</time>
      </trkpt>
      <trkpt lat="-31.91247057991275" lon="-71.13624186724925">
        <time>2019-03-07T04:32:33Z</time>
      </trkpt>
      <trkpt lat="-31.91259845274525" lon="-71.13652577982859">
        <time>2019-03-07T04:32:33Z</time>
      </trkpt>
      <trkpt lat="-31.91268165120678" lon="-71.13677456839173">
        <time>2019-03-07T04:32:33Z</time>
      </trkpt>
      <trkpt lat="-31.9127371647428" lon="-71.13688921438583">
        <time>2019-03-07T04:32:33Z</time>
      </trkpt>
      <trkpt lat="-31.91284828222135" lon="-71.13708324810244">
        <time>2019-03-07T04:32:33Z</time>
      </trkpt>
      <trkpt lat="-31.91321353516091" lon="-71.13759351812458">
        <time>2019-03-07T04:32:33Z</time>
      </trkpt>
      <trkpt lat="-31.91325046458097" lon="-71.13763320074311">
        <time>2019-03-07T04:32:33Z</time>
      </trkpt>
      <trkpt lat="-31.91335105545392" lon="-71.13767891051111">
        <time>2019-03-07T04:32:33Z</time>
      </trkpt>
      <trkpt lat="-31.91347489902024" lon="-71.13773731004417">
        <time>2019-03-07T04:32:33Z</time>
      </trkpt>
      <trkpt lat="-31.9135797466603" lon="-71.13779664117122">
        <time>2019-03-07T04:32:33Z</time>
      </trkpt>
      <trkpt lat="-31.91367886734414" lon="-71.13789226151552">
        <time>2019-03-07T04:32:33Z</time>
      </trkpt>
      <trkpt lat="-31.91380956301867" lon="-71.13807774100714">
        <time>2019-03-07T04:32:33Z</time>
      </trkpt>
      <trkpt lat="-31.91389426241213" lon="-71.13824779899174">
        <time>2019-03-07T04:32:33Z</time>
      </trkpt>
      <trkpt lat="-31.9139630970097" lon="-71.13843901397621">
        <time>2019-03-07T04:32:33Z</time>
      </trkpt>
      <trkpt lat="-31.91398622862816" lon="-71.1386183537394">
        <time>2019-03-07T04:32:33Z</time>
      </trkpt>
      <trkpt lat="-31.91397933854227" lon="-71.1387677794733">
        <time>2019-03-07T04:32:33Z</time>
      </trkpt>
      <trkpt lat="-31.91393441117072" lon="-71.13894249844648">
        <time>2019-03-07T04:32:33Z</time>
      </trkpt>
      <trkpt lat="-31.91388777565416" lon="-71.13905964313094">
        <time>2019-03-07T04:32:33Z</time>
      </trkpt>
      <trkpt lat="-31.91379686311316" lon="-71.1391978585774">
        <time>2019-03-07T04:32:33Z</time>
      </trkpt>
      <trkpt lat="-31.91369069022442" lon="-71.13930233849419">
        <time>2019-03-07T04:32:33Z</time>
      </trkpt>
      <trkpt lat="-31.91358281626457" lon="-71.13939030330276">
        <time>2019-03-07T04:32:33Z</time>
      </trkpt>
      <trkpt lat="-31.91339337007029" lon="-71.13950551613462">
        <time>2019-03-07T04:32:33Z</time>
      </trkpt>
      <trkpt lat="-31.91315194552274" lon="-71.13961495617514">
        <time>2019-03-07T04:32:33Z</time>
      </trkpt>
      <trkpt lat="-31.91292458322463" lon="-71.13969744959536">
        <time>2019-03-07T04:32:33Z</time>
      </trkpt>
      <trkpt lat="-31.91271306277523" lon="-71.13981144467172">
        <time>2019-03-07T04:32:33Z</time>
      </trkpt>
      <trkpt lat="-31.91253551178231" lon="-71.13995561691174">
        <time>2019-03-07T04:32:33Z</time>
      </trkpt>
      <trkpt lat="-31.9123394678485" lon="-71.14016368112526">
        <time>2019-03-07T04:32:33Z</time>
      </trkpt>
      <trkpt lat="-31.91224204744698" lon="-71.14031490653828">
        <time>2019-03-07T04:32:33Z</time>
      </trkpt>
      <trkpt lat="-31.91219849774778" lon="-71.1404613063803">
        <time>2019-03-07T04:32:33Z</time>
      </trkpt>
      <trkpt lat="-31.91216084208782" lon="-71.1406677078471">
        <time>2019-03-07T04:32:33Z</time>
      </trkpt>
      <trkpt lat="-31.91208935562252" lon="-71.14107399747454">
        <time>2019-03-07T04:32:33Z</time>
      </trkpt>
      <trkpt lat="-31.91203693967634" lon="-71.14127864441626">
        <time>2019-03-07T04:32:33Z</time>
      </trkpt>
      <trkpt lat="-31.91188534956455" lon="-71.14163598858212">
        <time>2019-03-07T04:32:33Z</time>
      </trkpt>
      <trkpt lat="-31.91176667672494" lon="-71.14183351550757">
        <time>2019-03-07T04:32:33Z</time>
      </trkpt>
      <trkpt lat="-31.91164877921561" lon="-71.14195667644549">
        <time>2019-03-07T04:32:33Z</time>
      </trkpt>
      <trkpt lat="-31.91154086740849" lon="-71.14202312110383">
        <time>2019-03-07T04:32:33Z</time>
      </trkpt>
      <trkpt lat="-31.91142402331109" lon="-71.14207312187411">
        <time>2019-03-07T04:32:33Z</time>
      </trkpt>
      <trkpt lat="-31.91123552590718" lon="-71.142147613186">
        <time>2019-03-07T04:32:33Z</time>
      </trkpt>
      <trkpt lat="-31.91095543169129" lon="-71.14222719153682">
        <time>2019-03-07T04:32:33Z</time>
      </trkpt>
      <trkpt lat="-31.9105749991867" lon="-71.14232526386468">
        <time>2019-03-07T04:32:33Z</time>
      </trkpt>
      <trkpt lat="-31.91027859058385" lon="-71.14242811728602">
        <time>2019-03-07T04:32:33Z</time>
      </trkpt>
      <trkpt lat="-31.9100396646888" lon="-71.14255618284159">
        <time>2019-03-07T04:32:33Z</time>
      </trkpt>
      <trkpt lat="-31.90974771172514" lon="-71.14270435014213">
        <time>2019-03-07T04:32:33Z</time>
      </trkpt>
      <trkpt lat="-31.90948337423778" lon="-71.1427674433054">
        <time>2019-03-07T04:32:33Z</time>
      </trkpt>
      <trkpt lat="-31.90915227118306" lon="-71.14278343853532">
        <time>2019-03-07T04:32:33Z</time>
      </trkpt>
      <trkpt lat="-31.90882598160389" lon="-71.14273994895279">
        <time>2019-03-07T04:32:33Z</time>
      </trkpt>
      <trkpt lat="-31.90853829340355" lon="-71.14267603636714">
        <time>2019-03-07T04:32:33Z</time>
      </trkpt>
      <trkpt lat="-31.90836078972245" lon="-71.14265925427606">
        <time>2019-03-07T04:32:33Z</time>
      </trkpt>
      <trkpt lat="-31.90820127321537" lon="-71.14269552077676">
        <time>2019-03-07T04:32:33Z</time>
      </trkpt>
      <trkpt lat="-31.9080154997295" lon="-71.14276759918927">
        <time>2019-03-07T04:32:33Z</time>
      </trkpt>
      <trkpt lat="-31.90775175834997" lon="-71.14291711244886">
        <time>2019-03-07T04:32:33Z</time>
      </trkpt>
      <trkpt lat="-31.9073706594295" lon="-71.14320540050741">
        <time>2019-03-07T04:32:33Z</time>
      </trkpt>
      <trkpt lat="-31.90701334260602" lon="-71.14343775276201">
        <time>2019-03-07T04:32:33Z</time>
      </trkpt>
      <trkpt lat="-31.90670551972097" lon="-71.14358707629206">
        <time>2019-03-07T04:32:33Z</time>
      </trkpt>
      <trkpt lat="-31.90636456594185" lon="-71.14366889398849">
        <time>2019-03-07T04:32:33Z</time>
      </trkpt>
      <trkpt lat="-31.90610636722587" lon="-71.14370061768378">
        <time>2019-03-07T04:32:33Z</time>
      </trkpt>
      <trkpt lat="-31.90566668827815" lon="-71.14376379606031">
        <time>2019-03-07T04:32:33Z</time>
      </trkpt>
      <trkpt lat="-31.90552240841293" lon="-71.14381414158471">
        <time>2019-03-07T04:32:33Z</time>
      </trkpt>
      <trkpt lat="-31.9053757727028" lon="-71.14390789097874">
        <time>2019-03-07T04:32:33Z</time>
      </trkpt>
      <trkpt lat="-31.90524218221675" lon="-71.14402598141595">
        <time>2019-03-07T04:32:33Z</time>
      </trkpt>
      <trkpt lat="-31.90504730884438" lon="-71.14425286265102">
        <time>2019-03-07T04:32:33Z</time>
      </trkpt>
      <trkpt lat="-31.90495540185007" lon="-71.14440501761138">
        <time>2019-03-07T04:32:33Z</time>
      </trkpt>
      <trkpt lat="-31.90458006631565" lon="-71.14550361421932">
        <time>2019-03-07T04:32:33Z</time>
      </trkpt>
      <trkpt lat="-31.90456348377017" lon="-71.14567955365729">
        <time>2019-03-07T04:32:33Z</time>
      </trkpt>
      <trkpt lat="-31.90457550766547" lon="-71.14619319565706">
        <time>2019-03-07T04:32:33Z</time>
      </trkpt>
      <trkpt lat="-31.90461182691424" lon="-71.14631322578379">
        <time>2019-03-07T04:32:33Z</time>
      </trkpt>
      <trkpt lat="-31.90467328535102" lon="-71.14649981265181">
        <time>2019-03-07T04:32:33Z</time>
      </trkpt>
      <trkpt lat="-31.9047873390007" lon="-71.14669743756816">
        <time>2019-03-07T04:32:33Z</time>
      </trkpt>
      <trkpt lat="-31.90496469235617" lon="-71.14690268792114">
        <time>2019-03-07T04:32:33Z</time>
      </trkpt>
      <trkpt lat="-31.90600083271258" lon="-71.1476846296956">
        <time>2019-03-07T04:32:33Z</time>
      </trkpt>
      <trkpt lat="-31.90696091657304" lon="-71.14837132640936">
        <time>2019-03-07T04:32:33Z</time>
      </trkpt>
      <trkpt lat="-31.90709064005388" lon="-71.1484943592461">
        <time>2019-03-07T04:32:33Z</time>
      </trkpt>
      <trkpt lat="-31.90729195629953" lon="-71.14871898467968">
        <time>2019-03-07T04:32:33Z</time>
      </trkpt>
      <trkpt lat="-31.90741215398343" lon="-71.1489024940439">
        <time>2019-03-07T04:32:33Z</time>
      </trkpt>
      <trkpt lat="-31.90748352181456" lon="-71.14907947407798">
        <time>2019-03-07T04:32:33Z</time>
      </trkpt>
      <trkpt lat="-31.90755059618916" lon="-71.14938749639278">
        <time>2019-03-07T04:32:33Z</time>
      </trkpt>
      <trkpt lat="-31.90756645928181" lon="-71.14958638436508">
        <time>2019-03-07T04:32:33Z</time>
      </trkpt>
      <trkpt lat="-31.90756650403444" lon="-71.14970781131225">
        <time>2019-03-07T04:32:33Z</time>
      </trkpt>
      <trkpt lat="-31.90755182679273" lon="-71.14989265828315">
        <time>2019-03-07T04:32:33Z</time>
      </trkpt>
      <trkpt lat="-31.90751544769245" lon="-71.15002855526213">
        <time>2019-03-07T04:32:33Z</time>
      </trkpt>
      <trkpt lat="-31.90744331233639" lon="-71.15015890229209">
        <time>2019-03-07T04:32:33Z</time>
      </trkpt>
      <trkpt lat="-31.90733081922043" lon="-71.15028989298168">
        <time>2019-03-07T04:32:33Z</time>
      </trkpt>
      <trkpt lat="-31.90723554045137" lon="-71.15039564218249">
        <time>2019-03-07T04:32:33Z</time>
      </trkpt>
      <trkpt lat="-31.90713620072536" lon="-71.15049246567851">
        <time>2019-03-07T04:32:33Z</time>
      </trkpt>
      <trkpt lat="-31.90701584551777" lon="-71.15062370095693">
        <time>2019-03-07T04:32:33Z</time>
      </trkpt>
      <trkpt lat="-31.90691690634858" lon="-71.15072822735733">
        <time>2019-03-07T04:32:33Z</time>
      </trkpt>
      <trkpt lat="-31.90681785993803" lon="-71.15082075745018">
        <time>2019-03-07T04:32:33Z</time>
      </trkpt>
      <trkpt lat="-31.90673435781538" lon="-71.1509142728213">
        <time>2019-03-07T04:32:33Z</time>
      </trkpt>
      <trkpt lat="-31.90665298918707" lon="-71.15100214037068">
        <time>2019-03-07T04:32:33Z</time>
      </trkpt>
      <trkpt lat="-31.90656975577529" lon="-71.15108436665163">
        <time>2019-03-07T04:32:33Z</time>
      </trkpt>
      <trkpt lat="-31.90638948737873" lon="-71.15104691352848">
        <time>2019-03-07T04:32:33Z</time>
      </trkpt>
      <trkpt lat="-31.90617971840761" lon="-71.15100720339606">
        <time>2019-03-07T04:32:33Z</time>
      </trkpt>
      <trkpt lat="-31.90599143225944" lon="-71.15095905079814">
        <time>2019-03-07T04:32:33Z</time>
      </trkpt>
      <trkpt lat="-31.90586434646442" lon="-71.1509245681182">
        <time>2019-03-07T04:32:33Z</time>
      </trkpt>
      <trkpt lat="-31.90574675356197" lon="-71.15089290570866">
        <time>2019-03-07T04:32:33Z</time>
      </trkpt>
      <trkpt lat="-31.90561380304069" lon="-71.15086016396631">
        <time>2019-03-07T04:32:33Z</time>
      </trkpt>
      <trkpt lat="-31.90547760260984" lon="-71.15083997447064">
        <time>2019-03-07T04:32:33Z</time>
      </trkpt>
      <trkpt lat="-31.9053593768795" lon="-71.15082609554976">
        <time>2019-03-07T04:32:33Z</time>
      </trkpt>
      <trkpt lat="-31.90528972355772" lon="-71.15082417076998">
        <time>2019-03-07T04:32:33Z</time>
      </trkpt>
      <trkpt lat="-31.90516873098192" lon="-71.15081753828427">
        <time>2019-03-07T04:32:33Z</time>
      </trkpt>
      <trkpt lat="-31.90507051646921" lon="-71.15081431013451">
        <time>2019-03-07T04:32:33Z</time>
      </trkpt>
      <trkpt lat="-31.90500583077425" lon="-71.15081707234094">
        <time>2019-03-07T04:32:33Z</time>
      </trkpt>
      <trkpt lat="-31.90495111113047" lon="-71.15082245598229">
        <time>2019-03-07T04:32:33Z</time>
      </trkpt>
      <trkpt lat="-31.90491341677478" lon="-71.15082968546984">
        <time>2019-03-07T04:32:33Z</time>
      </trkpt>
      <trkpt lat="-31.90484891793293" lon="-71.15084866305075">
        <time>2019-03-07T04:32:33Z</time>
      </trkpt>
      <trkpt lat="-31.90477632566648" lon="-71.15087193254097">
        <time>2019-03-07T04:32:33Z</time>
      </trkpt>
      <trkpt lat="-31.90471410760657" lon="-71.15089120870938">
        <time>2019-03-07T04:32:33Z</time>
      </trkpt>
      <trkpt lat="-31.9046507222616" lon="-71.15090919770057">
        <time>2019-03-07T04:32:33Z</time>
      </trkpt>
      <trkpt lat="-31.90457561250254" lon="-71.15093575169816">
        <time>2019-03-07T04:32:33Z</time>
      </trkpt>
      <trkpt lat="-31.9045002687761" lon="-71.15095614752835">
        <time>2019-03-07T04:32:33Z</time>
      </trkpt>
      <trkpt lat="-31.90443873292033" lon="-71.15097661840092">
        <time>2019-03-07T04:32:33Z</time>
      </trkpt>
      <trkpt lat="-31.90439512358145" lon="-71.15099362850974">
        <time>2019-03-07T04:32:33Z</time>
      </trkpt>
      <trkpt lat="-31.90432589085585" lon="-71.15101734128797">
        <time>2019-03-07T04:32:33Z</time>
      </trkpt>
      <trkpt lat="-31.90425623382916" lon="-71.15103733161713">
        <time>2019-03-07T04:32:33Z</time>
      </trkpt>
      <trkpt lat="-31.90420844885282" lon="-71.15104977123362">
        <time>2019-03-07T04:32:33Z</time>
      </trkpt>
      <trkpt lat="-31.90413009543656" lon="-71.1510762002146">
        <time>2019-03-07T04:32:33Z</time>
      </trkpt>
      <trkpt lat="-31.90409286778946" lon="-71.15109025466893">
        <time>2019-03-07T04:32:33Z</time>
      </trkpt>
      <trkpt lat="-31.90405605345251" lon="-71.15110381107202">
        <time>2019-03-07T04:32:33Z</time>
      </trkpt>
      <trkpt lat="-31.90401611289233" lon="-71.15111981190972">
        <time>2019-03-07T04:32:33Z</time>
      </trkpt>
      <trkpt lat="-31.90395664019098" lon="-71.15114595068239">
        <time>2019-03-07T04:32:33Z</time>
      </trkpt>
      <trkpt lat="-31.90389514290848" lon="-71.15117798276441">
        <time>2019-03-07T04:32:33Z</time>
      </trkpt>
      <trkpt lat="-31.90384405741908" lon="-71.15120084553207">
        <time>2019-03-07T04:32:33Z</time>
      </trkpt>
      <trkpt lat="-31.90375129282853" lon="-71.15123923482979">
        <time>2019-03-07T04:32:33Z</time>
      </trkpt>
      <trkpt lat="-31.90365490129629" lon="-71.15126514449608">
        <time>2019-03-07T04:32:33Z</time>
      </trkpt>
      <trkpt lat="-31.90357962426852" lon="-71.15128537907167">
        <time>2019-03-07T04:32:33Z</time>
      </trkpt>
      <trkpt lat="-31.90346253658806" lon="-71.15131335867716">
        <time>2019-03-07T04:32:33Z</time>
      </trkpt>
      <trkpt lat="-31.90332069936315" lon="-71.15132639262075">
        <time>2019-03-07T04:32:33Z</time>
      </trkpt>
      <trkpt lat="-31.90305749651371" lon="-71.15135374728145">
        <time>2019-03-07T04:32:33Z</time>
      </trkpt>
      <trkpt lat="-31.9027502330771" lon="-71.15141638135221">
        <time>2019-03-07T04:32:33Z</time>
      </trkpt>
      <trkpt lat="-31.9022904305243" lon="-71.15159209434884">
        <time>2019-03-07T04:32:33Z</time>
      </trkpt>
      <trkpt lat="-31.9020587101397" lon="-71.1516979963039">
        <time>2019-03-07T04:32:33Z</time>
      </trkpt>
      <trkpt lat="-31.90181255364684" lon="-71.15182296167627">
        <time>2019-03-07T04:32:33Z</time>
      </trkpt>
      <trkpt lat="-31.9012635037774" lon="-71.15201410454833">
        <time>2019-03-07T04:32:33Z</time>
      </trkpt>
      <trkpt lat="-31.90087246458651" lon="-71.15223397283292">
        <time>2019-03-07T04:32:33Z</time>
      </trkpt>
      <trkpt lat="-31.90066074895169" lon="-71.15242898719339">
        <time>2019-03-07T04:32:33Z</time>
      </trkpt>
      <trkpt lat="-31.90038633173256" lon="-71.15279132704599">
        <time>2019-03-07T04:32:33Z</time>
      </trkpt>
      <trkpt lat="-31.90010917041876" lon="-71.15329116073883">
        <time>2019-03-07T04:32:33Z</time>
      </trkpt>
      <trkpt lat="-31.899956575172" lon="-71.15360350047573">
        <time>2019-03-07T04:32:33Z</time>
      </trkpt>
      <trkpt lat="-31.89983380055229" lon="-71.15382849054055">
        <time>2019-03-07T04:32:33Z</time>
      </trkpt>
      <trkpt lat="-31.8996388887435" lon="-71.15418069460348">
        <time>2019-03-07T04:32:33Z</time>
      </trkpt>
      <trkpt lat="-31.89928527980505" lon="-71.15471272745833">
        <time>2019-03-07T04:32:33Z</time>
      </trkpt>
      <trkpt lat="-31.89882851107025" lon="-71.15541549140117">
        <time>2019-03-07T04:32:33Z</time>
      </trkpt>
      <trkpt lat="-31.8984398434258" lon="-71.15593266341131">
        <time>2019-03-07T04:32:33Z</time>
      </trkpt>
      <trkpt lat="-31.89808950286801" lon="-71.15650493069728">
        <time>2019-03-07T04:32:33Z</time>
      </trkpt>
      <trkpt lat="-31.89773807333007" lon="-71.15707440271576">
        <time>2019-03-07T04:32:33Z</time>
      </trkpt>
      <trkpt lat="-31.89755934127085" lon="-71.15742173226273">
        <time>2019-03-07T04:32:33Z</time>
      </trkpt>
      <trkpt lat="-31.89744532675854" lon="-71.1577913586803">
        <time>2019-03-07T04:32:33Z</time>
      </trkpt>
      <trkpt lat="-31.89744472423698" lon="-71.15796830936176">
        <time>2019-03-07T04:32:33Z</time>
      </trkpt>
      <trkpt lat="-31.89740493960069" lon="-71.15807737867482">
        <time>2019-03-07T04:32:33Z</time>
      </trkpt>
      <trkpt lat="-31.8973378760412" lon="-71.15818871650311">
        <time>2019-03-07T04:32:33Z</time>
      </trkpt>
      <trkpt lat="-31.89656273837201" lon="-71.15824994804703">
        <time>2019-03-07T04:32:33Z</time>
      </trkpt>
      <trkpt lat="-31.89594135356088" lon="-71.15830873304144">
        <time>2019-03-07T04:32:33Z</time>
      </trkpt>
      <trkpt lat="-31.89540626303169" lon="-71.15840406223377">
        <time>2019-03-07T04:32:33Z</time>
      </trkpt>
      <trkpt lat="-31.89508447446205" lon="-71.15843116891284">
        <time>2019-03-07T04:32:33Z</time>
      </trkpt>
      <trkpt lat="-31.89457731504735" lon="-71.15849763495262">
        <time>2019-03-07T04:32:33Z</time>
      </trkpt>
      <trkpt lat="-31.89409836351559" lon="-71.1585821096395">
        <time>2019-03-07T04:32:33Z</time>
      </trkpt>
      <trkpt lat="-31.89351988418729" lon="-71.15868117783812">
        <time>2019-03-07T04:32:33Z</time>
      </trkpt>
      <trkpt lat="-31.89280511844645" lon="-71.15880453377125">
        <time>2019-03-07T04:32:33Z</time>
      </trkpt>
      <trkpt lat="-31.89227449185981" lon="-71.15887937946928">
        <time>2019-03-07T04:32:33Z</time>
      </trkpt>
      <trkpt lat="-31.89194664857605" lon="-71.15890775216469">
        <time>2019-03-07T04:32:33Z</time>
      </trkpt>
      <trkpt lat="-31.8916971697171" lon="-71.15895167771102">
        <time>2019-03-07T04:32:33Z</time>
      </trkpt>
      <trkpt lat="-31.89136384678718" lon="-71.15899122717472">
        <time>2019-03-07T04:32:33Z</time>
      </trkpt>
      <trkpt lat="-31.89104801143688" lon="-71.15901952476871">
        <time>2019-03-07T04:32:33Z</time>
      </trkpt>
      <trkpt lat="-31.89071941390444" lon="-71.15906778363491">
        <time>2019-03-07T04:32:33Z</time>
      </trkpt>
      <trkpt lat="-31.89015759039796" lon="-71.15913916293657">
        <time>2019-03-07T04:32:33Z</time>
      </trkpt>
      <trkpt lat="-31.88977477470244" lon="-71.15920419086808">
        <time>2019-03-07T04:32:33Z</time>
      </trkpt>
      <trkpt lat="-31.88917565986659" lon="-71.15929895253478">
        <time>2019-03-07T04:32:33Z</time>
      </trkpt>
      <trkpt lat="-31.88876598951228" lon="-71.15935752821625">
        <time>2019-03-07T04:32:33Z</time>
      </trkpt>
      <trkpt lat="-31.88846310159253" lon="-71.15941286854948">
        <time>2019-03-07T04:32:33Z</time>
      </trkpt>
      <trkpt lat="-31.88807709606589" lon="-71.15945883709935">
        <time>2019-03-07T04:32:33Z</time>
      </trkpt>
      <trkpt lat="-31.88785305160674" lon="-71.15950232610233">
        <time>2019-03-07T04:32:33Z</time>
      </trkpt>
      <trkpt lat="-31.88755656571549" lon="-71.15954049797928">
        <time>2019-03-07T04:32:33Z</time>
      </trkpt>
      <trkpt lat="-31.88719961291303" lon="-71.15958387113166">
        <time>2019-03-07T04:32:33Z</time>
      </trkpt>
      <trkpt lat="-31.88692061325443" lon="-71.15962674944767">
        <time>2019-03-07T04:32:33Z</time>
      </trkpt>
      <trkpt lat="-31.88648193223857" lon="-71.15966939271971">
        <time>2019-03-07T04:32:33Z</time>
      </trkpt>
      <trkpt lat="-31.88620793995121" lon="-71.15971390770368">
        <time>2019-03-07T04:32:33Z</time>
      </trkpt>
      <trkpt lat="-31.88602232902641" lon="-71.159625760457">
        <time>2019-03-07T04:32:33Z</time>
      </trkpt>
      <trkpt lat="-31.88578888019321" lon="-71.15949642638016">
        <time>2019-03-07T04:32:33Z</time>
      </trkpt>
      <trkpt lat="-31.88559248484906" lon="-71.1594200406834">
        <time>2019-03-07T04:32:33Z</time>
      </trkpt>
      <trkpt lat="-31.88544097486201" lon="-71.15939786870953">
        <time>2019-03-07T04:32:33Z</time>
      </trkpt>
      <trkpt lat="-31.88522050456424" lon="-71.15938563835226">
        <time>2019-03-07T04:32:33Z</time>
      </trkpt>
      <trkpt lat="-31.88506910500332" lon="-71.1593701966773">
        <time>2019-03-07T04:32:33Z</time>
      </trkpt>
      <trkpt lat="-31.88493440811169" lon="-71.15931443878687">
        <time>2019-03-07T04:32:33Z</time>
      </trkpt>
      <trkpt lat="-31.88478025801775" lon="-71.15923626758078">
        <time>2019-03-07T04:32:33Z</time>
      </trkpt>
      <trkpt lat="-31.8846335723123" lon="-71.15914491838699">
        <time>2019-03-07T04:32:33Z</time>
      </trkpt>
      <trkpt lat="-31.88453655096094" lon="-71.15905631510441">
        <time>2019-03-07T04:32:33Z</time>
      </trkpt>
      <trkpt lat="-31.88441295577928" lon="-71.15892386550883">
        <time>2019-03-07T04:32:33Z</time>
      </trkpt>
      <trkpt lat="-31.88430850123406" lon="-71.15876484193591">
        <time>2019-03-07T04:32:33Z</time>
      </trkpt>
      <trkpt lat="-31.88417606854178" lon="-71.15850428855732">
        <time>2019-03-07T04:32:33Z</time>
      </trkpt>
      <trkpt lat="-31.88409663746851" lon="-71.15831871944921">
        <time>2019-03-07T04:32:33Z</time>
      </trkpt>
      <trkpt lat="-31.88393663798233" lon="-71.15789725664784">
        <time>2019-03-07T04:32:33Z</time>
      </trkpt>
      <trkpt lat="-31.88379541496829" lon="-71.15767502697638">
        <time>2019-03-07T04:32:33Z</time>
      </trkpt>
      <trkpt lat="-31.88365974897803" lon="-71.15750325456865">
        <time>2019-03-07T04:32:33Z</time>
      </trkpt>
      <trkpt lat="-31.88352559802322" lon="-71.15739245600142">
        <time>2019-03-07T04:32:33Z</time>
      </trkpt>
      <trkpt lat="-31.88342750017082" lon="-71.15732529967063">
        <time>2019-03-07T04:32:33Z</time>
      </trkpt>
      <trkpt lat="-31.88316864508961" lon="-71.15718836121833">
        <time>2019-03-07T04:32:33Z</time>
      </trkpt>
      <trkpt lat="-31.88298592966895" lon="-71.15713398352258">
        <time>2019-03-07T04:32:33Z</time>
      </trkpt>
      <trkpt lat="-31.88291058635775" lon="-71.15712538780282">
        <time>2019-03-07T04:32:33Z</time>
      </trkpt>
      <trkpt lat="-31.88262132087481" lon="-71.15714716664485">
        <time>2019-03-07T04:32:33Z</time>
      </trkpt>
      <trkpt lat="-31.88255406824442" lon="-71.15716373492002">
        <time>2019-03-07T04:32:33Z</time>
      </trkpt>
      <trkpt lat="-31.88231901435637" lon="-71.15725080924713">
        <time>2019-03-07T04:32:33Z</time>
      </trkpt>
      <trkpt lat="-31.88201068919798" lon="-71.15740893831047">
        <time>2019-03-07T04:32:33Z</time>
      </trkpt>
      <trkpt lat="-31.88182126377726" lon="-71.15751075688">
        <time>2019-03-07T04:32:33Z</time>
      </trkpt>
      <trkpt lat="-31.88164200313254" lon="-71.15758320983244">
        <time>2019-03-07T04:32:33Z</time>
      </trkpt>
      <trkpt lat="-31.88146137740738" lon="-71.15761758029603">
        <time>2019-03-07T04:32:33Z</time>
      </trkpt>
      <trkpt lat="-31.88106175478366" lon="-71.1576536537353">
        <time>2019-03-07T04:32:33Z</time>
      </trkpt>
      <trkpt lat="-31.87967853274936" lon="-71.15773701401909">
        <time>2019-03-07T04:32:33Z</time>
      </trkpt>
      <trkpt lat="-31.87867907053678" lon="-71.15782157888042">
        <time>2019-03-07T04:32:33Z</time>
      </trkpt>
      <trkpt lat="-31.87849106639183" lon="-71.1578379728826">
        <time>2019-03-07T04:32:33Z</time>
      </trkpt>
      <trkpt lat="-31.87828740840291" lon="-71.15784967464138">
        <time>2019-03-07T04:32:33Z</time>
      </trkpt>
      <trkpt lat="-31.87812141341027" lon="-71.15782935686953">
        <time>2019-03-07T04:32:33Z</time>
      </trkpt>
      <trkpt lat="-31.87726548051315" lon="-71.15764855935528">
        <time>2019-03-07T04:32:33Z</time>
      </trkpt>
      <trkpt lat="-31.87704814482185" lon="-71.15760676950539">
        <time>2019-03-07T04:32:33Z</time>
      </trkpt>
      <trkpt lat="-31.87696559667234" lon="-71.15760195466515">
        <time>2019-03-07T04:32:33Z</time>
      </trkpt>
      <trkpt lat="-31.87684323249576" lon="-71.15761436199459">
        <time>2019-03-07T04:32:33Z</time>
      </trkpt>
      <trkpt lat="-31.87666029839814" lon="-71.15766387746471">
        <time>2019-03-07T04:32:33Z</time>
      </trkpt>
      <trkpt lat="-31.87629457962582" lon="-71.15777000177486">
        <time>2019-03-07T04:32:33Z</time>
      </trkpt>
      <trkpt lat="-31.87622856659264" lon="-71.15779678799468">
        <time>2019-03-07T04:32:33Z</time>
      </trkpt>
      <trkpt lat="-31.87615583905951" lon="-71.15783809863085">
        <time>2019-03-07T04:32:33Z</time>
      </trkpt>
      <trkpt lat="-31.87606036524479" lon="-71.15789287070764">
        <time>2019-03-07T04:32:33Z</time>
      </trkpt>
      <trkpt lat="-31.87573389698329" lon="-71.15799330585341">
        <time>2019-03-07T04:32:33Z</time>
      </trkpt>
      <trkpt lat="-31.87554417117864" lon="-71.15801530782244">
        <time>2019-03-07T04:32:33Z</time>
      </trkpt>
      <trkpt lat="-31.87404978345655" lon="-71.15794799499913">
        <time>2019-03-07T04:32:33Z</time>
      </trkpt>
      <trkpt lat="-31.87381183149391" lon="-71.1579792964626">
        <time>2019-03-07T04:32:33Z</time>
      </trkpt>
      <trkpt lat="-31.87366962892954" lon="-71.15800599889569">
        <time>2019-03-07T04:32:33Z</time>
      </trkpt>
      <trkpt lat="-31.87307142435818" lon="-71.15814542150373">
        <time>2019-03-07T04:32:33Z</time>
      </trkpt>
      <trkpt lat="-31.87255636267615" lon="-71.1582751433732">
        <time>2019-03-07T04:32:33Z</time>
      </trkpt>
      <trkpt lat="-31.87236772276327" lon="-71.15828341944925">
        <time>2019-03-07T04:32:33Z</time>
      </trkpt>
      <trkpt lat="-31.87217914196082" lon="-71.15823494929518">
        <time>2019-03-07T04:32:33Z</time>
      </trkpt>
      <trkpt lat="-31.87207226766756" lon="-71.15818329513922">
        <time>2019-03-07T04:32:33Z</time>
      </trkpt>
      <trkpt lat="-31.87198900146906" lon="-71.15811539940687">
        <time>2019-03-07T04:32:33Z</time>
      </trkpt>
      <trkpt lat="-31.87192537528997" lon="-71.15804614261508">
        <time>2019-03-07T04:32:33Z</time>
      </trkpt>
      <trkpt lat="-31.87187324184895" lon="-71.15798492155267">
        <time>2019-03-07T04:32:33Z</time>
      </trkpt>
      <trkpt lat="-31.87180214115119" lon="-71.15786213970482">
        <time>2019-03-07T04:32:33Z</time>
      </trkpt>
      <trkpt lat="-31.87174419938037" lon="-71.15771354455377">
        <time>2019-03-07T04:32:33Z</time>
      </trkpt>
      <trkpt lat="-31.87171484050886" lon="-71.1575504359753">
        <time>2019-03-07T04:32:33Z</time>
      </trkpt>
      <trkpt lat="-31.8717208686839" lon="-71.15738978375988">
        <time>2019-03-07T04:32:33Z</time>
      </trkpt>
      <trkpt lat="-31.87173339891608" lon="-71.15724583839047">
        <time>2019-03-07T04:32:33Z</time>
      </trkpt>
      <trkpt lat="-31.87175898239902" lon="-71.15713812208622">
        <time>2019-03-07T04:32:33Z</time>
      </trkpt>
      <trkpt lat="-31.8718183820532" lon="-71.15700835705574">
        <time>2019-03-07T04:32:33Z</time>
      </trkpt>
      <trkpt lat="-31.87195824412444" lon="-71.156819203433">
        <time>2019-03-07T04:32:33Z</time>
      </trkpt>
      <trkpt lat="-31.87212258810022" lon="-71.15668842113915">
        <time>2019-03-07T04:32:33Z</time>
      </trkpt>
      <trkpt lat="-31.8722867480091" lon="-71.15656976173884">
        <time>2019-03-07T04:32:33Z</time>
      </trkpt>
      <trkpt lat="-31.87258441235682" lon="-71.15643891384012">
        <time>2019-03-07T04:32:33Z</time>
      </trkpt>
      <trkpt lat="-31.87287407525883" lon="-71.15629113002635">
        <time>2019-03-07T04:32:33Z</time>
      </trkpt>
      <trkpt lat="-31.87294292010088" lon="-71.15622626813681">
        <time>2019-03-07T04:32:33Z</time>
      </trkpt>
      <trkpt lat="-31.87300899859664" lon="-71.15616433031694">
        <time>2019-03-07T04:32:33Z</time>
      </trkpt>
      <trkpt lat="-31.87313772964253" lon="-71.15596676412032">
        <time>2019-03-07T04:32:33Z</time>
      </trkpt>
      <trkpt lat="-31.87320294049827" lon="-71.15582591744236">
        <time>2019-03-07T04:32:33Z</time>
      </trkpt>
      <trkpt lat="-31.87325466183441" lon="-71.15565485254584">
        <time>2019-03-07T04:32:33Z</time>
      </trkpt>
      <trkpt lat="-31.87326482974276" lon="-71.15539643222537">
        <time>2019-03-07T04:32:33Z</time>
      </trkpt>
      <trkpt lat="-31.87323597162249" lon="-71.15521535250664">
        <time>2019-03-07T04:32:33Z</time>
      </trkpt>
      <trkpt lat="-31.87318688151246" lon="-71.15507641125031">
        <time>2019-03-07T04:32:33Z</time>
      </trkpt>
      <trkpt lat="-31.87312161692178" lon="-71.15495724723755">
        <time>2019-03-07T04:32:33Z</time>
      </trkpt>
      <trkpt lat="-31.87306874958966" lon="-71.15487530061587">
        <time>2019-03-07T04:32:33Z</time>
      </trkpt>
      <trkpt lat="-31.87299958475009" lon="-71.15479363032628">
        <time>2019-03-07T04:32:33Z</time>
      </trkpt>
      <trkpt lat="-31.87292390882313" lon="-71.1547201322323">
        <time>2019-03-07T04:32:33Z</time>
      </trkpt>
      <trkpt lat="-31.87264716432455" lon="-71.15455679056721">
        <time>2019-03-07T04:32:33Z</time>
      </trkpt>
      <trkpt lat="-31.87227271226496" lon="-71.1543755330439">
        <time>2019-03-07T04:32:33Z</time>
      </trkpt>
      <trkpt lat="-31.87192811082066" lon="-71.15423391802801">
        <time>2019-03-07T04:32:33Z</time>
      </trkpt>
      <trkpt lat="-31.87173837214817" lon="-71.15421017741201">
        <time>2019-03-07T04:32:33Z</time>
      </trkpt>
      <trkpt lat="-31.87050318704736" lon="-71.15409427193939">
        <time>2019-03-07T04:32:33Z</time>
      </trkpt>
      <trkpt lat="-31.87010257475843" lon="-71.15407377355911">
        <time>2019-03-07T04:32:33Z</time>
      </trkpt>
      <trkpt lat="-31.86969104713936" lon="-71.15402939002885">
        <time>2019-03-07T04:32:33Z</time>
      </trkpt>
      <trkpt lat="-31.86934697873704" lon="-71.15398232825206">
        <time>2019-03-07T04:32:33Z</time>
      </trkpt>
      <trkpt lat="-31.86927144711613" lon="-71.15395635550925">
        <time>2019-03-07T04:32:33Z</time>
      </trkpt>
      <trkpt lat="-31.86915609412217" lon="-71.15389970191392">
        <time>2019-03-07T04:32:33Z</time>
      </trkpt>
      <trkpt lat="-31.8689921926584" lon="-71.15380307202048">
        <time>2019-03-07T04:32:33Z</time>
      </trkpt>
      <trkpt lat="-31.86883736726303" lon="-71.15366349081366">
        <time>2019-03-07T04:32:33Z</time>
      </trkpt>
      <trkpt lat="-31.86869900094581" lon="-71.15350805308889">
        <time>2019-03-07T04:32:33Z</time>
      </trkpt>
      <trkpt lat="-31.86852255217627" lon="-71.15326826200149">
        <time>2019-03-07T04:32:33Z</time>
      </trkpt>
      <trkpt lat="-31.86826261465107" lon="-71.15293393871745">
        <time>2019-03-07T04:32:33Z</time>
      </trkpt>
      <trkpt lat="-31.86808307420055" lon="-71.15276186879386">
        <time>2019-03-07T04:32:33Z</time>
      </trkpt>
      <trkpt lat="-31.86796923445687" lon="-71.15268832205152">
        <time>2019-03-07T04:32:33Z</time>
      </trkpt>
      <trkpt lat="-31.86781462689685" lon="-71.15261705442083">
        <time>2019-03-07T04:32:33Z</time>
      </trkpt>
      <trkpt lat="-31.86740487225496" lon="-71.15255695883023">
        <time>2019-03-07T04:32:33Z</time>
      </trkpt>
      <trkpt lat="-31.86733381675505" lon="-71.15255287520716">
        <time>2019-03-07T04:32:33Z</time>
      </trkpt>
      <trkpt lat="-31.86721679598943" lon="-71.15256432521865">
        <time>2019-03-07T04:32:33Z</time>
      </trkpt>
      <trkpt lat="-31.86712394047878" lon="-71.15259797934988">
        <time>2019-03-07T04:32:33Z</time>
      </trkpt>
      <trkpt lat="-31.86695518082971" lon="-71.15264966809058">
        <time>2019-03-07T04:32:33Z</time>
      </trkpt>
      <trkpt lat="-31.86684159014123" lon="-71.15268735429002">
        <time>2019-03-07T04:32:33Z</time>
      </trkpt>
      <trkpt lat="-31.86642500895415" lon="-71.15277996231436">
        <time>2019-03-07T04:32:33Z</time>
      </trkpt>
      <trkpt lat="-31.86636190164457" lon="-71.15278345983349">
        <time>2019-03-07T04:32:33Z</time>
      </trkpt>
      <trkpt lat="-31.86618560025459" lon="-71.15275627706726">
        <time>2019-03-07T04:32:33Z</time>
      </trkpt>
      <trkpt lat="-31.86575620920699" lon="-71.1526757331508">
        <time>2019-03-07T04:32:33Z</time>
      </trkpt>
      <trkpt lat="-31.86499851712655" lon="-71.1525923720249">
        <time>2019-03-07T04:32:33Z</time>
      </trkpt>
      <trkpt lat="-31.86408276543337" lon="-71.15243724745592">
        <time>2019-03-07T04:32:33Z</time>
      </trkpt>
      <trkpt lat="-31.86325094249234" lon="-71.15230702960058">
        <time>2019-03-07T04:32:33Z</time>
      </trkpt>
      <trkpt lat="-31.86305445890925" lon="-71.15228570685781">
        <time>2019-03-07T04:32:33Z</time>
      </trkpt>
      <trkpt lat="-31.86293818469451" lon="-71.15225917021503">
        <time>2019-03-07T04:32:33Z</time>
      </trkpt>
      <trkpt lat="-31.862650765359" lon="-71.15209978188361">
        <time>2019-03-07T04:32:33Z</time>
      </trkpt>
      <trkpt lat="-31.86248102400565" lon="-71.15196210392958">
        <time>2019-03-07T04:32:33Z</time>
      </trkpt>
      <trkpt lat="-31.86232762447797" lon="-71.15178440650877">
        <time>2019-03-07T04:32:33Z</time>
      </trkpt>
      <trkpt lat="-31.86210820996061" lon="-71.15146442446142">
        <time>2019-03-07T04:32:33Z</time>
      </trkpt>
      <trkpt lat="-31.86192198821049" lon="-71.15120950042036">
        <time>2019-03-07T04:32:33Z</time>
      </trkpt>
      <trkpt lat="-31.86169373490002" lon="-71.15099836490273">
        <time>2019-03-07T04:32:33Z</time>
      </trkpt>
      <trkpt lat="-31.86157864102783" lon="-71.15093908861878">
        <time>2019-03-07T04:32:33Z</time>
      </trkpt>
      <trkpt lat="-31.86136011477937" lon="-71.15085826447306">
        <time>2019-03-07T04:32:33Z</time>
      </trkpt>
      <trkpt lat="-31.8611430956761" lon="-71.15081851626732">
        <time>2019-03-07T04:32:33Z</time>
      </trkpt>
      <trkpt lat="-31.86073274160906" lon="-71.15086047960185">
        <time>2019-03-07T04:32:33Z</time>
      </trkpt>
      <trkpt lat="-31.86052136773414" lon="-71.15093664156365">
        <time>2019-03-07T04:32:33Z</time>
      </trkpt>
      <trkpt lat="-31.86037617116561" lon="-71.15102999482977">
        <time>2019-03-07T04:32:33Z</time>
      </trkpt>
      <trkpt lat="-31.85995532081676" lon="-71.15146119245988">
        <time>2019-03-07T04:32:33Z</time>
      </trkpt>
      <trkpt lat="-31.85982991756084" lon="-71.15158438859581">
        <time>2019-03-07T04:32:33Z</time>
      </trkpt>
      <trkpt lat="-31.85971488266346" lon="-71.15166584973325">
        <time>2019-03-07T04:32:33Z</time>
      </trkpt>
      <trkpt lat="-31.85961896407545" lon="-71.15172507215364">
        <time>2019-03-07T04:32:33Z</time>
      </trkpt>
      <trkpt lat="-31.85938674196541" lon="-71.15181277596648">
        <time>2019-03-07T04:32:33Z</time>
      </trkpt>
      <trkpt lat="-31.85927133653665" lon="-71.15183848143508">
        <time>2019-03-07T04:32:33Z</time>
      </trkpt>
      <trkpt lat="-31.85911269910029" lon="-71.15186149236307">
        <time>2019-03-07T04:32:33Z</time>
      </trkpt>
      <trkpt lat="-31.85894994745845" lon="-71.15186640475996">
        <time>2019-03-07T04:32:33Z</time>
      </trkpt>
      <trkpt lat="-31.85880707947035" lon="-71.15185381499634">
        <time>2019-03-07T04:32:33Z</time>
      </trkpt>
      <trkpt lat="-31.8586205563506" lon="-71.15180244352382">
        <time>2019-03-07T04:32:33Z</time>
      </trkpt>
      <trkpt lat="-31.85847170792728" lon="-71.15173357249809">
        <time>2019-03-07T04:32:33Z</time>
      </trkpt>
      <trkpt lat="-31.85827232833854" lon="-71.15158855247378">
        <time>2019-03-07T04:32:33Z</time>
      </trkpt>
      <trkpt lat="-31.85812791360277" lon="-71.15142224148653">
        <time>2019-03-07T04:32:33Z</time>
      </trkpt>
      <trkpt lat="-31.85807522909721" lon="-71.15135975454467">
        <time>2019-03-07T04:32:33Z</time>
      </trkpt>
      <trkpt lat="-31.85774844986742" lon="-71.15094033243942">
        <time>2019-03-07T04:32:33Z</time>
      </trkpt>
      <trkpt lat="-31.85760464107272" lon="-71.15076837557659">
        <time>2019-03-07T04:32:33Z</time>
      </trkpt>
      <trkpt lat="-31.8574308127383" lon="-71.15063555401933">
        <time>2019-03-07T04:32:33Z</time>
      </trkpt>
      <trkpt lat="-31.85732890416355" lon="-71.1505936922205">
        <time>2019-03-07T04:32:33Z</time>
      </trkpt>
      <trkpt lat="-31.85706386590958" lon="-71.15054395636309">
        <time>2019-03-07T04:32:33Z</time>
      </trkpt>
      <trkpt lat="-31.8568100735071" lon="-71.15053354508662">
        <time>2019-03-07T04:32:33Z</time>
      </trkpt>
      <trkpt lat="-31.85664027575178" lon="-71.15054086020018">
        <time>2019-03-07T04:32:33Z</time>
      </trkpt>
      <trkpt lat="-31.85632791941893" lon="-71.1505533799774">
        <time>2019-03-07T04:32:33Z</time>
      </trkpt>
      <trkpt lat="-31.85608688259809" lon="-71.15054096097572">
        <time>2019-03-07T04:32:33Z</time>
      </trkpt>
      <trkpt lat="-31.85588956680644" lon="-71.15050746887708">
        <time>2019-03-07T04:32:33Z</time>
      </trkpt>
      <trkpt lat="-31.85570018757169" lon="-71.1504286374374">
        <time>2019-03-07T04:32:33Z</time>
      </trkpt>
      <trkpt lat="-31.85558021524931" lon="-71.15036653256178">
        <time>2019-03-07T04:32:33Z</time>
      </trkpt>
      <trkpt lat="-31.85547707996714" lon="-71.15030127039098">
        <time>2019-03-07T04:32:33Z</time>
      </trkpt>
      <trkpt lat="-31.855232302921" lon="-71.15009600618916">
        <time>2019-03-07T04:32:33Z</time>
      </trkpt>
      <trkpt lat="-31.85501492588855" lon="-71.14985946450331">
        <time>2019-03-07T04:32:33Z</time>
      </trkpt>
      <trkpt lat="-31.85417684287062" lon="-71.14902822174287">
        <time>2019-03-07T04:32:33Z</time>
      </trkpt>
      <trkpt lat="-31.85397688414183" lon="-71.14886759706381">
        <time>2019-03-07T04:32:33Z</time>
      </trkpt>
      <trkpt lat="-31.8537998557155" lon="-71.14876671661057">
        <time>2019-03-07T04:32:33Z</time>
      </trkpt>
      <trkpt lat="-31.85369972251051" lon="-71.14872883443219">
        <time>2019-03-07T04:32:33Z</time>
      </trkpt>
      <trkpt lat="-31.85360622230192" lon="-71.1487026184917">
        <time>2019-03-07T04:32:33Z</time>
      </trkpt>
      <trkpt lat="-31.85351854165541" lon="-71.14868873293464">
        <time>2019-03-07T04:32:33Z</time>
      </trkpt>
      <trkpt lat="-31.85343425014811" lon="-71.14868168596277">
        <time>2019-03-07T04:32:33Z</time>
      </trkpt>
      <trkpt lat="-31.85333058501067" lon="-71.14867886856993">
        <time>2019-03-07T04:32:33Z</time>
      </trkpt>
      <trkpt lat="-31.85315629405601" lon="-71.14869206524529">
        <time>2019-03-07T04:32:33Z</time>
      </trkpt>
      <trkpt lat="-31.85136380780713" lon="-71.14893593566768">
        <time>2019-03-07T04:32:33Z</time>
      </trkpt>
      <trkpt lat="-31.8512503307303" lon="-71.14896585031765">
        <time>2019-03-07T04:32:33Z</time>
      </trkpt>
      <trkpt lat="-31.8511072278789" lon="-71.14900127716368">
        <time>2019-03-07T04:32:33Z</time>
      </trkpt>
      <trkpt lat="-31.85101183356093" lon="-71.14903923300902">
        <time>2019-03-07T04:32:33Z</time>
      </trkpt>
      <trkpt lat="-31.85088481434764" lon="-71.14909858845347">
        <time>2019-03-07T04:32:33Z</time>
      </trkpt>
      <trkpt lat="-31.84894075244147" lon="-71.15039171860202">
        <time>2019-03-07T04:32:33Z</time>
      </trkpt>
      <trkpt lat="-31.84757906428178" lon="-71.1512087458074">
        <time>2019-03-07T04:32:33Z</time>
      </trkpt>
      <trkpt lat="-31.84734934235614" lon="-71.15132696890417">
        <time>2019-03-07T04:32:33Z</time>
      </trkpt>
      <trkpt lat="-31.8472221304854" lon="-71.15133440973419">
        <time>2019-03-07T04:32:33Z</time>
      </trkpt>
      <trkpt lat="-31.8470594060077" lon="-71.15130749199027">
        <time>2019-03-07T04:32:33Z</time>
      </trkpt>
      <trkpt lat="-31.84693673416975" lon="-71.15126310559825">
        <time>2019-03-07T04:32:33Z</time>
      </trkpt>
      <trkpt lat="-31.84685751416225" lon="-71.15121521184018">
        <time>2019-03-07T04:32:33Z</time>
      </trkpt>
      <trkpt lat="-31.84673818122419" lon="-71.15111451131372">
        <time>2019-03-07T04:32:33Z</time>
      </trkpt>
      <trkpt lat="-31.84666346864874" lon="-71.1510211904329">
        <time>2019-03-07T04:32:33Z</time>
      </trkpt>
      <trkpt lat="-31.84657539899632" lon="-71.15087089642339">
        <time>2019-03-07T04:32:33Z</time>
      </trkpt>
      <trkpt lat="-31.84654374356471" lon="-71.15077270472106">
        <time>2019-03-07T04:32:33Z</time>
      </trkpt>
      <trkpt lat="-31.84651540115354" lon="-71.15065241315297">
        <time>2019-03-07T04:32:33Z</time>
      </trkpt>
      <trkpt lat="-31.84650502367402" lon="-71.1505459752203">
        <time>2019-03-07T04:32:33Z</time>
      </trkpt>
      <trkpt lat="-31.8465110125844" lon="-71.15043613434489">
        <time>2019-03-07T04:32:33Z</time>
      </trkpt>
      <trkpt lat="-31.84658330536639" lon="-71.15012987287804">
        <time>2019-03-07T04:32:33Z</time>
      </trkpt>
      <trkpt lat="-31.84665135840422" lon="-71.14996324659727">
        <time>2019-03-07T04:32:33Z</time>
      </trkpt>
      <trkpt lat="-31.84676865067908" lon="-71.14976260422033">
        <time>2019-03-07T04:32:33Z</time>
      </trkpt>
      <trkpt lat="-31.84689252514992" lon="-71.14955937992789">
        <time>2019-03-07T04:32:33Z</time>
      </trkpt>
      <trkpt lat="-31.84705814593385" lon="-71.1492599863921">
        <time>2019-03-07T04:32:33Z</time>
      </trkpt>
      <trkpt lat="-31.84718317231048" lon="-71.14895417951239">
        <time>2019-03-07T04:32:33Z</time>
      </trkpt>
      <trkpt lat="-31.84721582750013" lon="-71.1488213832601">
        <time>2019-03-07T04:32:33Z</time>
      </trkpt>
      <trkpt lat="-31.84720687961476" lon="-71.14865670263943">
        <time>2019-03-07T04:32:33Z</time>
      </trkpt>
      <trkpt lat="-31.84716233457247" lon="-71.14849422304069">
        <time>2019-03-07T04:32:33Z</time>
      </trkpt>
      <trkpt lat="-31.84708477214585" lon="-71.14832263964559">
        <time>2019-03-07T04:32:33Z</time>
      </trkpt>
      <trkpt lat="-31.84696148077184" lon="-71.14814083124951">
        <time>2019-03-07T04:32:33Z</time>
      </trkpt>
      <trkpt lat="-31.84676457673673" lon="-71.14797141065895">
        <time>2019-03-07T04:32:33Z</time>
      </trkpt>
      <trkpt lat="-31.84664364921767" lon="-71.14791327473476">
        <time>2019-03-07T04:32:33Z</time>
      </trkpt>
      <trkpt lat="-31.84643631410792" lon="-71.14784514911703">
        <time>2019-03-07T04:32:33Z</time>
      </trkpt>
      <trkpt lat="-31.84628404068663" lon="-71.14781529529533">
        <time>2019-03-07T04:32:33Z</time>
      </trkpt>
      <trkpt lat="-31.8461504316566" lon="-71.14779889422869">
        <time>2019-03-07T04:32:33Z</time>
      </trkpt>
      <trkpt lat="-31.84602670106501" lon="-71.14781359658024">
        <time>2019-03-07T04:32:33Z</time>
      </trkpt>
      <trkpt lat="-31.84566666327349" lon="-71.14788244470719">
        <time>2019-03-07T04:32:33Z</time>
      </trkpt>
      <trkpt lat="-31.84558067478488" lon="-71.14791641375884">
        <time>2019-03-07T04:32:33Z</time>
      </trkpt>
      <trkpt lat="-31.84549004401051" lon="-71.14796678581989">
        <time>2019-03-07T04:32:33Z</time>
      </trkpt>
      <trkpt lat="-31.84541982970332" lon="-71.14801183745124">
        <time>2019-03-07T04:32:33Z</time>
      </trkpt>
      <trkpt lat="-31.84510219855941" lon="-71.14830082091231">
        <time>2019-03-07T04:32:33Z</time>
      </trkpt>
      <trkpt lat="-31.84499012830284" lon="-71.14845064742498">
        <time>2019-03-07T04:32:33Z</time>
      </trkpt>
      <trkpt lat="-31.84488250036374" lon="-71.14861520854942">
        <time>2019-03-07T04:32:33Z</time>
      </trkpt>
      <trkpt lat="-31.84436525872286" lon="-71.1495459450546">
        <time>2019-03-07T04:32:33Z</time>
      </trkpt>
      <trkpt lat="-31.84418315826342" lon="-71.14979184156371">
        <time>2019-03-07T04:32:33Z</time>
      </trkpt>
      <trkpt lat="-31.84413125751679" lon="-71.14983882049411">
        <time>2019-03-07T04:32:33Z</time>
      </trkpt>
      <trkpt lat="-31.84397504910927" lon="-71.14996513175564">
        <time>2019-03-07T04:32:33Z</time>
      </trkpt>
      <trkpt lat="-31.84381291596856" lon="-71.15006312557433">
        <time>2019-03-07T04:32:33Z</time>
      </trkpt>
      <trkpt lat="-31.84370488533385" lon="-71.15009947955144">
        <time>2019-03-07T04:32:33Z</time>
      </trkpt>
      <trkpt lat="-31.84356263080339" lon="-71.15014588439803">
        <time>2019-03-07T04:32:33Z</time>
      </trkpt>
      <trkpt lat="-31.8433934568406" lon="-71.15017062287456">
        <time>2019-03-07T04:32:33Z</time>
      </trkpt>
      <trkpt lat="-31.84316151368413" lon="-71.15016219759313">
        <time>2019-03-07T04:32:33Z</time>
      </trkpt>
      <trkpt lat="-31.84295970124841" lon="-71.15010705677082">
        <time>2019-03-07T04:32:33Z</time>
      </trkpt>
      <trkpt lat="-31.84279607036105" lon="-71.15004612202716">
        <time>2019-03-07T04:32:33Z</time>
      </trkpt>
      <trkpt lat="-31.84273343359124" lon="-71.15001254547805">
        <time>2019-03-07T04:32:33Z</time>
      </trkpt>
      <trkpt lat="-31.84254256443744" lon="-71.14983499613099">
        <time>2019-03-07T04:32:33Z</time>
      </trkpt>
      <trkpt lat="-31.84204808559641" lon="-71.14927985293014">
        <time>2019-03-07T04:32:33Z</time>
      </trkpt>
      <trkpt lat="-31.84185667485676" lon="-71.14910590784842">
        <time>2019-03-07T04:32:33Z</time>
      </trkpt>
      <trkpt lat="-31.8417328886051" lon="-71.14901370235322">
        <time>2019-03-07T04:32:33Z</time>
      </trkpt>
      <trkpt lat="-31.84157475904538" lon="-71.14894422398996">
        <time>2019-03-07T04:32:33Z</time>
      </trkpt>
      <trkpt lat="-31.84142390000202" lon="-71.14889337586645">
        <time>2019-03-07T04:32:33Z</time>
      </trkpt>
      <trkpt lat="-31.84117215905925" lon="-71.14885989724634">
        <time>2019-03-07T04:32:33Z</time>
      </trkpt>
      <trkpt lat="-31.84098182778104" lon="-71.14885544153913">
        <time>2019-03-07T04:32:33Z</time>
      </trkpt>
      <trkpt lat="-31.84082033338296" lon="-71.14886869091399">
        <time>2019-03-07T04:32:33Z</time>
      </trkpt>
      <trkpt lat="-31.83922090524449" lon="-71.14904700949887">
        <time>2019-03-07T04:32:33Z</time>
      </trkpt>
      <trkpt lat="-31.83887574238041" lon="-71.14907190870892">
        <time>2019-03-07T04:32:33Z</time>
      </trkpt>
      <trkpt lat="-31.83872615553496" lon="-71.14906745642691">
        <time>2019-03-07T04:32:33Z</time>
      </trkpt>
      <trkpt lat="-31.83847691973892" lon="-71.14903770018709">
        <time>2019-03-07T04:32:33Z</time>
      </trkpt>
      <trkpt lat="-31.83785688678578" lon="-71.14886819853116">
        <time>2019-03-07T04:32:33Z</time>
      </trkpt>
      <trkpt lat="-31.8360127565278" lon="-71.14809533717087">
        <time>2019-03-07T04:32:33Z</time>
      </trkpt>
      <trkpt lat="-31.83572751670595" lon="-71.14797246138785">
        <time>2019-03-07T04:32:33Z</time>
      </trkpt>
      <trkpt lat="-31.83527804444089" lon="-71.14780483282506">
        <time>2019-03-07T04:32:33Z</time>
      </trkpt>
      <trkpt lat="-31.8351312217234" lon="-71.14777502564115">
        <time>2019-03-07T04:32:33Z</time>
      </trkpt>
      <trkpt lat="-31.834917430725" lon="-71.14775640208407">
        <time>2019-03-07T04:32:33Z</time>
      </trkpt>
      <trkpt lat="-31.83473188130601" lon="-71.14776597868119">
        <time>2019-03-07T04:32:33Z</time>
      </trkpt>
      <trkpt lat="-31.83454425439552" lon="-71.14779499556281">
        <time>2019-03-07T04:32:33Z</time>
      </trkpt>
      <trkpt lat="-31.83430266140336" lon="-71.14788750387055">
        <time>2019-03-07T04:32:33Z</time>
      </trkpt>
      <trkpt lat="-31.83383134038335" lon="-71.14810379458875">
        <time>2019-03-07T04:32:33Z</time>
      </trkpt>
      <trkpt lat="-31.83325939518429" lon="-71.14836923860202">
        <time>2019-03-07T04:32:33Z</time>
      </trkpt>
      <trkpt lat="-31.833132739043" lon="-71.14843476353413">
        <time>2019-03-07T04:32:33Z</time>
      </trkpt>
      <trkpt lat="-31.83208702052611" lon="-71.14890865474818">
        <time>2019-03-07T04:32:33Z</time>
      </trkpt>
      <trkpt lat="-31.83173732016043" lon="-71.14908405211787">
        <time>2019-03-07T04:32:33Z</time>
      </trkpt>
      <trkpt lat="-31.8295336307416" lon="-71.15009496956063">
        <time>2019-03-07T04:32:33Z</time>
      </trkpt>
      <trkpt lat="-31.82913950940776" lon="-71.1502785108645">
        <time>2019-03-07T04:32:33Z</time>
      </trkpt>
      <trkpt lat="-31.82876241974023" lon="-71.15049002245813">
        <time>2019-03-07T04:32:33Z</time>
      </trkpt>
      <trkpt lat="-31.82844333736271" lon="-71.15071280485034">
        <time>2019-03-07T04:32:33Z</time>
      </trkpt>
      <trkpt lat="-31.82814960419984" lon="-71.1509431802716">
        <time>2019-03-07T04:32:33Z</time>
      </trkpt>
      <trkpt lat="-31.82767384288414" lon="-71.15136009790975">
        <time>2019-03-07T04:32:33Z</time>
      </trkpt>
      <trkpt lat="-31.82742607538647" lon="-71.15159560963575">
        <time>2019-03-07T04:32:33Z</time>
      </trkpt>
      <trkpt lat="-31.82719163602453" lon="-71.15185780178321">
        <time>2019-03-07T04:32:33Z</time>
      </trkpt>
      <trkpt lat="-31.82696820602571" lon="-71.15213904215543">
        <time>2019-03-07T04:32:33Z</time>
      </trkpt>
      <trkpt lat="-31.82657427553416" lon="-71.15268407629435">
        <time>2019-03-07T04:32:33Z</time>
      </trkpt>
      <trkpt lat="-31.82633960796372" lon="-71.15304831179587">
        <time>2019-03-07T04:32:33Z</time>
      </trkpt>
      <trkpt lat="-31.8261013522386" lon="-71.15344812922868">
        <time>2019-03-07T04:32:33Z</time>
      </trkpt>
      <trkpt lat="-31.82591039058039" lon="-71.15380755652568">
        <time>2019-03-07T04:32:33Z</time>
      </trkpt>
      <trkpt lat="-31.82580648963835" lon="-71.15402925431785">
        <time>2019-03-07T04:32:33Z</time>
      </trkpt>
      <trkpt lat="-31.82456285602364" lon="-71.15707659275503">
        <time>2019-03-07T04:32:33Z</time>
      </trkpt>
      <trkpt lat="-31.82341817813137" lon="-71.15986906634052">
        <time>2019-03-07T04:32:33Z</time>
      </trkpt>
      <trkpt lat="-31.82320043784101" lon="-71.16042973783375">
        <time>2019-03-07T04:32:33Z</time>
      </trkpt>
      <trkpt lat="-31.82315042739485" lon="-71.16057015468424">
        <time>2019-03-07T04:32:33Z</time>
      </trkpt>
      <trkpt lat="-31.82313540787439" lon="-71.16062507852605">
        <time>2019-03-07T04:32:33Z</time>
      </trkpt>
      <trkpt lat="-31.82310012907275" lon="-71.16079460428419">
        <time>2019-03-07T04:32:33Z</time>
      </trkpt>
      <trkpt lat="-31.82306213094205" lon="-71.16107212261827">
        <time>2019-03-07T04:32:33Z</time>
      </trkpt>
      <trkpt lat="-31.8230568825895" lon="-71.16112760448991">
        <time>2019-03-07T04:32:33Z</time>
      </trkpt>
      <trkpt lat="-31.82304709379141" lon="-71.1614949808685">
        <time>2019-03-07T04:32:33Z</time>
      </trkpt>
      <trkpt lat="-31.82306313124303" lon="-71.16217188524539">
        <time>2019-03-07T04:32:33Z</time>
      </trkpt>
      <trkpt lat="-31.82306598894403" lon="-71.16258910156071">
        <time>2019-03-07T04:32:33Z</time>
      </trkpt>
      <trkpt lat="-31.82306223984165" lon="-71.16266990625344">
        <time>2019-03-07T04:32:33Z</time>
      </trkpt>
      <trkpt lat="-31.82305462311109" lon="-71.16273996622866">
        <time>2019-03-07T04:32:33Z</time>
      </trkpt>
      <trkpt lat="-31.8230389359622" lon="-71.16281544322789">
        <time>2019-03-07T04:32:33Z</time>
      </trkpt>
      <trkpt lat="-31.82299528480604" lon="-71.16294660895073">
        <time>2019-03-07T04:32:33Z</time>
      </trkpt>
      <trkpt lat="-31.82292113174049" lon="-71.16309460470286">
        <time>2019-03-07T04:32:33Z</time>
      </trkpt>
      <trkpt lat="-31.82286556862788" lon="-71.16318638068452">
        <time>2019-03-07T04:32:33Z</time>
      </trkpt>
      <trkpt lat="-31.82276206973073" lon="-71.16330672818924">
        <time>2019-03-07T04:32:33Z</time>
      </trkpt>
      <trkpt lat="-31.8225675171069" lon="-71.1634682088264">
        <time>2019-03-07T04:32:33Z</time>
      </trkpt>
      <trkpt lat="-31.82252292831656" lon="-71.1634958630833">
        <time>2019-03-07T04:32:33Z</time>
      </trkpt>
      <trkpt lat="-31.82240589834006" lon="-71.1635378039131">
        <time>2019-03-07T04:32:33Z</time>
      </trkpt>
      <trkpt lat="-31.82234847296487" lon="-71.16355318631135">
        <time>2019-03-07T04:32:33Z</time>
      </trkpt>
      <trkpt lat="-31.822233737365" lon="-71.1635623053342">
        <time>2019-03-07T04:32:33Z</time>
      </trkpt>
      <trkpt lat="-31.82164126488144" lon="-71.16356552865082">
        <time>2019-03-07T04:32:33Z</time>
      </trkpt>
      <trkpt lat="-31.82065932840637" lon="-71.16357768030279">
        <time>2019-03-07T04:32:33Z</time>
      </trkpt>
      <trkpt lat="-31.82000587339246" lon="-71.16358583249883">
        <time>2019-03-07T04:32:33Z</time>
      </trkpt>
      <trkpt lat="-31.81977609977549" lon="-71.16357958520317">
        <time>2019-03-07T04:32:33Z</time>
      </trkpt>
      <trkpt lat="-31.81969482996888" lon="-71.16356064509937">
        <time>2019-03-07T04:32:33Z</time>
      </trkpt>
      <trkpt lat="-31.81956257187803" lon="-71.16353362957537">
        <time>2019-03-07T04:32:33Z</time>
      </trkpt>
      <trkpt lat="-31.81924056269647" lon="-71.1634330616258">
        <time>2019-03-07T04:32:33Z</time>
      </trkpt>
      <trkpt lat="-31.81759081076831" lon="-71.16282444728225">
        <time>2019-03-07T04:32:33Z</time>
      </trkpt>
      <trkpt lat="-31.81750776558246" lon="-71.16279040833803">
        <time>2019-03-07T04:32:33Z</time>
      </trkpt>
      <trkpt lat="-31.81731701118282" lon="-71.16270513822425">
        <time>2019-03-07T04:32:33Z</time>
      </trkpt>
      <trkpt lat="-31.81724939144727" lon="-71.16266301072432">
        <time>2019-03-07T04:32:33Z</time>
      </trkpt>
      <trkpt lat="-31.8171823380164" lon="-71.16262326890539">
        <time>2019-03-07T04:32:33Z</time>
      </trkpt>
      <trkpt lat="-31.81712605142152" lon="-71.1625779576319">
        <time>2019-03-07T04:32:33Z</time>
      </trkpt>
      <trkpt lat="-31.81664135979088" lon="-71.16209684076463">
        <time>2019-03-07T04:32:33Z</time>
      </trkpt>
      <trkpt lat="-31.81595510395692" lon="-71.16144036082183">
        <time>2019-03-07T04:32:33Z</time>
      </trkpt>
      <trkpt lat="-31.8158303041241" lon="-71.16134046057644">
        <time>2019-03-07T04:32:33Z</time>
      </trkpt>
      <trkpt lat="-31.81566807942551" lon="-71.16120678270714">
        <time>2019-03-07T04:32:33Z</time>
      </trkpt>
      <trkpt lat="-31.81555490238961" lon="-71.16112022081542">
        <time>2019-03-07T04:32:33Z</time>
      </trkpt>
      <trkpt lat="-31.81541565298551" lon="-71.16103501135014">
        <time>2019-03-07T04:32:33Z</time>
      </trkpt>
      <trkpt lat="-31.81526819807898" lon="-71.16096041175898">
        <time>2019-03-07T04:32:33Z</time>
      </trkpt>
      <trkpt lat="-31.81511471151944" lon="-71.16091139938807">
        <time>2019-03-07T04:32:33Z</time>
      </trkpt>
      <trkpt lat="-31.81483433819502" lon="-71.16085081346832">
        <time>2019-03-07T04:32:33Z</time>
      </trkpt>
      <trkpt lat="-31.81464685829718" lon="-71.16082991482104">
        <time>2019-03-07T04:32:33Z</time>
      </trkpt>
      <trkpt lat="-31.8143159477825" lon="-71.16080259528434">
        <time>2019-03-07T04:32:33Z</time>
      </trkpt>
      <trkpt lat="-31.81269134040915" lon="-71.16068240604835">
        <time>2019-03-07T04:32:33Z</time>
      </trkpt>
      <trkpt lat="-31.81123963470529" lon="-71.16059408286164">
        <time>2019-03-07T04:32:33Z</time>
      </trkpt>
      <trkpt lat="-31.81101242248401" lon="-71.16056882150429">
        <time>2019-03-07T04:32:33Z</time>
      </trkpt>
      <trkpt lat="-31.81090067785736" lon="-71.16055644050437">
        <time>2019-03-07T04:32:33Z</time>
      </trkpt>
      <trkpt lat="-31.81078141355357" lon="-71.16052560579037">
        <time>2019-03-07T04:32:33Z</time>
      </trkpt>
      <trkpt lat="-31.81068896542308" lon="-71.16048892348863">
        <time>2019-03-07T04:32:33Z</time>
      </trkpt>
      <trkpt lat="-31.81061592938814" lon="-71.16045932007927">
        <time>2019-03-07T04:32:33Z</time>
      </trkpt>
      <trkpt lat="-31.8104955031618" lon="-71.16040727926236">
        <time>2019-03-07T04:32:33Z</time>
      </trkpt>
      <trkpt lat="-31.81036077030412" lon="-71.16033265482709">
        <time>2019-03-07T04:32:33Z</time>
      </trkpt>
      <trkpt lat="-31.81030364267676" lon="-71.16029611492959">
        <time>2019-03-07T04:32:33Z</time>
      </trkpt>
      <trkpt lat="-31.80905613005077" lon="-71.15938213677534">
        <time>2019-03-07T04:32:33Z</time>
      </trkpt>
      <trkpt lat="-31.80855629290732" lon="-71.15900134622348">
        <time>2019-03-07T04:32:33Z</time>
      </trkpt>
      <trkpt lat="-31.80841693225665" lon="-71.15890454116968">
        <time>2019-03-07T04:32:33Z</time>
      </trkpt>
      <trkpt lat="-31.80833178988377" lon="-71.1588570008749">
        <time>2019-03-07T04:32:33Z</time>
      </trkpt>
      <trkpt lat="-31.8082468523777" lon="-71.15882035179507">
        <time>2019-03-07T04:32:33Z</time>
      </trkpt>
      <trkpt lat="-31.80813078188924" lon="-71.15878532422815">
        <time>2019-03-07T04:32:33Z</time>
      </trkpt>
      <trkpt lat="-31.80789419791378" lon="-71.15872218226366">
        <time>2019-03-07T04:32:33Z</time>
      </trkpt>
      <trkpt lat="-31.80783433089666" lon="-71.15871415687104">
        <time>2019-03-07T04:32:33Z</time>
      </trkpt>
      <trkpt lat="-31.80738598411606" lon="-71.15867090272424">
        <time>2019-03-07T04:32:33Z</time>
      </trkpt>
      <trkpt lat="-31.80599090108326" lon="-71.15856471737618">
        <time>2019-03-07T04:32:33Z</time>
      </trkpt>
      <trkpt lat="-31.80467616502506" lon="-71.15845627952932">
        <time>2019-03-07T04:32:33Z</time>
      </trkpt>
      <trkpt lat="-31.80438898718474" lon="-71.15841739374567">
        <time>2019-03-07T04:32:33Z</time>
      </trkpt>
      <trkpt lat="-31.80432514445057" lon="-71.15840740992373">
        <time>2019-03-07T04:32:33Z</time>
      </trkpt>
      <trkpt lat="-31.80419663019103" lon="-71.15836674506227">
        <time>2019-03-07T04:32:33Z</time>
      </trkpt>
      <trkpt lat="-31.80411925416874" lon="-71.15833622714784">
        <time>2019-03-07T04:32:33Z</time>
      </trkpt>
      <trkpt lat="-31.80401696039218" lon="-71.15827752007246">
        <time>2019-03-07T04:32:33Z</time>
      </trkpt>
      <trkpt lat="-31.80384117205701" lon="-71.15814645084068">
        <time>2019-03-07T04:32:33Z</time>
      </trkpt>
      <trkpt lat="-31.80363736948079" lon="-71.157981320053">
        <time>2019-03-07T04:32:33Z</time>
      </trkpt>
      <trkpt lat="-31.80355459729864" lon="-71.15790657350364">
        <time>2019-03-07T04:32:33Z</time>
      </trkpt>
      <trkpt lat="-31.80342553081305" lon="-71.15775937630649">
        <time>2019-03-07T04:32:33Z</time>
      </trkpt>
      <trkpt lat="-31.80287671738432" lon="-71.15697564902344">
        <time>2019-03-07T04:32:33Z</time>
      </trkpt>
      <trkpt lat="-31.8025670509126" lon="-71.1565270927762">
        <time>2019-03-07T04:32:33Z</time>
      </trkpt>
      <trkpt lat="-31.80244013099951" lon="-71.1563975913115">
        <time>2019-03-07T04:32:33Z</time>
      </trkpt>
      <trkpt lat="-31.80231326808153" lon="-71.15630721688358">
        <time>2019-03-07T04:32:33Z</time>
      </trkpt>
      <trkpt lat="-31.80217258477389" lon="-71.15623243855268">
        <time>2019-03-07T04:32:33Z</time>
      </trkpt>
      <trkpt lat="-31.80211740631097" lon="-71.15621679048047">
        <time>2019-03-07T04:32:33Z</time>
      </trkpt>
      <trkpt lat="-31.80200253713196" lon="-71.15619845107803">
        <time>2019-03-07T04:32:33Z</time>
      </trkpt>
      <trkpt lat="-31.80186647769719" lon="-71.15620120656922">
        <time>2019-03-07T04:32:33Z</time>
      </trkpt>
      <trkpt lat="-31.80110309943686" lon="-71.15627922235356">
        <time>2019-03-07T04:32:33Z</time>
      </trkpt>
      <trkpt lat="-31.79946895579949" lon="-71.15644133961534">
        <time>2019-03-07T04:32:33Z</time>
      </trkpt>
      <trkpt lat="-31.79896416605272" lon="-71.15648084800516">
        <time>2019-03-07T04:32:33Z</time>
      </trkpt>
      <trkpt lat="-31.79886003221898" lon="-71.15648276818543">
        <time>2019-03-07T04:32:33Z</time>
      </trkpt>
      <trkpt lat="-31.79868538380998" lon="-71.15647613206006">
        <time>2019-03-07T04:32:33Z</time>
      </trkpt>
      <trkpt lat="-31.79849794984794" lon="-71.1564485854985">
        <time>2019-03-07T04:32:33Z</time>
      </trkpt>
      <trkpt lat="-31.79762068705657" lon="-71.15626697775986">
        <time>2019-03-07T04:32:33Z</time>
      </trkpt>
      <trkpt lat="-31.79753511985933" lon="-71.15624742146147">
        <time>2019-03-07T04:32:33Z</time>
      </trkpt>
      <trkpt lat="-31.79733294358514" lon="-71.15617730837343">
        <time>2019-03-07T04:32:33Z</time>
      </trkpt>
      <trkpt lat="-31.79716132485951" lon="-71.15610017056579">
        <time>2019-03-07T04:32:33Z</time>
      </trkpt>
      <trkpt lat="-31.79648635225336" lon="-71.15573466992139">
        <time>2019-03-07T04:32:33Z</time>
      </trkpt>
      <trkpt lat="-31.79601774255409" lon="-71.15540848601799">
        <time>2019-03-07T04:32:33Z</time>
      </trkpt>
      <trkpt lat="-31.79581944621523" lon="-71.1552555626142">
        <time>2019-03-07T04:32:33Z</time>
      </trkpt>
      <trkpt lat="-31.79521441629363" lon="-71.15477376191485">
        <time>2019-03-07T04:32:33Z</time>
      </trkpt>
      <trkpt lat="-31.79495808072841" lon="-71.15458925498471">
        <time>2019-03-07T04:32:33Z</time>
      </trkpt>
      <trkpt lat="-31.79482858509945" lon="-71.15450889412614">
        <time>2019-03-07T04:32:33Z</time>
      </trkpt>
      <trkpt lat="-31.79466300206407" lon="-71.15443429984815">
        <time>2019-03-07T04:32:33Z</time>
      </trkpt>
      <trkpt lat="-31.79433858959127" lon="-71.15434364865307">
        <time>2019-03-07T04:32:33Z</time>
      </trkpt>
      <trkpt lat="-31.79417181826753" lon="-71.15431007872913">
        <time>2019-03-07T04:32:33Z</time>
      </trkpt>
      <trkpt lat="-31.79401859185768" lon="-71.15429913270104">
        <time>2019-03-07T04:32:33Z</time>
      </trkpt>
      <trkpt lat="-31.79369014017093" lon="-71.15429742999653">
        <time>2019-03-07T04:32:33Z</time>
      </trkpt>
      <trkpt lat="-31.79315862197432" lon="-71.15436255874926">
        <time>2019-03-07T04:32:33Z</time>
      </trkpt>
      <trkpt lat="-31.79260682325832" lon="-71.15445146800219">
        <time>2019-03-07T04:32:33Z</time>
      </trkpt>
      <trkpt lat="-31.79220403390952" lon="-71.15451852248161">
        <time>2019-03-07T04:32:33Z</time>
      </trkpt>
      <trkpt lat="-31.79155373914108" lon="-71.15461827278978">
        <time>2019-03-07T04:32:33Z</time>
      </trkpt>
      <trkpt lat="-31.79113277488315" lon="-71.15469532872123">
        <time>2019-03-07T04:32:33Z</time>
      </trkpt>
      <trkpt lat="-31.79054541769815" lon="-71.15478387280658">
        <time>2019-03-07T04:32:33Z</time>
      </trkpt>
      <trkpt lat="-31.78991445565244" lon="-71.1548762887938">
        <time>2019-03-07T04:32:33Z</time>
      </trkpt>
      <trkpt lat="-31.78955685637277" lon="-71.15493762850349">
        <time>2019-03-07T04:32:33Z</time>
      </trkpt>
      <trkpt lat="-31.78881761867386" lon="-71.15505767912521">
        <time>2019-03-07T04:32:33Z</time>
      </trkpt>
      <trkpt lat="-31.78867243279845" lon="-71.15508341953772">
        <time>2019-03-07T04:32:33Z</time>
      </trkpt>
      <trkpt lat="-31.78802775640698" lon="-71.15518599714402">
        <time>2019-03-07T04:32:33Z</time>
      </trkpt>
      <trkpt lat="-31.7877370694115" lon="-71.15523582166246">
        <time>2019-03-07T04:32:33Z</time>
      </trkpt>
      <trkpt lat="-31.78687945473988" lon="-71.15537816959314">
        <time>2019-03-07T04:32:33Z</time>
      </trkpt>
      <trkpt lat="-31.78609170290655" lon="-71.15550277589288">
        <time>2019-03-07T04:32:33Z</time>
      </trkpt>
      <trkpt lat="-31.78586961916904" lon="-71.15554087342608">
        <time>2019-03-07T04:32:33Z</time>
      </trkpt>
      <trkpt lat="-31.78499937539786" lon="-71.15567469923151">
        <time>2019-03-07T04:32:33Z</time>
      </trkpt>
      <trkpt lat="-31.78450569282271" lon="-71.15576023446501">
        <time>2019-03-07T04:32:33Z</time>
      </trkpt>
      <trkpt lat="-31.78394818208708" lon="-71.15585996058917">
        <time>2019-03-07T04:32:33Z</time>
      </trkpt>
      <trkpt lat="-31.78292135437941" lon="-71.15602378099284">
        <time>2019-03-07T04:32:33Z</time>
      </trkpt>
      <trkpt lat="-31.78185891823977" lon="-71.15617153559684">
        <time>2019-03-07T04:32:33Z</time>
      </trkpt>
      <trkpt lat="-31.78152248248707" lon="-71.15623735936288">
        <time>2019-03-07T04:32:33Z</time>
      </trkpt>
      <trkpt lat="-31.78137088710217" lon="-71.15626901870732">
        <time>2019-03-07T04:32:33Z</time>
      </trkpt>
      <trkpt lat="-31.78118399190042" lon="-71.15633263682489">
        <time>2019-03-07T04:32:33Z</time>
      </trkpt>
      <trkpt lat="-31.78107816558373" lon="-71.15638715224192">
        <time>2019-03-07T04:32:33Z</time>
      </trkpt>
      <trkpt lat="-31.78095521481603" lon="-71.15645525000774">
        <time>2019-03-07T04:32:33Z</time>
      </trkpt>
      <trkpt lat="-31.78006623780608" lon="-71.15726576505082">
        <time>2019-03-07T04:32:33Z</time>
      </trkpt>
      <trkpt lat="-31.77973176362378" lon="-71.15758961611498">
        <time>2019-03-07T04:32:33Z</time>
      </trkpt>
      <trkpt lat="-31.77961783940657" lon="-71.15768519551986">
        <time>2019-03-07T04:32:33Z</time>
      </trkpt>
      <trkpt lat="-31.77952712387982" lon="-71.15774224157578">
        <time>2019-03-07T04:32:33Z</time>
      </trkpt>
      <trkpt lat="-31.7793603204281" lon="-71.15780779936408">
        <time>2019-03-07T04:32:33Z</time>
      </trkpt>
      <trkpt lat="-31.77917408021234" lon="-71.15785520168727">
        <time>2019-03-07T04:32:33Z</time>
      </trkpt>
      <trkpt lat="-31.77892361189507" lon="-71.15788143416727">
        <time>2019-03-07T04:32:33Z</time>
      </trkpt>
      <trkpt lat="-31.77880723496058" lon="-71.15787728848837">
        <time>2019-03-07T04:32:33Z</time>
      </trkpt>
      <trkpt lat="-31.77869152150678" lon="-71.15786349481826">
        <time>2019-03-07T04:32:33Z</time>
      </trkpt>
      <trkpt lat="-31.77858402722771" lon="-71.15784046551191">
        <time>2019-03-07T04:32:33Z</time>
      </trkpt>
      <trkpt lat="-31.7783584013756" lon="-71.15774458728751">
        <time>2019-03-07T04:32:33Z</time>
      </trkpt>
      <trkpt lat="-31.77772142818157" lon="-71.15742133358612">
        <time>2019-03-07T04:32:33Z</time>
      </trkpt>
      <trkpt lat="-31.77611811376497" lon="-71.15656196003671">
        <time>2019-03-07T04:32:33Z</time>
      </trkpt>
      <trkpt lat="-31.7755248635155" lon="-71.15624583200086">
        <time>2019-03-07T04:32:33Z</time>
      </trkpt>
      <trkpt lat="-31.77544493297595" lon="-71.15620963576254">
        <time>2019-03-07T04:32:33Z</time>
      </trkpt>
      <trkpt lat="-31.77493218284602" lon="-71.15594412284952">
        <time>2019-03-07T04:32:33Z</time>
      </trkpt>
      <trkpt lat="-31.77467105192463" lon="-71.15577613967977">
        <time>2019-03-07T04:32:33Z</time>
      </trkpt>
      <trkpt lat="-31.77452358846982" lon="-71.15565573609223">
        <time>2019-03-07T04:32:33Z</time>
      </trkpt>
      <trkpt lat="-31.77442375727014" lon="-71.15555875911265">
        <time>2019-03-07T04:32:33Z</time>
      </trkpt>
      <trkpt lat="-31.77430101269296" lon="-71.15540606708242">
        <time>2019-03-07T04:32:33Z</time>
      </trkpt>
      <trkpt lat="-31.77394240792171" lon="-71.15491041546477">
        <time>2019-03-07T04:32:33Z</time>
      </trkpt>
      <trkpt lat="-31.77361149972783" lon="-71.15455580894351">
        <time>2019-03-07T04:32:33Z</time>
      </trkpt>
      <trkpt lat="-31.77341256988689" lon="-71.15435779425305">
        <time>2019-03-07T04:32:33Z</time>
      </trkpt>
      <trkpt lat="-31.7731823022385" lon="-71.15418682628933">
        <time>2019-03-07T04:32:33Z</time>
      </trkpt>
      <trkpt lat="-31.77288786136927" lon="-71.15402393905262">
        <time>2019-03-07T04:32:33Z</time>
      </trkpt>
      <trkpt lat="-31.77273512697649" lon="-71.15395694459176">
        <time>2019-03-07T04:32:33Z</time>
      </trkpt>
      <trkpt lat="-31.77246823439695" lon="-71.15384244180247">
        <time>2019-03-07T04:32:33Z</time>
      </trkpt>
      <trkpt lat="-31.77230273506671" lon="-71.15379865758699">
        <time>2019-03-07T04:32:33Z</time>
      </trkpt>
      <trkpt lat="-31.77215038133617" lon="-71.15376286285692">
        <time>2019-03-07T04:32:33Z</time>
      </trkpt>
      <trkpt lat="-31.77194611301077" lon="-71.15373226997049">
        <time>2019-03-07T04:32:33Z</time>
      </trkpt>
      <trkpt lat="-31.77169867033789" lon="-71.15373567738249">
        <time>2019-03-07T04:32:33Z</time>
      </trkpt>
      <trkpt lat="-31.77148752680018" lon="-71.15374285997655">
        <time>2019-03-07T04:32:33Z</time>
      </trkpt>
      <trkpt lat="-31.77115985335508" lon="-71.15377740121417">
        <time>2019-03-07T04:32:33Z</time>
      </trkpt>
      <trkpt lat="-31.7707951715271" lon="-71.15385711242016">
        <time>2019-03-07T04:32:33Z</time>
      </trkpt>
      <trkpt lat="-31.77053102198363" lon="-71.15395611133592">
        <time>2019-03-07T04:32:33Z</time>
      </trkpt>
      <trkpt lat="-31.77023945906771" lon="-71.15410683817866">
        <time>2019-03-07T04:32:33Z</time>
      </trkpt>
      <trkpt lat="-31.76957115669199" lon="-71.15449819977117">
        <time>2019-03-07T04:32:33Z</time>
      </trkpt>
      <trkpt lat="-31.76881910494717" lon="-71.15495296101052">
        <time>2019-03-07T04:32:33Z</time>
      </trkpt>
      <trkpt lat="-31.76651849722283" lon="-71.15637543137086">
        <time>2019-03-07T04:32:33Z</time>
      </trkpt>
      <trkpt lat="-31.76558878427761" lon="-71.15693987739735">
        <time>2019-03-07T04:32:33Z</time>
      </trkpt>
      <trkpt lat="-31.76549093731845" lon="-71.15698483721336">
        <time>2019-03-07T04:32:33Z</time>
      </trkpt>
      <trkpt lat="-31.76541638226297" lon="-71.15701514443352">
        <time>2019-03-07T04:32:33Z</time>
      </trkpt>
      <trkpt lat="-31.76520704454978" lon="-71.15707485240127">
        <time>2019-03-07T04:32:33Z</time>
      </trkpt>
      <trkpt lat="-31.76451083395705" lon="-71.15721078991285">
        <time>2019-03-07T04:32:33Z</time>
      </trkpt>
      <trkpt lat="-31.76253280574238" lon="-71.15752236811133">
        <time>2019-03-07T04:32:33Z</time>
      </trkpt>
      <trkpt lat="-31.76144183680396" lon="-71.15771906735147">
        <time>2019-03-07T04:32:33Z</time>
      </trkpt>
      <trkpt lat="-31.76122148398158" lon="-71.15776761373233">
        <time>2019-03-07T04:32:33Z</time>
      </trkpt>
      <trkpt lat="-31.76103166200715" lon="-71.15782189097513">
        <time>2019-03-07T04:32:33Z</time>
      </trkpt>
      <trkpt lat="-31.76084268875497" lon="-71.15787773661245">
        <time>2019-03-07T04:32:33Z</time>
      </trkpt>
      <trkpt lat="-31.76052663142835" lon="-71.15798447528174">
        <time>2019-03-07T04:32:33Z</time>
      </trkpt>
      <trkpt lat="-31.75857524086567" lon="-71.15860701025514">
        <time>2019-03-07T04:32:33Z</time>
      </trkpt>
      <trkpt lat="-31.75645064891213" lon="-71.15919837295361">
        <time>2019-03-07T04:32:33Z</time>
      </trkpt>
      <trkpt lat="-31.75615026220122" lon="-71.15926682762226">
        <time>2019-03-07T04:32:33Z</time>
      </trkpt>
      <trkpt lat="-31.75546599336422" lon="-71.15943721333075">
        <time>2019-03-07T04:32:33Z</time>
      </trkpt>
      <trkpt lat="-31.75529399864609" lon="-71.1594749706188">
        <time>2019-03-07T04:32:33Z</time>
      </trkpt>
      <trkpt lat="-31.7551963489027" lon="-71.15950837498333">
        <time>2019-03-07T04:32:33Z</time>
      </trkpt>
      <trkpt lat="-31.75507217010546" lon="-71.15955479055408">
        <time>2019-03-07T04:32:33Z</time>
      </trkpt>
      <trkpt lat="-31.75487711741781" lon="-71.15965425074622">
        <time>2019-03-07T04:32:33Z</time>
      </trkpt>
      <trkpt lat="-31.75469895588351" lon="-71.15976823772385">
        <time>2019-03-07T04:32:33Z</time>
      </trkpt>
      <trkpt lat="-31.75449492070926" lon="-71.15993734277731">
        <time>2019-03-07T04:32:33Z</time>
      </trkpt>
      <trkpt lat="-31.75436140954994" lon="-71.16006143100492">
        <time>2019-03-07T04:32:33Z</time>
      </trkpt>
      <trkpt lat="-31.75421387488288" lon="-71.16022709732047">
        <time>2019-03-07T04:32:33Z</time>
      </trkpt>
      <trkpt lat="-31.75415004572667" lon="-71.16031190427866">
        <time>2019-03-07T04:32:33Z</time>
      </trkpt>
      <trkpt lat="-31.75412234125987" lon="-71.16033553360502">
        <time>2019-03-07T04:32:33Z</time>
      </trkpt>
      <trkpt lat="-31.7540969578175" lon="-71.1603478155774">
        <time>2019-03-07T04:32:33Z</time>
      </trkpt>
      <trkpt lat="-31.75406302520331" lon="-71.16032723181478">
        <time>2019-03-07T04:32:33Z</time>
      </trkpt>
      <trkpt lat="-31.75316646809496" lon="-71.15943195961067">
        <time>2019-03-07T04:32:33Z</time>
      </trkpt>
      <trkpt lat="-31.75313376339092" lon="-71.15941017806486">
        <time>2019-03-07T04:32:33Z</time>
      </trkpt>
      <trkpt lat="-31.75311080735522" lon="-71.15939851101621">
        <time>2019-03-07T04:32:33Z</time>
      </trkpt>
      <trkpt lat="-31.75309327474856" lon="-71.15940539815206">
        <time>2019-03-07T04:32:33Z</time>
      </trkpt>
      <trkpt lat="-31.75307019768847" lon="-71.15943516525854">
        <time>2019-03-07T04:32:33Z</time>
      </trkpt>
      <trkpt lat="-31.75230422735377" lon="-71.16100518691215">
        <time>2019-03-07T04:32:33Z</time>
      </trkpt>
      <trkpt lat="-31.75251938500748" lon="-71.16111277536098">
        <time>2019-03-07T04:32:33Z</time>
      </trkpt>
      <trkpt lat="-32.11926138777687" lon="-71.49266175008921">
        <time>2019-03-07T04:33:31Z</time>
      </trkpt>
      <trkpt lat="-32.11936680379696" lon="-71.49253294531502">
        <time>2019-03-07T04:33:31Z</time>
      </trkpt>
      <trkpt lat="-32.11938953456649" lon="-71.49249680344313">
        <time>2019-03-07T04:33:31Z</time>
      </trkpt>
      <trkpt lat="-32.1194185685283" lon="-71.49244086651066">
        <time>2019-03-07T04:33:31Z</time>
      </trkpt>
      <trkpt lat="-32.11943356976484" lon="-71.49237529171515">
        <time>2019-03-07T04:33:31Z</time>
      </trkpt>
      <trkpt lat="-32.11943939310172" lon="-71.49231386959559">
        <time>2019-03-07T04:33:31Z</time>
      </trkpt>
      <trkpt lat="-32.11943168548112" lon="-71.49225422000524">
        <time>2019-03-07T04:33:31Z</time>
      </trkpt>
      <trkpt lat="-32.11941523379954" lon="-71.49220210645726">
        <time>2019-03-07T04:33:31Z</time>
      </trkpt>
      <trkpt lat="-32.11910213780637" lon="-71.49136714188319">
        <time>2019-03-07T04:33:31Z</time>
      </trkpt>
      <trkpt lat="-32.11889083388066" lon="-71.4907132565491">
        <time>2019-03-07T04:33:31Z</time>
      </trkpt>
      <trkpt lat="-32.11887147545308" lon="-71.4906288043548">
        <time>2019-03-07T04:33:31Z</time>
      </trkpt>
      <trkpt lat="-32.11879008030275" lon="-71.49006002309284">
        <time>2019-03-07T04:33:31Z</time>
      </trkpt>
      <trkpt lat="-32.11876818433023" lon="-71.4899443546321">
        <time>2019-03-07T04:33:31Z</time>
      </trkpt>
      <trkpt lat="-32.11873504009112" lon="-71.4897987748864">
        <time>2019-03-07T04:33:31Z</time>
      </trkpt>
      <trkpt lat="-32.11870317527592" lon="-71.48968330087455">
        <time>2019-03-07T04:33:31Z</time>
      </trkpt>
      <trkpt lat="-32.11866489632678" lon="-71.48960470945215">
        <time>2019-03-07T04:33:31Z</time>
      </trkpt>
      <trkpt lat="-32.11859175327875" lon="-71.4895270976227">
        <time>2019-03-07T04:33:31Z</time>
      </trkpt>
      <trkpt lat="-32.1182197860834" lon="-71.48916752283917">
        <time>2019-03-07T04:33:31Z</time>
      </trkpt>
      <trkpt lat="-32.11753088573965" lon="-71.48819707534975">
        <time>2019-03-07T04:33:31Z</time>
      </trkpt>
      <trkpt lat="-32.11747071646956" lon="-71.48809279570737">
        <time>2019-03-07T04:33:31Z</time>
      </trkpt>
      <trkpt lat="-32.1174310006683" lon="-71.48800817124059">
        <time>2019-03-07T04:33:31Z</time>
      </trkpt>
      <trkpt lat="-32.11740707677409" lon="-71.48793025463839">
        <time>2019-03-07T04:33:31Z</time>
      </trkpt>
      <trkpt lat="-32.1173945456631" lon="-71.48784522029779">
        <time>2019-03-07T04:33:31Z</time>
      </trkpt>
      <trkpt lat="-32.11738739613893" lon="-71.48773990020351">
        <time>2019-03-07T04:33:31Z</time>
      </trkpt>
      <trkpt lat="-32.11740108182134" lon="-71.48758411173581">
        <time>2019-03-07T04:33:31Z</time>
      </trkpt>
      <trkpt lat="-32.11760016255621" lon="-71.4866262122403">
        <time>2019-03-07T04:33:31Z</time>
      </trkpt>
      <trkpt lat="-32.11780575371928" lon="-71.48558653697539">
        <time>2019-03-07T04:33:31Z</time>
      </trkpt>
      <trkpt lat="-32.11783708183544" lon="-71.48535741662522">
        <time>2019-03-07T04:33:31Z</time>
      </trkpt>
      <trkpt lat="-32.11784214267085" lon="-71.48528972319083">
        <time>2019-03-07T04:33:31Z</time>
      </trkpt>
      <trkpt lat="-32.11784115383284" lon="-71.48479621421497">
        <time>2019-03-07T04:33:31Z</time>
      </trkpt>
      <trkpt lat="-32.11783352291593" lon="-71.484307057058">
        <time>2019-03-07T04:33:31Z</time>
      </trkpt>
      <trkpt lat="-32.11783897602403" lon="-71.48389881723863">
        <time>2019-03-07T04:33:31Z</time>
      </trkpt>
      <trkpt lat="-32.11784717144817" lon="-71.48376701468155">
        <time>2019-03-07T04:33:31Z</time>
      </trkpt>
      <trkpt lat="-32.11785831864058" lon="-71.48370770723562">
        <time>2019-03-07T04:33:31Z</time>
      </trkpt>
      <trkpt lat="-32.11789562712865" lon="-71.48352920447093">
        <time>2019-03-07T04:33:31Z</time>
      </trkpt>
      <trkpt lat="-32.11800612593234" lon="-71.48309212788153">
        <time>2019-03-07T04:33:31Z</time>
      </trkpt>
      <trkpt lat="-32.11810277716663" lon="-71.48280342083285">
        <time>2019-03-07T04:33:31Z</time>
      </trkpt>
      <trkpt lat="-32.11830181268982" lon="-71.48216182244644">
        <time>2019-03-07T04:33:31Z</time>
      </trkpt>
      <trkpt lat="-32.11860809626014" lon="-71.48144781863823">
        <time>2019-03-07T04:33:31Z</time>
      </trkpt>
      <trkpt lat="-32.1186412111655" lon="-71.48137938970257">
        <time>2019-03-07T04:33:31Z</time>
      </trkpt>
      <trkpt lat="-32.11912461179399" lon="-71.48047715828564">
        <time>2019-03-07T04:33:31Z</time>
      </trkpt>
      <trkpt lat="-32.11914310172454" lon="-71.48043296687797">
        <time>2019-03-07T04:33:31Z</time>
      </trkpt>
      <trkpt lat="-32.11917495088567" lon="-71.48035013739225">
        <time>2019-03-07T04:33:31Z</time>
      </trkpt>
      <trkpt lat="-32.11920412475389" lon="-71.48025784483268">
        <time>2019-03-07T04:33:31Z</time>
      </trkpt>
      <trkpt lat="-32.1192158897339" lon="-71.48019593808471">
        <time>2019-03-07T04:33:31Z</time>
      </trkpt>
      <trkpt lat="-32.11922775640309" lon="-71.4800852511777">
        <time>2019-03-07T04:33:31Z</time>
      </trkpt>
      <trkpt lat="-32.11918044958418" lon="-71.4792454215257">
        <time>2019-03-07T04:33:31Z</time>
      </trkpt>
      <trkpt lat="-32.11918027962381" lon="-71.47918743684296">
        <time>2019-03-07T04:33:31Z</time>
      </trkpt>
      <trkpt lat="-32.11918358329059" lon="-71.47911443988353">
        <time>2019-03-07T04:33:31Z</time>
      </trkpt>
      <trkpt lat="-32.1191911411562" lon="-71.47899778568986">
        <time>2019-03-07T04:33:31Z</time>
      </trkpt>
      <trkpt lat="-32.11920554773802" lon="-71.4788946366878">
        <time>2019-03-07T04:33:31Z</time>
      </trkpt>
      <trkpt lat="-32.11923733046898" lon="-71.47875246488823">
        <time>2019-03-07T04:33:31Z</time>
      </trkpt>
      <trkpt lat="-32.11927907689579" lon="-71.47865143955349">
        <time>2019-03-07T04:33:31Z</time>
      </trkpt>
      <trkpt lat="-32.11956789645998" lon="-71.47797866718379">
        <time>2019-03-07T04:33:31Z</time>
      </trkpt>
      <trkpt lat="-32.11959885805536" lon="-71.47788174661108">
        <time>2019-03-07T04:33:31Z</time>
      </trkpt>
      <trkpt lat="-32.11961250920926" lon="-71.4778054649103">
        <time>2019-03-07T04:33:31Z</time>
      </trkpt>
      <trkpt lat="-32.11962439456771" lon="-71.47772328446143">
        <time>2019-03-07T04:33:31Z</time>
      </trkpt>
      <trkpt lat="-32.11964000748331" lon="-71.47751563107077">
        <time>2019-03-07T04:33:31Z</time>
      </trkpt>
      <trkpt lat="-32.11964738319311" lon="-71.47666987173626">
        <time>2019-03-07T04:33:31Z</time>
      </trkpt>
      <trkpt lat="-32.11964366754156" lon="-71.47661312134045">
        <time>2019-03-07T04:33:31Z</time>
      </trkpt>
      <trkpt lat="-32.1196255217223" lon="-71.47651872155258">
        <time>2019-03-07T04:33:31Z</time>
      </trkpt>
      <trkpt lat="-32.11961076531001" lon="-71.47643503655763">
        <time>2019-03-07T04:33:31Z</time>
      </trkpt>
      <trkpt lat="-32.11959226891162" lon="-71.47635731363077">
        <time>2019-03-07T04:33:31Z</time>
      </trkpt>
      <trkpt lat="-32.11956571176756" lon="-71.47625482068247">
        <time>2019-03-07T04:33:31Z</time>
      </trkpt>
      <trkpt lat="-32.11946879183383" lon="-71.4759288847482">
        <time>2019-03-07T04:33:31Z</time>
      </trkpt>
      <trkpt lat="-32.11942517027536" lon="-71.47575265551987">
        <time>2019-03-07T04:33:31Z</time>
      </trkpt>
      <trkpt lat="-32.11941168097465" lon="-71.47564528760154">
        <time>2019-03-07T04:33:31Z</time>
      </trkpt>
      <trkpt lat="-32.11939998239479" lon="-71.47556540130012">
        <time>2019-03-07T04:33:31Z</time>
      </trkpt>
      <trkpt lat="-32.11940710746904" lon="-71.47548722170959">
        <time>2019-03-07T04:33:31Z</time>
      </trkpt>
      <trkpt lat="-32.11942214291498" lon="-71.47538697840062">
        <time>2019-03-07T04:33:31Z</time>
      </trkpt>
      <trkpt lat="-32.11945507138034" lon="-71.47527344289938">
        <time>2019-03-07T04:33:31Z</time>
      </trkpt>
      <trkpt lat="-32.1195256850569" lon="-71.47512080518169">
        <time>2019-03-07T04:33:31Z</time>
      </trkpt>
      <trkpt lat="-32.11957464601528" lon="-71.47503033549099">
        <time>2019-03-07T04:33:31Z</time>
      </trkpt>
      <trkpt lat="-32.11978244057867" lon="-71.47467487856203">
        <time>2019-03-07T04:33:31Z</time>
      </trkpt>
      <trkpt lat="-32.12028794108844" lon="-71.47381786109345">
        <time>2019-03-07T04:33:31Z</time>
      </trkpt>
      <trkpt lat="-32.12038128930013" lon="-71.47363362900919">
        <time>2019-03-07T04:33:31Z</time>
      </trkpt>
      <trkpt lat="-32.12041226034454" lon="-71.47357705454964">
        <time>2019-03-07T04:33:31Z</time>
      </trkpt>
      <trkpt lat="-32.12042865253564" lon="-71.47353911074815">
        <time>2019-03-07T04:33:31Z</time>
      </trkpt>
      <trkpt lat="-32.12044427500748" lon="-71.47349578649175">
        <time>2019-03-07T04:33:31Z</time>
      </trkpt>
      <trkpt lat="-32.12045778577338" lon="-71.47345230512764">
        <time>2019-03-07T04:33:31Z</time>
      </trkpt>
      <trkpt lat="-32.1204732869034" lon="-71.47340149833022">
        <time>2019-03-07T04:33:31Z</time>
      </trkpt>
      <trkpt lat="-32.12048968059728" lon="-71.47333409136859">
        <time>2019-03-07T04:33:31Z</time>
      </trkpt>
      <trkpt lat="-32.12053252598083" lon="-71.47307720316864">
        <time>2019-03-07T04:33:31Z</time>
      </trkpt>
      <trkpt lat="-32.12053834082292" lon="-71.47300573649326">
        <time>2019-03-07T04:33:31Z</time>
      </trkpt>
      <trkpt lat="-32.12054083749235" lon="-71.47292190259037">
        <time>2019-03-07T04:33:31Z</time>
      </trkpt>
      <trkpt lat="-32.12053610287357" lon="-71.47285015423428">
        <time>2019-03-07T04:33:31Z</time>
      </trkpt>
      <trkpt lat="-32.12043182923684" lon="-71.47218403676395">
        <time>2019-03-07T04:33:31Z</time>
      </trkpt>
      <trkpt lat="-32.12031902244591" lon="-71.47159105448385">
        <time>2019-03-07T04:33:31Z</time>
      </trkpt>
      <trkpt lat="-32.12029511437491" lon="-71.47136552695191">
        <time>2019-03-07T04:33:31Z</time>
      </trkpt>
      <trkpt lat="-32.12030491473801" lon="-71.4711684354141">
        <time>2019-03-07T04:33:31Z</time>
      </trkpt>
      <trkpt lat="-32.12031974209882" lon="-71.47106183163956">
        <time>2019-03-07T04:33:31Z</time>
      </trkpt>
      <trkpt lat="-32.12035188008156" lon="-71.47091526060036">
        <time>2019-03-07T04:33:31Z</time>
      </trkpt>
      <trkpt lat="-32.12037280011483" lon="-71.47084083823974">
        <time>2019-03-07T04:33:31Z</time>
      </trkpt>
      <trkpt lat="-32.12041280873866" lon="-71.47072950397684">
        <time>2019-03-07T04:33:31Z</time>
      </trkpt>
      <trkpt lat="-32.12046400335171" lon="-71.47063599984999">
        <time>2019-03-07T04:33:31Z</time>
      </trkpt>
      <trkpt lat="-32.12059804848739" lon="-71.47043182540971">
        <time>2019-03-07T04:33:31Z</time>
      </trkpt>
      <trkpt lat="-32.12070784566324" lon="-71.47032175838015">
        <time>2019-03-07T04:33:31Z</time>
      </trkpt>
      <trkpt lat="-32.12085110462061" lon="-71.47020316744522">
        <time>2019-03-07T04:33:31Z</time>
      </trkpt>
      <trkpt lat="-32.12094530669513" lon="-71.47013862362059">
        <time>2019-03-07T04:33:31Z</time>
      </trkpt>
      <trkpt lat="-32.12103226210574" lon="-71.47009164435991">
        <time>2019-03-07T04:33:31Z</time>
      </trkpt>
      <trkpt lat="-32.12166736436963" lon="-71.46979009461869">
        <time>2019-03-07T04:33:31Z</time>
      </trkpt>
      <trkpt lat="-32.12210786751874" lon="-71.46957540968315">
        <time>2019-03-07T04:33:31Z</time>
      </trkpt>
      <trkpt lat="-32.12217857151123" lon="-71.46952214707916">
        <time>2019-03-07T04:33:31Z</time>
      </trkpt>
      <trkpt lat="-32.12223146649874" lon="-71.46944872496415">
        <time>2019-03-07T04:33:31Z</time>
      </trkpt>
      <trkpt lat="-32.12226728692808" lon="-71.4693781097845">
        <time>2019-03-07T04:33:31Z</time>
      </trkpt>
      <trkpt lat="-32.12228515710243" lon="-71.46931551286924">
        <time>2019-03-07T04:33:31Z</time>
      </trkpt>
      <trkpt lat="-32.12229284019961" lon="-71.46924979539978">
        <time>2019-03-07T04:33:31Z</time>
      </trkpt>
      <trkpt lat="-32.12228000658578" lon="-71.46914665729636">
        <time>2019-03-07T04:33:31Z</time>
      </trkpt>
      <trkpt lat="-32.1221027731273" lon="-71.46834561172143">
        <time>2019-03-07T04:33:31Z</time>
      </trkpt>
      <trkpt lat="-32.12208210770903" lon="-71.46826016920187">
        <time>2019-03-07T04:33:31Z</time>
      </trkpt>
      <trkpt lat="-32.12204540397177" lon="-71.46815223192034">
        <time>2019-03-07T04:33:31Z</time>
      </trkpt>
      <trkpt lat="-32.12200388084305" lon="-71.46805467872783">
        <time>2019-03-07T04:33:31Z</time>
      </trkpt>
      <trkpt lat="-32.1219534689666" lon="-71.46796597726953">
        <time>2019-03-07T04:33:31Z</time>
      </trkpt>
      <trkpt lat="-32.12133441494331" lon="-71.46719702206892">
        <time>2019-03-07T04:33:31Z</time>
      </trkpt>
      <trkpt lat="-32.12112332536385" lon="-71.46691989573141">
        <time>2019-03-07T04:33:31Z</time>
      </trkpt>
      <trkpt lat="-32.12104204752595" lon="-71.46676478744236">
        <time>2019-03-07T04:33:31Z</time>
      </trkpt>
      <trkpt lat="-32.12100986016983" lon="-71.46666594034019">
        <time>2019-03-07T04:33:31Z</time>
      </trkpt>
      <trkpt lat="-32.12099174526771" lon="-71.46653794081264">
        <time>2019-03-07T04:33:31Z</time>
      </trkpt>
      <trkpt lat="-32.1209955317597" lon="-71.46631909644501">
        <time>2019-03-07T04:33:31Z</time>
      </trkpt>
      <trkpt lat="-32.12103255266046" lon="-71.46605757961355">
        <time>2019-03-07T04:33:31Z</time>
      </trkpt>
      <trkpt lat="-32.12106605866678" lon="-71.46584695794159">
        <time>2019-03-07T04:33:31Z</time>
      </trkpt>
      <trkpt lat="-32.12107851882807" lon="-71.46570325659367">
        <time>2019-03-07T04:33:31Z</time>
      </trkpt>
      <trkpt lat="-32.12107494701772" lon="-71.4656141735082">
        <time>2019-03-07T04:33:31Z</time>
      </trkpt>
      <trkpt lat="-32.12106393187546" lon="-71.46549792089544">
        <time>2019-03-07T04:33:31Z</time>
      </trkpt>
      <trkpt lat="-32.12101323905912" lon="-71.46505645068666">
        <time>2019-03-07T04:33:31Z</time>
      </trkpt>
      <trkpt lat="-32.12100380655944" lon="-71.46482020975969">
        <time>2019-03-07T04:33:31Z</time>
      </trkpt>
      <trkpt lat="-32.12101129411386" lon="-71.46464800542422">
        <time>2019-03-07T04:33:31Z</time>
      </trkpt>
      <trkpt lat="-32.12104053768453" lon="-71.46440157069706">
        <time>2019-03-07T04:33:31Z</time>
      </trkpt>
      <trkpt lat="-32.12112218613495" lon="-71.46402346547085">
        <time>2019-03-07T04:33:31Z</time>
      </trkpt>
      <trkpt lat="-32.12115791888665" lon="-71.46390714105998">
        <time>2019-03-07T04:33:31Z</time>
      </trkpt>
      <trkpt lat="-32.1212612746324" lon="-71.46357862795293">
        <time>2019-03-07T04:33:31Z</time>
      </trkpt>
      <trkpt lat="-32.12131698809381" lon="-71.4633639075111">
        <time>2019-03-07T04:33:31Z</time>
      </trkpt>
      <trkpt lat="-32.12133749363841" lon="-71.46323825276814">
        <time>2019-03-07T04:33:31Z</time>
      </trkpt>
      <trkpt lat="-32.12136695854926" lon="-71.46302477868895">
        <time>2019-03-07T04:33:31Z</time>
      </trkpt>
      <trkpt lat="-32.12136990302922" lon="-71.46294127386994">
        <time>2019-03-07T04:33:31Z</time>
      </trkpt>
      <trkpt lat="-32.12135108140598" lon="-71.46206520887355">
        <time>2019-03-07T04:33:31Z</time>
      </trkpt>
      <trkpt lat="-32.12133275930437" lon="-71.46121501775613">
        <time>2019-03-07T04:33:31Z</time>
      </trkpt>
      <trkpt lat="-32.12131974499125" lon="-71.46105486702915">
        <time>2019-03-07T04:33:31Z</time>
      </trkpt>
      <trkpt lat="-32.12130346104261" lon="-71.46086727756904">
        <time>2019-03-07T04:33:31Z</time>
      </trkpt>
      <trkpt lat="-32.1212689328886" lon="-71.46069520086213">
        <time>2019-03-07T04:33:31Z</time>
      </trkpt>
      <trkpt lat="-32.1210055386068" lon="-71.45948195743854">
        <time>2019-03-07T04:33:31Z</time>
      </trkpt>
      <trkpt lat="-32.12097265969268" lon="-71.45933015402592">
        <time>2019-03-07T04:33:31Z</time>
      </trkpt>
      <trkpt lat="-32.12093885343605" lon="-71.45917514150325">
        <time>2019-03-07T04:33:31Z</time>
      </trkpt>
      <trkpt lat="-32.12074726905673" lon="-71.45832047734059">
        <time>2019-03-07T04:33:31Z</time>
      </trkpt>
      <trkpt lat="-32.12050402930922" lon="-71.45729257840053">
        <time>2019-03-07T04:33:31Z</time>
      </trkpt>
      <trkpt lat="-32.12043320984596" lon="-71.4570429625837">
        <time>2019-03-07T04:33:31Z</time>
      </trkpt>
      <trkpt lat="-32.12035246706829" lon="-71.45680031643875">
        <time>2019-03-07T04:33:31Z</time>
      </trkpt>
      <trkpt lat="-32.12028145233981" lon="-71.45664547032803">
        <time>2019-03-07T04:33:31Z</time>
      </trkpt>
      <trkpt lat="-32.11965439495665" lon="-71.45539253075667">
        <time>2019-03-07T04:33:31Z</time>
      </trkpt>
      <trkpt lat="-32.11950666956409" lon="-71.45510336555867">
        <time>2019-03-07T04:33:31Z</time>
      </trkpt>
      <trkpt lat="-32.11943901884089" lon="-71.45499054052604">
        <time>2019-03-07T04:33:31Z</time>
      </trkpt>
      <trkpt lat="-32.11938576213493" lon="-71.45491749396393">
        <time>2019-03-07T04:33:31Z</time>
      </trkpt>
      <trkpt lat="-32.11892026738863" lon="-71.45437089942794">
        <time>2019-03-07T04:33:31Z</time>
      </trkpt>
      <trkpt lat="-32.1186226558942" lon="-71.45403386104505">
        <time>2019-03-07T04:33:31Z</time>
      </trkpt>
      <trkpt lat="-32.11857051187248" lon="-71.45395929408851">
        <time>2019-03-07T04:33:31Z</time>
      </trkpt>
      <trkpt lat="-32.11852607982075" lon="-71.45386640390252">
        <time>2019-03-07T04:33:31Z</time>
      </trkpt>
      <trkpt lat="-32.11850463723312" lon="-71.45378660135046">
        <time>2019-03-07T04:33:31Z</time>
      </trkpt>
      <trkpt lat="-32.11836639060431" lon="-71.45307906563676">
        <time>2019-03-07T04:33:31Z</time>
      </trkpt>
      <trkpt lat="-32.11789238468918" lon="-71.45147802655369">
        <time>2019-03-07T04:33:31Z</time>
      </trkpt>
      <trkpt lat="-32.11767794381598" lon="-71.45064479446626">
        <time>2019-03-07T04:33:31Z</time>
      </trkpt>
      <trkpt lat="-32.11761204689138" lon="-71.45033963447433">
        <time>2019-03-07T04:33:31Z</time>
      </trkpt>
      <trkpt lat="-32.11760399285305" lon="-71.4502593437407">
        <time>2019-03-07T04:33:31Z</time>
      </trkpt>
      <trkpt lat="-32.11760171168326" lon="-71.45011453909309">
        <time>2019-03-07T04:33:31Z</time>
      </trkpt>
      <trkpt lat="-32.11761536317961" lon="-71.44999034374693">
        <time>2019-03-07T04:33:31Z</time>
      </trkpt>
      <trkpt lat="-32.11767469510141" lon="-71.44976865765698">
        <time>2019-03-07T04:33:31Z</time>
      </trkpt>
      <trkpt lat="-32.11778449723111" lon="-71.44946265441394">
        <time>2019-03-07T04:33:31Z</time>
      </trkpt>
      <trkpt lat="-32.11780496320937" lon="-71.4493885736302">
        <time>2019-03-07T04:33:31Z</time>
      </trkpt>
      <trkpt lat="-32.11781460156581" lon="-71.44930400228186">
        <time>2019-03-07T04:33:31Z</time>
      </trkpt>
      <trkpt lat="-32.1178190286829" lon="-71.44898846086461">
        <time>2019-03-07T04:33:31Z</time>
      </trkpt>
      <trkpt lat="-32.11784223239354" lon="-71.44880900930181">
        <time>2019-03-07T04:33:31Z</time>
      </trkpt>
      <trkpt lat="-32.11787793387528" lon="-71.44867946009346">
        <time>2019-03-07T04:33:31Z</time>
      </trkpt>
      <trkpt lat="-32.11793447465455" lon="-71.44854728164285">
        <time>2019-03-07T04:33:31Z</time>
      </trkpt>
      <trkpt lat="-32.11798950935243" lon="-71.44844974274">
        <time>2019-03-07T04:33:31Z</time>
      </trkpt>
      <trkpt lat="-32.11808061640924" lon="-71.44832435911251">
        <time>2019-03-07T04:33:31Z</time>
      </trkpt>
      <trkpt lat="-32.11818746660838" lon="-71.44820312492654">
        <time>2019-03-07T04:33:31Z</time>
      </trkpt>
      <trkpt lat="-32.1185433756003" lon="-71.44793257042267">
        <time>2019-03-07T04:33:31Z</time>
      </trkpt>
      <trkpt lat="-32.11869070847939" lon="-71.44782241890337">
        <time>2019-03-07T04:33:31Z</time>
      </trkpt>
      <trkpt lat="-32.11879218389534" lon="-71.44771063102627">
        <time>2019-03-07T04:33:31Z</time>
      </trkpt>
      <trkpt lat="-32.11884606354746" lon="-71.44762229357069">
        <time>2019-03-07T04:33:31Z</time>
      </trkpt>
      <trkpt lat="-32.11887240974262" lon="-71.44754723464419">
        <time>2019-03-07T04:33:31Z</time>
      </trkpt>
      <trkpt lat="-32.11888381866975" lon="-71.44741607835606">
        <time>2019-03-07T04:33:31Z</time>
      </trkpt>
      <trkpt lat="-32.11887983563142" lon="-71.44728175982158">
        <time>2019-03-07T04:33:31Z</time>
      </trkpt>
      <trkpt lat="-32.11887830359495" lon="-71.44717983524352">
        <time>2019-03-07T04:33:31Z</time>
      </trkpt>
      <trkpt lat="-32.1188864089948" lon="-71.44711068707672">
        <time>2019-03-07T04:33:31Z</time>
      </trkpt>
      <trkpt lat="-32.11890566843495" lon="-71.44705465472273">
        <time>2019-03-07T04:33:31Z</time>
      </trkpt>
      <trkpt lat="-32.11893695069677" lon="-71.44700296833112">
        <time>2019-03-07T04:33:31Z</time>
      </trkpt>
      <trkpt lat="-32.11897716456576" lon="-71.4469484492998">
        <time>2019-03-07T04:33:31Z</time>
      </trkpt>
      <trkpt lat="-32.11936589360879" lon="-71.44668893835407">
        <time>2019-03-07T04:33:31Z</time>
      </trkpt>
      <trkpt lat="-32.11989795345144" lon="-71.44630705523889">
        <time>2019-03-07T04:33:31Z</time>
      </trkpt>
      <trkpt lat="-32.11994767066098" lon="-71.44625148075735">
        <time>2019-03-07T04:33:31Z</time>
      </trkpt>
      <trkpt lat="-32.11998921889721" lon="-71.44618440931792">
        <time>2019-03-07T04:33:31Z</time>
      </trkpt>
      <trkpt lat="-32.12002715218704" lon="-71.44609080250535">
        <time>2019-03-07T04:33:31Z</time>
      </trkpt>
      <trkpt lat="-32.12004043189306" lon="-71.44600221094011">
        <time>2019-03-07T04:33:31Z</time>
      </trkpt>
      <trkpt lat="-32.12003106279431" lon="-71.44592544990147">
        <time>2019-03-07T04:33:31Z</time>
      </trkpt>
      <trkpt lat="-32.11999765675955" lon="-71.44581719372849">
        <time>2019-03-07T04:33:31Z</time>
      </trkpt>
      <trkpt lat="-32.11995640011662" lon="-71.44575082133254">
        <time>2019-03-07T04:33:31Z</time>
      </trkpt>
      <trkpt lat="-32.11990869077746" lon="-71.44569771578485">
        <time>2019-03-07T04:33:31Z</time>
      </trkpt>
      <trkpt lat="-32.11985880654639" lon="-71.44565978656144">
        <time>2019-03-07T04:33:31Z</time>
      </trkpt>
      <trkpt lat="-32.11980893570338" lon="-71.44563928991765">
        <time>2019-03-07T04:33:31Z</time>
      </trkpt>
      <trkpt lat="-32.11972921386512" lon="-71.44562210027279">
        <time>2019-03-07T04:33:31Z</time>
      </trkpt>
      <trkpt lat="-32.11932307131397" lon="-71.4456196039105">
        <time>2019-03-07T04:33:31Z</time>
      </trkpt>
      <trkpt lat="-32.11923110636585" lon="-71.44560695293234">
        <time>2019-03-07T04:33:31Z</time>
      </trkpt>
      <trkpt lat="-32.11915941824189" lon="-71.44557687180827">
        <time>2019-03-07T04:33:31Z</time>
      </trkpt>
      <trkpt lat="-32.11909585713985" lon="-71.44551671312486">
        <time>2019-03-07T04:33:31Z</time>
      </trkpt>
      <trkpt lat="-32.11904832792533" lon="-71.4454430458925">
        <time>2019-03-07T04:33:31Z</time>
      </trkpt>
      <trkpt lat="-32.11901077653554" lon="-71.44536401237639">
        <time>2019-03-07T04:33:31Z</time>
      </trkpt>
      <trkpt lat="-32.11898919642717" lon="-71.44527975758437">
        <time>2019-03-07T04:33:31Z</time>
      </trkpt>
      <trkpt lat="-32.11898603879629" lon="-71.44518921918034">
        <time>2019-03-07T04:33:31Z</time>
      </trkpt>
      <trkpt lat="-32.11901442017432" lon="-71.44488184594215">
        <time>2019-03-07T04:33:31Z</time>
      </trkpt>
      <trkpt lat="-32.11901211939753" lon="-71.44473315618699">
        <time>2019-03-07T04:33:31Z</time>
      </trkpt>
      <trkpt lat="-32.11900223452658" lon="-71.44460571075513">
        <time>2019-03-07T04:33:31Z</time>
      </trkpt>
      <trkpt lat="-32.11893395488499" lon="-71.4443454622598">
        <time>2019-03-07T04:33:31Z</time>
      </trkpt>
      <trkpt lat="-32.11889795176079" lon="-71.44419665315334">
        <time>2019-03-07T04:33:31Z</time>
      </trkpt>
      <trkpt lat="-32.11887415592697" lon="-71.44410074021927">
        <time>2019-03-07T04:33:31Z</time>
      </trkpt>
      <trkpt lat="-32.11886405028416" lon="-71.44397002556691">
        <time>2019-03-07T04:33:31Z</time>
      </trkpt>
      <trkpt lat="-32.11885553867688" lon="-71.44323226681901">
        <time>2019-03-07T04:33:31Z</time>
      </trkpt>
      <trkpt lat="-32.1188440139433" lon="-71.44291376166234">
        <time>2019-03-07T04:33:31Z</time>
      </trkpt>
      <trkpt lat="-32.11884628752516" lon="-71.44273117576574">
        <time>2019-03-07T04:33:31Z</time>
      </trkpt>
      <trkpt lat="-32.11886147942608" lon="-71.44246693950939">
        <time>2019-03-07T04:33:31Z</time>
      </trkpt>
      <trkpt lat="-32.11887648781528" lon="-71.44236592343695">
        <time>2019-03-07T04:33:31Z</time>
      </trkpt>
      <trkpt lat="-32.1189112506724" lon="-71.44220945120331">
        <time>2019-03-07T04:33:31Z</time>
      </trkpt>
      <trkpt lat="-32.11895810777192" lon="-71.44207533359177">
        <time>2019-03-07T04:33:31Z</time>
      </trkpt>
      <trkpt lat="-32.11911546147243" lon="-71.44171677856133">
        <time>2019-03-07T04:33:31Z</time>
      </trkpt>
      <trkpt lat="-32.11944303683832" lon="-71.4410336934446">
        <time>2019-03-07T04:33:31Z</time>
      </trkpt>
      <trkpt lat="-32.11964397673474" lon="-71.44059497359463">
        <time>2019-03-07T04:33:31Z</time>
      </trkpt>
      <trkpt lat="-32.11971038881406" lon="-71.44041338743972">
        <time>2019-03-07T04:33:31Z</time>
      </trkpt>
      <trkpt lat="-32.11973587930023" lon="-71.4402999895963">
        <time>2019-03-07T04:33:31Z</time>
      </trkpt>
      <trkpt lat="-32.11974741281377" lon="-71.44019361019053">
        <time>2019-03-07T04:33:31Z</time>
      </trkpt>
      <trkpt lat="-32.11974686686172" lon="-71.44010737917994">
        <time>2019-03-07T04:33:31Z</time>
      </trkpt>
      <trkpt lat="-32.11969583770658" lon="-71.43951133714845">
        <time>2019-03-07T04:33:31Z</time>
      </trkpt>
      <trkpt lat="-32.11956570849822" lon="-71.43799194412384">
        <time>2019-03-07T04:33:31Z</time>
      </trkpt>
      <trkpt lat="-32.11949700916381" lon="-71.43723767112789">
        <time>2019-03-07T04:33:31Z</time>
      </trkpt>
      <trkpt lat="-32.11947747663465" lon="-71.43709761240118">
        <time>2019-03-07T04:33:31Z</time>
      </trkpt>
      <trkpt lat="-32.11945603648309" lon="-71.43697383711965">
        <time>2019-03-07T04:33:31Z</time>
      </trkpt>
      <trkpt lat="-32.11942606991892" lon="-71.43688136578092">
        <time>2019-03-07T04:33:31Z</time>
      </trkpt>
      <trkpt lat="-32.11935735346866" lon="-71.43674696565836">
        <time>2019-03-07T04:33:31Z</time>
      </trkpt>
      <trkpt lat="-32.119194043657" lon="-71.43648075328656">
        <time>2019-03-07T04:33:31Z</time>
      </trkpt>
      <trkpt lat="-32.11907565908884" lon="-71.43630953719469">
        <time>2019-03-07T04:33:31Z</time>
      </trkpt>
      <trkpt lat="-32.11901311297395" lon="-71.43620184021856">
        <time>2019-03-07T04:33:31Z</time>
      </trkpt>
      <trkpt lat="-32.11896880095351" lon="-71.43609195374826">
        <time>2019-03-07T04:33:31Z</time>
      </trkpt>
      <trkpt lat="-32.11895019784449" lon="-71.43601172079775">
        <time>2019-03-07T04:33:31Z</time>
      </trkpt>
      <trkpt lat="-32.11893581241404" lon="-71.43592222718476">
        <time>2019-03-07T04:33:31Z</time>
      </trkpt>
      <trkpt lat="-32.118882372841" lon="-71.43502537943697">
        <time>2019-03-07T04:33:31Z</time>
      </trkpt>
      <trkpt lat="-32.11888793407695" lon="-71.43493809262279">
        <time>2019-03-07T04:33:31Z</time>
      </trkpt>
      <trkpt lat="-32.11890253424654" lon="-71.43482477472067">
        <time>2019-03-07T04:33:31Z</time>
      </trkpt>
      <trkpt lat="-32.11893921818254" lon="-71.43471014713826">
        <time>2019-03-07T04:33:31Z</time>
      </trkpt>
      <trkpt lat="-32.11936531707715" lon="-71.43373503087159">
        <time>2019-03-07T04:33:31Z</time>
      </trkpt>
      <trkpt lat="-32.11948809241591" lon="-71.43340484013869">
        <time>2019-03-07T04:33:31Z</time>
      </trkpt>
      <trkpt lat="-32.11952225195761" lon="-71.43329292928415">
        <time>2019-03-07T04:33:31Z</time>
      </trkpt>
      <trkpt lat="-32.11954228649515" lon="-71.43320863955221">
        <time>2019-03-07T04:33:31Z</time>
      </trkpt>
      <trkpt lat="-32.11958416198268" lon="-71.43291016617934">
        <time>2019-03-07T04:33:31Z</time>
      </trkpt>
      <trkpt lat="-32.11966218861861" lon="-71.43193957284068">
        <time>2019-03-07T04:33:31Z</time>
      </trkpt>
      <trkpt lat="-32.11971992592687" lon="-71.43109095279532">
        <time>2019-03-07T04:33:31Z</time>
      </trkpt>
      <trkpt lat="-32.1197380653657" lon="-71.43098005559615">
        <time>2019-03-07T04:33:31Z</time>
      </trkpt>
      <trkpt lat="-32.11976062047557" lon="-71.43087219204469">
        <time>2019-03-07T04:33:31Z</time>
      </trkpt>
      <trkpt lat="-32.11978230976077" lon="-71.430791066292">
        <time>2019-03-07T04:33:31Z</time>
      </trkpt>
      <trkpt lat="-32.11982033102337" lon="-71.43070460949886">
        <time>2019-03-07T04:33:31Z</time>
      </trkpt>
      <trkpt lat="-32.1198676729124" lon="-71.43060669245357">
        <time>2019-03-07T04:33:31Z</time>
      </trkpt>
      <trkpt lat="-32.11993757685325" lon="-71.43049704153083">
        <time>2019-03-07T04:33:31Z</time>
      </trkpt>
      <trkpt lat="-32.12066730030934" lon="-71.42951795619416">
        <time>2019-03-07T04:33:31Z</time>
      </trkpt>
      <trkpt lat="-32.12124448083406" lon="-71.42872883363309">
        <time>2019-03-07T04:33:31Z</time>
      </trkpt>
      <trkpt lat="-32.12133542214064" lon="-71.42859300382088">
        <time>2019-03-07T04:33:31Z</time>
      </trkpt>
      <trkpt lat="-32.12142959670938" lon="-71.42843186741706">
        <time>2019-03-07T04:33:31Z</time>
      </trkpt>
      <trkpt lat="-32.12152648423964" lon="-71.4282534425771">
        <time>2019-03-07T04:33:31Z</time>
      </trkpt>
      <trkpt lat="-32.12166052437292" lon="-71.42796688453935">
        <time>2019-03-07T04:33:31Z</time>
      </trkpt>
      <trkpt lat="-32.12206332043231" lon="-71.42697777747183">
        <time>2019-03-07T04:33:31Z</time>
      </trkpt>
      <trkpt lat="-32.12261252413772" lon="-71.42565652154305">
        <time>2019-03-07T04:33:31Z</time>
      </trkpt>
      <trkpt lat="-32.12308465670666" lon="-71.42456351124068">
        <time>2019-03-07T04:33:31Z</time>
      </trkpt>
      <trkpt lat="-32.12355879801694" lon="-71.42344894845441">
        <time>2019-03-07T04:33:31Z</time>
      </trkpt>
      <trkpt lat="-32.12398638361838" lon="-71.42243672383894">
        <time>2019-03-07T04:33:31Z</time>
      </trkpt>
      <trkpt lat="-32.1241430083592" lon="-71.42199755962443">
        <time>2019-03-07T04:33:31Z</time>
      </trkpt>
      <trkpt lat="-32.12427950347796" lon="-71.42160640972014">
        <time>2019-03-07T04:33:31Z</time>
      </trkpt>
      <trkpt lat="-32.12435878482499" lon="-71.4213386374983">
        <time>2019-03-07T04:33:31Z</time>
      </trkpt>
      <trkpt lat="-32.12451952786237" lon="-71.42072550175793">
        <time>2019-03-07T04:33:31Z</time>
      </trkpt>
      <trkpt lat="-32.12484156360608" lon="-71.41949868158775">
        <time>2019-03-07T04:33:31Z</time>
      </trkpt>
      <trkpt lat="-32.12518162820988" lon="-71.41822776953758">
        <time>2019-03-07T04:33:31Z</time>
      </trkpt>
      <trkpt lat="-32.1255098930341" lon="-71.41701477732889">
        <time>2019-03-07T04:33:31Z</time>
      </trkpt>
      <trkpt lat="-32.12564266432244" lon="-71.41653470089295">
        <time>2019-03-07T04:33:31Z</time>
      </trkpt>
      <trkpt lat="-32.12566682778091" lon="-71.41644380633348">
        <time>2019-03-07T04:33:31Z</time>
      </trkpt>
      <trkpt lat="-32.12581680536819" lon="-71.4158547936504">
        <time>2019-03-07T04:33:31Z</time>
      </trkpt>
      <trkpt lat="-32.12583724236398" lon="-71.41576068003127">
        <time>2019-03-07T04:33:31Z</time>
      </trkpt>
      <trkpt lat="-32.1258650922537" lon="-71.41564006645096">
        <time>2019-03-07T04:33:31Z</time>
      </trkpt>
      <trkpt lat="-32.12591163883562" lon="-71.41539388444269">
        <time>2019-03-07T04:33:31Z</time>
      </trkpt>
      <trkpt lat="-32.1260120953911" lon="-71.41472206649024">
        <time>2019-03-07T04:33:31Z</time>
      </trkpt>
      <trkpt lat="-32.12620576343984" lon="-71.41348337472613">
        <time>2019-03-07T04:33:31Z</time>
      </trkpt>
      <trkpt lat="-32.12639884113496" lon="-71.41220144792993">
        <time>2019-03-07T04:33:31Z</time>
      </trkpt>
      <trkpt lat="-32.12657725644687" lon="-71.41108538698427">
        <time>2019-03-07T04:33:31Z</time>
      </trkpt>
      <trkpt lat="-32.12663143387136" lon="-71.41071929994037">
        <time>2019-03-07T04:33:31Z</time>
      </trkpt>
      <trkpt lat="-32.126857842334" lon="-71.40924784824534">
        <time>2019-03-07T04:33:31Z</time>
      </trkpt>
      <trkpt lat="-32.12693402394003" lon="-71.40877497226541">
        <time>2019-03-07T04:33:31Z</time>
      </trkpt>
      <trkpt lat="-32.1269653376965" lon="-71.40862797201906">
        <time>2019-03-07T04:33:31Z</time>
      </trkpt>
      <trkpt lat="-32.12701366289105" lon="-71.40843639528079">
        <time>2019-03-07T04:33:31Z</time>
      </trkpt>
      <trkpt lat="-32.12706037433746" lon="-71.40830080508464">
        <time>2019-03-07T04:33:31Z</time>
      </trkpt>
      <trkpt lat="-32.12714037775297" lon="-71.40811864268166">
        <time>2019-03-07T04:33:31Z</time>
      </trkpt>
      <trkpt lat="-32.12732574501787" lon="-71.40776623746689">
        <time>2019-03-07T04:33:31Z</time>
      </trkpt>
      <trkpt lat="-32.12785218777916" lon="-71.40674171938782">
        <time>2019-03-07T04:33:31Z</time>
      </trkpt>
      <trkpt lat="-32.12805680170479" lon="-71.4063400807577">
        <time>2019-03-07T04:33:31Z</time>
      </trkpt>
      <trkpt lat="-32.12842051630867" lon="-71.40579363013721">
        <time>2019-03-07T04:33:31Z</time>
      </trkpt>
      <trkpt lat="-32.12889772078549" lon="-71.4051096984181">
        <time>2019-03-07T04:33:31Z</time>
      </trkpt>
      <trkpt lat="-32.1290890615271" lon="-71.40482917652808">
        <time>2019-03-07T04:33:31Z</time>
      </trkpt>
      <trkpt lat="-32.12927981973091" lon="-71.40462175806799">
        <time>2019-03-07T04:33:31Z</time>
      </trkpt>
      <trkpt lat="-32.12935727401075" lon="-71.40455677330392">
        <time>2019-03-07T04:33:31Z</time>
      </trkpt>
      <trkpt lat="-32.1295856606897" lon="-71.40437232261783">
        <time>2019-03-07T04:33:31Z</time>
      </trkpt>
      <trkpt lat="-32.12969926038542" lon="-71.40424737784433">
        <time>2019-03-07T04:33:31Z</time>
      </trkpt>
      <trkpt lat="-32.12978110046454" lon="-71.40412835389644">
        <time>2019-03-07T04:33:31Z</time>
      </trkpt>
      <trkpt lat="-32.12983666280918" lon="-71.40397198996868">
        <time>2019-03-07T04:33:31Z</time>
      </trkpt>
      <trkpt lat="-32.12987975628735" lon="-71.40380298667947">
        <time>2019-03-07T04:33:31Z</time>
      </trkpt>
      <trkpt lat="-32.12993228422231" lon="-71.4034735390517">
        <time>2019-03-07T04:33:31Z</time>
      </trkpt>
      <trkpt lat="-32.13004483784131" lon="-71.40290304935303">
        <time>2019-03-07T04:33:31Z</time>
      </trkpt>
      <trkpt lat="-32.13013232450948" lon="-71.4025769495007">
        <time>2019-03-07T04:33:31Z</time>
      </trkpt>
      <trkpt lat="-32.13030487668947" lon="-71.40216273838722">
        <time>2019-03-07T04:33:31Z</time>
      </trkpt>
      <trkpt lat="-32.13049478427313" lon="-71.40177818502572">
        <time>2019-03-07T04:33:31Z</time>
      </trkpt>
      <trkpt lat="-32.13072713858839" lon="-71.40142302821138">
        <time>2019-03-07T04:33:31Z</time>
      </trkpt>
      <trkpt lat="-32.13105353673961" lon="-71.40104175975945">
        <time>2019-03-07T04:33:31Z</time>
      </trkpt>
      <trkpt lat="-32.13123339529908" lon="-71.40086243303593">
        <time>2019-03-07T04:33:31Z</time>
      </trkpt>
      <trkpt lat="-32.13174770344401" lon="-71.4004082474748">
        <time>2019-03-07T04:33:31Z</time>
      </trkpt>
      <trkpt lat="-32.13272030986194" lon="-71.39957547961386">
        <time>2019-03-07T04:33:31Z</time>
      </trkpt>
      <trkpt lat="-32.1329148351001" lon="-71.39938269993624">
        <time>2019-03-07T04:33:31Z</time>
      </trkpt>
      <trkpt lat="-32.13315858069645" lon="-71.39908447104246">
        <time>2019-03-07T04:33:31Z</time>
      </trkpt>
      <trkpt lat="-32.13336820077346" lon="-71.3987580351246">
        <time>2019-03-07T04:33:31Z</time>
      </trkpt>
      <trkpt lat="-32.13345621387951" lon="-71.39860552952266">
        <time>2019-03-07T04:33:31Z</time>
      </trkpt>
      <trkpt lat="-32.13383586261239" lon="-71.39778635441355">
        <time>2019-03-07T04:33:31Z</time>
      </trkpt>
      <trkpt lat="-32.13486287239164" lon="-71.39554821068828">
        <time>2019-03-07T04:33:31Z</time>
      </trkpt>
      <trkpt lat="-32.13583155511812" lon="-71.39342771934872">
        <time>2019-03-07T04:33:31Z</time>
      </trkpt>
      <trkpt lat="-32.13684520097082" lon="-71.39119811540108">
        <time>2019-03-07T04:33:31Z</time>
      </trkpt>
      <trkpt lat="-32.13695895126271" lon="-71.39096327641073">
        <time>2019-03-07T04:33:31Z</time>
      </trkpt>
      <trkpt lat="-32.13705688649653" lon="-71.39078835338314">
        <time>2019-03-07T04:33:31Z</time>
      </trkpt>
      <trkpt lat="-32.13717451598818" lon="-71.39062504820852">
        <time>2019-03-07T04:33:31Z</time>
      </trkpt>
      <trkpt lat="-32.13734003364736" lon="-71.3904248807559">
        <time>2019-03-07T04:33:31Z</time>
      </trkpt>
      <trkpt lat="-32.13769402267942" lon="-71.39005521471667">
        <time>2019-03-07T04:33:31Z</time>
      </trkpt>
      <trkpt lat="-32.13791599575298" lon="-71.389822871576">
        <time>2019-03-07T04:33:31Z</time>
      </trkpt>
      <trkpt lat="-32.13808592011776" lon="-71.38964032421052">
        <time>2019-03-07T04:33:31Z</time>
      </trkpt>
      <trkpt lat="-32.13815043573565" lon="-71.38954349767614">
        <time>2019-03-07T04:33:31Z</time>
      </trkpt>
      <trkpt lat="-32.13817545694931" lon="-71.38946495453084">
        <time>2019-03-07T04:33:31Z</time>
      </trkpt>
      <trkpt lat="-32.13816829706598" lon="-71.38936974578904">
        <time>2019-03-07T04:33:31Z</time>
      </trkpt>
      <trkpt lat="-32.13813510444037" lon="-71.38925280068222">
        <time>2019-03-07T04:33:31Z</time>
      </trkpt>
      <trkpt lat="-32.13807812772271" lon="-71.38915956997487">
        <time>2019-03-07T04:33:31Z</time>
      </trkpt>
      <trkpt lat="-32.13801632861977" lon="-71.38910034223889">
        <time>2019-03-07T04:33:31Z</time>
      </trkpt>
      <trkpt lat="-32.13793160611487" lon="-71.38905613420157">
        <time>2019-03-07T04:33:31Z</time>
      </trkpt>
      <trkpt lat="-32.1375830869685" lon="-71.38890272526257">
        <time>2019-03-07T04:33:31Z</time>
      </trkpt>
      <trkpt lat="-32.13743257783427" lon="-71.38881039705231">
        <time>2019-03-07T04:33:31Z</time>
      </trkpt>
      <trkpt lat="-32.13731206483612" lon="-71.38869744816812">
        <time>2019-03-07T04:33:31Z</time>
      </trkpt>
      <trkpt lat="-32.13720136436184" lon="-71.38854088097538">
        <time>2019-03-07T04:33:31Z</time>
      </trkpt>
      <trkpt lat="-32.13715729453252" lon="-71.38844568114239">
        <time>2019-03-07T04:33:31Z</time>
      </trkpt>
      <trkpt lat="-32.13712868843368" lon="-71.38835424404574">
        <time>2019-03-07T04:33:31Z</time>
      </trkpt>
      <trkpt lat="-32.13706920317975" lon="-71.38805568723949">
        <time>2019-03-07T04:33:31Z</time>
      </trkpt>
      <trkpt lat="-32.13674007789135" lon="-71.38594601223781">
        <time>2019-03-07T04:33:31Z</time>
      </trkpt>
      <trkpt lat="-32.13664872882161" lon="-71.38533924745872">
        <time>2019-03-07T04:33:31Z</time>
      </trkpt>
      <trkpt lat="-32.13662614422025" lon="-71.38520351213721">
        <time>2019-03-07T04:33:31Z</time>
      </trkpt>
      <trkpt lat="-32.13658689784452" lon="-71.38508191496219">
        <time>2019-03-07T04:33:31Z</time>
      </trkpt>
      <trkpt lat="-32.13653892997592" lon="-71.38496016467499">
        <time>2019-03-07T04:33:31Z</time>
      </trkpt>
      <trkpt lat="-32.13584628491363" lon="-71.3837371787393">
        <time>2019-03-07T04:33:31Z</time>
      </trkpt>
      <trkpt lat="-32.13560952639359" lon="-71.38329254373048">
        <time>2019-03-07T04:33:31Z</time>
      </trkpt>
      <trkpt lat="-32.13533764391023" lon="-71.38260063494239">
        <time>2019-03-07T04:33:31Z</time>
      </trkpt>
      <trkpt lat="-32.13514808156851" lon="-71.38207029042617">
        <time>2019-03-07T04:33:31Z</time>
      </trkpt>
      <trkpt lat="-32.13506055962111" lon="-71.38186275293201">
        <time>2019-03-07T04:33:31Z</time>
      </trkpt>
      <trkpt lat="-32.13468046273279" lon="-71.38101933728385">
        <time>2019-03-07T04:33:31Z</time>
      </trkpt>
      <trkpt lat="-32.13442900384143" lon="-71.38054271404354">
        <time>2019-03-07T04:33:31Z</time>
      </trkpt>
      <trkpt lat="-32.13389967838103" lon="-71.37958096995196">
        <time>2019-03-07T04:33:31Z</time>
      </trkpt>
      <trkpt lat="-32.13381916750886" lon="-71.37940975630006">
        <time>2019-03-07T04:33:31Z</time>
      </trkpt>
      <trkpt lat="-32.13377381625287" lon="-71.37928744656415">
        <time>2019-03-07T04:33:31Z</time>
      </trkpt>
      <trkpt lat="-32.13374009397219" lon="-71.3791535241614">
        <time>2019-03-07T04:33:31Z</time>
      </trkpt>
      <trkpt lat="-32.1337288681917" lon="-71.37904623510157">
        <time>2019-03-07T04:33:31Z</time>
      </trkpt>
      <trkpt lat="-32.13378645375256" lon="-71.378384725328">
        <time>2019-03-07T04:33:31Z</time>
      </trkpt>
      <trkpt lat="-32.13392495586" lon="-71.37697303268176">
        <time>2019-03-07T04:33:31Z</time>
      </trkpt>
      <trkpt lat="-32.13393304709225" lon="-71.37684847379094">
        <time>2019-03-07T04:33:31Z</time>
      </trkpt>
      <trkpt lat="-32.1339410501552" lon="-71.376692196468">
        <time>2019-03-07T04:33:31Z</time>
      </trkpt>
      <trkpt lat="-32.13395424577563" lon="-71.37658621257982">
        <time>2019-03-07T04:33:31Z</time>
      </trkpt>
      <trkpt lat="-32.13403166886804" lon="-71.37622146526159">
        <time>2019-03-07T04:33:31Z</time>
      </trkpt>
      <trkpt lat="-32.13413235919836" lon="-71.37583255270909">
        <time>2019-03-07T04:33:31Z</time>
      </trkpt>
      <trkpt lat="-32.13433069567977" lon="-71.37498554493318">
        <time>2019-03-07T04:33:31Z</time>
      </trkpt>
      <trkpt lat="-32.13435640415273" lon="-71.37481674996003">
        <time>2019-03-07T04:33:31Z</time>
      </trkpt>
      <trkpt lat="-32.13435501422442" lon="-71.37471283214516">
        <time>2019-03-07T04:33:31Z</time>
      </trkpt>
      <trkpt lat="-32.13434034731152" lon="-71.37464461058045">
        <time>2019-03-07T04:33:31Z</time>
      </trkpt>
      <trkpt lat="-32.13430082779874" lon="-71.37456815508477">
        <time>2019-03-07T04:33:31Z</time>
      </trkpt>
      <trkpt lat="-32.13424407311502" lon="-71.3744923252015">
        <time>2019-03-07T04:33:31Z</time>
      </trkpt>
      <trkpt lat="-32.13383897023793" lon="-71.37410916471866">
        <time>2019-03-07T04:33:31Z</time>
      </trkpt>
      <trkpt lat="-32.13374961725371" lon="-71.37401636337758">
        <time>2019-03-07T04:33:31Z</time>
      </trkpt>
      <trkpt lat="-32.13368777508968" lon="-71.37393394892371">
        <time>2019-03-07T04:33:31Z</time>
      </trkpt>
      <trkpt lat="-32.13361629134772" lon="-71.37379776490462">
        <time>2019-03-07T04:33:31Z</time>
      </trkpt>
      <trkpt lat="-32.13355874748346" lon="-71.37364342309063">
        <time>2019-03-07T04:33:31Z</time>
      </trkpt>
      <trkpt lat="-32.13354739593157" lon="-71.3735257573383">
        <time>2019-03-07T04:33:31Z</time>
      </trkpt>
      <trkpt lat="-32.13357068387937" lon="-71.37329698500059">
        <time>2019-03-07T04:33:31Z</time>
      </trkpt>
      <trkpt lat="-32.13370868371239" lon="-71.37248966643432">
        <time>2019-03-07T04:33:31Z</time>
      </trkpt>
      <trkpt lat="-32.13410679651201" lon="-71.37028067896155">
        <time>2019-03-07T04:33:31Z</time>
      </trkpt>
      <trkpt lat="-32.1343177829234" lon="-71.3692200729656">
        <time>2019-03-07T04:33:31Z</time>
      </trkpt>
      <trkpt lat="-32.13438773476459" lon="-71.36893294027205">
        <time>2019-03-07T04:33:31Z</time>
      </trkpt>
      <trkpt lat="-32.13442897530371" lon="-71.36877375669864">
        <time>2019-03-07T04:33:31Z</time>
      </trkpt>
      <trkpt lat="-32.13470339867222" lon="-71.36791320353035">
        <time>2019-03-07T04:33:31Z</time>
      </trkpt>
      <trkpt lat="-32.13503903814365" lon="-71.36686148526484">
        <time>2019-03-07T04:33:31Z</time>
      </trkpt>
      <trkpt lat="-32.13506359834688" lon="-71.3667978657909">
        <time>2019-03-07T04:33:31Z</time>
      </trkpt>
      <trkpt lat="-32.13509111966504" lon="-71.36671619285738">
        <time>2019-03-07T04:33:31Z</time>
      </trkpt>
      <trkpt lat="-32.1354474995047" lon="-71.36592034630996">
        <time>2019-03-07T04:33:31Z</time>
      </trkpt>
      <trkpt lat="-32.13548855017228" lon="-71.36581058744109">
        <time>2019-03-07T04:33:31Z</time>
      </trkpt>
      <trkpt lat="-32.13551720246765" lon="-71.36570811424457">
        <time>2019-03-07T04:33:31Z</time>
      </trkpt>
      <trkpt lat="-32.13554260402583" lon="-71.36557177932259">
        <time>2019-03-07T04:33:31Z</time>
      </trkpt>
      <trkpt lat="-32.1355558840256" lon="-71.36545876981096">
        <time>2019-03-07T04:33:31Z</time>
      </trkpt>
      <trkpt lat="-32.13555071829271" lon="-71.3653600795984">
        <time>2019-03-07T04:33:31Z</time>
      </trkpt>
      <trkpt lat="-32.13543779958192" lon="-71.36409070559961">
        <time>2019-03-07T04:33:31Z</time>
      </trkpt>
      <trkpt lat="-32.13535136241136" lon="-71.3631540803535">
        <time>2019-03-07T04:33:31Z</time>
      </trkpt>
      <trkpt lat="-32.13534188316204" lon="-71.36306591989494">
        <time>2019-03-07T04:33:31Z</time>
      </trkpt>
      <trkpt lat="-32.13532819392718" lon="-71.36299247914569">
        <time>2019-03-07T04:33:31Z</time>
      </trkpt>
      <trkpt lat="-32.13527948823346" lon="-71.36287272967417">
        <time>2019-03-07T04:33:31Z</time>
      </trkpt>
      <trkpt lat="-32.13521222789495" lon="-71.36273848751428">
        <time>2019-03-07T04:33:31Z</time>
      </trkpt>
      <trkpt lat="-32.13512402829874" lon="-71.36254691452112">
        <time>2019-03-07T04:33:31Z</time>
      </trkpt>
      <trkpt lat="-32.13506400972943" lon="-71.36243968510543">
        <time>2019-03-07T04:33:31Z</time>
      </trkpt>
      <trkpt lat="-32.13503055973028" lon="-71.36235764126599">
        <time>2019-03-07T04:33:31Z</time>
      </trkpt>
      <trkpt lat="-32.13501666769553" lon="-71.36228001740776">
        <time>2019-03-07T04:33:31Z</time>
      </trkpt>
      <trkpt lat="-32.13502733910632" lon="-71.36218168442753">
        <time>2019-03-07T04:33:31Z</time>
      </trkpt>
      <trkpt lat="-32.13508700822867" lon="-71.36206306813685">
        <time>2019-03-07T04:33:31Z</time>
      </trkpt>
      <trkpt lat="-32.13529330695619" lon="-71.36176768964792">
        <time>2019-03-07T04:33:31Z</time>
      </trkpt>
      <trkpt lat="-32.13533856969709" lon="-71.36169256734375">
        <time>2019-03-07T04:33:31Z</time>
      </trkpt>
      <trkpt lat="-32.13535881507509" lon="-71.36161991250098">
        <time>2019-03-07T04:33:31Z</time>
      </trkpt>
      <trkpt lat="-32.1353711116323" lon="-71.36147656348267">
        <time>2019-03-07T04:33:31Z</time>
      </trkpt>
      <trkpt lat="-32.13537953910306" lon="-71.36114449783199">
        <time>2019-03-07T04:33:31Z</time>
      </trkpt>
      <trkpt lat="-32.13537637057264" lon="-71.3610450364491">
        <time>2019-03-07T04:33:31Z</time>
      </trkpt>
      <trkpt lat="-32.1353731096345" lon="-71.36094393441778">
        <time>2019-03-07T04:33:31Z</time>
      </trkpt>
      <trkpt lat="-32.13536928404291" lon="-71.36084781926107">
        <time>2019-03-07T04:33:31Z</time>
      </trkpt>
      <trkpt lat="-32.13536885479734" lon="-71.36073088680683">
        <time>2019-03-07T04:33:31Z</time>
      </trkpt>
      <trkpt lat="-32.13537726749001" lon="-71.36064077382866">
        <time>2019-03-07T04:33:31Z</time>
      </trkpt>
      <trkpt lat="-32.13540500702629" lon="-71.36044394453471">
        <time>2019-03-07T04:33:31Z</time>
      </trkpt>
      <trkpt lat="-32.13553126639144" lon="-71.35984534711788">
        <time>2019-03-07T04:33:31Z</time>
      </trkpt>
      <trkpt lat="-32.13561584024255" lon="-71.3595520679975">
        <time>2019-03-07T04:33:31Z</time>
      </trkpt>
      <trkpt lat="-32.13567859900308" lon="-71.35937789084282">
        <time>2019-03-07T04:33:31Z</time>
      </trkpt>
      <trkpt lat="-32.13571490955507" lon="-71.35924813904023">
        <time>2019-03-07T04:33:31Z</time>
      </trkpt>
      <trkpt lat="-32.13577213578435" lon="-71.35900936829054">
        <time>2019-03-07T04:33:31Z</time>
      </trkpt>
      <trkpt lat="-32.13578916345352" lon="-71.3589040036811">
        <time>2019-03-07T04:33:31Z</time>
      </trkpt>
      <trkpt lat="-32.13581398396557" lon="-71.35870239119632">
        <time>2019-03-07T04:33:31Z</time>
      </trkpt>
      <trkpt lat="-32.13583226237723" lon="-71.35850104806893">
        <time>2019-03-07T04:33:31Z</time>
      </trkpt>
      <trkpt lat="-32.13583514444883" lon="-71.35836744618129">
        <time>2019-03-07T04:33:31Z</time>
      </trkpt>
      <trkpt lat="-32.13583508219755" lon="-71.35817634302278">
        <time>2019-03-07T04:33:31Z</time>
      </trkpt>
      <trkpt lat="-32.13582548665771" lon="-71.35808310506633">
        <time>2019-03-07T04:33:31Z</time>
      </trkpt>
      <trkpt lat="-32.13579646646437" lon="-71.357843032766">
        <time>2019-03-07T04:33:31Z</time>
      </trkpt>
      <trkpt lat="-32.13568432457317" lon="-71.35727685766334">
        <time>2019-03-07T04:33:31Z</time>
      </trkpt>
      <trkpt lat="-32.13561662659319" lon="-71.35694625755833">
        <time>2019-03-07T04:33:31Z</time>
      </trkpt>
      <trkpt lat="-32.13558107152971" lon="-71.35674538120037">
        <time>2019-03-07T04:33:31Z</time>
      </trkpt>
      <trkpt lat="-32.13556682774328" lon="-71.35663329005023">
        <time>2019-03-07T04:33:31Z</time>
      </trkpt>
      <trkpt lat="-32.13555889966087" lon="-71.35651938582603">
        <time>2019-03-07T04:33:31Z</time>
      </trkpt>
      <trkpt lat="-32.13556721832283" lon="-71.35640478465895">
        <time>2019-03-07T04:33:31Z</time>
      </trkpt>
      <trkpt lat="-32.13558320219549" lon="-71.35632166884858">
        <time>2019-03-07T04:33:31Z</time>
      </trkpt>
      <trkpt lat="-32.13561550468348" lon="-71.3562320038282">
        <time>2019-03-07T04:33:31Z</time>
      </trkpt>
      <trkpt lat="-32.13583291263485" lon="-71.35583188729524">
        <time>2019-03-07T04:33:31Z</time>
      </trkpt>
      <trkpt lat="-32.13591880012316" lon="-71.35568145850705">
        <time>2019-03-07T04:33:31Z</time>
      </trkpt>
      <trkpt lat="-32.13600752895095" lon="-71.35554695631979">
        <time>2019-03-07T04:33:31Z</time>
      </trkpt>
      <trkpt lat="-32.13606050476357" lon="-71.35548578614544">
        <time>2019-03-07T04:33:31Z</time>
      </trkpt>
      <trkpt lat="-32.13614986938457" lon="-71.35538789165788">
        <time>2019-03-07T04:33:31Z</time>
      </trkpt>
      <trkpt lat="-32.13620160155284" lon="-71.35533946350897">
        <time>2019-03-07T04:33:31Z</time>
      </trkpt>
      <trkpt lat="-32.13683088651791" lon="-71.35489771645956">
        <time>2019-03-07T04:33:31Z</time>
      </trkpt>
      <trkpt lat="-32.13729097869449" lon="-71.35457553352411">
        <time>2019-03-07T04:33:31Z</time>
      </trkpt>
      <trkpt lat="-32.13739096294884" lon="-71.35449479697805">
        <time>2019-03-07T04:33:31Z</time>
      </trkpt>
      <trkpt lat="-32.13750479912003" lon="-71.35438434201828">
        <time>2019-03-07T04:33:31Z</time>
      </trkpt>
      <trkpt lat="-32.13762017733033" lon="-71.35423893924241">
        <time>2019-03-07T04:33:31Z</time>
      </trkpt>
      <trkpt lat="-32.1377581943486" lon="-71.35404144261983">
        <time>2019-03-07T04:33:31Z</time>
      </trkpt>
      <trkpt lat="-32.13784847119441" lon="-71.35393738939389">
        <time>2019-03-07T04:33:31Z</time>
      </trkpt>
      <trkpt lat="-32.13797643316922" lon="-71.35381432018443">
        <time>2019-03-07T04:33:31Z</time>
      </trkpt>
      <trkpt lat="-32.13804583892301" lon="-71.35376115367444">
        <time>2019-03-07T04:33:31Z</time>
      </trkpt>
      <trkpt lat="-32.13816671792699" lon="-71.35366702369302">
        <time>2019-03-07T04:33:31Z</time>
      </trkpt>
      <trkpt lat="-32.13825699801669" lon="-71.35358833441536">
        <time>2019-03-07T04:33:31Z</time>
      </trkpt>
      <trkpt lat="-32.13830500591857" lon="-71.35353219263605">
        <time>2019-03-07T04:33:31Z</time>
      </trkpt>
      <trkpt lat="-32.13834185054004" lon="-71.35346493835459">
        <time>2019-03-07T04:33:31Z</time>
      </trkpt>
      <trkpt lat="-32.13835478721836" lon="-71.3533983614107">
        <time>2019-03-07T04:33:31Z</time>
      </trkpt>
      <trkpt lat="-32.13834873440001" lon="-71.35332380741018">
        <time>2019-03-07T04:33:31Z</time>
      </trkpt>
      <trkpt lat="-32.13832845720677" lon="-71.35326722455289">
        <time>2019-03-07T04:33:31Z</time>
      </trkpt>
      <trkpt lat="-32.13829365311133" lon="-71.35320212626405">
        <time>2019-03-07T04:33:31Z</time>
      </trkpt>
      <trkpt lat="-32.13822215538114" lon="-71.35312359230402">
        <time>2019-03-07T04:33:31Z</time>
      </trkpt>
      <trkpt lat="-32.13806223328829" lon="-71.35295678868414">
        <time>2019-03-07T04:33:31Z</time>
      </trkpt>
      <trkpt lat="-32.13800451034609" lon="-71.35288315002069">
        <time>2019-03-07T04:33:31Z</time>
      </trkpt>
      <trkpt lat="-32.13780121381628" lon="-71.35262327412065">
        <time>2019-03-07T04:33:31Z</time>
      </trkpt>
      <trkpt lat="-32.13774190497347" lon="-71.35255198720911">
        <time>2019-03-07T04:33:31Z</time>
      </trkpt>
      <trkpt lat="-32.13699804740803" lon="-71.35168390307815">
        <time>2019-03-07T04:33:31Z</time>
      </trkpt>
      <trkpt lat="-32.135804106674" lon="-71.35026844380825">
        <time>2019-03-07T04:33:31Z</time>
      </trkpt>
      <trkpt lat="-32.13554466589397" lon="-71.34999824081937">
        <time>2019-03-07T04:33:31Z</time>
      </trkpt>
      <trkpt lat="-32.13538138307985" lon="-71.34986631000921">
        <time>2019-03-07T04:33:31Z</time>
      </trkpt>
      <trkpt lat="-32.13509303603045" lon="-71.34972023949287">
        <time>2019-03-07T04:33:31Z</time>
      </trkpt>
      <trkpt lat="-32.13437116914" lon="-71.34932725231249">
        <time>2019-03-07T04:33:31Z</time>
      </trkpt>
      <trkpt lat="-32.13391326737585" lon="-71.34906167390095">
        <time>2019-03-07T04:33:31Z</time>
      </trkpt>
      <trkpt lat="-32.13382234949914" lon="-71.34900380432713">
        <time>2019-03-07T04:33:31Z</time>
      </trkpt>
      <trkpt lat="-32.13370772259744" lon="-71.3489069714883">
        <time>2019-03-07T04:33:31Z</time>
      </trkpt>
      <trkpt lat="-32.1334482489905" lon="-71.34862810897039">
        <time>2019-03-07T04:33:31Z</time>
      </trkpt>
      <trkpt lat="-32.13338362645596" lon="-71.34856290155238">
        <time>2019-03-07T04:33:31Z</time>
      </trkpt>
      <trkpt lat="-32.13329199269865" lon="-71.34849538824369">
        <time>2019-03-07T04:33:31Z</time>
      </trkpt>
      <trkpt lat="-32.13281075492067" lon="-71.34810616569608">
        <time>2019-03-07T04:33:31Z</time>
      </trkpt>
      <trkpt lat="-32.13267318616918" lon="-71.34796430359775">
        <time>2019-03-07T04:33:31Z</time>
      </trkpt>
      <trkpt lat="-32.13254190083489" lon="-71.34779535628465">
        <time>2019-03-07T04:33:31Z</time>
      </trkpt>
      <trkpt lat="-32.132380370743" lon="-71.34753546491913">
        <time>2019-03-07T04:33:31Z</time>
      </trkpt>
      <trkpt lat="-32.13221752845328" lon="-71.34725930129267">
        <time>2019-03-07T04:33:31Z</time>
      </trkpt>
      <trkpt lat="-32.13214035994114" lon="-71.34710145174331">
        <time>2019-03-07T04:33:31Z</time>
      </trkpt>
      <trkpt lat="-32.13210071005406" lon="-71.34699635449182">
        <time>2019-03-07T04:33:31Z</time>
      </trkpt>
      <trkpt lat="-32.13205744854695" lon="-71.3468031998611">
        <time>2019-03-07T04:33:31Z</time>
      </trkpt>
      <trkpt lat="-32.1320468805834" lon="-71.34656097634903">
        <time>2019-03-07T04:33:31Z</time>
      </trkpt>
      <trkpt lat="-32.13209048567698" lon="-71.34606345019253">
        <time>2019-03-07T04:33:31Z</time>
      </trkpt>
      <trkpt lat="-32.13209273242224" lon="-71.34590832296719">
        <time>2019-03-07T04:33:31Z</time>
      </trkpt>
      <trkpt lat="-32.13208386798379" lon="-71.34559599132992">
        <time>2019-03-07T04:33:31Z</time>
      </trkpt>
      <trkpt lat="-32.13207590134575" lon="-71.34535777535677">
        <time>2019-03-07T04:33:31Z</time>
      </trkpt>
      <trkpt lat="-32.1320454183394" lon="-71.34482150657289">
        <time>2019-03-07T04:33:31Z</time>
      </trkpt>
      <trkpt lat="-32.1319920573051" lon="-71.34439007075032">
        <time>2019-03-07T04:33:31Z</time>
      </trkpt>
      <trkpt lat="-32.13189011508815" lon="-71.34373748260217">
        <time>2019-03-07T04:33:31Z</time>
      </trkpt>
      <trkpt lat="-32.13174181494047" lon="-71.34291104922173">
        <time>2019-03-07T04:33:31Z</time>
      </trkpt>
      <trkpt lat="-32.131675572322" lon="-71.34261074803419">
        <time>2019-03-07T04:33:31Z</time>
      </trkpt>
      <trkpt lat="-32.13156690704165" lon="-71.34216143551545">
        <time>2019-03-07T04:33:31Z</time>
      </trkpt>
      <trkpt lat="-32.13150842939825" lon="-71.34188475083536">
        <time>2019-03-07T04:33:31Z</time>
      </trkpt>
      <trkpt lat="-32.13141388309336" lon="-71.34139072192657">
        <time>2019-03-07T04:33:31Z</time>
      </trkpt>
      <trkpt lat="-32.13105966820346" lon="-71.33960951968527">
        <time>2019-03-07T04:33:31Z</time>
      </trkpt>
      <trkpt lat="-32.13102760015234" lon="-71.33939754896875">
        <time>2019-03-07T04:33:31Z</time>
      </trkpt>
      <trkpt lat="-32.13099224053553" lon="-71.33915202050487">
        <time>2019-03-07T04:33:31Z</time>
      </trkpt>
      <trkpt lat="-32.13095987251034" lon="-71.33892692526919">
        <time>2019-03-07T04:33:31Z</time>
      </trkpt>
      <trkpt lat="-32.13093227931278" lon="-71.33874713420561">
        <time>2019-03-07T04:33:31Z</time>
      </trkpt>
      <trkpt lat="-32.13090061902179" lon="-71.3386386922553">
        <time>2019-03-07T04:33:31Z</time>
      </trkpt>
      <trkpt lat="-32.13083902149001" lon="-71.33849802051677">
        <time>2019-03-07T04:33:31Z</time>
      </trkpt>
      <trkpt lat="-32.13074154187858" lon="-71.33831480325355">
        <time>2019-03-07T04:33:31Z</time>
      </trkpt>
      <trkpt lat="-32.13060650951724" lon="-71.33806660778848">
        <time>2019-03-07T04:33:31Z</time>
      </trkpt>
      <trkpt lat="-32.13054137880326" lon="-71.33797403899739">
        <time>2019-03-07T04:33:31Z</time>
      </trkpt>
      <trkpt lat="-32.1304638814043" lon="-71.33788305585928">
        <time>2019-03-07T04:33:31Z</time>
      </trkpt>
      <trkpt lat="-32.13038060721107" lon="-71.33778665337147">
        <time>2019-03-07T04:33:31Z</time>
      </trkpt>
      <trkpt lat="-32.13026886983523" lon="-71.33768134316254">
        <time>2019-03-07T04:33:31Z</time>
      </trkpt>
      <trkpt lat="-32.12991966322468" lon="-71.33736001715808">
        <time>2019-03-07T04:33:31Z</time>
      </trkpt>
      <trkpt lat="-32.12929562494877" lon="-71.33685744808413">
        <time>2019-03-07T04:33:31Z</time>
      </trkpt>
      <trkpt lat="-32.12770109884866" lon="-71.33553013941507">
        <time>2019-03-07T04:33:31Z</time>
      </trkpt>
      <trkpt lat="-32.12732519138488" lon="-71.33523476544126">
        <time>2019-03-07T04:33:31Z</time>
      </trkpt>
      <trkpt lat="-32.12721498302406" lon="-71.33512907226225">
        <time>2019-03-07T04:33:31Z</time>
      </trkpt>
      <trkpt lat="-32.12716811974485" lon="-71.33504752176044">
        <time>2019-03-07T04:33:31Z</time>
      </trkpt>
      <trkpt lat="-32.12713682811481" lon="-71.33496593300156">
        <time>2019-03-07T04:33:31Z</time>
      </trkpt>
      <trkpt lat="-32.12712907554053" lon="-71.33487472009631">
        <time>2019-03-07T04:33:31Z</time>
      </trkpt>
      <trkpt lat="-32.12714914841623" lon="-71.33466801274989">
        <time>2019-03-07T04:33:31Z</time>
      </trkpt>
      <trkpt lat="-32.12716358334444" lon="-71.33445438365555">
        <time>2019-03-07T04:33:31Z</time>
      </trkpt>
      <trkpt lat="-32.12715014936614" lon="-71.33436869723194">
        <time>2019-03-07T04:33:31Z</time>
      </trkpt>
      <trkpt lat="-32.127117137162" lon="-71.33430196013812">
        <time>2019-03-07T04:33:31Z</time>
      </trkpt>
      <trkpt lat="-32.12708443317005" lon="-71.33426568338705">
        <time>2019-03-07T04:33:31Z</time>
      </trkpt>
      <trkpt lat="-32.12703946900514" lon="-71.33424633286579">
        <time>2019-03-07T04:33:31Z</time>
      </trkpt>
      <trkpt lat="-32.12698153264234" lon="-71.33423095536885">
        <time>2019-03-07T04:33:31Z</time>
      </trkpt>
      <trkpt lat="-32.12691473792722" lon="-71.33423959159514">
        <time>2019-03-07T04:33:31Z</time>
      </trkpt>
      <trkpt lat="-32.12617224172436" lon="-71.33461593924696">
        <time>2019-03-07T04:33:31Z</time>
      </trkpt>
      <trkpt lat="-32.12610538735999" lon="-71.33464964163969">
        <time>2019-03-07T04:33:31Z</time>
      </trkpt>
      <trkpt lat="-32.1260391810442" lon="-71.33465803655983">
        <time>2019-03-07T04:33:31Z</time>
      </trkpt>
      <trkpt lat="-32.12598572193564" lon="-71.33465310266369">
        <time>2019-03-07T04:33:31Z</time>
      </trkpt>
      <trkpt lat="-32.12592358402727" lon="-71.33463315566432">
        <time>2019-03-07T04:33:31Z</time>
      </trkpt>
      <trkpt lat="-32.12585608363344" lon="-71.33457676628521">
        <time>2019-03-07T04:33:31Z</time>
      </trkpt>
      <trkpt lat="-32.12578615156262" lon="-71.3345141275891">
        <time>2019-03-07T04:33:31Z</time>
      </trkpt>
      <trkpt lat="-32.12534326735981" lon="-71.33391312629648">
        <time>2019-03-07T04:33:31Z</time>
      </trkpt>
      <trkpt lat="-32.12514098825606" lon="-71.33362576971678">
        <time>2019-03-07T04:33:31Z</time>
      </trkpt>
      <trkpt lat="-32.12494676512837" lon="-71.33338113044857">
        <time>2019-03-07T04:33:31Z</time>
      </trkpt>
      <trkpt lat="-32.12484021109339" lon="-71.33326206354523">
        <time>2019-03-07T04:33:31Z</time>
      </trkpt>
      <trkpt lat="-32.12460346951151" lon="-71.33293612311499">
        <time>2019-03-07T04:33:31Z</time>
      </trkpt>
      <trkpt lat="-32.12399838962795" lon="-71.33209754492674">
        <time>2019-03-07T04:33:31Z</time>
      </trkpt>
      <trkpt lat="-32.12372229464604" lon="-71.33173540716484">
        <time>2019-03-07T04:33:31Z</time>
      </trkpt>
      <trkpt lat="-32.12361866565188" lon="-71.33159681870095">
        <time>2019-03-07T04:33:31Z</time>
      </trkpt>
      <trkpt lat="-32.12350606910025" lon="-71.33142553609085">
        <time>2019-03-07T04:33:31Z</time>
      </trkpt>
      <trkpt lat="-32.12341379780512" lon="-71.33130327696922">
        <time>2019-03-07T04:33:31Z</time>
      </trkpt>
      <trkpt lat="-32.12242898353096" lon="-71.32998458173525">
        <time>2019-03-07T04:33:31Z</time>
      </trkpt>
      <trkpt lat="-32.12064966898699" lon="-71.3276539833786">
        <time>2019-03-07T04:33:31Z</time>
      </trkpt>
      <trkpt lat="-32.11960616943846" lon="-71.32625918727199">
        <time>2019-03-07T04:33:31Z</time>
      </trkpt>
      <trkpt lat="-32.11949903979103" lon="-71.32610888487623">
        <time>2019-03-07T04:33:31Z</time>
      </trkpt>
      <trkpt lat="-32.11941283944058" lon="-71.32598027871904">
        <time>2019-03-07T04:33:31Z</time>
      </trkpt>
      <trkpt lat="-32.11933619318324" lon="-71.32588073986589">
        <time>2019-03-07T04:33:31Z</time>
      </trkpt>
      <trkpt lat="-32.11910526567949" lon="-71.32557172455992">
        <time>2019-03-07T04:33:31Z</time>
      </trkpt>
      <trkpt lat="-32.11885748234094" lon="-71.32523007851056">
        <time>2019-03-07T04:33:31Z</time>
      </trkpt>
      <trkpt lat="-32.11875628757034" lon="-71.32506251738455">
        <time>2019-03-07T04:33:31Z</time>
      </trkpt>
      <trkpt lat="-32.11867172341211" lon="-71.3248986535629">
        <time>2019-03-07T04:33:31Z</time>
      </trkpt>
      <trkpt lat="-32.11859018361767" lon="-71.32471387714226">
        <time>2019-03-07T04:33:31Z</time>
      </trkpt>
      <trkpt lat="-32.11853789934311" lon="-71.32455126956648">
        <time>2019-03-07T04:33:31Z</time>
      </trkpt>
      <trkpt lat="-32.11849872818457" lon="-71.32437297150835">
        <time>2019-03-07T04:33:31Z</time>
      </trkpt>
      <trkpt lat="-32.11847082909554" lon="-71.32419832882566">
        <time>2019-03-07T04:33:31Z</time>
      </trkpt>
      <trkpt lat="-32.11846265565312" lon="-71.32404196508591">
        <time>2019-03-07T04:33:31Z</time>
      </trkpt>
      <trkpt lat="-32.11838663828445" lon="-71.32267705829015">
        <time>2019-03-07T04:33:31Z</time>
      </trkpt>
      <trkpt lat="-32.11825258294432" lon="-71.32063298154205">
        <time>2019-03-07T04:33:31Z</time>
      </trkpt>
      <trkpt lat="-32.11810102182361" lon="-71.3184929182713">
        <time>2019-03-07T04:33:31Z</time>
      </trkpt>
      <trkpt lat="-32.11796717551808" lon="-71.31623885311316">
        <time>2019-03-07T04:33:31Z</time>
      </trkpt>
      <trkpt lat="-32.11788750387564" lon="-71.31510840634951">
        <time>2019-03-07T04:33:31Z</time>
      </trkpt>
      <trkpt lat="-32.11787343460539" lon="-71.3149893035751">
        <time>2019-03-07T04:33:31Z</time>
      </trkpt>
      <trkpt lat="-32.11784335898632" lon="-71.31486439400729">
        <time>2019-03-07T04:33:31Z</time>
      </trkpt>
      <trkpt lat="-32.11779747075301" lon="-71.31476328522393">
        <time>2019-03-07T04:33:31Z</time>
      </trkpt>
      <trkpt lat="-32.11773422218131" lon="-71.31466545213861">
        <time>2019-03-07T04:33:31Z</time>
      </trkpt>
      <trkpt lat="-32.1176004058778" lon="-71.31452139025885">
        <time>2019-03-07T04:33:31Z</time>
      </trkpt>
      <trkpt lat="-32.11750229980119" lon="-71.31443652725896">
        <time>2019-03-07T04:33:31Z</time>
      </trkpt>
      <trkpt lat="-32.11723634554214" lon="-71.31427497342743">
        <time>2019-03-07T04:33:31Z</time>
      </trkpt>
      <trkpt lat="-32.11708193246012" lon="-71.31416272264296">
        <time>2019-03-07T04:33:31Z</time>
      </trkpt>
      <trkpt lat="-32.1170023457972" lon="-71.31406300055554">
        <time>2019-03-07T04:33:31Z</time>
      </trkpt>
      <trkpt lat="-32.11694514164" lon="-71.31398489775374">
        <time>2019-03-07T04:33:31Z</time>
      </trkpt>
      <trkpt lat="-32.11689538622751" lon="-71.31395634827555">
        <time>2019-03-07T04:33:31Z</time>
      </trkpt>
      <trkpt lat="-32.11684709133649" lon="-71.31395819187058">
        <time>2019-03-07T04:33:31Z</time>
      </trkpt>
      <trkpt lat="-32.11677630301918" lon="-71.31398727466241">
        <time>2019-03-07T04:33:31Z</time>
      </trkpt>
      <trkpt lat="-32.1167082795722" lon="-71.31402296068191">
        <time>2019-03-07T04:33:31Z</time>
      </trkpt>
      <trkpt lat="-32.11665027810895" lon="-71.31404348008054">
        <time>2019-03-07T04:33:31Z</time>
      </trkpt>
      <trkpt lat="-32.11655023809711" lon="-71.31404935724551">
        <time>2019-03-07T04:33:31Z</time>
      </trkpt>
      <trkpt lat="-32.11627748650327" lon="-71.31401740357596">
        <time>2019-03-07T04:33:31Z</time>
      </trkpt>
      <trkpt lat="-32.11608759741229" lon="-71.31398763548454">
        <time>2019-03-07T04:33:31Z</time>
      </trkpt>
      <trkpt lat="-32.11571441278808" lon="-71.31391669047751">
        <time>2019-03-07T04:33:31Z</time>
      </trkpt>
      <trkpt lat="-32.11538784270704" lon="-71.31384596257659">
        <time>2019-03-07T04:33:31Z</time>
      </trkpt>
      <trkpt lat="-32.11522881919812" lon="-71.31378612320411">
        <time>2019-03-07T04:33:31Z</time>
      </trkpt>
      <trkpt lat="-32.11503965872934" lon="-71.31366856102851">
        <time>2019-03-07T04:33:31Z</time>
      </trkpt>
      <trkpt lat="-32.1148967982597" lon="-71.31355845005663">
        <time>2019-03-07T04:33:31Z</time>
      </trkpt>
      <trkpt lat="-32.11474210443549" lon="-71.31346088006782">
        <time>2019-03-07T04:33:31Z</time>
      </trkpt>
      <trkpt lat="-32.11465119870158" lon="-71.31341648873993">
        <time>2019-03-07T04:33:31Z</time>
      </trkpt>
      <trkpt lat="-32.11454994204676" lon="-71.31333962922102">
        <time>2019-03-07T04:33:31Z</time>
      </trkpt>
      <trkpt lat="-32.11444959225945" lon="-71.31325628264972">
        <time>2019-03-07T04:33:31Z</time>
      </trkpt>
      <trkpt lat="-32.11439600827329" lon="-71.31322345425613">
        <time>2019-03-07T04:33:31Z</time>
      </trkpt>
      <trkpt lat="-32.11434758638852" lon="-71.31320507296444">
        <time>2019-03-07T04:33:31Z</time>
      </trkpt>
      <trkpt lat="-32.11427264547478" lon="-71.3132117180561">
        <time>2019-03-07T04:33:31Z</time>
      </trkpt>
      <trkpt lat="-32.11422117680957" lon="-71.31325314557121">
        <time>2019-03-07T04:33:31Z</time>
      </trkpt>
      <trkpt lat="-32.1141609330254" lon="-71.31334973154814">
        <time>2019-03-07T04:33:31Z</time>
      </trkpt>
      <trkpt lat="-32.11408212250022" lon="-71.3134569358463">
        <time>2019-03-07T04:33:31Z</time>
      </trkpt>
      <trkpt lat="-32.11401958687996" lon="-71.31351005848647">
        <time>2019-03-07T04:33:31Z</time>
      </trkpt>
      <trkpt lat="-32.11395563835904" lon="-71.31352630273503">
        <time>2019-03-07T04:33:31Z</time>
      </trkpt>
      <trkpt lat="-32.11387679223671" lon="-71.31354298918437">
        <time>2019-03-07T04:33:31Z</time>
      </trkpt>
      <trkpt lat="-32.11364263223821" lon="-71.31353015728801">
        <time>2019-03-07T04:33:31Z</time>
      </trkpt>
      <trkpt lat="-32.11324075116944" lon="-71.31349958827565">
        <time>2019-03-07T04:33:31Z</time>
      </trkpt>
      <trkpt lat="-32.11301456984549" lon="-71.31346693266316">
        <time>2019-03-07T04:33:31Z</time>
      </trkpt>
      <trkpt lat="-32.11275438736514" lon="-71.31340977366955">
        <time>2019-03-07T04:33:31Z</time>
      </trkpt>
      <trkpt lat="-32.11181742098654" lon="-71.31320959697349">
        <time>2019-03-07T04:33:31Z</time>
      </trkpt>
      <trkpt lat="-32.11063223822893" lon="-71.31300960881072">
        <time>2019-03-07T04:33:31Z</time>
      </trkpt>
      <trkpt lat="-32.11054787374197" lon="-71.31301077901559">
        <time>2019-03-07T04:33:31Z</time>
      </trkpt>
      <trkpt lat="-32.1103759341535" lon="-71.31299444319184">
        <time>2019-03-07T04:33:31Z</time>
      </trkpt>
      <trkpt lat="-32.11022177545263" lon="-71.31298385820539">
        <time>2019-03-07T04:33:31Z</time>
      </trkpt>
      <trkpt lat="-32.11010910270707" lon="-71.31296026007803">
        <time>2019-03-07T04:33:31Z</time>
      </trkpt>
      <trkpt lat="-32.10998155171708" lon="-71.31290682829504">
        <time>2019-03-07T04:33:31Z</time>
      </trkpt>
      <trkpt lat="-32.10984829540472" lon="-71.31285191768379">
        <time>2019-03-07T04:33:31Z</time>
      </trkpt>
      <trkpt lat="-32.1096472591418" lon="-71.31272570758888">
        <time>2019-03-07T04:33:31Z</time>
      </trkpt>
      <trkpt lat="-32.10953353472955" lon="-71.31261289805956">
        <time>2019-03-07T04:33:31Z</time>
      </trkpt>
      <trkpt lat="-32.10939780527026" lon="-71.31244358365332">
        <time>2019-03-07T04:33:31Z</time>
      </trkpt>
      <trkpt lat="-32.10930191458398" lon="-71.31232223288889">
        <time>2019-03-07T04:33:31Z</time>
      </trkpt>
      <trkpt lat="-32.10924804644466" lon="-71.31229788884882">
        <time>2019-03-07T04:33:31Z</time>
      </trkpt>
      <trkpt lat="-32.10919089328147" lon="-71.31228802455019">
        <time>2019-03-07T04:33:31Z</time>
      </trkpt>
      <trkpt lat="-32.10913949981021" lon="-71.31231027132836">
        <time>2019-03-07T04:33:31Z</time>
      </trkpt>
      <trkpt lat="-32.10907873526548" lon="-71.31236614321533">
        <time>2019-03-07T04:33:31Z</time>
      </trkpt>
      <trkpt lat="-32.10901596341625" lon="-71.31245736639342">
        <time>2019-03-07T04:33:31Z</time>
      </trkpt>
      <trkpt lat="-32.10891792901053" lon="-71.31256088971632">
        <time>2019-03-07T04:33:31Z</time>
      </trkpt>
      <trkpt lat="-32.10881124744989" lon="-71.31262794706198">
        <time>2019-03-07T04:33:31Z</time>
      </trkpt>
      <trkpt lat="-32.1087014988902" lon="-71.31265020913143">
        <time>2019-03-07T04:33:31Z</time>
      </trkpt>
      <trkpt lat="-32.10856097811489" lon="-71.31265920210366">
        <time>2019-03-07T04:33:31Z</time>
      </trkpt>
      <trkpt lat="-32.10843797395504" lon="-71.31262522878393">
        <time>2019-03-07T04:33:31Z</time>
      </trkpt>
      <trkpt lat="-32.10831746947056" lon="-71.31255504419526">
        <time>2019-03-07T04:33:31Z</time>
      </trkpt>
      <trkpt lat="-32.10810706578741" lon="-71.31238708767388">
        <time>2019-03-07T04:33:31Z</time>
      </trkpt>
      <trkpt lat="-32.10802209183697" lon="-71.31230851542118">
        <time>2019-03-07T04:33:31Z</time>
      </trkpt>
      <trkpt lat="-32.10799036226622" lon="-71.3122685899484">
        <time>2019-03-07T04:33:31Z</time>
      </trkpt>
      <trkpt lat="-32.10795519365908" lon="-71.31220986222763">
        <time>2019-03-07T04:33:31Z</time>
      </trkpt>
      <trkpt lat="-32.10794100970895" lon="-71.31217494219007">
        <time>2019-03-07T04:33:31Z</time>
      </trkpt>
      <trkpt lat="-32.1079280634664" lon="-71.312132702257">
        <time>2019-03-07T04:33:31Z</time>
      </trkpt>
      <trkpt lat="-32.10792302961818" lon="-71.3120649583622">
        <time>2019-03-07T04:33:31Z</time>
      </trkpt>
      <trkpt lat="-32.10792897494873" lon="-71.31201783061604">
        <time>2019-03-07T04:33:31Z</time>
      </trkpt>
      <trkpt lat="-32.10795181570467" lon="-71.31193860927444">
        <time>2019-03-07T04:33:31Z</time>
      </trkpt>
      <trkpt lat="-32.10797726650297" lon="-71.31186055207377">
        <time>2019-03-07T04:33:31Z</time>
      </trkpt>
      <trkpt lat="-32.10798548657849" lon="-71.31178132432878">
        <time>2019-03-07T04:33:31Z</time>
      </trkpt>
      <trkpt lat="-32.10798290594442" lon="-71.31169097664427">
        <time>2019-03-07T04:33:31Z</time>
      </trkpt>
      <trkpt lat="-32.10796567623988" lon="-71.31163000451988">
        <time>2019-03-07T04:33:31Z</time>
      </trkpt>
      <trkpt lat="-32.10794117485171" lon="-71.31156723040591">
        <time>2019-03-07T04:33:31Z</time>
      </trkpt>
      <trkpt lat="-32.10774856808826" lon="-71.31117105078366">
        <time>2019-03-07T04:33:31Z</time>
      </trkpt>
      <trkpt lat="-32.1077136150497" lon="-71.31108011782072">
        <time>2019-03-07T04:33:31Z</time>
      </trkpt>
      <trkpt lat="-32.10767141225688" lon="-71.31094822735219">
        <time>2019-03-07T04:33:31Z</time>
      </trkpt>
      <trkpt lat="-32.10762661809863" lon="-71.3108040008666">
        <time>2019-03-07T04:33:31Z</time>
      </trkpt>
      <trkpt lat="-32.10757472250684" lon="-71.31064141987164">
        <time>2019-03-07T04:33:31Z</time>
      </trkpt>
      <trkpt lat="-32.10754769387799" lon="-71.31054934067367">
        <time>2019-03-07T04:33:31Z</time>
      </trkpt>
      <trkpt lat="-32.10750574308213" lon="-71.31043736880893">
        <time>2019-03-07T04:33:31Z</time>
      </trkpt>
      <trkpt lat="-32.107450667733" lon="-71.31031728773402">
        <time>2019-03-07T04:33:31Z</time>
      </trkpt>
      <trkpt lat="-32.10719732224091" lon="-71.30980409485865">
        <time>2019-03-07T04:33:31Z</time>
      </trkpt>
      <trkpt lat="-32.10712959991454" lon="-71.30968872598947">
        <time>2019-03-07T04:33:31Z</time>
      </trkpt>
      <trkpt lat="-32.1070662496612" lon="-71.30958038068187">
        <time>2019-03-07T04:33:31Z</time>
      </trkpt>
      <trkpt lat="-32.10700659217441" lon="-71.30950410375701">
        <time>2019-03-07T04:33:31Z</time>
      </trkpt>
      <trkpt lat="-32.10662671001783" lon="-71.30904316119951">
        <time>2019-03-07T04:33:31Z</time>
      </trkpt>
      <trkpt lat="-32.10639780564703" lon="-71.30877549590174">
        <time>2019-03-07T04:33:31Z</time>
      </trkpt>
      <trkpt lat="-32.10633832526715" lon="-71.3086957773822">
        <time>2019-03-07T04:33:31Z</time>
      </trkpt>
      <trkpt lat="-32.10627351030892" lon="-71.30859960326983">
        <time>2019-03-07T04:33:31Z</time>
      </trkpt>
      <trkpt lat="-32.10620210983132" lon="-71.30847696367229">
        <time>2019-03-07T04:33:31Z</time>
      </trkpt>
      <trkpt lat="-32.10613010720248" lon="-71.30833052052822">
        <time>2019-03-07T04:33:31Z</time>
      </trkpt>
      <trkpt lat="-32.10601147102419" lon="-71.30806212035695">
        <time>2019-03-07T04:33:31Z</time>
      </trkpt>
      <trkpt lat="-32.10590134101618" lon="-71.30778098566941">
        <time>2019-03-07T04:33:31Z</time>
      </trkpt>
      <trkpt lat="-32.10586765217342" lon="-71.30767698088938">
        <time>2019-03-07T04:33:31Z</time>
      </trkpt>
      <trkpt lat="-32.10578330078272" lon="-71.30742940470168">
        <time>2019-03-07T04:33:31Z</time>
      </trkpt>
      <trkpt lat="-32.10572467037785" lon="-71.30727712444084">
        <time>2019-03-07T04:33:31Z</time>
      </trkpt>
      <trkpt lat="-32.10563540323648" lon="-71.30707856189399">
        <time>2019-03-07T04:33:31Z</time>
      </trkpt>
      <trkpt lat="-32.10557779098588" lon="-71.30696047673344">
        <time>2019-03-07T04:33:31Z</time>
      </trkpt>
      <trkpt lat="-32.10552603162083" lon="-71.30686659318153">
        <time>2019-03-07T04:33:31Z</time>
      </trkpt>
      <trkpt lat="-32.10548664019449" lon="-71.30679856211287">
        <time>2019-03-07T04:33:31Z</time>
      </trkpt>
      <trkpt lat="-32.10544992459647" lon="-71.30674970442742">
        <time>2019-03-07T04:33:31Z</time>
      </trkpt>
      <trkpt lat="-32.10541586983684" lon="-71.30670782431379">
        <time>2019-03-07T04:33:31Z</time>
      </trkpt>
      <trkpt lat="-32.10537638377409" lon="-71.30667640657201">
        <time>2019-03-07T04:33:31Z</time>
      </trkpt>
      <trkpt lat="-32.10508431552076" lon="-71.30648668494368">
        <time>2019-03-07T04:33:31Z</time>
      </trkpt>
      <trkpt lat="-32.10466117444998" lon="-71.30617374464687">
        <time>2019-03-07T04:33:31Z</time>
      </trkpt>
      <trkpt lat="-32.10459604621678" lon="-71.30611711283659">
        <time>2019-03-07T04:33:31Z</time>
      </trkpt>
      <trkpt lat="-32.10455119745338" lon="-71.30606843407276">
        <time>2019-03-07T04:33:31Z</time>
      </trkpt>
      <trkpt lat="-32.1045165505242" lon="-71.30601453148036">
        <time>2019-03-07T04:33:31Z</time>
      </trkpt>
      <trkpt lat="-32.10447587326044" lon="-71.30594073328412">
        <time>2019-03-07T04:33:31Z</time>
      </trkpt>
      <trkpt lat="-32.10443447244817" lon="-71.30586214390974">
        <time>2019-03-07T04:33:31Z</time>
      </trkpt>
      <trkpt lat="-32.10439232524521" lon="-71.30579685191974">
        <time>2019-03-07T04:33:31Z</time>
      </trkpt>
      <trkpt lat="-32.10434681604849" lon="-71.30573502000912">
        <time>2019-03-07T04:33:31Z</time>
      </trkpt>
      <trkpt lat="-32.10431105487604" lon="-71.30569678356615">
        <time>2019-03-07T04:33:31Z</time>
      </trkpt>
      <trkpt lat="-32.10426285304219" lon="-71.30566215208658">
        <time>2019-03-07T04:33:31Z</time>
      </trkpt>
      <trkpt lat="-32.10422073439568" lon="-71.30565579720992">
        <time>2019-03-07T04:33:31Z</time>
      </trkpt>
      <trkpt lat="-32.10377803780268" lon="-71.30561952862001">
        <time>2019-03-07T04:33:31Z</time>
      </trkpt>
      <trkpt lat="-32.10347800427328" lon="-71.30554981994916">
        <time>2019-03-07T04:33:31Z</time>
      </trkpt>
      <trkpt lat="-32.10339396107533" lon="-71.30551939583799">
        <time>2019-03-07T04:33:31Z</time>
      </trkpt>
      <trkpt lat="-32.10330776269481" lon="-71.30547801819368">
        <time>2019-03-07T04:33:31Z</time>
      </trkpt>
      <trkpt lat="-32.10320877145877" lon="-71.30542541326027">
        <time>2019-03-07T04:33:31Z</time>
      </trkpt>
      <trkpt lat="-32.10313339320152" lon="-71.30537217876511">
        <time>2019-03-07T04:33:31Z</time>
      </trkpt>
      <trkpt lat="-32.10301153507941" lon="-71.30524439794243">
        <time>2019-03-07T04:33:31Z</time>
      </trkpt>
      <trkpt lat="-32.10290936433709" lon="-71.30510994620872">
        <time>2019-03-07T04:33:31Z</time>
      </trkpt>
      <trkpt lat="-32.10265106810998" lon="-71.30479220238929">
        <time>2019-03-07T04:33:31Z</time>
      </trkpt>
      <trkpt lat="-32.10260596858983" lon="-71.30473651203015">
        <time>2019-03-07T04:33:31Z</time>
      </trkpt>
      <trkpt lat="-32.10256616399708" lon="-71.30471059992654">
        <time>2019-03-07T04:33:31Z</time>
      </trkpt>
      <trkpt lat="-32.10252240931729" lon="-71.30470298378727">
        <time>2019-03-07T04:33:31Z</time>
      </trkpt>
      <trkpt lat="-32.10246707332492" lon="-71.30470010929254">
        <time>2019-03-07T04:33:31Z</time>
      </trkpt>
      <trkpt lat="-32.10227002398487" lon="-71.30469644919593">
        <time>2019-03-07T04:33:31Z</time>
      </trkpt>
      <trkpt lat="-32.10221907721712" lon="-71.30468464066668">
        <time>2019-03-07T04:33:31Z</time>
      </trkpt>
      <trkpt lat="-32.10215603335358" lon="-71.3046602757028">
        <time>2019-03-07T04:33:31Z</time>
      </trkpt>
      <trkpt lat="-32.10198069658742" lon="-71.30458077065281">
        <time>2019-03-07T04:33:31Z</time>
      </trkpt>
      <trkpt lat="-32.10182983843762" lon="-71.30451150781134">
        <time>2019-03-07T04:33:31Z</time>
      </trkpt>
      <trkpt lat="-32.10176876423164" lon="-71.30450131972066">
        <time>2019-03-07T04:33:31Z</time>
      </trkpt>
      <trkpt lat="-32.10169215439314" lon="-71.30449853659816">
        <time>2019-03-07T04:33:31Z</time>
      </trkpt>
      <trkpt lat="-32.10128197262346" lon="-71.3045413544224">
        <time>2019-03-07T04:33:31Z</time>
      </trkpt>
      <trkpt lat="-32.10107523551594" lon="-71.30451615729891">
        <time>2019-03-07T04:33:31Z</time>
      </trkpt>
      <trkpt lat="-32.10085369040015" lon="-71.30446137870196">
        <time>2019-03-07T04:33:31Z</time>
      </trkpt>
      <trkpt lat="-32.10070433670552" lon="-71.30440434450991">
        <time>2019-03-07T04:33:31Z</time>
      </trkpt>
      <trkpt lat="-32.10060859710365" lon="-71.30435649208155">
        <time>2019-03-07T04:33:31Z</time>
      </trkpt>
      <trkpt lat="-32.10053193604715" lon="-71.30430292316858">
        <time>2019-03-07T04:33:31Z</time>
      </trkpt>
      <trkpt lat="-32.10046516700445" lon="-71.3042308494653">
        <time>2019-03-07T04:33:31Z</time>
      </trkpt>
      <trkpt lat="-32.10041441460832" lon="-71.30415840090959">
        <time>2019-03-07T04:33:31Z</time>
      </trkpt>
      <trkpt lat="-32.10034908508045" lon="-71.30405759453704">
        <time>2019-03-07T04:33:31Z</time>
      </trkpt>
      <trkpt lat="-32.10028692101415" lon="-71.30396665386606">
        <time>2019-03-07T04:33:31Z</time>
      </trkpt>
      <trkpt lat="-32.10022751548446" lon="-71.30389296123126">
        <time>2019-03-07T04:33:31Z</time>
      </trkpt>
      <trkpt lat="-32.10018653443243" lon="-71.30385579940925">
        <time>2019-03-07T04:33:31Z</time>
      </trkpt>
      <trkpt lat="-32.10013987251224" lon="-71.30384520045297">
        <time>2019-03-07T04:33:31Z</time>
      </trkpt>
      <trkpt lat="-32.10008083435407" lon="-71.30385724065251">
        <time>2019-03-07T04:33:31Z</time>
      </trkpt>
      <trkpt lat="-32.10002585057796" lon="-71.30390733554681">
        <time>2019-03-07T04:33:31Z</time>
      </trkpt>
      <trkpt lat="-32.09999539289925" lon="-71.30395804100895">
        <time>2019-03-07T04:33:31Z</time>
      </trkpt>
      <trkpt lat="-32.09994458111305" lon="-71.3040192161866">
        <time>2019-03-07T04:33:31Z</time>
      </trkpt>
      <trkpt lat="-32.09988967701094" lon="-71.30409316954005">
        <time>2019-03-07T04:33:31Z</time>
      </trkpt>
      <trkpt lat="-32.09980722889734" lon="-71.30416976762068">
        <time>2019-03-07T04:33:31Z</time>
      </trkpt>
      <trkpt lat="-32.09969611461646" lon="-71.30424078347706">
        <time>2019-03-07T04:33:31Z</time>
      </trkpt>
      <trkpt lat="-32.09961098980208" lon="-71.30424919708952">
        <time>2019-03-07T04:33:31Z</time>
      </trkpt>
      <trkpt lat="-32.0995014655911" lon="-71.30422205316209">
        <time>2019-03-07T04:33:31Z</time>
      </trkpt>
      <trkpt lat="-32.09940105402536" lon="-71.30417613118894">
        <time>2019-03-07T04:33:31Z</time>
      </trkpt>
      <trkpt lat="-32.09931178639282" lon="-71.30412078415134">
        <time>2019-03-07T04:33:31Z</time>
      </trkpt>
      <trkpt lat="-32.09926245131066" lon="-71.30407635795019">
        <time>2019-03-07T04:33:31Z</time>
      </trkpt>
      <trkpt lat="-32.09922013354571" lon="-71.30402758717338">
        <time>2019-03-07T04:33:31Z</time>
      </trkpt>
      <trkpt lat="-32.09918254092237" lon="-71.30397058716366">
        <time>2019-03-07T04:33:31Z</time>
      </trkpt>
      <trkpt lat="-32.09914311702026" lon="-71.30390875199059">
        <time>2019-03-07T04:33:31Z</time>
      </trkpt>
      <trkpt lat="-32.09910616457888" lon="-71.3038425136499">
        <time>2019-03-07T04:33:31Z</time>
      </trkpt>
      <trkpt lat="-32.09891380336654" lon="-71.30333082027522">
        <time>2019-03-07T04:33:31Z</time>
      </trkpt>
      <trkpt lat="-32.09861108188941" lon="-71.30252997293563">
        <time>2019-03-07T04:33:31Z</time>
      </trkpt>
      <trkpt lat="-32.09850393758521" lon="-71.30229369050448">
        <time>2019-03-07T04:33:31Z</time>
      </trkpt>
      <trkpt lat="-32.09841012807236" lon="-71.3020968530512">
        <time>2019-03-07T04:33:31Z</time>
      </trkpt>
      <trkpt lat="-32.09828331470682" lon="-71.301894077322">
        <time>2019-03-07T04:33:31Z</time>
      </trkpt>
      <trkpt lat="-32.09744844748458" lon="-71.30065930073684">
        <time>2019-03-07T04:33:31Z</time>
      </trkpt>
      <trkpt lat="-32.09734395655958" lon="-71.30052353486573">
        <time>2019-03-07T04:33:31Z</time>
      </trkpt>
      <trkpt lat="-32.09722566806263" lon="-71.30039103324587">
        <time>2019-03-07T04:33:31Z</time>
      </trkpt>
      <trkpt lat="-32.09712957901029" lon="-71.3002620913866">
        <time>2019-03-07T04:33:31Z</time>
      </trkpt>
      <trkpt lat="-32.09626090794872" lon="-71.29897108690076">
        <time>2019-03-07T04:33:31Z</time>
      </trkpt>
      <trkpt lat="-32.09607205405434" lon="-71.29865458378292">
        <time>2019-03-07T04:33:31Z</time>
      </trkpt>
      <trkpt lat="-32.09520355429152" lon="-71.29713604138081">
        <time>2019-03-07T04:33:31Z</time>
      </trkpt>
      <trkpt lat="-32.09478931825491" lon="-71.29637382831589">
        <time>2019-03-07T04:33:31Z</time>
      </trkpt>
      <trkpt lat="-32.09472296357738" lon="-71.29622347968066">
        <time>2019-03-07T04:33:31Z</time>
      </trkpt>
      <trkpt lat="-32.09464862646061" lon="-71.29602566289893">
        <time>2019-03-07T04:33:31Z</time>
      </trkpt>
      <trkpt lat="-32.09460250141874" lon="-71.29582934949066">
        <time>2019-03-07T04:33:31Z</time>
      </trkpt>
      <trkpt lat="-32.09457405632022" lon="-71.29559414899596">
        <time>2019-03-07T04:33:31Z</time>
      </trkpt>
      <trkpt lat="-32.0945831934412" lon="-71.29549496742857">
        <time>2019-03-07T04:33:31Z</time>
      </trkpt>
      <trkpt lat="-32.09461455575146" lon="-71.29540508725573">
        <time>2019-03-07T04:33:31Z</time>
      </trkpt>
      <trkpt lat="-32.09478607746504" lon="-71.29518547228624">
        <time>2019-03-07T04:33:31Z</time>
      </trkpt>
      <trkpt lat="-32.09483975383518" lon="-71.29512423573888">
        <time>2019-03-07T04:33:31Z</time>
      </trkpt>
      <trkpt lat="-32.0948613819328" lon="-71.29504870236758">
        <time>2019-03-07T04:33:31Z</time>
      </trkpt>
      <trkpt lat="-32.09485182337269" lon="-71.29496663739943">
        <time>2019-03-07T04:33:31Z</time>
      </trkpt>
      <trkpt lat="-32.09481749696395" lon="-71.29492127271384">
        <time>2019-03-07T04:33:31Z</time>
      </trkpt>
      <trkpt lat="-32.09475752854943" lon="-71.29487297371185">
        <time>2019-03-07T04:33:31Z</time>
      </trkpt>
      <trkpt lat="-32.0946771721472" lon="-71.29485699635245">
        <time>2019-03-07T04:33:31Z</time>
      </trkpt>
      <trkpt lat="-32.0944045253426" lon="-71.29479385340841">
        <time>2019-03-07T04:33:31Z</time>
      </trkpt>
      <trkpt lat="-32.09427454242238" lon="-71.29472147954918">
        <time>2019-03-07T04:33:31Z</time>
      </trkpt>
      <trkpt lat="-32.09416586310233" lon="-71.29462661921397">
        <time>2019-03-07T04:33:31Z</time>
      </trkpt>
      <trkpt lat="-32.0940959105493" lon="-71.29453532328476">
        <time>2019-03-07T04:33:31Z</time>
      </trkpt>
      <trkpt lat="-32.09395560304594" lon="-71.29429040595797">
        <time>2019-03-07T04:33:31Z</time>
      </trkpt>
      <trkpt lat="-32.09389655815408" lon="-71.29415004221053">
        <time>2019-03-07T04:33:31Z</time>
      </trkpt>
      <trkpt lat="-32.0937861499" lon="-71.29388377333888">
        <time>2019-03-07T04:33:31Z</time>
      </trkpt>
      <trkpt lat="-32.09371637282991" lon="-71.29364721605546">
        <time>2019-03-07T04:33:31Z</time>
      </trkpt>
      <trkpt lat="-32.09363601825604" lon="-71.29297864739196">
        <time>2019-03-07T04:33:31Z</time>
      </trkpt>
      <trkpt lat="-32.0935808376833" lon="-71.29257438482708">
        <time>2019-03-07T04:33:31Z</time>
      </trkpt>
      <trkpt lat="-32.09340262028373" lon="-71.29173221056479">
        <time>2019-03-07T04:33:31Z</time>
      </trkpt>
      <trkpt lat="-32.09320517760755" lon="-71.29055948342766">
        <time>2019-03-07T04:33:31Z</time>
      </trkpt>
      <trkpt lat="-32.09314461407961" lon="-71.29022975451079">
        <time>2019-03-07T04:33:31Z</time>
      </trkpt>
      <trkpt lat="-32.09314457226053" lon="-71.29004496517">
        <time>2019-03-07T04:33:31Z</time>
      </trkpt>
      <trkpt lat="-32.0931428857882" lon="-71.28988989027333">
        <time>2019-03-07T04:33:31Z</time>
      </trkpt>
      <trkpt lat="-32.0931332055595" lon="-71.28974654142287">
        <time>2019-03-07T04:33:31Z</time>
      </trkpt>
      <trkpt lat="-32.09310618606952" lon="-71.28950557035103">
        <time>2019-03-07T04:33:31Z</time>
      </trkpt>
      <trkpt lat="-32.09302848174747" lon="-71.28912208641646">
        <time>2019-03-07T04:33:31Z</time>
      </trkpt>
      <trkpt lat="-32.09299492197049" lon="-71.28899958103519">
        <time>2019-03-07T04:33:31Z</time>
      </trkpt>
      <trkpt lat="-32.09293816184736" lon="-71.28881960017861">
        <time>2019-03-07T04:33:31Z</time>
      </trkpt>
      <trkpt lat="-32.09253107325174" lon="-71.28751249968481">
        <time>2019-03-07T04:33:31Z</time>
      </trkpt>
      <trkpt lat="-32.09244568304481" lon="-71.28717863256524">
        <time>2019-03-07T04:33:31Z</time>
      </trkpt>
      <trkpt lat="-32.092369412342" lon="-71.28680638966868">
        <time>2019-03-07T04:33:31Z</time>
      </trkpt>
      <trkpt lat="-32.09233886385727" lon="-71.28658926336946">
        <time>2019-03-07T04:33:31Z</time>
      </trkpt>
      <trkpt lat="-32.09232748013103" lon="-71.28643186702756">
        <time>2019-03-07T04:33:31Z</time>
      </trkpt>
      <trkpt lat="-32.09233325037086" lon="-71.28622384527436">
        <time>2019-03-07T04:33:31Z</time>
      </trkpt>
      <trkpt lat="-32.09237740152619" lon="-71.28600428099819">
        <time>2019-03-07T04:33:31Z</time>
      </trkpt>
      <trkpt lat="-32.09280358694763" lon="-71.28485615621734">
        <time>2019-03-07T04:33:31Z</time>
      </trkpt>
      <trkpt lat="-32.09289088274282" lon="-71.28462612117636">
        <time>2019-03-07T04:33:31Z</time>
      </trkpt>
      <trkpt lat="-32.09295544170721" lon="-71.28441445439954">
        <time>2019-03-07T04:33:31Z</time>
      </trkpt>
      <trkpt lat="-32.09306197437574" lon="-71.28404351700844">
        <time>2019-03-07T04:33:31Z</time>
      </trkpt>
      <trkpt lat="-32.09313247344782" lon="-71.28370936237926">
        <time>2019-03-07T04:33:31Z</time>
      </trkpt>
      <trkpt lat="-32.09319256328766" lon="-71.28341855372771">
        <time>2019-03-07T04:33:31Z</time>
      </trkpt>
      <trkpt lat="-32.09323685576872" lon="-71.28320953249146">
        <time>2019-03-07T04:33:31Z</time>
      </trkpt>
      <trkpt lat="-32.0932531584005" lon="-71.28310351707593">
        <time>2019-03-07T04:33:31Z</time>
      </trkpt>
      <trkpt lat="-32.0932558535991" lon="-71.28300382791686">
        <time>2019-03-07T04:33:31Z</time>
      </trkpt>
      <trkpt lat="-32.09320959849915" lon="-71.28236996789961">
        <time>2019-03-07T04:33:31Z</time>
      </trkpt>
      <trkpt lat="-32.09318510865543" lon="-71.28219052289036">
        <time>2019-03-07T04:33:31Z</time>
      </trkpt>
      <trkpt lat="-32.09316636269074" lon="-71.2820219347049">
        <time>2019-03-07T04:33:31Z</time>
      </trkpt>
      <trkpt lat="-32.09313358487817" lon="-71.2818642980905">
        <time>2019-03-07T04:33:31Z</time>
      </trkpt>
      <trkpt lat="-32.09310134832412" lon="-71.28170642251153">
        <time>2019-03-07T04:33:31Z</time>
      </trkpt>
      <trkpt lat="-32.09306135296194" lon="-71.28103508303398">
        <time>2019-03-07T04:33:31Z</time>
      </trkpt>
      <trkpt lat="-32.09304623153474" lon="-71.28080727949556">
        <time>2019-03-07T04:33:31Z</time>
      </trkpt>
      <trkpt lat="-32.09306164491536" lon="-71.28069613510962">
        <time>2019-03-07T04:33:31Z</time>
      </trkpt>
      <trkpt lat="-32.09311471464419" lon="-71.28054543723781">
        <time>2019-03-07T04:33:31Z</time>
      </trkpt>
      <trkpt lat="-32.09316921660405" lon="-71.28037506988666">
        <time>2019-03-07T04:33:31Z</time>
      </trkpt>
      <trkpt lat="-32.09319610774771" lon="-71.2802472586838">
        <time>2019-03-07T04:33:31Z</time>
      </trkpt>
      <trkpt lat="-32.09319768961251" lon="-71.28016705180251">
        <time>2019-03-07T04:33:31Z</time>
      </trkpt>
      <trkpt lat="-32.09318493760065" lon="-71.28007648595808">
        <time>2019-03-07T04:33:31Z</time>
      </trkpt>
      <trkpt lat="-32.09313951779674" lon="-71.27996544105901">
        <time>2019-03-07T04:33:31Z</time>
      </trkpt>
      <trkpt lat="-32.09305290828115" lon="-71.27979356220213">
        <time>2019-03-07T04:33:31Z</time>
      </trkpt>
      <trkpt lat="-32.09302976427882" lon="-71.27971076501329">
        <time>2019-03-07T04:33:31Z</time>
      </trkpt>
      <trkpt lat="-32.0928820122768" lon="-71.27906328092551">
        <time>2019-03-07T04:33:31Z</time>
      </trkpt>
      <trkpt lat="-32.09281567089809" lon="-71.27855723994649">
        <time>2019-03-07T04:33:31Z</time>
      </trkpt>
      <trkpt lat="-32.09278528961901" lon="-71.27835926440393">
        <time>2019-03-07T04:33:31Z</time>
      </trkpt>
      <trkpt lat="-32.09260938348267" lon="-71.27763334006028">
        <time>2019-03-07T04:33:31Z</time>
      </trkpt>
      <trkpt lat="-32.09258017418996" lon="-71.27740585021358">
        <time>2019-03-07T04:33:31Z</time>
      </trkpt>
      <trkpt lat="-32.09258323037835" lon="-71.27720840855169">
        <time>2019-03-07T04:33:31Z</time>
      </trkpt>
      <trkpt lat="-32.0925963180707" lon="-71.27705080757622">
        <time>2019-03-07T04:33:31Z</time>
      </trkpt>
      <trkpt lat="-32.09264608204724" lon="-71.2766650945718">
        <time>2019-03-07T04:33:31Z</time>
      </trkpt>
      <trkpt lat="-32.09278162546728" lon="-71.27602658124177">
        <time>2019-03-07T04:33:31Z</time>
      </trkpt>
      <trkpt lat="-32.09281574007037" lon="-71.27585263604172">
        <time>2019-03-07T04:33:31Z</time>
      </trkpt>
      <trkpt lat="-32.09283127987101" lon="-71.27572538871658">
        <time>2019-03-07T04:33:31Z</time>
      </trkpt>
      <trkpt lat="-32.09283010910542" lon="-71.27560547686865">
        <time>2019-03-07T04:33:31Z</time>
      </trkpt>
      <trkpt lat="-32.09282400881709" lon="-71.27553438285653">
        <time>2019-03-07T04:33:31Z</time>
      </trkpt>
      <trkpt lat="-32.09279667376146" lon="-71.27544854281705">
        <time>2019-03-07T04:33:31Z</time>
      </trkpt>
      <trkpt lat="-32.09276609302192" lon="-71.27536775659551">
        <time>2019-03-07T04:33:31Z</time>
      </trkpt>
      <trkpt lat="-32.09270978492077" lon="-71.27521900568611">
        <time>2019-03-07T04:33:31Z</time>
      </trkpt>
      <trkpt lat="-32.09269333676902" lon="-71.27513359273111">
        <time>2019-03-07T04:33:31Z</time>
      </trkpt>
      <trkpt lat="-32.09268217649299" lon="-71.27501589291656">
        <time>2019-03-07T04:33:31Z</time>
      </trkpt>
      <trkpt lat="-32.09268503687503" lon="-71.27483073292869">
        <time>2019-03-07T04:33:31Z</time>
      </trkpt>
      <trkpt lat="-32.09269504864854" lon="-71.27461355161722">
        <time>2019-03-07T04:33:31Z</time>
      </trkpt>
      <trkpt lat="-32.09270129815459" lon="-71.27455212671171">
        <time>2019-03-07T04:33:31Z</time>
      </trkpt>
      <trkpt lat="-32.09268630145592" lon="-71.27447350942514">
        <time>2019-03-07T04:33:31Z</time>
      </trkpt>
      <trkpt lat="-32.09265521612638" lon="-71.27436575275783">
        <time>2019-03-07T04:33:31Z</time>
      </trkpt>
      <trkpt lat="-32.09260417184215" lon="-71.27424289849137">
        <time>2019-03-07T04:33:31Z</time>
      </trkpt>
      <trkpt lat="-32.09216524676458" lon="-71.27321375644885">
        <time>2019-03-07T04:33:31Z</time>
      </trkpt>
      <trkpt lat="-32.09211295621621" lon="-71.27307567564453">
        <time>2019-03-07T04:33:31Z</time>
      </trkpt>
      <trkpt lat="-32.09208502216142" lon="-71.27298719027796">
        <time>2019-03-07T04:33:31Z</time>
      </trkpt>
      <trkpt lat="-32.09206557411198" lon="-71.27289560363447">
        <time>2019-03-07T04:33:31Z</time>
      </trkpt>
      <trkpt lat="-32.09206580761915" lon="-71.27282905663857">
        <time>2019-03-07T04:33:31Z</time>
      </trkpt>
      <trkpt lat="-32.0920726833406" lon="-71.27274475527301">
        <time>2019-03-07T04:33:31Z</time>
      </trkpt>
      <trkpt lat="-32.09209278766516" lon="-71.27264051667486">
        <time>2019-03-07T04:33:31Z</time>
      </trkpt>
      <trkpt lat="-32.09211179341009" lon="-71.27251440195612">
        <time>2019-03-07T04:33:31Z</time>
      </trkpt>
      <trkpt lat="-32.09212860574966" lon="-71.27239775505007">
        <time>2019-03-07T04:33:31Z</time>
      </trkpt>
      <trkpt lat="-32.09214086560866" lon="-71.27224875066383">
        <time>2019-03-07T04:33:31Z</time>
      </trkpt>
      <trkpt lat="-32.09215489769364" lon="-71.27201734997917">
        <time>2019-03-07T04:33:31Z</time>
      </trkpt>
      <trkpt lat="-32.09216755320347" lon="-71.27192057108469">
        <time>2019-03-07T04:33:31Z</time>
      </trkpt>
      <trkpt lat="-32.09225262890097" lon="-71.27163309283093">
        <time>2019-03-07T04:33:31Z</time>
      </trkpt>
      <trkpt lat="-32.09230796017232" lon="-71.27151735216542">
        <time>2019-03-07T04:33:31Z</time>
      </trkpt>
      <trkpt lat="-32.09245290748848" lon="-71.27132037818041">
        <time>2019-03-07T04:33:31Z</time>
      </trkpt>
      <trkpt lat="-32.09264460286028" lon="-71.27105184511245">
        <time>2019-03-07T04:33:31Z</time>
      </trkpt>
      <trkpt lat="-32.09276521230989" lon="-71.27086741973012">
        <time>2019-03-07T04:33:31Z</time>
      </trkpt>
      <trkpt lat="-32.09281522571321" lon="-71.27074875474106">
        <time>2019-03-07T04:33:31Z</time>
      </trkpt>
      <trkpt lat="-32.0932389673675" lon="-71.26990096176236">
        <time>2019-03-07T04:33:31Z</time>
      </trkpt>
      <trkpt lat="-32.09328488224337" lon="-71.26974966237179">
        <time>2019-03-07T04:33:31Z</time>
      </trkpt>
      <trkpt lat="-32.09330522720351" lon="-71.2696618781418">
        <time>2019-03-07T04:33:31Z</time>
      </trkpt>
      <trkpt lat="-32.09332192752665" lon="-71.26955422572725">
        <time>2019-03-07T04:33:31Z</time>
      </trkpt>
      <trkpt lat="-32.09330771296533" lon="-71.26907737128853">
        <time>2019-03-07T04:33:31Z</time>
      </trkpt>
      <trkpt lat="-32.0933034548296" lon="-71.26886101609888">
        <time>2019-03-07T04:33:31Z</time>
      </trkpt>
      <trkpt lat="-32.09328379603643" lon="-71.2686340212836">
        <time>2019-03-07T04:33:31Z</time>
      </trkpt>
      <trkpt lat="-32.09322915033443" lon="-71.26840260482432">
        <time>2019-03-07T04:33:31Z</time>
      </trkpt>
      <trkpt lat="-32.09318002783095" lon="-71.26826922125693">
        <time>2019-03-07T04:33:31Z</time>
      </trkpt>
      <trkpt lat="-32.0931018870615" lon="-71.26810654698038">
        <time>2019-03-07T04:33:31Z</time>
      </trkpt>
      <trkpt lat="-32.09300315978734" lon="-71.26796064214231">
        <time>2019-03-07T04:33:31Z</time>
      </trkpt>
      <trkpt lat="-32.09279493675379" lon="-71.26765031196679">
        <time>2019-03-07T04:33:31Z</time>
      </trkpt>
      <trkpt lat="-32.09274837257431" lon="-71.26757181620525">
        <time>2019-03-07T04:33:31Z</time>
      </trkpt>
      <trkpt lat="-32.0927147084386" lon="-71.26749612588402">
        <time>2019-03-07T04:33:31Z</time>
      </trkpt>
      <trkpt lat="-32.09270220950589" lon="-71.26743218876793">
        <time>2019-03-07T04:33:31Z</time>
      </trkpt>
      <trkpt lat="-32.0926994818037" lon="-71.267182347746">
        <time>2019-03-07T04:33:31Z</time>
      </trkpt>
      <trkpt lat="-32.09270766528606" lon="-71.26701306744309">
        <time>2019-03-07T04:33:31Z</time>
      </trkpt>
      <trkpt lat="-32.09272405357108" lon="-71.26689621720391">
        <time>2019-03-07T04:33:31Z</time>
      </trkpt>
      <trkpt lat="-32.0927584635925" lon="-71.26681353263381">
        <time>2019-03-07T04:33:31Z</time>
      </trkpt>
      <trkpt lat="-32.09313065808119" lon="-71.26623421609148">
        <time>2019-03-07T04:33:31Z</time>
      </trkpt>
      <trkpt lat="-32.09325911913427" lon="-71.26604220464012">
        <time>2019-03-07T04:33:31Z</time>
      </trkpt>
      <trkpt lat="-32.09332443721718" lon="-71.26590397977087">
        <time>2019-03-07T04:33:31Z</time>
      </trkpt>
      <trkpt lat="-32.09336489082423" lon="-71.26577071829478">
        <time>2019-03-07T04:33:31Z</time>
      </trkpt>
      <trkpt lat="-32.09340661834816" lon="-71.2655735880586">
        <time>2019-03-07T04:33:31Z</time>
      </trkpt>
      <trkpt lat="-32.09341755892124" lon="-71.26542206299438">
        <time>2019-03-07T04:33:31Z</time>
      </trkpt>
      <trkpt lat="-32.09342810241729" lon="-71.26526940136337">
        <time>2019-03-07T04:33:31Z</time>
      </trkpt>
      <trkpt lat="-32.09346866502899" lon="-71.26504836840026">
        <time>2019-03-07T04:33:31Z</time>
      </trkpt>
      <trkpt lat="-32.09349028430832" lon="-71.26492655433155">
        <time>2019-03-07T04:33:31Z</time>
      </trkpt>
      <trkpt lat="-32.09357212850252" lon="-71.26469509727993">
        <time>2019-03-07T04:33:31Z</time>
      </trkpt>
      <trkpt lat="-32.09365395924117" lon="-71.26457387580699">
        <time>2019-03-07T04:33:31Z</time>
      </trkpt>
      <trkpt lat="-32.09379167342298" lon="-71.26438132628445">
        <time>2019-03-07T04:33:31Z</time>
      </trkpt>
      <trkpt lat="-32.09389359020045" lon="-71.26425282894327">
        <time>2019-03-07T04:33:31Z</time>
      </trkpt>
      <trkpt lat="-32.09398186790054" lon="-71.26415144086253">
        <time>2019-03-07T04:33:31Z</time>
      </trkpt>
      <trkpt lat="-32.09404613292018" lon="-71.26402373311488">
        <time>2019-03-07T04:33:31Z</time>
      </trkpt>
      <trkpt lat="-32.09406001780571" lon="-71.26381994255412">
        <time>2019-03-07T04:33:31Z</time>
      </trkpt>
      <trkpt lat="-32.09402915972188" lon="-71.2635333984193">
        <time>2019-03-07T04:33:31Z</time>
      </trkpt>
      <trkpt lat="-32.09397811984415" lon="-71.26318581575033">
        <time>2019-03-07T04:33:31Z</time>
      </trkpt>
      <trkpt lat="-32.09391867133621" lon="-71.26297382582311">
        <time>2019-03-07T04:33:31Z</time>
      </trkpt>
      <trkpt lat="-32.09381578050328" lon="-71.26272090345512">
        <time>2019-03-07T04:33:31Z</time>
      </trkpt>
      <trkpt lat="-32.0936554142416" lon="-71.26231116440873">
        <time>2019-03-07T04:33:31Z</time>
      </trkpt>
      <trkpt lat="-32.09361174892447" lon="-71.26223303277736">
        <time>2019-03-07T04:33:31Z</time>
      </trkpt>
      <trkpt lat="-32.09356855132777" lon="-71.2621724582737">
        <time>2019-03-07T04:33:31Z</time>
      </trkpt>
      <trkpt lat="-32.09351367378871" lon="-71.26212105432794">
        <time>2019-03-07T04:33:31Z</time>
      </trkpt>
      <trkpt lat="-32.09345671251255" lon="-71.26206053409219">
        <time>2019-03-07T04:33:31Z</time>
      </trkpt>
      <trkpt lat="-32.09341653721263" lon="-71.26201298860582">
        <time>2019-03-07T04:33:31Z</time>
      </trkpt>
      <trkpt lat="-32.0933835423351" lon="-71.2619569585956">
        <time>2019-03-07T04:33:31Z</time>
      </trkpt>
      <trkpt lat="-32.09335719304689" lon="-71.26190530895109">
        <time>2019-03-07T04:33:31Z</time>
      </trkpt>
      <trkpt lat="-32.09328714446207" lon="-71.26175505891771">
        <time>2019-03-07T04:33:31Z</time>
      </trkpt>
      <trkpt lat="-32.09322181173172" lon="-71.26162685405251">
        <time>2019-03-07T04:33:31Z</time>
      </trkpt>
      <trkpt lat="-32.09313160100393" lon="-71.26150566320362">
        <time>2019-03-07T04:33:31Z</time>
      </trkpt>
      <trkpt lat="-32.09277946456172" lon="-71.26108448915505">
        <time>2019-03-07T04:33:31Z</time>
      </trkpt>
      <trkpt lat="-32.09254879212833" lon="-71.26082817093182">
        <time>2019-03-07T04:33:31Z</time>
      </trkpt>
      <trkpt lat="-32.09245369359689" lon="-71.26071092759872">
        <time>2019-03-07T04:33:31Z</time>
      </trkpt>
      <trkpt lat="-32.09219524718999" lon="-71.26036428479654">
        <time>2019-03-07T04:33:31Z</time>
      </trkpt>
      <trkpt lat="-32.09191916211041" lon="-71.25995766061566">
        <time>2019-03-07T04:33:31Z</time>
      </trkpt>
      <trkpt lat="-32.09179310826976" lon="-71.2597495935962">
        <time>2019-03-07T04:33:31Z</time>
      </trkpt>
      <trkpt lat="-32.09167502841563" lon="-71.25951574963564">
        <time>2019-03-07T04:33:31Z</time>
      </trkpt>
      <trkpt lat="-32.0915572349099" lon="-71.25930373125945">
        <time>2019-03-07T04:33:31Z</time>
      </trkpt>
      <trkpt lat="-32.09144566274031" lon="-71.25913281433621">
        <time>2019-03-07T04:33:31Z</time>
      </trkpt>
      <trkpt lat="-32.09131802495544" lon="-71.25898238473845">
        <time>2019-03-07T04:33:31Z</time>
      </trkpt>
      <trkpt lat="-32.09107916335291" lon="-71.25871211702543">
        <time>2019-03-07T04:33:31Z</time>
      </trkpt>
      <trkpt lat="-32.09103544920485" lon="-71.25865193564719">
        <time>2019-03-07T04:33:31Z</time>
      </trkpt>
      <trkpt lat="-32.09100814096516" lon="-71.25860118007645">
        <time>2019-03-07T04:33:31Z</time>
      </trkpt>
      <trkpt lat="-32.09084985186339" lon="-71.2582787847761">
        <time>2019-03-07T04:33:31Z</time>
      </trkpt>
      <trkpt lat="-32.09075982604065" lon="-71.25805902735269">
        <time>2019-03-07T04:33:31Z</time>
      </trkpt>
      <trkpt lat="-32.09071721248088" lon="-71.25790230192344">
        <time>2019-03-07T04:33:31Z</time>
      </trkpt>
      <trkpt lat="-32.09069819924739" lon="-71.25766205583329">
        <time>2019-03-07T04:33:31Z</time>
      </trkpt>
      <trkpt lat="-32.09066799700553" lon="-71.25712367179902">
        <time>2019-03-07T04:33:31Z</time>
      </trkpt>
      <trkpt lat="-32.09063129413263" lon="-71.25690890150631">
        <time>2019-03-07T04:33:31Z</time>
      </trkpt>
      <trkpt lat="-32.09057915002614" lon="-71.25664144124866">
        <time>2019-03-07T04:33:31Z</time>
      </trkpt>
      <trkpt lat="-32.09057007716405" lon="-71.25651280204825">
        <time>2019-03-07T04:33:31Z</time>
      </trkpt>
      <trkpt lat="-32.0905851546525" lon="-71.25637842958172">
        <time>2019-03-07T04:33:31Z</time>
      </trkpt>
      <trkpt lat="-32.09060673427724" lon="-71.25622722046204">
        <time>2019-03-07T04:33:31Z</time>
      </trkpt>
      <trkpt lat="-32.09071784710385" lon="-71.25566660028247">
        <time>2019-03-07T04:33:31Z</time>
      </trkpt>
      <trkpt lat="-32.09077100795278" lon="-71.25548294098351">
        <time>2019-03-07T04:33:31Z</time>
      </trkpt>
      <trkpt lat="-32.09079717689342" lon="-71.25542653907733">
        <time>2019-03-07T04:33:31Z</time>
      </trkpt>
      <trkpt lat="-32.09087007438152" lon="-71.2553193744385">
        <time>2019-03-07T04:33:31Z</time>
      </trkpt>
      <trkpt lat="-32.09093244978256" lon="-71.2552565330782">
        <time>2019-03-07T04:33:31Z</time>
      </trkpt>
      <trkpt lat="-32.09117178168759" lon="-71.25501469296552">
        <time>2019-03-07T04:33:31Z</time>
      </trkpt>
      <trkpt lat="-32.09140138657582" lon="-71.25480212477315">
        <time>2019-03-07T04:33:31Z</time>
      </trkpt>
      <trkpt lat="-32.09160644794102" lon="-71.25465090626211">
        <time>2019-03-07T04:33:31Z</time>
      </trkpt>
      <trkpt lat="-32.09167473582569" lon="-71.25460661532863">
        <time>2019-03-07T04:33:31Z</time>
      </trkpt>
      <trkpt lat="-32.09177661370508" lon="-71.25454929291568">
        <time>2019-03-07T04:33:31Z</time>
      </trkpt>
      <trkpt lat="-32.09192758178322" lon="-71.25446768479179">
        <time>2019-03-07T04:33:31Z</time>
      </trkpt>
      <trkpt lat="-32.09199220347696" lon="-71.25441890550314">
        <time>2019-03-07T04:33:31Z</time>
      </trkpt>
      <trkpt lat="-32.09204760904228" lon="-71.25437683353636">
        <time>2019-03-07T04:33:31Z</time>
      </trkpt>
      <trkpt lat="-32.09208801436586" lon="-71.25433411573989">
        <time>2019-03-07T04:33:31Z</time>
      </trkpt>
      <trkpt lat="-32.09233511164027" lon="-71.2540563767344">
        <time>2019-03-07T04:33:31Z</time>
      </trkpt>
      <trkpt lat="-32.09244344143377" lon="-71.25392693224261">
        <time>2019-03-07T04:33:31Z</time>
      </trkpt>
      <trkpt lat="-32.09264022656029" lon="-71.25362456568905">
        <time>2019-03-07T04:33:31Z</time>
      </trkpt>
      <trkpt lat="-32.09272337410565" lon="-71.25350144417722">
        <time>2019-03-07T04:33:31Z</time>
      </trkpt>
      <trkpt lat="-32.09279375649813" lon="-71.253411801127">
        <time>2019-03-07T04:33:31Z</time>
      </trkpt>
      <trkpt lat="-32.09290434589936" lon="-71.253244410956">
        <time>2019-03-07T04:33:31Z</time>
      </trkpt>
      <trkpt lat="-32.09298990005588" lon="-71.253126051631">
        <time>2019-03-07T04:33:31Z</time>
      </trkpt>
      <trkpt lat="-32.0930334308128" lon="-71.25301678728076">
        <time>2019-03-07T04:33:31Z</time>
      </trkpt>
      <trkpt lat="-32.09306730848408" lon="-71.25288479549093">
        <time>2019-03-07T04:33:31Z</time>
      </trkpt>
      <trkpt lat="-32.09308832916107" lon="-71.25277453491641">
        <time>2019-03-07T04:33:31Z</time>
      </trkpt>
      <trkpt lat="-32.09309102354975" lon="-71.25264795902794">
        <time>2019-03-07T04:33:31Z</time>
      </trkpt>
      <trkpt lat="-32.09308332476988" lon="-71.25253034551413">
        <time>2019-03-07T04:33:31Z</time>
      </trkpt>
      <trkpt lat="-32.0930537375557" lon="-71.25238232885603">
        <time>2019-03-07T04:33:31Z</time>
      </trkpt>
      <trkpt lat="-32.09300523907878" lon="-71.25223283213732">
        <time>2019-03-07T04:33:31Z</time>
      </trkpt>
      <trkpt lat="-32.09283244021467" lon="-71.25176133243383">
        <time>2019-03-07T04:33:31Z</time>
      </trkpt>
      <trkpt lat="-32.09264181473945" lon="-71.25127851211248">
        <time>2019-03-07T04:33:31Z</time>
      </trkpt>
      <trkpt lat="-32.09259209485612" lon="-71.25118171252468">
        <time>2019-03-07T04:33:31Z</time>
      </trkpt>
      <trkpt lat="-32.09252372676146" lon="-71.25109636516854">
        <time>2019-03-07T04:33:31Z</time>
      </trkpt>
      <trkpt lat="-32.09206666332538" lon="-71.2504829123241">
        <time>2019-03-07T04:33:31Z</time>
      </trkpt>
      <trkpt lat="-32.09197193803743" lon="-71.2503465476356">
        <time>2019-03-07T04:33:31Z</time>
      </trkpt>
      <trkpt lat="-32.09190336693887" lon="-71.25023513077102">
        <time>2019-03-07T04:33:31Z</time>
      </trkpt>
      <trkpt lat="-32.09186199707381" lon="-71.25014156835944">
        <time>2019-03-07T04:33:31Z</time>
      </trkpt>
      <trkpt lat="-32.09183980195858" lon="-71.25005690229641">
        <time>2019-03-07T04:33:31Z</time>
      </trkpt>
      <trkpt lat="-32.09184153830551" lon="-71.24998379007091">
        <time>2019-03-07T04:33:31Z</time>
      </trkpt>
      <trkpt lat="-32.09185799088868" lon="-71.24990060350913">
        <time>2019-03-07T04:33:31Z</time>
      </trkpt>
      <trkpt lat="-32.09201452423552" lon="-71.24960002654429">
        <time>2019-03-07T04:33:31Z</time>
      </trkpt>
      <trkpt lat="-32.09206064346261" lon="-71.24949654329433">
        <time>2019-03-07T04:33:31Z</time>
      </trkpt>
      <trkpt lat="-32.09206722534236" lon="-71.24944692169483">
        <time>2019-03-07T04:33:31Z</time>
      </trkpt>
      <trkpt lat="-32.09206732205801" lon="-71.24940379216179">
        <time>2019-03-07T04:33:31Z</time>
      </trkpt>
      <trkpt lat="-32.09206198992177" lon="-71.24923109538621">
        <time>2019-03-07T04:33:31Z</time>
      </trkpt>
      <trkpt lat="-32.09206445350247" lon="-71.24916602266804">
        <time>2019-03-07T04:33:31Z</time>
      </trkpt>
      <trkpt lat="-32.09207258586686" lon="-71.24910844625512">
        <time>2019-03-07T04:33:31Z</time>
      </trkpt>
      <trkpt lat="-32.09209662896418" lon="-71.24901795064857">
        <time>2019-03-07T04:33:31Z</time>
      </trkpt>
      <trkpt lat="-32.0921235467725" lon="-71.24894801046574">
        <time>2019-03-07T04:33:31Z</time>
      </trkpt>
      <trkpt lat="-32.09218521050608" lon="-71.24885207710278">
        <time>2019-03-07T04:33:31Z</time>
      </trkpt>
      <trkpt lat="-32.09224588731185" lon="-71.24875048086309">
        <time>2019-03-07T04:33:31Z</time>
      </trkpt>
      <trkpt lat="-32.09227379919862" lon="-71.24869004826081">
        <time>2019-03-07T04:33:31Z</time>
      </trkpt>
      <trkpt lat="-32.09228429219051" lon="-71.2486409192896">
        <time>2019-03-07T04:33:31Z</time>
      </trkpt>
      <trkpt lat="-32.09228899073018" lon="-71.24857827422417">
        <time>2019-03-07T04:33:31Z</time>
      </trkpt>
      <trkpt lat="-32.09227995214489" lon="-71.24849005208763">
        <time>2019-03-07T04:33:31Z</time>
      </trkpt>
      <trkpt lat="-32.09224525992777" lon="-71.24833599705234">
        <time>2019-03-07T04:33:31Z</time>
      </trkpt>
      <trkpt lat="-32.09219608569401" lon="-71.24820898619804">
        <time>2019-03-07T04:33:31Z</time>
      </trkpt>
      <trkpt lat="-32.09206701999696" lon="-71.24794428208985">
        <time>2019-03-07T04:33:31Z</time>
      </trkpt>
      <trkpt lat="-32.09193133163595" lon="-71.24769641437497">
        <time>2019-03-07T04:33:31Z</time>
      </trkpt>
      <trkpt lat="-32.09188694850084" lon="-71.24762425074059">
        <time>2019-03-07T04:33:31Z</time>
      </trkpt>
      <trkpt lat="-32.09184466764901" lon="-71.24756638760468">
        <time>2019-03-07T04:33:31Z</time>
      </trkpt>
      <trkpt lat="-32.09180521275444" lon="-71.24752630707613">
        <time>2019-03-07T04:33:31Z</time>
      </trkpt>
      <trkpt lat="-32.09175760705552" lon="-71.24749846951643">
        <time>2019-03-07T04:33:31Z</time>
      </trkpt>
      <trkpt lat="-32.0915051713143" lon="-71.2473797311152">
        <time>2019-03-07T04:33:31Z</time>
      </trkpt>
      <trkpt lat="-32.09146311750832" lon="-71.24735092032761">
        <time>2019-03-07T04:33:31Z</time>
      </trkpt>
      <trkpt lat="-32.09117820833528" lon="-71.24714347004996">
        <time>2019-03-07T04:33:31Z</time>
      </trkpt>
      <trkpt lat="-32.09114027413181" lon="-71.2471212662922">
        <time>2019-03-07T04:33:31Z</time>
      </trkpt>
      <trkpt lat="-32.09107472987098" lon="-71.24708336877905">
        <time>2019-03-07T04:33:31Z</time>
      </trkpt>
      <trkpt lat="-32.09086133071789" lon="-71.24696553648749">
        <time>2019-03-07T04:33:31Z</time>
      </trkpt>
      <trkpt lat="-32.09025395858762" lon="-71.24663446412841">
        <time>2019-03-07T04:33:31Z</time>
      </trkpt>
      <trkpt lat="-32.08994339964028" lon="-71.2464417678075">
        <time>2019-03-07T04:33:31Z</time>
      </trkpt>
      <trkpt lat="-32.08988715006873" lon="-71.24641554941798">
        <time>2019-03-07T04:33:31Z</time>
      </trkpt>
      <trkpt lat="-32.08977661199013" lon="-71.24637673559265">
        <time>2019-03-07T04:33:31Z</time>
      </trkpt>
      <trkpt lat="-32.08970283961389" lon="-71.24635134792158">
        <time>2019-03-07T04:33:31Z</time>
      </trkpt>
      <trkpt lat="-32.08966339113407" lon="-71.24633127399282">
        <time>2019-03-07T04:33:31Z</time>
      </trkpt>
      <trkpt lat="-32.08963327297115" lon="-71.24630673985749">
        <time>2019-03-07T04:33:31Z</time>
      </trkpt>
      <trkpt lat="-32.08959589831878" lon="-71.2462645213469">
        <time>2019-03-07T04:33:31Z</time>
      </trkpt>
      <trkpt lat="-32.08957222445505" lon="-71.24624667679866">
        <time>2019-03-07T04:33:31Z</time>
      </trkpt>
      <trkpt lat="-32.08953680299773" lon="-71.24622748486392">
        <time>2019-03-07T04:33:31Z</time>
      </trkpt>
      <trkpt lat="-32.0894987362135" lon="-71.24621276701299">
        <time>2019-03-07T04:33:31Z</time>
      </trkpt>
      <trkpt lat="-32.08943610083155" lon="-71.24619395800245">
        <time>2019-03-07T04:33:31Z</time>
      </trkpt>
      <trkpt lat="-32.08938071439368" lon="-71.24619004666079">
        <time>2019-03-07T04:33:31Z</time>
      </trkpt>
      <trkpt lat="-32.08925425480967" lon="-71.24619413450637">
        <time>2019-03-07T04:33:31Z</time>
      </trkpt>
      <trkpt lat="-32.08913341618634" lon="-71.24621410408933">
        <time>2019-03-07T04:33:31Z</time>
      </trkpt>
      <trkpt lat="-32.08893324409576" lon="-71.24627882552798">
        <time>2019-03-07T04:33:31Z</time>
      </trkpt>
      <trkpt lat="-32.08857696436483" lon="-71.24640324011602">
        <time>2019-03-07T04:33:31Z</time>
      </trkpt>
      <trkpt lat="-32.08852612775537" lon="-71.24641608367426">
        <time>2019-03-07T04:33:31Z</time>
      </trkpt>
      <trkpt lat="-32.08847368019299" lon="-71.24643146165634">
        <time>2019-03-07T04:33:31Z</time>
      </trkpt>
      <trkpt lat="-32.08833003184014" lon="-71.24645883875517">
        <time>2019-03-07T04:33:31Z</time>
      </trkpt>
      <trkpt lat="-32.0882031167415" lon="-71.246469496091">
        <time>2019-03-07T04:33:31Z</time>
      </trkpt>
      <trkpt lat="-32.08809385681122" lon="-71.24646457849141">
        <time>2019-03-07T04:33:31Z</time>
      </trkpt>
      <trkpt lat="-32.08802633992895" lon="-71.24646012950653">
        <time>2019-03-07T04:33:31Z</time>
      </trkpt>
      <trkpt lat="-32.08780456642189" lon="-71.24645569018863">
        <time>2019-03-07T04:33:31Z</time>
      </trkpt>
      <trkpt lat="-32.08767500196603" lon="-71.2464596050522">
        <time>2019-03-07T04:33:31Z</time>
      </trkpt>
      <trkpt lat="-32.08755057760082" lon="-71.24648055205581">
        <time>2019-03-07T04:33:31Z</time>
      </trkpt>
      <trkpt lat="-32.08738436637353" lon="-71.24651687176021">
        <time>2019-03-07T04:33:31Z</time>
      </trkpt>
      <trkpt lat="-32.08724112218956" lon="-71.2465684227921">
        <time>2019-03-07T04:33:31Z</time>
      </trkpt>
      <trkpt lat="-32.0866638483592" lon="-71.24680704567255">
        <time>2019-03-07T04:33:31Z</time>
      </trkpt>
      <trkpt lat="-32.08663291580078" lon="-71.24683395583593">
        <time>2019-03-07T04:33:31Z</time>
      </trkpt>
      <trkpt lat="-32.08659518621438" lon="-71.24689189365994">
        <time>2019-03-07T04:33:31Z</time>
      </trkpt>
      <trkpt lat="-32.08655917370734" lon="-71.24699412199247">
        <time>2019-03-07T04:33:31Z</time>
      </trkpt>
      <trkpt lat="-32.0864697764851" lon="-71.24721215715766">
        <time>2019-03-07T04:33:31Z</time>
      </trkpt>
      <trkpt lat="-32.08643013112714" lon="-71.24729095218865">
        <time>2019-03-07T04:33:31Z</time>
      </trkpt>
      <trkpt lat="-32.08635962652853" lon="-71.2474113949778">
        <time>2019-03-07T04:33:31Z</time>
      </trkpt>
      <trkpt lat="-32.0863023880996" lon="-71.24748033988038">
        <time>2019-03-07T04:33:31Z</time>
      </trkpt>
      <trkpt lat="-32.08611822316367" lon="-71.24766390934155">
        <time>2019-03-07T04:33:31Z</time>
      </trkpt>
      <trkpt lat="-32.08604495219483" lon="-71.24774311335045">
        <time>2019-03-07T04:33:31Z</time>
      </trkpt>
      <trkpt lat="-32.08589261964091" lon="-71.24790220443406">
        <time>2019-03-07T04:33:31Z</time>
      </trkpt>
      <trkpt lat="-32.08583395630201" lon="-71.24797232569466">
        <time>2019-03-07T04:33:31Z</time>
      </trkpt>
      <trkpt lat="-32.0857923461196" lon="-71.24802784574766">
        <time>2019-03-07T04:33:31Z</time>
      </trkpt>
      <trkpt lat="-32.08575534796255" lon="-71.24808664317578">
        <time>2019-03-07T04:33:31Z</time>
      </trkpt>
      <trkpt lat="-32.08570463302478" lon="-71.24817035965188">
        <time>2019-03-07T04:33:31Z</time>
      </trkpt>
      <trkpt lat="-32.08565726231376" lon="-71.24824204049749">
        <time>2019-03-07T04:33:31Z</time>
      </trkpt>
      <trkpt lat="-32.08562580090537" lon="-71.24828620435733">
        <time>2019-03-07T04:33:31Z</time>
      </trkpt>
      <trkpt lat="-32.08559621987544" lon="-71.24831430961743">
        <time>2019-03-07T04:33:31Z</time>
      </trkpt>
      <trkpt lat="-32.08554774930899" lon="-71.24835144085861">
        <time>2019-03-07T04:33:31Z</time>
      </trkpt>
      <trkpt lat="-32.08550537609482" lon="-71.24836901147164">
        <time>2019-03-07T04:33:31Z</time>
      </trkpt>
      <trkpt lat="-32.08533573619948" lon="-71.24842860321714">
        <time>2019-03-07T04:33:31Z</time>
      </trkpt>
      <trkpt lat="-32.08527532837329" lon="-71.24844420234928">
        <time>2019-03-07T04:33:31Z</time>
      </trkpt>
      <trkpt lat="-32.08522945605954" lon="-71.24844922417822">
        <time>2019-03-07T04:33:31Z</time>
      </trkpt>
      <trkpt lat="-32.08514372241272" lon="-71.24844529509335">
        <time>2019-03-07T04:33:31Z</time>
      </trkpt>
      <trkpt lat="-32.08494814382846" lon="-71.24839460372994">
        <time>2019-03-07T04:33:31Z</time>
      </trkpt>
      <trkpt lat="-32.08486538582574" lon="-71.24834940885683">
        <time>2019-03-07T04:33:31Z</time>
      </trkpt>
      <trkpt lat="-32.08479244630608" lon="-71.24830448871731">
        <time>2019-03-07T04:33:31Z</time>
      </trkpt>
      <trkpt lat="-32.08471694255628" lon="-71.24826947170389">
        <time>2019-03-07T04:33:31Z</time>
      </trkpt>
      <trkpt lat="-32.08465893525323" lon="-71.24823984540196">
        <time>2019-03-07T04:33:31Z</time>
      </trkpt>
      <trkpt lat="-32.08459222336929" lon="-71.24819708151742">
        <time>2019-03-07T04:33:31Z</time>
      </trkpt>
      <trkpt lat="-32.0845365019563" lon="-71.24814816383241">
        <time>2019-03-07T04:33:31Z</time>
      </trkpt>
      <trkpt lat="-32.08445948746149" lon="-71.24805517828622">
        <time>2019-03-07T04:33:31Z</time>
      </trkpt>
      <trkpt lat="-32.08438650012808" lon="-71.24796353046939">
        <time>2019-03-07T04:33:31Z</time>
      </trkpt>
      <trkpt lat="-32.0843295713148" lon="-71.24791520317385">
        <time>2019-03-07T04:33:31Z</time>
      </trkpt>
      <trkpt lat="-32.08426578865565" lon="-71.24787217549847">
        <time>2019-03-07T04:33:31Z</time>
      </trkpt>
      <trkpt lat="-32.08421102827853" lon="-71.24780827150147">
        <time>2019-03-07T04:33:31Z</time>
      </trkpt>
      <trkpt lat="-32.0841375051608" lon="-71.24770034557082">
        <time>2019-03-07T04:33:31Z</time>
      </trkpt>
      <trkpt lat="-32.08407294010048" lon="-71.24755565896666">
        <time>2019-03-07T04:33:31Z</time>
      </trkpt>
      <trkpt lat="-32.08396694883218" lon="-71.24733964082925">
        <time>2019-03-07T04:33:31Z</time>
      </trkpt>
      <trkpt lat="-32.08388787890683" lon="-71.24719575049032">
        <time>2019-03-07T04:33:31Z</time>
      </trkpt>
      <trkpt lat="-32.08378779237826" lon="-71.24709216795375">
        <time>2019-03-07T04:33:31Z</time>
      </trkpt>
      <trkpt lat="-32.0837075823861" lon="-71.24704944574479">
        <time>2019-03-07T04:33:31Z</time>
      </trkpt>
      <trkpt lat="-32.08346849528258" lon="-71.24691256439611">
        <time>2019-03-07T04:33:31Z</time>
      </trkpt>
      <trkpt lat="-32.08280289347556" lon="-71.24644374024122">
        <time>2019-03-07T04:33:31Z</time>
      </trkpt>
      <trkpt lat="-32.08259967205635" lon="-71.24624793552913">
        <time>2019-03-07T04:33:31Z</time>
      </trkpt>
      <trkpt lat="-32.0824894754882" lon="-71.24611081538055">
        <time>2019-03-07T04:33:31Z</time>
      </trkpt>
      <trkpt lat="-32.08243045928047" lon="-71.24596397136632">
        <time>2019-03-07T04:33:31Z</time>
      </trkpt>
      <trkpt lat="-32.08240981985007" lon="-71.24585679597361">
        <time>2019-03-07T04:33:31Z</time>
      </trkpt>
      <trkpt lat="-32.08236269884607" lon="-71.24537681052649">
        <time>2019-03-07T04:33:31Z</time>
      </trkpt>
      <trkpt lat="-32.08233893424247" lon="-71.24510947226578">
        <time>2019-03-07T04:33:31Z</time>
      </trkpt>
      <trkpt lat="-32.08228522895694" lon="-71.24439144584773">
        <time>2019-03-07T04:33:31Z</time>
      </trkpt>
      <trkpt lat="-32.08226412479345" lon="-71.24427125898548">
        <time>2019-03-07T04:33:31Z</time>
      </trkpt>
      <trkpt lat="-32.08222713288577" lon="-71.2441715428017">
        <time>2019-03-07T04:33:31Z</time>
      </trkpt>
      <trkpt lat="-32.08217907221884" lon="-71.24407873234799">
        <time>2019-03-07T04:33:31Z</time>
      </trkpt>
      <trkpt lat="-32.08214293058136" lon="-71.24403469226586">
        <time>2019-03-07T04:33:31Z</time>
      </trkpt>
      <trkpt lat="-32.08209094000159" lon="-71.24398812501423">
        <time>2019-03-07T04:33:31Z</time>
      </trkpt>
      <trkpt lat="-32.08200290665091" lon="-71.24389272254598">
        <time>2019-03-07T04:33:31Z</time>
      </trkpt>
      <trkpt lat="-32.08190381552111" lon="-71.24377500954819">
        <time>2019-03-07T04:33:31Z</time>
      </trkpt>
      <trkpt lat="-32.08186668978809" lon="-71.24371770021496">
        <time>2019-03-07T04:33:31Z</time>
      </trkpt>
      <trkpt lat="-32.08181778201014" lon="-71.24362758595123">
        <time>2019-03-07T04:33:31Z</time>
      </trkpt>
      <trkpt lat="-32.08176155052769" lon="-71.24354172796905">
        <time>2019-03-07T04:33:31Z</time>
      </trkpt>
      <trkpt lat="-32.08169826524836" lon="-71.2434724533199">
        <time>2019-03-07T04:33:31Z</time>
      </trkpt>
      <trkpt lat="-32.08157660248909" lon="-71.24334109885315">
        <time>2019-03-07T04:33:31Z</time>
      </trkpt>
      <trkpt lat="-32.08148074242641" lon="-71.24319260150924">
        <time>2019-03-07T04:33:31Z</time>
      </trkpt>
      <trkpt lat="-32.08139698316411" lon="-71.24303444366628">
        <time>2019-03-07T04:33:31Z</time>
      </trkpt>
      <trkpt lat="-32.08133050900322" lon="-71.24288580447444">
        <time>2019-03-07T04:33:31Z</time>
      </trkpt>
      <trkpt lat="-32.08127625718558" lon="-71.24279546118208">
        <time>2019-03-07T04:33:31Z</time>
      </trkpt>
      <trkpt lat="-32.08121792185321" lon="-71.24274099512907">
        <time>2019-03-07T04:33:31Z</time>
      </trkpt>
      <trkpt lat="-32.08108735155779" lon="-71.24266574193857">
        <time>2019-03-07T04:33:31Z</time>
      </trkpt>
      <trkpt lat="-32.08092630643224" lon="-71.24254846305473">
        <time>2019-03-07T04:33:31Z</time>
      </trkpt>
      <trkpt lat="-32.08066123014229" lon="-71.24232255597207">
        <time>2019-03-07T04:33:31Z</time>
      </trkpt>
      <trkpt lat="-32.08049719763397" lon="-71.2421700256065">
        <time>2019-03-07T04:33:31Z</time>
      </trkpt>
      <trkpt lat="-32.0801977209711" lon="-71.24186463120753">
        <time>2019-03-07T04:33:31Z</time>
      </trkpt>
      <trkpt lat="-32.08000717334151" lon="-71.24165087958271">
        <time>2019-03-07T04:33:31Z</time>
      </trkpt>
      <trkpt lat="-32.07994170925352" lon="-71.24155150427963">
        <time>2019-03-07T04:33:31Z</time>
      </trkpt>
      <trkpt lat="-32.07986943454743" lon="-71.2414327373538">
        <time>2019-03-07T04:33:31Z</time>
      </trkpt>
      <trkpt lat="-32.07979647567989" lon="-71.24134497933466">
        <time>2019-03-07T04:33:31Z</time>
      </trkpt>
      <trkpt lat="-32.0797175676247" lon="-71.24126251656755">
        <time>2019-03-07T04:33:31Z</time>
      </trkpt>
      <trkpt lat="-32.07952278392376" lon="-71.24110041617354">
        <time>2019-03-07T04:33:31Z</time>
      </trkpt>
      <trkpt lat="-32.07946926849166" lon="-71.24101258098779">
        <time>2019-03-07T04:33:31Z</time>
      </trkpt>
      <trkpt lat="-32.07944078201108" lon="-71.24093376357007">
        <time>2019-03-07T04:33:31Z</time>
      </trkpt>
      <trkpt lat="-32.07942412839034" lon="-71.24085346686262">
        <time>2019-03-07T04:33:31Z</time>
      </trkpt>
      <trkpt lat="-32.07941454854085" lon="-71.24069341181227">
        <time>2019-03-07T04:33:31Z</time>
      </trkpt>
      <trkpt lat="-32.07940830569729" lon="-71.24060178485732">
        <time>2019-03-07T04:33:31Z</time>
      </trkpt>
      <trkpt lat="-32.07939214050616" lon="-71.24054266866864">
        <time>2019-03-07T04:33:31Z</time>
      </trkpt>
      <trkpt lat="-32.07936612391976" lon="-71.24048733054393">
        <time>2019-03-07T04:33:31Z</time>
      </trkpt>
      <trkpt lat="-32.07928294064186" lon="-71.2403468810363">
        <time>2019-03-07T04:33:31Z</time>
      </trkpt>
      <trkpt lat="-32.07909545148634" lon="-71.24005473211609">
        <time>2019-03-07T04:33:31Z</time>
      </trkpt>
      <trkpt lat="-32.0790617810578" lon="-71.23996918176214">
        <time>2019-03-07T04:33:31Z</time>
      </trkpt>
      <trkpt lat="-32.07903890829631" lon="-71.23985945833233">
        <time>2019-03-07T04:33:31Z</time>
      </trkpt>
      <trkpt lat="-32.07896190582405" lon="-71.23957211522699">
        <time>2019-03-07T04:33:31Z</time>
      </trkpt>
      <trkpt lat="-32.07891296928065" lon="-71.2394398184813">
        <time>2019-03-07T04:33:31Z</time>
      </trkpt>
      <trkpt lat="-32.07884653367572" lon="-71.23929098358498">
        <time>2019-03-07T04:33:31Z</time>
      </trkpt>
      <trkpt lat="-32.07878952554997" lon="-71.2391850219107">
        <time>2019-03-07T04:33:31Z</time>
      </trkpt>
      <trkpt lat="-32.07869517066867" lon="-71.23905526844958">
        <time>2019-03-07T04:33:31Z</time>
      </trkpt>
      <trkpt lat="-32.07842119802152" lon="-71.23873590172383">
        <time>2019-03-07T04:33:31Z</time>
      </trkpt>
      <trkpt lat="-32.07819057075872" lon="-71.23843575229836">
        <time>2019-03-07T04:33:31Z</time>
      </trkpt>
      <trkpt lat="-32.07813807605804" lon="-71.23835140127527">
        <time>2019-03-07T04:33:31Z</time>
      </trkpt>
      <trkpt lat="-32.07809041091787" lon="-71.23825037240387">
        <time>2019-03-07T04:33:31Z</time>
      </trkpt>
      <trkpt lat="-32.0780343099305" lon="-71.23812503112374">
        <time>2019-03-07T04:33:31Z</time>
      </trkpt>
      <trkpt lat="-32.07798191385161" lon="-71.23800621045402">
        <time>2019-03-07T04:33:31Z</time>
      </trkpt>
      <trkpt lat="-32.07793766528813" lon="-71.23791652385474">
        <time>2019-03-07T04:33:31Z</time>
      </trkpt>
      <trkpt lat="-32.07781366480857" lon="-71.23770361262874">
        <time>2019-03-07T04:33:31Z</time>
      </trkpt>
      <trkpt lat="-32.07772135833697" lon="-71.23753461344238">
        <time>2019-03-07T04:33:31Z</time>
      </trkpt>
      <trkpt lat="-32.07765853544699" lon="-71.23742208727828">
        <time>2019-03-07T04:33:31Z</time>
      </trkpt>
      <trkpt lat="-32.07761685415697" lon="-71.23731582082914">
        <time>2019-03-07T04:33:31Z</time>
      </trkpt>
      <trkpt lat="-32.07759478890919" lon="-71.23722752931255">
        <time>2019-03-07T04:33:31Z</time>
      </trkpt>
      <trkpt lat="-32.07758857312837" lon="-71.23713071493306">
        <time>2019-03-07T04:33:31Z</time>
      </trkpt>
      <trkpt lat="-32.07760475041818" lon="-71.23694355183869">
        <time>2019-03-07T04:33:31Z</time>
      </trkpt>
      <trkpt lat="-32.07763580867976" lon="-71.23683136445722">
        <time>2019-03-07T04:33:31Z</time>
      </trkpt>
      <trkpt lat="-32.07768138269837" lon="-71.23671717269056">
        <time>2019-03-07T04:33:31Z</time>
      </trkpt>
      <trkpt lat="-32.07768827935579" lon="-71.23660235695593">
        <time>2019-03-07T04:33:31Z</time>
      </trkpt>
      <trkpt lat="-32.07765564001665" lon="-71.23651051730248">
        <time>2019-03-07T04:33:31Z</time>
      </trkpt>
      <trkpt lat="-32.07760187916599" lon="-71.23643881780129">
        <time>2019-03-07T04:33:31Z</time>
      </trkpt>
      <trkpt lat="-32.07753932570504" lon="-71.23640246869985">
        <time>2019-03-07T04:33:31Z</time>
      </trkpt>
      <trkpt lat="-32.0774885687656" lon="-71.23638996286364">
        <time>2019-03-07T04:33:31Z</time>
      </trkpt>
      <trkpt lat="-32.07742227143449" lon="-71.23639553683817">
        <time>2019-03-07T04:33:31Z</time>
      </trkpt>
      <trkpt lat="-32.07736651405238" lon="-71.23642104626629">
        <time>2019-03-07T04:33:31Z</time>
      </trkpt>
      <trkpt lat="-32.07726456019327" lon="-71.23647673417368">
        <time>2019-03-07T04:33:31Z</time>
      </trkpt>
      <trkpt lat="-32.07714710325028" lon="-71.23653767436893">
        <time>2019-03-07T04:33:31Z</time>
      </trkpt>
      <trkpt lat="-32.07707690911018" lon="-71.23655674962794">
        <time>2019-03-07T04:33:31Z</time>
      </trkpt>
      <trkpt lat="-32.07699933233144" lon="-71.23656434026755">
        <time>2019-03-07T04:33:31Z</time>
      </trkpt>
      <trkpt lat="-32.07688864569087" lon="-71.23656145617699">
        <time>2019-03-07T04:33:31Z</time>
      </trkpt>
      <trkpt lat="-32.07677468478724" lon="-71.23654674998532">
        <time>2019-03-07T04:33:31Z</time>
      </trkpt>
      <trkpt lat="-32.07667979314247" lon="-71.23651220162117">
        <time>2019-03-07T04:33:31Z</time>
      </trkpt>
      <trkpt lat="-32.0765750454784" lon="-71.23645254615271">
        <time>2019-03-07T04:33:31Z</time>
      </trkpt>
      <trkpt lat="-32.07649560805879" lon="-71.23638467691065">
        <time>2019-03-07T04:33:31Z</time>
      </trkpt>
      <trkpt lat="-32.07639534656817" lon="-71.23626199907058">
        <time>2019-03-07T04:33:31Z</time>
      </trkpt>
      <trkpt lat="-32.07619240189106" lon="-71.23597565051587">
        <time>2019-03-07T04:33:31Z</time>
      </trkpt>
      <trkpt lat="-32.07609130000846" lon="-71.23586978947216">
        <time>2019-03-07T04:33:31Z</time>
      </trkpt>
      <trkpt lat="-32.07604034089105" lon="-71.23580838129287">
        <time>2019-03-07T04:33:31Z</time>
      </trkpt>
      <trkpt lat="-32.07589984606491" lon="-71.23567060483046">
        <time>2019-03-07T04:33:31Z</time>
      </trkpt>
      <trkpt lat="-32.07578766403677" lon="-71.23557411706118">
        <time>2019-03-07T04:33:31Z</time>
      </trkpt>
      <trkpt lat="-32.0756388088891" lon="-71.23547409211244">
        <time>2019-03-07T04:33:31Z</time>
      </trkpt>
      <trkpt lat="-32.07546646276322" lon="-71.23538117242489">
        <time>2019-03-07T04:33:31Z</time>
      </trkpt>
      <trkpt lat="-32.07532861952348" lon="-71.23529046848397">
        <time>2019-03-07T04:33:31Z</time>
      </trkpt>
      <trkpt lat="-32.07522888564835" lon="-71.23520467931661">
        <time>2019-03-07T04:33:31Z</time>
      </trkpt>
      <trkpt lat="-32.07508788132225" lon="-71.23508611671196">
        <time>2019-03-07T04:33:31Z</time>
      </trkpt>
      <trkpt lat="-32.0746398597996" lon="-71.2347187563996">
        <time>2019-03-07T04:33:31Z</time>
      </trkpt>
      <trkpt lat="-32.07443929650358" lon="-71.23457047149229">
        <time>2019-03-07T04:33:31Z</time>
      </trkpt>
      <trkpt lat="-32.07430250269332" lon="-71.23448250263611">
        <time>2019-03-07T04:33:31Z</time>
      </trkpt>
      <trkpt lat="-32.07379329386004" lon="-71.23419822511357">
        <time>2019-03-07T04:33:31Z</time>
      </trkpt>
      <trkpt lat="-32.0736030378446" lon="-71.23406924686583">
        <time>2019-03-07T04:33:31Z</time>
      </trkpt>
      <trkpt lat="-32.07350655790296" lon="-71.23398033192014">
        <time>2019-03-07T04:33:31Z</time>
      </trkpt>
      <trkpt lat="-32.07344022998039" lon="-71.23389953105101">
        <time>2019-03-07T04:33:31Z</time>
      </trkpt>
      <trkpt lat="-32.07333493614486" lon="-71.23378833263665">
        <time>2019-03-07T04:33:31Z</time>
      </trkpt>
      <trkpt lat="-32.07322983491589" lon="-71.23367616349511">
        <time>2019-03-07T04:33:31Z</time>
      </trkpt>
      <trkpt lat="-32.07318297953853" lon="-71.23361457870347">
        <time>2019-03-07T04:33:31Z</time>
      </trkpt>
      <trkpt lat="-32.0731228488512" lon="-71.23352135032327">
        <time>2019-03-07T04:33:31Z</time>
      </trkpt>
      <trkpt lat="-32.07308378375988" lon="-71.23343185714164">
        <time>2019-03-07T04:33:31Z</time>
      </trkpt>
      <trkpt lat="-32.07306406578058" lon="-71.23333842747285">
        <time>2019-03-07T04:33:31Z</time>
      </trkpt>
      <trkpt lat="-32.0730646715613" lon="-71.23326741571546">
        <time>2019-03-07T04:33:31Z</time>
      </trkpt>
      <trkpt lat="-32.07313234102771" lon="-71.23301763809275">
        <time>2019-03-07T04:33:31Z</time>
      </trkpt>
      <trkpt lat="-32.07318134384072" lon="-71.23283197619358">
        <time>2019-03-07T04:33:31Z</time>
      </trkpt>
      <trkpt lat="-32.07319003605279" lon="-71.23277818768868">
        <time>2019-03-07T04:33:31Z</time>
      </trkpt>
      <trkpt lat="-32.07318664808448" lon="-71.23272840833882">
        <time>2019-03-07T04:33:31Z</time>
      </trkpt>
      <trkpt lat="-32.07318326086435" lon="-71.23259281263992">
        <time>2019-03-07T04:33:31Z</time>
      </trkpt>
      <trkpt lat="-32.07320213783308" lon="-71.23250054426545">
        <time>2019-03-07T04:33:31Z</time>
      </trkpt>
      <trkpt lat="-32.07324455575344" lon="-71.23240148731307">
        <time>2019-03-07T04:33:31Z</time>
      </trkpt>
      <trkpt lat="-32.07331036245031" lon="-71.23227023796221">
        <time>2019-03-07T04:33:31Z</time>
      </trkpt>
      <trkpt lat="-32.07333869837758" lon="-71.23221205005737">
        <time>2019-03-07T04:33:31Z</time>
      </trkpt>
      <trkpt lat="-32.07337140817249" lon="-71.23213865369729">
        <time>2019-03-07T04:33:31Z</time>
      </trkpt>
      <trkpt lat="-32.0733931655654" lon="-71.23206703062527">
        <time>2019-03-07T04:33:31Z</time>
      </trkpt>
      <trkpt lat="-32.07343464138256" lon="-71.23196387979307">
        <time>2019-03-07T04:33:31Z</time>
      </trkpt>
      <trkpt lat="-32.07350833199688" lon="-71.23182820826378">
        <time>2019-03-07T04:33:31Z</time>
      </trkpt>
      <trkpt lat="-32.0736070588862" lon="-71.23169146108072">
        <time>2019-03-07T04:33:31Z</time>
      </trkpt>
      <trkpt lat="-32.07363913313571" lon="-71.23164300383013">
        <time>2019-03-07T04:33:31Z</time>
      </trkpt>
      <trkpt lat="-32.07366607595918" lon="-71.23158301898646">
        <time>2019-03-07T04:33:31Z</time>
      </trkpt>
      <trkpt lat="-32.0736930890954" lon="-71.23149219186261">
        <time>2019-03-07T04:33:31Z</time>
      </trkpt>
      <trkpt lat="-32.07372357040004" lon="-71.23138919088453">
        <time>2019-03-07T04:33:31Z</time>
      </trkpt>
      <trkpt lat="-32.07378725424294" lon="-71.23126233775714">
        <time>2019-03-07T04:33:31Z</time>
      </trkpt>
      <trkpt lat="-32.07385119567422" lon="-71.23113810219928">
        <time>2019-03-07T04:33:31Z</time>
      </trkpt>
      <trkpt lat="-32.0738932643001" lon="-71.23107288545356">
        <time>2019-03-07T04:33:31Z</time>
      </trkpt>
      <trkpt lat="-32.07396293986885" lon="-71.23097705587392">
        <time>2019-03-07T04:33:31Z</time>
      </trkpt>
      <trkpt lat="-32.07403250269429" lon="-71.23091515390134">
        <time>2019-03-07T04:33:31Z</time>
      </trkpt>
      <trkpt lat="-32.07409030532656" lon="-71.23085055433572">
        <time>2019-03-07T04:33:31Z</time>
      </trkpt>
      <trkpt lat="-32.07411882136015" lon="-71.23080333344859">
        <time>2019-03-07T04:33:31Z</time>
      </trkpt>
      <trkpt lat="-32.07413502449963" lon="-71.23076734088259">
        <time>2019-03-07T04:33:31Z</time>
      </trkpt>
      <trkpt lat="-32.07413512312127" lon="-71.23073263269141">
        <time>2019-03-07T04:33:31Z</time>
      </trkpt>
      <trkpt lat="-32.07412102997173" lon="-71.2306873773943">
        <time>2019-03-07T04:33:31Z</time>
      </trkpt>
      <trkpt lat="-32.07407851418587" lon="-71.23062576309208">
        <time>2019-03-07T04:33:31Z</time>
      </trkpt>
      <trkpt lat="-32.07404955103333" lon="-71.23058019084742">
        <time>2019-03-07T04:33:31Z</time>
      </trkpt>
      <trkpt lat="-32.07402893561894" lon="-71.23053157018944">
        <time>2019-03-07T04:33:31Z</time>
      </trkpt>
      <trkpt lat="-32.07402205711538" lon="-71.23048235750969">
        <time>2019-03-07T04:33:31Z</time>
      </trkpt>
      <trkpt lat="-32.074021936098" lon="-71.23029801895511">
        <time>2019-03-07T04:33:31Z</time>
      </trkpt>
      <trkpt lat="-32.07403023337466" lon="-71.23017628104218">
        <time>2019-03-07T04:33:31Z</time>
      </trkpt>
      <trkpt lat="-32.07404822599101" lon="-71.23009758023417">
        <time>2019-03-07T04:33:31Z</time>
      </trkpt>
      <trkpt lat="-32.07409503298111" lon="-71.22997272445903">
        <time>2019-03-07T04:33:31Z</time>
      </trkpt>
      <trkpt lat="-32.07414338723856" lon="-71.229873653836">
        <time>2019-03-07T04:33:31Z</time>
      </trkpt>
      <trkpt lat="-32.07423131921232" lon="-71.22973508604912">
        <time>2019-03-07T04:33:31Z</time>
      </trkpt>
      <trkpt lat="-32.07433696247202" lon="-71.22958393962941">
        <time>2019-03-07T04:33:31Z</time>
      </trkpt>
      <trkpt lat="-32.07443961872504" lon="-71.22941759848332">
        <time>2019-03-07T04:33:31Z</time>
      </trkpt>
      <trkpt lat="-32.0745338668861" lon="-71.22921378928491">
        <time>2019-03-07T04:33:31Z</time>
      </trkpt>
      <trkpt lat="-32.07459171179219" lon="-71.22904068061025">
        <time>2019-03-07T04:33:31Z</time>
      </trkpt>
      <trkpt lat="-32.07473397263069" lon="-71.22843456063785">
        <time>2019-03-07T04:33:31Z</time>
      </trkpt>
      <trkpt lat="-32.07480031804261" lon="-71.22790832978163">
        <time>2019-03-07T04:33:31Z</time>
      </trkpt>
      <trkpt lat="-32.07480107932192" lon="-71.22777849285129">
        <time>2019-03-07T04:33:31Z</time>
      </trkpt>
      <trkpt lat="-32.07473482102864" lon="-71.22669820757974">
        <time>2019-03-07T04:33:31Z</time>
      </trkpt>
      <trkpt lat="-32.07472806314036" lon="-71.22623174873729">
        <time>2019-03-07T04:33:31Z</time>
      </trkpt>
      <trkpt lat="-32.07473459310854" lon="-71.22615322734346">
        <time>2019-03-07T04:33:31Z</time>
      </trkpt>
      <trkpt lat="-32.07475369593401" lon="-71.22603965210814">
        <time>2019-03-07T04:33:31Z</time>
      </trkpt>
      <trkpt lat="-32.07481058981716" lon="-71.2258811119891">
        <time>2019-03-07T04:33:31Z</time>
      </trkpt>
      <trkpt lat="-32.07487606119143" lon="-71.22576442013965">
        <time>2019-03-07T04:33:31Z</time>
      </trkpt>
      <trkpt lat="-32.07494783471206" lon="-71.22565066782424">
        <time>2019-03-07T04:33:31Z</time>
      </trkpt>
      <trkpt lat="-32.075036541855" lon="-71.22553770177952">
        <time>2019-03-07T04:33:31Z</time>
      </trkpt>
      <trkpt lat="-32.07506443507115" lon="-71.22550019473282">
        <time>2019-03-07T04:33:31Z</time>
      </trkpt>
      <trkpt lat="-32.07511339254776" lon="-71.2254273764181">
        <time>2019-03-07T04:33:31Z</time>
      </trkpt>
      <trkpt lat="-32.07525027754689" lon="-71.22513688816242">
        <time>2019-03-07T04:33:31Z</time>
      </trkpt>
      <trkpt lat="-32.07540218033591" lon="-71.2245754290916">
        <time>2019-03-07T04:33:31Z</time>
      </trkpt>
      <trkpt lat="-32.07543522202712" lon="-71.22444857338019">
        <time>2019-03-07T04:33:31Z</time>
      </trkpt>
      <trkpt lat="-32.07553429830475" lon="-71.22410772655556">
        <time>2019-03-07T04:33:31Z</time>
      </trkpt>
      <trkpt lat="-32.07567031029547" lon="-71.22371753027547">
        <time>2019-03-07T04:33:31Z</time>
      </trkpt>
      <trkpt lat="-32.07571391685701" lon="-71.22353359848042">
        <time>2019-03-07T04:33:31Z</time>
      </trkpt>
      <trkpt lat="-32.0758082863878" lon="-71.22316247386013">
        <time>2019-03-07T04:33:31Z</time>
      </trkpt>
      <trkpt lat="-32.07595898470865" lon="-71.22260510974863">
        <time>2019-03-07T04:33:31Z</time>
      </trkpt>
      <trkpt lat="-32.07605840558675" lon="-71.22217411792094">
        <time>2019-03-07T04:33:31Z</time>
      </trkpt>
      <trkpt lat="-32.07612606383555" lon="-71.22192397441407">
        <time>2019-03-07T04:33:31Z</time>
      </trkpt>
      <trkpt lat="-32.07622457329834" lon="-71.22165850431428">
        <time>2019-03-07T04:33:31Z</time>
      </trkpt>
      <trkpt lat="-32.07629351531725" lon="-71.22147274525857">
        <time>2019-03-07T04:33:31Z</time>
      </trkpt>
      <trkpt lat="-32.07636886550274" lon="-71.22128719644815">
        <time>2019-03-07T04:33:31Z</time>
      </trkpt>
      <trkpt lat="-32.07642197409548" lon="-71.22115039915127">
        <time>2019-03-07T04:33:31Z</time>
      </trkpt>
      <trkpt lat="-32.0765285437092" lon="-71.22089468299888">
        <time>2019-03-07T04:33:31Z</time>
      </trkpt>
      <trkpt lat="-32.07655718716943" lon="-71.22082168098687">
        <time>2019-03-07T04:33:31Z</time>
      </trkpt>
      <trkpt lat="-32.07657396198627" lon="-71.22075021589444">
        <time>2019-03-07T04:33:31Z</time>
      </trkpt>
      <trkpt lat="-32.07670752757666" lon="-71.22035825565348">
        <time>2019-03-07T04:33:31Z</time>
      </trkpt>
      <trkpt lat="-32.07674379432211" lon="-71.22028183013347">
        <time>2019-03-07T04:33:31Z</time>
      </trkpt>
      <trkpt lat="-32.07680308832616" lon="-71.22019680127261">
        <time>2019-03-07T04:33:31Z</time>
      </trkpt>
      <trkpt lat="-32.07692636438783" lon="-71.22005330287584">
        <time>2019-03-07T04:33:31Z</time>
      </trkpt>
      <trkpt lat="-32.07722690797146" lon="-71.21976235616725">
        <time>2019-03-07T04:33:31Z</time>
      </trkpt>
      <trkpt lat="-32.07727661939343" lon="-71.21970121657422">
        <time>2019-03-07T04:33:31Z</time>
      </trkpt>
      <trkpt lat="-32.0773319243471" lon="-71.219627704597">
        <time>2019-03-07T04:33:31Z</time>
      </trkpt>
      <trkpt lat="-32.07735328254708" lon="-71.21958725768012">
        <time>2019-03-07T04:33:31Z</time>
      </trkpt>
      <trkpt lat="-32.07737732883636" lon="-71.21955265801773">
        <time>2019-03-07T04:33:31Z</time>
      </trkpt>
      <trkpt lat="-32.07762881134432" lon="-71.21913513752311">
        <time>2019-03-07T04:33:31Z</time>
      </trkpt>
      <trkpt lat="-32.07765790585275" lon="-71.21909292747218">
        <time>2019-03-07T04:33:31Z</time>
      </trkpt>
      <trkpt lat="-32.07768327245672" lon="-71.2190315240906">
        <time>2019-03-07T04:33:31Z</time>
      </trkpt>
      <trkpt lat="-32.07772930699019" lon="-71.21889619224739">
        <time>2019-03-07T04:33:31Z</time>
      </trkpt>
      <trkpt lat="-32.07776038378079" lon="-71.21883822601949">
        <time>2019-03-07T04:33:31Z</time>
      </trkpt>
      <trkpt lat="-32.0778381332113" lon="-71.21872470028748">
        <time>2019-03-07T04:33:31Z</time>
      </trkpt>
      <trkpt lat="-32.07789184587271" lon="-71.21861569318359">
        <time>2019-03-07T04:33:31Z</time>
      </trkpt>
      <trkpt lat="-32.07837989975878" lon="-71.21756884095731">
        <time>2019-03-07T04:33:31Z</time>
      </trkpt>
      <trkpt lat="-32.07849401067651" lon="-71.21730474756127">
        <time>2019-03-07T04:33:31Z</time>
      </trkpt>
      <trkpt lat="-32.07858659635993" lon="-71.21704614142354">
        <time>2019-03-07T04:33:31Z</time>
      </trkpt>
      <trkpt lat="-32.07866059943606" lon="-71.21684203363864">
        <time>2019-03-07T04:33:31Z</time>
      </trkpt>
      <trkpt lat="-32.07868400487569" lon="-71.21678050990849">
        <time>2019-03-07T04:33:31Z</time>
      </trkpt>
      <trkpt lat="-32.07873478828656" lon="-71.21666183023166">
        <time>2019-03-07T04:33:31Z</time>
      </trkpt>
      <trkpt lat="-32.07878842811015" lon="-71.21652918911367">
        <time>2019-03-07T04:33:31Z</time>
      </trkpt>
      <trkpt lat="-32.07893062642096" lon="-71.21624045630408">
        <time>2019-03-07T04:33:31Z</time>
      </trkpt>
      <trkpt lat="-32.078985770691" lon="-71.21609829349681">
        <time>2019-03-07T04:33:31Z</time>
      </trkpt>
      <trkpt lat="-32.07901423007841" lon="-71.21595757882908">
        <time>2019-03-07T04:33:31Z</time>
      </trkpt>
      <trkpt lat="-32.07903466549386" lon="-71.21581911934074">
        <time>2019-03-07T04:33:31Z</time>
      </trkpt>
      <trkpt lat="-32.07906926778771" lon="-71.21569001569695">
        <time>2019-03-07T04:33:31Z</time>
      </trkpt>
      <trkpt lat="-32.07910921026937" lon="-71.21562689519354">
        <time>2019-03-07T04:33:31Z</time>
      </trkpt>
      <trkpt lat="-32.07918597444505" lon="-71.21553456367349">
        <time>2019-03-07T04:33:31Z</time>
      </trkpt>
      <trkpt lat="-32.07940170262176" lon="-71.21529376990472">
        <time>2019-03-07T04:33:31Z</time>
      </trkpt>
      <trkpt lat="-32.0796249654072" lon="-71.21503034179598">
        <time>2019-03-07T04:33:31Z</time>
      </trkpt>
      <trkpt lat="-32.07985108711293" lon="-71.21476444776064">
        <time>2019-03-07T04:33:31Z</time>
      </trkpt>
      <trkpt lat="-32.07998486493617" lon="-71.21456277647076">
        <time>2019-03-07T04:33:31Z</time>
      </trkpt>
      <trkpt lat="-32.08008152431984" lon="-71.21436211399784">
        <time>2019-03-07T04:33:31Z</time>
      </trkpt>
      <trkpt lat="-32.0801767478855" lon="-71.21409672571541">
        <time>2019-03-07T04:33:31Z</time>
      </trkpt>
      <trkpt lat="-32.0801987831482" lon="-71.21388901987626">
        <time>2019-03-07T04:33:31Z</time>
      </trkpt>
      <trkpt lat="-32.08019753808709" lon="-71.21360018881553">
        <time>2019-03-07T04:33:31Z</time>
      </trkpt>
      <trkpt lat="-32.08019524493846" lon="-71.21343439024162">
        <time>2019-03-07T04:33:31Z</time>
      </trkpt>
      <trkpt lat="-32.08019862946869" lon="-71.21335636534954">
        <time>2019-03-07T04:33:31Z</time>
      </trkpt>
      <trkpt lat="-32.08021235152899" lon="-71.21325939846365">
        <time>2019-03-07T04:33:31Z</time>
      </trkpt>
      <trkpt lat="-32.08026322272122" lon="-71.21310100970162">
        <time>2019-03-07T04:33:31Z</time>
      </trkpt>
      <trkpt lat="-32.08043705754899" lon="-71.21269974143546">
        <time>2019-03-07T04:33:31Z</time>
      </trkpt>
      <trkpt lat="-32.08048621076891" lon="-71.21246518269511">
        <time>2019-03-07T04:33:31Z</time>
      </trkpt>
      <trkpt lat="-32.0804899255305" lon="-71.21239696391184">
        <time>2019-03-07T04:33:31Z</time>
      </trkpt>
      <trkpt lat="-32.08048336431639" lon="-71.21221879968245">
        <time>2019-03-07T04:33:31Z</time>
      </trkpt>
      <trkpt lat="-32.08049113208594" lon="-71.21212123621378">
        <time>2019-03-07T04:33:31Z</time>
      </trkpt>
      <trkpt lat="-32.08053803701926" lon="-71.21195418958909">
        <time>2019-03-07T04:33:31Z</time>
      </trkpt>
      <trkpt lat="-32.08059206154537" lon="-71.21181504201894">
        <time>2019-03-07T04:33:31Z</time>
      </trkpt>
      <trkpt lat="-32.08064716584175" lon="-71.21174801635357">
        <time>2019-03-07T04:33:31Z</time>
      </trkpt>
      <trkpt lat="-32.08074097094859" lon="-71.21166559491502">
        <time>2019-03-07T04:33:31Z</time>
      </trkpt>
      <trkpt lat="-32.08084581309716" lon="-71.21156527566068">
        <time>2019-03-07T04:33:31Z</time>
      </trkpt>
      <trkpt lat="-32.08091172344616" lon="-71.21148751542262">
        <time>2019-03-07T04:33:31Z</time>
      </trkpt>
      <trkpt lat="-32.08096546769578" lon="-71.21140315662855">
        <time>2019-03-07T04:33:31Z</time>
      </trkpt>
      <trkpt lat="-32.08103572157378" lon="-71.21116146889858">
        <time>2019-03-07T04:33:31Z</time>
      </trkpt>
      <trkpt lat="-32.08117045130536" lon="-71.21066589661022">
        <time>2019-03-07T04:33:31Z</time>
      </trkpt>
      <trkpt lat="-32.08122050839466" lon="-71.21053687882916">
        <time>2019-03-07T04:33:31Z</time>
      </trkpt>
      <trkpt lat="-32.08130935032199" lon="-71.21039833873095">
        <time>2019-03-07T04:33:31Z</time>
      </trkpt>
      <trkpt lat="-32.08141294978348" lon="-71.21030188455106">
        <time>2019-03-07T04:33:31Z</time>
      </trkpt>
      <trkpt lat="-32.08152544033874" lon="-71.2102475597641">
        <time>2019-03-07T04:33:31Z</time>
      </trkpt>
      <trkpt lat="-32.08159644636176" lon="-71.21018633859684">
        <time>2019-03-07T04:33:31Z</time>
      </trkpt>
      <trkpt lat="-32.08164072466281" lon="-71.2101401749391">
        <time>2019-03-07T04:33:31Z</time>
      </trkpt>
      <trkpt lat="-32.08165285508886" lon="-71.21007945725128">
        <time>2019-03-07T04:33:31Z</time>
      </trkpt>
      <trkpt lat="-32.0816393388656" lon="-71.21005093090585">
        <time>2019-03-07T04:33:31Z</time>
      </trkpt>
      <trkpt lat="-32.08160763617364" lon="-71.21003246004858">
        <time>2019-03-07T04:33:31Z</time>
      </trkpt>
      <trkpt lat="-32.08156677255656" lon="-71.21002355005415">
        <time>2019-03-07T04:33:31Z</time>
      </trkpt>
      <trkpt lat="-32.08151798972465" lon="-71.21001191186412">
        <time>2019-03-07T04:33:31Z</time>
      </trkpt>
      <trkpt lat="-32.08145146128636" lon="-71.21000329514254">
        <time>2019-03-07T04:33:31Z</time>
      </trkpt>
      <trkpt lat="-32.08139257552368" lon="-71.20998843221187">
        <time>2019-03-07T04:33:31Z</time>
      </trkpt>
      <trkpt lat="-32.08133947505626" lon="-71.20995539512684">
        <time>2019-03-07T04:33:31Z</time>
      </trkpt>
      <trkpt lat="-32.08130097983811" lon="-71.2099098385213">
        <time>2019-03-07T04:33:31Z</time>
      </trkpt>
      <trkpt lat="-32.08126242775263" lon="-71.20983014562179">
        <time>2019-03-07T04:33:31Z</time>
      </trkpt>
      <trkpt lat="-32.08123919306102" lon="-71.20974510001739">
        <time>2019-03-07T04:33:31Z</time>
      </trkpt>
      <trkpt lat="-32.08124016702147" lon="-71.20963238742203">
        <time>2019-03-07T04:33:31Z</time>
      </trkpt>
      <trkpt lat="-32.08123882300098" lon="-71.2093961625751">
        <time>2019-03-07T04:33:31Z</time>
      </trkpt>
      <trkpt lat="-32.08131202506396" lon="-71.20896055300499">
        <time>2019-03-07T04:33:31Z</time>
      </trkpt>
      <trkpt lat="-32.0813046792908" lon="-71.20890823082844">
        <time>2019-03-07T04:33:31Z</time>
      </trkpt>
      <trkpt lat="-32.08129140780799" lon="-71.20881499073589">
        <time>2019-03-07T04:33:31Z</time>
      </trkpt>
      <trkpt lat="-32.08126947959193" lon="-71.20863529140094">
        <time>2019-03-07T04:33:31Z</time>
      </trkpt>
      <trkpt lat="-32.08126876354044" lon="-71.20853082106817">
        <time>2019-03-07T04:33:31Z</time>
      </trkpt>
      <trkpt lat="-32.0812690930052" lon="-71.20846739202315">
        <time>2019-03-07T04:33:31Z</time>
      </trkpt>
      <trkpt lat="-32.0814104530242" lon="-71.20799397846754">
        <time>2019-03-07T04:33:31Z</time>
      </trkpt>
      <trkpt lat="-32.08186656219658" lon="-71.20671398210689">
        <time>2019-03-07T04:33:31Z</time>
      </trkpt>
      <trkpt lat="-32.08213999634211" lon="-71.20592211328868">
        <time>2019-03-07T04:33:31Z</time>
      </trkpt>
      <trkpt lat="-32.08215448469564" lon="-71.2058215166376">
        <time>2019-03-07T04:33:31Z</time>
      </trkpt>
      <trkpt lat="-32.08216105943419" lon="-71.20567127054497">
        <time>2019-03-07T04:33:31Z</time>
      </trkpt>
      <trkpt lat="-32.08214952360291" lon="-71.20559634172756">
        <time>2019-03-07T04:33:31Z</time>
      </trkpt>
      <trkpt lat="-32.08212783374684" lon="-71.20550468138912">
        <time>2019-03-07T04:33:31Z</time>
      </trkpt>
      <trkpt lat="-32.08206401543611" lon="-71.20532720885772">
        <time>2019-03-07T04:33:31Z</time>
      </trkpt>
      <trkpt lat="-32.08191826263985" lon="-71.20499487959478">
        <time>2019-03-07T04:33:31Z</time>
      </trkpt>
      <trkpt lat="-32.08170885848644" lon="-71.204460310234">
        <time>2019-03-07T04:33:31Z</time>
      </trkpt>
      <trkpt lat="-32.08162053434693" lon="-71.20418193321099">
        <time>2019-03-07T04:33:31Z</time>
      </trkpt>
      <trkpt lat="-32.08161049472867" lon="-71.2040512065897">
        <time>2019-03-07T04:33:31Z</time>
      </trkpt>
      <trkpt lat="-32.08162406960807" lon="-71.2038972897746">
        <time>2019-03-07T04:33:31Z</time>
      </trkpt>
      <trkpt lat="-32.08185399211669" lon="-71.2030756003668">
        <time>2019-03-07T04:33:31Z</time>
      </trkpt>
      <trkpt lat="-32.08197926494616" lon="-71.2027330129045">
        <time>2019-03-07T04:33:31Z</time>
      </trkpt>
      <trkpt lat="-32.08202496421534" lon="-71.20258365512201">
        <time>2019-03-07T04:33:31Z</time>
      </trkpt>
      <trkpt lat="-32.0822797466851" lon="-71.2017281245236">
        <time>2019-03-07T04:33:31Z</time>
      </trkpt>
      <trkpt lat="-32.08239057715567" lon="-71.20148020724861">
        <time>2019-03-07T04:33:31Z</time>
      </trkpt>
      <trkpt lat="-32.08243192129441" lon="-71.20140079676098">
        <time>2019-03-07T04:33:31Z</time>
      </trkpt>
      <trkpt lat="-32.08246884967432" lon="-71.20135587648611">
        <time>2019-03-07T04:33:31Z</time>
      </trkpt>
      <trkpt lat="-32.08254735296404" lon="-71.20129030585495">
        <time>2019-03-07T04:33:31Z</time>
      </trkpt>
      <trkpt lat="-32.08284887563703" lon="-71.20107812691354">
        <time>2019-03-07T04:33:31Z</time>
      </trkpt>
      <trkpt lat="-32.08299401873625" lon="-71.20095547583529">
        <time>2019-03-07T04:33:31Z</time>
      </trkpt>
      <trkpt lat="-32.08313732520885" lon="-71.20078547529565">
        <time>2019-03-07T04:33:31Z</time>
      </trkpt>
      <trkpt lat="-32.08329007130305" lon="-71.20055855202871">
        <time>2019-03-07T04:33:31Z</time>
      </trkpt>
      <trkpt lat="-32.08333722861175" lon="-71.20041765220093">
        <time>2019-03-07T04:33:31Z</time>
      </trkpt>
      <trkpt lat="-32.08336218553961" lon="-71.20029276252349">
        <time>2019-03-07T04:33:31Z</time>
      </trkpt>
      <trkpt lat="-32.08336763514423" lon="-71.20010525717478">
        <time>2019-03-07T04:33:31Z</time>
      </trkpt>
      <trkpt lat="-32.08336134634963" lon="-71.19958532574343">
        <time>2019-03-07T04:33:31Z</time>
      </trkpt>
      <trkpt lat="-32.08333854949677" lon="-71.19938927940966">
        <time>2019-03-07T04:33:31Z</time>
      </trkpt>
      <trkpt lat="-32.08325658853617" lon="-71.19896272448476">
        <time>2019-03-07T04:33:31Z</time>
      </trkpt>
      <trkpt lat="-32.08316671822928" lon="-71.1985651204111">
        <time>2019-03-07T04:33:31Z</time>
      </trkpt>
      <trkpt lat="-32.08312715296295" lon="-71.19832165707321">
        <time>2019-03-07T04:33:31Z</time>
      </trkpt>
      <trkpt lat="-32.08309360355268" lon="-71.19736761102821">
        <time>2019-03-07T04:33:31Z</time>
      </trkpt>
      <trkpt lat="-32.08308183613701" lon="-71.19702188691065">
        <time>2019-03-07T04:33:31Z</time>
      </trkpt>
      <trkpt lat="-32.08308070754293" lon="-71.19678150283684">
        <time>2019-03-07T04:33:31Z</time>
      </trkpt>
      <trkpt lat="-32.08307673498398" lon="-71.19662996265069">
        <time>2019-03-07T04:33:31Z</time>
      </trkpt>
      <trkpt lat="-32.08307589654425" lon="-71.19652861130219">
        <time>2019-03-07T04:33:31Z</time>
      </trkpt>
      <trkpt lat="-32.08309190088732" lon="-71.19613992111994">
        <time>2019-03-07T04:33:31Z</time>
      </trkpt>
      <trkpt lat="-32.08310929910207" lon="-71.1958248214293">
        <time>2019-03-07T04:33:31Z</time>
      </trkpt>
      <trkpt lat="-32.08312735422143" lon="-71.1956274243323">
        <time>2019-03-07T04:33:31Z</time>
      </trkpt>
      <trkpt lat="-32.08315584112478" lon="-71.19542126568595">
        <time>2019-03-07T04:33:31Z</time>
      </trkpt>
      <trkpt lat="-32.08316762725839" lon="-71.19525635871544">
        <time>2019-03-07T04:33:31Z</time>
      </trkpt>
      <trkpt lat="-32.08318620930751" lon="-71.19503007939828">
        <time>2019-03-07T04:33:31Z</time>
      </trkpt>
      <trkpt lat="-32.0831944356997" lon="-71.19460170621608">
        <time>2019-03-07T04:33:31Z</time>
      </trkpt>
      <trkpt lat="-32.08319899117163" lon="-71.19444153659177">
        <time>2019-03-07T04:33:31Z</time>
      </trkpt>
      <trkpt lat="-32.08319793722718" lon="-71.19411452443585">
        <time>2019-03-07T04:33:31Z</time>
      </trkpt>
      <trkpt lat="-32.08320945693771" lon="-71.19388640914551">
        <time>2019-03-07T04:33:31Z</time>
      </trkpt>
      <trkpt lat="-32.08333283355421" lon="-71.19267375282124">
        <time>2019-03-07T04:33:31Z</time>
      </trkpt>
      <trkpt lat="-32.08334580601291" lon="-71.19249018417042">
        <time>2019-03-07T04:33:31Z</time>
      </trkpt>
      <trkpt lat="-32.08337168977761" lon="-71.19216382889327">
        <time>2019-03-07T04:33:31Z</time>
      </trkpt>
      <trkpt lat="-32.08338564622133" lon="-71.19197348824073">
        <time>2019-03-07T04:33:31Z</time>
      </trkpt>
      <trkpt lat="-32.08341548464789" lon="-71.19167183235017">
        <time>2019-03-07T04:33:31Z</time>
      </trkpt>
      <trkpt lat="-32.08355530809483" lon="-71.19034424939434">
        <time>2019-03-07T04:33:31Z</time>
      </trkpt>
      <trkpt lat="-32.08360921853354" lon="-71.1896561608507">
        <time>2019-03-07T04:33:31Z</time>
      </trkpt>
      <trkpt lat="-32.08368077605685" lon="-71.18899701342663">
        <time>2019-03-07T04:33:31Z</time>
      </trkpt>
      <trkpt lat="-32.08371188726565" lon="-71.18876095856997">
        <time>2019-03-07T04:33:31Z</time>
      </trkpt>
      <trkpt lat="-32.08375436825398" lon="-71.18855009788936">
        <time>2019-03-07T04:33:31Z</time>
      </trkpt>
      <trkpt lat="-32.08377484995899" lon="-71.1883857560159">
        <time>2019-03-07T04:33:31Z</time>
      </trkpt>
      <trkpt lat="-32.08378745156031" lon="-71.18827343300946">
        <time>2019-03-07T04:33:31Z</time>
      </trkpt>
      <trkpt lat="-32.08381288824522" lon="-71.18796099099951">
        <time>2019-03-07T04:33:31Z</time>
      </trkpt>
      <trkpt lat="-32.08386232730602" lon="-71.18745986911793">
        <time>2019-03-07T04:33:31Z</time>
      </trkpt>
      <trkpt lat="-32.08389040929255" lon="-71.18730872375528">
        <time>2019-03-07T04:33:31Z</time>
      </trkpt>
      <trkpt lat="-32.0839269089478" lon="-71.18716903155519">
        <time>2019-03-07T04:33:31Z</time>
      </trkpt>
      <trkpt lat="-32.08399969009695" lon="-71.18701573422541">
        <time>2019-03-07T04:33:31Z</time>
      </trkpt>
      <trkpt lat="-32.08419496079442" lon="-71.18666165117246">
        <time>2019-03-07T04:33:31Z</time>
      </trkpt>
      <trkpt lat="-32.08444180838824" lon="-71.18629169648403">
        <time>2019-03-07T04:33:31Z</time>
      </trkpt>
      <trkpt lat="-32.08453302573594" lon="-71.18613197954933">
        <time>2019-03-07T04:33:31Z</time>
      </trkpt>
      <trkpt lat="-32.08482806343606" lon="-71.18557332094721">
        <time>2019-03-07T04:33:31Z</time>
      </trkpt>
      <trkpt lat="-32.08536652118077" lon="-71.18455138971278">
        <time>2019-03-07T04:33:31Z</time>
      </trkpt>
      <trkpt lat="-32.08544217140119" lon="-71.18441343070255">
        <time>2019-03-07T04:33:31Z</time>
      </trkpt>
      <trkpt lat="-32.08555876960398" lon="-71.18424914728276">
        <time>2019-03-07T04:33:31Z</time>
      </trkpt>
      <trkpt lat="-32.08635377982378" lon="-71.18345454036036">
        <time>2019-03-07T04:33:31Z</time>
      </trkpt>
      <trkpt lat="-32.08677547626241" lon="-71.18304437653382">
        <time>2019-03-07T04:33:31Z</time>
      </trkpt>
      <trkpt lat="-32.08697105525478" lon="-71.18283680582468">
        <time>2019-03-07T04:33:31Z</time>
      </trkpt>
      <trkpt lat="-32.08724152330537" lon="-71.18253636164015">
        <time>2019-03-07T04:33:31Z</time>
      </trkpt>
      <trkpt lat="-32.08739086591713" lon="-71.1823303346461">
        <time>2019-03-07T04:33:31Z</time>
      </trkpt>
      <trkpt lat="-32.08748707392408" lon="-71.18217800057686">
        <time>2019-03-07T04:33:31Z</time>
      </trkpt>
      <trkpt lat="-32.08756946252856" lon="-71.181990274684">
        <time>2019-03-07T04:33:31Z</time>
      </trkpt>
      <trkpt lat="-32.08771894422756" lon="-71.18157477190023">
        <time>2019-03-07T04:33:31Z</time>
      </trkpt>
      <trkpt lat="-32.08799817368909" lon="-71.18066458318459">
        <time>2019-03-07T04:33:31Z</time>
      </trkpt>
      <trkpt lat="-32.08814888044936" lon="-71.18017901894828">
        <time>2019-03-07T04:33:31Z</time>
      </trkpt>
      <trkpt lat="-32.08822603931065" lon="-71.17994125229185">
        <time>2019-03-07T04:33:31Z</time>
      </trkpt>
      <trkpt lat="-32.08827994849015" lon="-71.17977229996497">
        <time>2019-03-07T04:33:31Z</time>
      </trkpt>
      <trkpt lat="-32.08835321919683" lon="-71.17960661581522">
        <time>2019-03-07T04:33:31Z</time>
      </trkpt>
      <trkpt lat="-32.08843381324962" lon="-71.17942832509407">
        <time>2019-03-07T04:33:31Z</time>
      </trkpt>
      <trkpt lat="-32.08855226227363" lon="-71.17914263171774">
        <time>2019-03-07T04:33:31Z</time>
      </trkpt>
      <trkpt lat="-32.08864585317649" lon="-71.17891443702584">
        <time>2019-03-07T04:33:31Z</time>
      </trkpt>
      <trkpt lat="-32.08881338618912" lon="-71.17856329237836">
        <time>2019-03-07T04:33:31Z</time>
      </trkpt>
      <trkpt lat="-32.0888631069386" lon="-71.17845475629899">
        <time>2019-03-07T04:33:31Z</time>
      </trkpt>
      <trkpt lat="-32.08888869553483" lon="-71.17836581157101">
        <time>2019-03-07T04:33:31Z</time>
      </trkpt>
      <trkpt lat="-32.08896070327234" lon="-71.17803899107173">
        <time>2019-03-07T04:33:31Z</time>
      </trkpt>
      <trkpt lat="-32.08902041429008" lon="-71.17770035545649">
        <time>2019-03-07T04:33:31Z</time>
      </trkpt>
      <trkpt lat="-32.08908234179931" lon="-71.17739768631654">
        <time>2019-03-07T04:33:31Z</time>
      </trkpt>
      <trkpt lat="-32.0891055239287" lon="-71.17726516826676">
        <time>2019-03-07T04:33:31Z</time>
      </trkpt>
      <trkpt lat="-32.08911592466711" lon="-71.17716310957867">
        <time>2019-03-07T04:33:31Z</time>
      </trkpt>
      <trkpt lat="-32.08911779389376" lon="-71.17708434249288">
        <time>2019-03-07T04:33:31Z</time>
      </trkpt>
      <trkpt lat="-32.08910503295171" lon="-71.17701363180798">
        <time>2019-03-07T04:33:31Z</time>
      </trkpt>
      <trkpt lat="-32.08906193291327" lon="-71.17689366682757">
        <time>2019-03-07T04:33:31Z</time>
      </trkpt>
      <trkpt lat="-32.08899010714564" lon="-71.17676998444844">
        <time>2019-03-07T04:33:31Z</time>
      </trkpt>
      <trkpt lat="-32.08879022511445" lon="-71.17643864763512">
        <time>2019-03-07T04:33:31Z</time>
      </trkpt>
      <trkpt lat="-32.08865750051578" lon="-71.17625121522006">
        <time>2019-03-07T04:33:31Z</time>
      </trkpt>
      <trkpt lat="-32.08861890526767" lon="-71.17620798791521">
        <time>2019-03-07T04:33:31Z</time>
      </trkpt>
      <trkpt lat="-32.08856593974834" lon="-71.17617310656311">
        <time>2019-03-07T04:33:31Z</time>
      </trkpt>
      <trkpt lat="-32.08849263852974" lon="-71.17614519828993">
        <time>2019-03-07T04:33:31Z</time>
      </trkpt>
      <trkpt lat="-32.08830553876354" lon="-71.17606788113477">
        <time>2019-03-07T04:33:31Z</time>
      </trkpt>
      <trkpt lat="-32.08821126283017" lon="-71.17601025214854">
        <time>2019-03-07T04:33:31Z</time>
      </trkpt>
      <trkpt lat="-32.08811489304105" lon="-71.17593825106002">
        <time>2019-03-07T04:33:31Z</time>
      </trkpt>
      <trkpt lat="-32.08801458230856" lon="-71.17582444572719">
        <time>2019-03-07T04:33:31Z</time>
      </trkpt>
      <trkpt lat="-32.08788244395826" lon="-71.17560489153912">
        <time>2019-03-07T04:33:31Z</time>
      </trkpt>
      <trkpt lat="-32.08770709309365" lon="-71.17532120653246">
        <time>2019-03-07T04:33:31Z</time>
      </trkpt>
      <trkpt lat="-32.08742616075365" lon="-71.17503706220353">
        <time>2019-03-07T04:33:31Z</time>
      </trkpt>
      <trkpt lat="-32.08724328275286" lon="-71.17480951730163">
        <time>2019-03-07T04:33:31Z</time>
      </trkpt>
      <trkpt lat="-32.08700439531391" lon="-71.17455013035945">
        <time>2019-03-07T04:33:31Z</time>
      </trkpt>
      <trkpt lat="-32.08686249382465" lon="-71.17440347661278">
        <time>2019-03-07T04:33:31Z</time>
      </trkpt>
      <trkpt lat="-32.08680236743499" lon="-71.17432311619768">
        <time>2019-03-07T04:33:31Z</time>
      </trkpt>
      <trkpt lat="-32.08677212035623" lon="-71.17426564053416">
        <time>2019-03-07T04:33:31Z</time>
      </trkpt>
      <trkpt lat="-32.08674734617676" lon="-71.17418858370878">
        <time>2019-03-07T04:33:31Z</time>
      </trkpt>
      <trkpt lat="-32.08674020914399" lon="-71.17410461753207">
        <time>2019-03-07T04:33:31Z</time>
      </trkpt>
      <trkpt lat="-32.08674920181106" lon="-71.17401818638248">
        <time>2019-03-07T04:33:31Z</time>
      </trkpt>
      <trkpt lat="-32.08684771905161" lon="-71.17346748264781">
        <time>2019-03-07T04:33:31Z</time>
      </trkpt>
      <trkpt lat="-32.08702282913752" lon="-71.17261047669147">
        <time>2019-03-07T04:33:31Z</time>
      </trkpt>
      <trkpt lat="-32.08708958594129" lon="-71.17222630177207">
        <time>2019-03-07T04:33:31Z</time>
      </trkpt>
      <trkpt lat="-32.0871093184351" lon="-71.17210693272884">
        <time>2019-03-07T04:33:31Z</time>
      </trkpt>
      <trkpt lat="-32.08711252699413" lon="-71.17202473649628">
        <time>2019-03-07T04:33:31Z</time>
      </trkpt>
      <trkpt lat="-32.08709705797198" lon="-71.17192492420179">
        <time>2019-03-07T04:33:31Z</time>
      </trkpt>
      <trkpt lat="-32.08700873620859" lon="-71.17136046259631">
        <time>2019-03-07T04:33:31Z</time>
      </trkpt>
      <trkpt lat="-32.08693705506647" lon="-71.17099057803318">
        <time>2019-03-07T04:33:31Z</time>
      </trkpt>
      <trkpt lat="-32.08691586594675" lon="-71.17088626539164">
        <time>2019-03-07T04:33:31Z</time>
      </trkpt>
      <trkpt lat="-32.08689894302582" lon="-71.17080349751865">
        <time>2019-03-07T04:33:31Z</time>
      </trkpt>
      <trkpt lat="-32.08686066001643" lon="-71.1707007752816">
        <time>2019-03-07T04:33:31Z</time>
      </trkpt>
      <trkpt lat="-32.08679249487273" lon="-71.17052104720109">
        <time>2019-03-07T04:33:31Z</time>
      </trkpt>
      <trkpt lat="-32.08676516493238" lon="-71.17045523620733">
        <time>2019-03-07T04:33:31Z</time>
      </trkpt>
      <trkpt lat="-32.08674417582737" lon="-71.17037658071149">
        <time>2019-03-07T04:33:31Z</time>
      </trkpt>
      <trkpt lat="-32.08673175348679" lon="-71.17028414278663">
        <time>2019-03-07T04:33:31Z</time>
      </trkpt>
      <trkpt lat="-32.08673239168538" lon="-71.17011058516499">
        <time>2019-03-07T04:33:31Z</time>
      </trkpt>
      <trkpt lat="-32.08673630832765" lon="-71.1697463263513">
        <time>2019-03-07T04:33:31Z</time>
      </trkpt>
      <trkpt lat="-32.08673216358589" lon="-71.16906517982758">
        <time>2019-03-07T04:33:31Z</time>
      </trkpt>
      <trkpt lat="-32.08670165553397" lon="-71.16857140105709">
        <time>2019-03-07T04:33:31Z</time>
      </trkpt>
      <trkpt lat="-32.08663442327593" lon="-71.16757759686097">
        <time>2019-03-07T04:33:31Z</time>
      </trkpt>
      <trkpt lat="-32.08661973029823" lon="-71.16733011974462">
        <time>2019-03-07T04:33:31Z</time>
      </trkpt>
      <trkpt lat="-32.0866111223663" lon="-71.16714021340819">
        <time>2019-03-07T04:33:31Z</time>
      </trkpt>
      <trkpt lat="-32.0866046047495" lon="-71.1670866921904">
        <time>2019-03-07T04:33:31Z</time>
      </trkpt>
      <trkpt lat="-32.08660260053752" lon="-71.16707628998859">
        <time>2019-03-07T04:33:31Z</time>
      </trkpt>
      <trkpt lat="-32.08659967914347" lon="-71.16706732316561">
        <time>2019-03-07T04:33:31Z</time>
      </trkpt>
      <trkpt lat="-32.08659664095387" lon="-71.1670607087695">
        <time>2019-03-07T04:33:31Z</time>
      </trkpt>
      <trkpt lat="-32.08659083347156" lon="-71.16705799749846">
        <time>2019-03-07T04:33:31Z</time>
      </trkpt>
      <trkpt lat="-32.08657678501403" lon="-71.16705632116177">
        <time>2019-03-07T04:33:31Z</time>
      </trkpt>
      <trkpt lat="-32.08648201359546" lon="-71.16704787105891">
        <time>2019-03-07T04:33:31Z</time>
      </trkpt>
      <trkpt lat="-32.08621626410741" lon="-71.16704582633741">
        <time>2019-03-07T04:33:31Z</time>
      </trkpt>
      <trkpt lat="-32.08611847134151" lon="-71.16704454319731">
        <time>2019-03-07T04:33:31Z</time>
      </trkpt>
      <trkpt lat="-32.08601714584244" lon="-71.16703477200051">
        <time>2019-03-07T04:33:31Z</time>
      </trkpt>
      <trkpt lat="-32.08584268404521" lon="-71.16701098598878">
        <time>2019-03-07T04:33:31Z</time>
      </trkpt>
      <trkpt lat="-32.08575651686797" lon="-71.16698500137956">
        <time>2019-03-07T04:33:31Z</time>
      </trkpt>
      <trkpt lat="-32.08562868133404" lon="-71.16693687122304">
        <time>2019-03-07T04:33:31Z</time>
      </trkpt>
      <trkpt lat="-32.08550826141276" lon="-71.16687003880904">
        <time>2019-03-07T04:33:31Z</time>
      </trkpt>
      <trkpt lat="-32.08535174062531" lon="-71.16676665563509">
        <time>2019-03-07T04:33:31Z</time>
      </trkpt>
      <trkpt lat="-32.08520964812894" lon="-71.16663447757358">
        <time>2019-03-07T04:33:31Z</time>
      </trkpt>
      <trkpt lat="-32.08506959075664" lon="-71.1664791103378">
        <time>2019-03-07T04:33:31Z</time>
      </trkpt>
      <trkpt lat="-32.08480125634924" lon="-71.16608514662498">
        <time>2019-03-07T04:33:31Z</time>
      </trkpt>
      <trkpt lat="-32.08473779855835" lon="-71.1659834838942">
        <time>2019-03-07T04:33:31Z</time>
      </trkpt>
      <trkpt lat="-32.0844263141225" lon="-71.16554049595372">
        <time>2019-03-07T04:33:31Z</time>
      </trkpt>
      <trkpt lat="-32.0842357822517" lon="-71.16528903598835">
        <time>2019-03-07T04:33:31Z</time>
      </trkpt>
      <trkpt lat="-32.08364983575134" lon="-71.16438010314982">
        <time>2019-03-07T04:33:31Z</time>
      </trkpt>
      <trkpt lat="-32.08344788344481" lon="-71.16406684593822">
        <time>2019-03-07T04:33:31Z</time>
      </trkpt>
      <trkpt lat="-32.08287538684497" lon="-71.16326508766211">
        <time>2019-03-07T04:33:31Z</time>
      </trkpt>
      <trkpt lat="-32.08217381470247" lon="-71.16216184138146">
        <time>2019-03-07T04:33:31Z</time>
      </trkpt>
      <trkpt lat="-32.0819269382112" lon="-71.1618193899272">
        <time>2019-03-07T04:33:31Z</time>
      </trkpt>
      <trkpt lat="-32.08174320743034" lon="-71.16156505780602">
        <time>2019-03-07T04:33:31Z</time>
      </trkpt>
      <trkpt lat="-32.08161845072713" lon="-71.16139508832511">
        <time>2019-03-07T04:33:31Z</time>
      </trkpt>
      <trkpt lat="-32.08136143917122" lon="-71.16108697622411">
        <time>2019-03-07T04:33:31Z</time>
      </trkpt>
      <trkpt lat="-32.08113478245545" lon="-71.16088760529323">
        <time>2019-03-07T04:33:31Z</time>
      </trkpt>
      <trkpt lat="-32.08100098456812" lon="-71.16078829544615">
        <time>2019-03-07T04:33:31Z</time>
      </trkpt>
      <trkpt lat="-32.08088814560421" lon="-71.16071695633163">
        <time>2019-03-07T04:33:31Z</time>
      </trkpt>
      <trkpt lat="-32.08070276478918" lon="-71.16062730632872">
        <time>2019-03-07T04:33:31Z</time>
      </trkpt>
      <trkpt lat="-32.08055702151025" lon="-71.1605914584439">
        <time>2019-03-07T04:33:31Z</time>
      </trkpt>
      <trkpt lat="-32.08027778149325" lon="-71.16054003372189">
        <time>2019-03-07T04:33:31Z</time>
      </trkpt>
      <trkpt lat="-32.07872021005984" lon="-71.16034385358611">
        <time>2019-03-07T04:33:31Z</time>
      </trkpt>
      <trkpt lat="-32.07816175805664" lon="-71.16023852528096">
        <time>2019-03-07T04:33:31Z</time>
      </trkpt>
      <trkpt lat="-32.07812494634084" lon="-71.16022435678541">
        <time>2019-03-07T04:33:31Z</time>
      </trkpt>
      <trkpt lat="-32.07805463737568" lon="-71.16020124355555">
        <time>2019-03-07T04:33:31Z</time>
      </trkpt>
      <trkpt lat="-32.07801203753228" lon="-71.16019096471808">
        <time>2019-03-07T04:33:31Z</time>
      </trkpt>
      <trkpt lat="-32.07781627975617" lon="-71.16016502690707">
        <time>2019-03-07T04:33:31Z</time>
      </trkpt>
      <trkpt lat="-32.07752960590636" lon="-71.16012974045334">
        <time>2019-03-07T04:33:31Z</time>
      </trkpt>
      <trkpt lat="-32.0766690005947" lon="-71.1600157820394">
        <time>2019-03-07T04:33:31Z</time>
      </trkpt>
      <trkpt lat="-32.07642430638218" lon="-71.15995724167259">
        <time>2019-03-07T04:33:31Z</time>
      </trkpt>
      <trkpt lat="-32.07622672920535" lon="-71.15992057475488">
        <time>2019-03-07T04:33:31Z</time>
      </trkpt>
      <trkpt lat="-32.07602020613715" lon="-71.1598822476264">
        <time>2019-03-07T04:33:31Z</time>
      </trkpt>
      <trkpt lat="-32.07583169100122" lon="-71.15985132824879">
        <time>2019-03-07T04:33:31Z</time>
      </trkpt>
      <trkpt lat="-32.07561984209588" lon="-71.15983031882379">
        <time>2019-03-07T04:33:31Z</time>
      </trkpt>
      <trkpt lat="-32.0754651912135" lon="-71.15982608429054">
        <time>2019-03-07T04:33:31Z</time>
      </trkpt>
      <trkpt lat="-32.07527341481261" lon="-71.15985643539908">
        <time>2019-03-07T04:33:31Z</time>
      </trkpt>
      <trkpt lat="-32.07507930597824" lon="-71.15994715712161">
        <time>2019-03-07T04:33:31Z</time>
      </trkpt>
      <trkpt lat="-32.07438335197122" lon="-71.16041868671559">
        <time>2019-03-07T04:33:31Z</time>
      </trkpt>
      <trkpt lat="-32.07430299519994" lon="-71.16050940930342">
        <time>2019-03-07T04:33:31Z</time>
      </trkpt>
      <trkpt lat="-32.07425601652688" lon="-71.16058716293138">
        <time>2019-03-07T04:33:31Z</time>
      </trkpt>
      <trkpt lat="-32.07418582502108" lon="-71.16074299432881">
        <time>2019-03-07T04:33:31Z</time>
      </trkpt>
      <trkpt lat="-32.07413967762157" lon="-71.16087386954567">
        <time>2019-03-07T04:33:31Z</time>
      </trkpt>
      <trkpt lat="-32.07411464127785" lon="-71.16107579693181">
        <time>2019-03-07T04:33:31Z</time>
      </trkpt>
      <trkpt lat="-32.07412676251995" lon="-71.16221103418657">
        <time>2019-03-07T04:33:31Z</time>
      </trkpt>
      <trkpt lat="-32.07411637506724" lon="-71.16238762566806">
        <time>2019-03-07T04:33:31Z</time>
      </trkpt>
      <trkpt lat="-32.07409331819346" lon="-71.16253513053071">
        <time>2019-03-07T04:33:31Z</time>
      </trkpt>
      <trkpt lat="-32.07404899396454" lon="-71.16268291864297">
        <time>2019-03-07T04:33:31Z</time>
      </trkpt>
      <trkpt lat="-32.07397221776601" lon="-71.16285146924156">
        <time>2019-03-07T04:33:31Z</time>
      </trkpt>
      <trkpt lat="-32.0738620006307" lon="-71.16300040425881">
        <time>2019-03-07T04:33:31Z</time>
      </trkpt>
      <trkpt lat="-32.07368069377858" lon="-71.16318957520524">
        <time>2019-03-07T04:33:31Z</time>
      </trkpt>
      <trkpt lat="-32.07355763419809" lon="-71.16326890123916">
        <time>2019-03-07T04:33:31Z</time>
      </trkpt>
      <trkpt lat="-32.07337207882728" lon="-71.16335834590305">
        <time>2019-03-07T04:33:31Z</time>
      </trkpt>
      <trkpt lat="-32.07326363159354" lon="-71.16337421608203">
        <time>2019-03-07T04:33:31Z</time>
      </trkpt>
      <trkpt lat="-32.07304955145676" lon="-71.16334457107679">
        <time>2019-03-07T04:33:31Z</time>
      </trkpt>
      <trkpt lat="-32.07228435662194" lon="-71.1631572820851">
        <time>2019-03-07T04:33:31Z</time>
      </trkpt>
      <trkpt lat="-32.07185956306365" lon="-71.16303197327828">
        <time>2019-03-07T04:33:31Z</time>
      </trkpt>
      <trkpt lat="-32.07140899368427" lon="-71.16290845775073">
        <time>2019-03-07T04:33:31Z</time>
      </trkpt>
      <trkpt lat="-32.07096886738801" lon="-71.16279281801995">
        <time>2019-03-07T04:33:31Z</time>
      </trkpt>
      <trkpt lat="-32.0702185205869" lon="-71.16255664976605">
        <time>2019-03-07T04:33:31Z</time>
      </trkpt>
      <trkpt lat="-32.07003937891719" lon="-71.16251529442951">
        <time>2019-03-07T04:33:31Z</time>
      </trkpt>
      <trkpt lat="-32.06995549280578" lon="-71.16250133690853">
        <time>2019-03-07T04:33:31Z</time>
      </trkpt>
      <trkpt lat="-32.06986800537381" lon="-71.16250343873064">
        <time>2019-03-07T04:33:31Z</time>
      </trkpt>
      <trkpt lat="-32.06972297845507" lon="-71.16254245827923">
        <time>2019-03-07T04:33:31Z</time>
      </trkpt>
      <trkpt lat="-32.06893493520334" lon="-71.16278275799407">
        <time>2019-03-07T04:33:31Z</time>
      </trkpt>
      <trkpt lat="-32.06788721297638" lon="-71.16318114255215">
        <time>2019-03-07T04:33:31Z</time>
      </trkpt>
      <trkpt lat="-32.06757546679164" lon="-71.16327054078963">
        <time>2019-03-07T04:33:31Z</time>
      </trkpt>
      <trkpt lat="-32.06744964560124" lon="-71.16328588705494">
        <time>2019-03-07T04:33:31Z</time>
      </trkpt>
      <trkpt lat="-32.06729474372416" lon="-71.16329824720225">
        <time>2019-03-07T04:33:31Z</time>
      </trkpt>
      <trkpt lat="-32.0671753646095" lon="-71.16329688733057">
        <time>2019-03-07T04:33:31Z</time>
      </trkpt>
      <trkpt lat="-32.06705065966118" lon="-71.16328604962388">
        <time>2019-03-07T04:33:31Z</time>
      </trkpt>
      <trkpt lat="-32.06693141905404" lon="-71.16324220402167">
        <time>2019-03-07T04:33:31Z</time>
      </trkpt>
      <trkpt lat="-32.0665944596537" lon="-71.1630481155958">
        <time>2019-03-07T04:33:31Z</time>
      </trkpt>
      <trkpt lat="-32.06582380864143" lon="-71.16253121234904">
        <time>2019-03-07T04:33:31Z</time>
      </trkpt>
      <trkpt lat="-32.06561909586012" lon="-71.16240735414007">
        <time>2019-03-07T04:33:31Z</time>
      </trkpt>
      <trkpt lat="-32.0654957852675" lon="-71.16233887268507">
        <time>2019-03-07T04:33:31Z</time>
      </trkpt>
      <trkpt lat="-32.06537490048145" lon="-71.162286227704">
        <time>2019-03-07T04:33:31Z</time>
      </trkpt>
      <trkpt lat="-32.06522815682301" lon="-71.16223893707586">
        <time>2019-03-07T04:33:31Z</time>
      </trkpt>
      <trkpt lat="-32.0651263235295" lon="-71.16221950117141">
        <time>2019-03-07T04:33:31Z</time>
      </trkpt>
      <trkpt lat="-32.06500260026497" lon="-71.16221819444367">
        <time>2019-03-07T04:33:31Z</time>
      </trkpt>
      <trkpt lat="-32.06489000482242" lon="-71.16221742019877">
        <time>2019-03-07T04:33:31Z</time>
      </trkpt>
      <trkpt lat="-32.06476750181356" lon="-71.16220037674425">
        <time>2019-03-07T04:33:31Z</time>
      </trkpt>
      <trkpt lat="-32.06465018441313" lon="-71.16219892405181">
        <time>2019-03-07T04:33:31Z</time>
      </trkpt>
      <trkpt lat="-32.06454941043688" lon="-71.16220220176766">
        <time>2019-03-07T04:33:31Z</time>
      </trkpt>
      <trkpt lat="-32.0643605638383" lon="-71.16223724603314">
        <time>2019-03-07T04:33:31Z</time>
      </trkpt>
      <trkpt lat="-32.06329255071011" lon="-71.16239824273788">
        <time>2019-03-07T04:33:31Z</time>
      </trkpt>
      <trkpt lat="-32.06254926375112" lon="-71.16247993605981">
        <time>2019-03-07T04:33:31Z</time>
      </trkpt>
      <trkpt lat="-32.0617949010285" lon="-71.1625634931611">
        <time>2019-03-07T04:33:31Z</time>
      </trkpt>
      <trkpt lat="-32.06105269579746" lon="-71.16261401698127">
        <time>2019-03-07T04:33:31Z</time>
      </trkpt>
      <trkpt lat="-32.06039849719747" lon="-71.16266038598646">
        <time>2019-03-07T04:33:31Z</time>
      </trkpt>
      <trkpt lat="-32.05987452789196" lon="-71.16272494765687">
        <time>2019-03-07T04:33:31Z</time>
      </trkpt>
      <trkpt lat="-32.05969182306602" lon="-71.16275356684552">
        <time>2019-03-07T04:33:31Z</time>
      </trkpt>
      <trkpt lat="-32.05961024787224" lon="-71.16277869089251">
        <time>2019-03-07T04:33:31Z</time>
      </trkpt>
      <trkpt lat="-32.05951199760084" lon="-71.16281176988146">
        <time>2019-03-07T04:33:31Z</time>
      </trkpt>
      <trkpt lat="-32.05939431090234" lon="-71.16287539815046">
        <time>2019-03-07T04:33:31Z</time>
      </trkpt>
      <trkpt lat="-32.05913378413796" lon="-71.1630519832474">
        <time>2019-03-07T04:33:31Z</time>
      </trkpt>
      <trkpt lat="-32.05882757492547" lon="-71.1632879702216">
        <time>2019-03-07T04:33:31Z</time>
      </trkpt>
      <trkpt lat="-32.05870866550664" lon="-71.16335931242226">
        <time>2019-03-07T04:33:31Z</time>
      </trkpt>
      <trkpt lat="-32.05863626406553" lon="-71.16340137009108">
        <time>2019-03-07T04:33:31Z</time>
      </trkpt>
      <trkpt lat="-32.05856478638319" lon="-71.16343675065085">
        <time>2019-03-07T04:33:31Z</time>
      </trkpt>
      <trkpt lat="-32.05852007467161" lon="-71.16344059580706">
        <time>2019-03-07T04:33:31Z</time>
      </trkpt>
      <trkpt lat="-32.05839183388633" lon="-71.16346659198692">
        <time>2019-03-07T04:33:31Z</time>
      </trkpt>
      <trkpt lat="-32.05827948442198" lon="-71.16346698805576">
        <time>2019-03-07T04:33:31Z</time>
      </trkpt>
      <trkpt lat="-32.058095545677" lon="-71.16344622755133">
        <time>2019-03-07T04:33:31Z</time>
      </trkpt>
      <trkpt lat="-32.05667944630363" lon="-71.16314337602243">
        <time>2019-03-07T04:33:31Z</time>
      </trkpt>
      <trkpt lat="-32.05585520956468" lon="-71.16295205508922">
        <time>2019-03-07T04:33:31Z</time>
      </trkpt>
      <trkpt lat="-32.05557480495843" lon="-71.16288528626657">
        <time>2019-03-07T04:33:31Z</time>
      </trkpt>
      <trkpt lat="-32.05535185585661" lon="-71.16287217232883">
        <time>2019-03-07T04:33:31Z</time>
      </trkpt>
      <trkpt lat="-32.0552042537965" lon="-71.16285228963821">
        <time>2019-03-07T04:33:31Z</time>
      </trkpt>
      <trkpt lat="-32.05508021427506" lon="-71.16283020440663">
        <time>2019-03-07T04:33:31Z</time>
      </trkpt>
      <trkpt lat="-32.0549007077928" lon="-71.1627901930713">
        <time>2019-03-07T04:33:31Z</time>
      </trkpt>
      <trkpt lat="-32.0540222958813" lon="-71.16253530664933">
        <time>2019-03-07T04:33:31Z</time>
      </trkpt>
      <trkpt lat="-32.05393256591272" lon="-71.16250286310545">
        <time>2019-03-07T04:33:31Z</time>
      </trkpt>
      <trkpt lat="-32.05385061617436" lon="-71.16247563998215">
        <time>2019-03-07T04:33:31Z</time>
      </trkpt>
      <trkpt lat="-32.05379425475412" lon="-71.1624405847308">
        <time>2019-03-07T04:33:31Z</time>
      </trkpt>
      <trkpt lat="-32.05371806548481" lon="-71.16237288115562">
        <time>2019-03-07T04:33:31Z</time>
      </trkpt>
      <trkpt lat="-32.05312424380019" lon="-71.1616008330912">
        <time>2019-03-07T04:33:31Z</time>
      </trkpt>
      <trkpt lat="-32.05308431320542" lon="-71.16152989062155">
        <time>2019-03-07T04:33:31Z</time>
      </trkpt>
      <trkpt lat="-32.05304705349233" lon="-71.16146275625268">
        <time>2019-03-07T04:33:31Z</time>
      </trkpt>
      <trkpt lat="-32.05300442285859" lon="-71.16137625512961">
        <time>2019-03-07T04:33:31Z</time>
      </trkpt>
      <trkpt lat="-32.05297529259153" lon="-71.16129305849309">
        <time>2019-03-07T04:33:31Z</time>
      </trkpt>
      <trkpt lat="-32.05294349339588" lon="-71.16115800590629">
        <time>2019-03-07T04:33:31Z</time>
      </trkpt>
      <trkpt lat="-32.05289687319439" lon="-71.16052604580507">
        <time>2019-03-07T04:33:31Z</time>
      </trkpt>
      <trkpt lat="-32.05288198009212" lon="-71.15995273430823">
        <time>2019-03-07T04:33:31Z</time>
      </trkpt>
      <trkpt lat="-32.05286402342075" lon="-71.15973814955567">
        <time>2019-03-07T04:33:31Z</time>
      </trkpt>
      <trkpt lat="-32.05282367348677" lon="-71.15952513549239">
        <time>2019-03-07T04:33:31Z</time>
      </trkpt>
      <trkpt lat="-32.05277491128516" lon="-71.15936789805173">
        <time>2019-03-07T04:33:31Z</time>
      </trkpt>
      <trkpt lat="-32.0527192719259" lon="-71.15923437035575">
        <time>2019-03-07T04:33:31Z</time>
      </trkpt>
      <trkpt lat="-32.05252295864506" lon="-71.15893364409332">
        <time>2019-03-07T04:33:31Z</time>
      </trkpt>
      <trkpt lat="-32.05233748012206" lon="-71.15867211978849">
        <time>2019-03-07T04:33:31Z</time>
      </trkpt>
      <trkpt lat="-32.05210909928715" lon="-71.1583478028513">
        <time>2019-03-07T04:33:31Z</time>
      </trkpt>
      <trkpt lat="-32.0518290540487" lon="-71.1579100719554">
        <time>2019-03-07T04:33:31Z</time>
      </trkpt>
      <trkpt lat="-32.05167174614179" lon="-71.15768801880196">
        <time>2019-03-07T04:33:31Z</time>
      </trkpt>
      <trkpt lat="-32.05157391041067" lon="-71.15759796059626">
        <time>2019-03-07T04:33:31Z</time>
      </trkpt>
      <trkpt lat="-32.05146980055505" lon="-71.15751068259789">
        <time>2019-03-07T04:33:31Z</time>
      </trkpt>
      <trkpt lat="-32.05137880041085" lon="-71.15746715802064">
        <time>2019-03-07T04:33:31Z</time>
      </trkpt>
      <trkpt lat="-32.05126921056375" lon="-71.15742294071708">
        <time>2019-03-07T04:33:31Z</time>
      </trkpt>
      <trkpt lat="-32.05112579395647" lon="-71.15737668663066">
        <time>2019-03-07T04:33:31Z</time>
      </trkpt>
      <trkpt lat="-32.05098217913119" lon="-71.15735236311261">
        <time>2019-03-07T04:33:31Z</time>
      </trkpt>
      <trkpt lat="-32.05085918927301" lon="-71.15734043550626">
        <time>2019-03-07T04:33:31Z</time>
      </trkpt>
      <trkpt lat="-32.05074559851986" lon="-71.15734660175843">
        <time>2019-03-07T04:33:31Z</time>
      </trkpt>
      <trkpt lat="-32.05036356777224" lon="-71.15742217908552">
        <time>2019-03-07T04:33:31Z</time>
      </trkpt>
      <trkpt lat="-32.04887526668164" lon="-71.15776153495895">
        <time>2019-03-07T04:33:31Z</time>
      </trkpt>
      <trkpt lat="-32.04746106116995" lon="-71.1580967594432">
        <time>2019-03-07T04:33:31Z</time>
      </trkpt>
      <trkpt lat="-32.04693234354988" lon="-71.15821644870519">
        <time>2019-03-07T04:33:31Z</time>
      </trkpt>
      <trkpt lat="-32.04687302366119" lon="-71.15821904314926">
        <time>2019-03-07T04:33:31Z</time>
      </trkpt>
      <trkpt lat="-32.04662747949659" lon="-71.15821209733349">
        <time>2019-03-07T04:33:31Z</time>
      </trkpt>
      <trkpt lat="-32.04622300018693" lon="-71.15816198106579">
        <time>2019-03-07T04:33:31Z</time>
      </trkpt>
      <trkpt lat="-32.04481163152846" lon="-71.15792631683614">
        <time>2019-03-07T04:33:31Z</time>
      </trkpt>
      <trkpt lat="-32.04389361198935" lon="-71.15779007577214">
        <time>2019-03-07T04:33:31Z</time>
      </trkpt>
      <trkpt lat="-32.04270426399273" lon="-71.15760981161009">
        <time>2019-03-07T04:33:31Z</time>
      </trkpt>
      <trkpt lat="-32.04190459389734" lon="-71.1574800046773">
        <time>2019-03-07T04:33:31Z</time>
      </trkpt>
      <trkpt lat="-32.0408961496541" lon="-71.15731372681435">
        <time>2019-03-07T04:33:31Z</time>
      </trkpt>
      <trkpt lat="-32.0407777465211" lon="-71.15728291106402">
        <time>2019-03-07T04:33:31Z</time>
      </trkpt>
      <trkpt lat="-32.04058041726949" lon="-71.15723232661863">
        <time>2019-03-07T04:33:31Z</time>
      </trkpt>
      <trkpt lat="-32.04047597681415" lon="-71.15721385355883">
        <time>2019-03-07T04:33:31Z</time>
      </trkpt>
      <trkpt lat="-32.04040354843441" lon="-71.15720787585389">
        <time>2019-03-07T04:33:31Z</time>
      </trkpt>
      <trkpt lat="-32.04032983843364" lon="-71.15720947748901">
        <time>2019-03-07T04:33:31Z</time>
      </trkpt>
      <trkpt lat="-32.0402319036751" lon="-71.15722284056022">
        <time>2019-03-07T04:33:31Z</time>
      </trkpt>
      <trkpt lat="-32.03983665731889" lon="-71.15732562772583">
        <time>2019-03-07T04:33:31Z</time>
      </trkpt>
      <trkpt lat="-32.03956231571456" lon="-71.15737739275582">
        <time>2019-03-07T04:33:31Z</time>
      </trkpt>
      <trkpt lat="-32.03944636359061" lon="-71.15738694786322">
        <time>2019-03-07T04:33:31Z</time>
      </trkpt>
      <trkpt lat="-32.03927823989007" lon="-71.15738579785038">
        <time>2019-03-07T04:33:31Z</time>
      </trkpt>
      <trkpt lat="-32.03921193725205" lon="-71.15737214801833">
        <time>2019-03-07T04:33:31Z</time>
      </trkpt>
      <trkpt lat="-32.03897737745727" lon="-71.15728166278447">
        <time>2019-03-07T04:33:31Z</time>
      </trkpt>
      <trkpt lat="-32.03880769429098" lon="-71.15718059968273">
        <time>2019-03-07T04:33:31Z</time>
      </trkpt>
      <trkpt lat="-32.03872001106021" lon="-71.15711710546277">
        <time>2019-03-07T04:33:31Z</time>
      </trkpt>
      <trkpt lat="-32.03863937465379" lon="-71.15704554017466">
        <time>2019-03-07T04:33:31Z</time>
      </trkpt>
      <trkpt lat="-32.03856811856043" lon="-71.15698046993904">
        <time>2019-03-07T04:33:31Z</time>
      </trkpt>
      <trkpt lat="-32.03849206730971" lon="-71.15689369705363">
        <time>2019-03-07T04:33:31Z</time>
      </trkpt>
      <trkpt lat="-32.0384211981695" lon="-71.15678817698225">
        <time>2019-03-07T04:33:31Z</time>
      </trkpt>
      <trkpt lat="-32.0383351029249" lon="-71.15663138880852">
        <time>2019-03-07T04:33:31Z</time>
      </trkpt>
      <trkpt lat="-32.03828396260418" lon="-71.15650681182366">
        <time>2019-03-07T04:33:31Z</time>
      </trkpt>
      <trkpt lat="-32.03823947809147" lon="-71.15637442809474">
        <time>2019-03-07T04:33:31Z</time>
      </trkpt>
      <trkpt lat="-32.0382045884087" lon="-71.15626234256796">
        <time>2019-03-07T04:33:31Z</time>
      </trkpt>
      <trkpt lat="-32.03817540053063" lon="-71.15611922992865">
        <time>2019-03-07T04:33:31Z</time>
      </trkpt>
      <trkpt lat="-32.03815604185235" lon="-71.15599868660399">
        <time>2019-03-07T04:33:31Z</time>
      </trkpt>
      <trkpt lat="-32.03810353634381" lon="-71.15563958983383">
        <time>2019-03-07T04:33:31Z</time>
      </trkpt>
      <trkpt lat="-32.0380673642934" lon="-71.15545180732697">
        <time>2019-03-07T04:33:31Z</time>
      </trkpt>
      <trkpt lat="-32.0380482652692" lon="-71.15536919246515">
        <time>2019-03-07T04:33:31Z</time>
      </trkpt>
      <trkpt lat="-32.03798480396852" lon="-71.1551532183161">
        <time>2019-03-07T04:33:31Z</time>
      </trkpt>
      <trkpt lat="-32.03791404247158" lon="-71.1549793776089">
        <time>2019-03-07T04:33:31Z</time>
      </trkpt>
      <trkpt lat="-32.03786273140846" lon="-71.15489432355626">
        <time>2019-03-07T04:33:31Z</time>
      </trkpt>
      <trkpt lat="-32.03779159719144" lon="-71.15480813517009">
        <time>2019-03-07T04:33:31Z</time>
      </trkpt>
      <trkpt lat="-32.0376721699887" lon="-71.15470474145612">
        <time>2019-03-07T04:33:31Z</time>
      </trkpt>
      <trkpt lat="-32.03755450648912" lon="-71.15462185916795">
        <time>2019-03-07T04:33:31Z</time>
      </trkpt>
      <trkpt lat="-32.03733712042162" lon="-71.15449538654518">
        <time>2019-03-07T04:33:31Z</time>
      </trkpt>
      <trkpt lat="-32.03726161708788" lon="-71.15445294129782">
        <time>2019-03-07T04:33:31Z</time>
      </trkpt>
      <trkpt lat="-32.03719927460035" lon="-71.15442645784118">
        <time>2019-03-07T04:33:31Z</time>
      </trkpt>
      <trkpt lat="-32.03711134246388" lon="-71.1544063756844">
        <time>2019-03-07T04:33:31Z</time>
      </trkpt>
      <trkpt lat="-32.03696200693643" lon="-71.15438877395809">
        <time>2019-03-07T04:33:31Z</time>
      </trkpt>
      <trkpt lat="-32.03687298532945" lon="-71.15438681512704">
        <time>2019-03-07T04:33:31Z</time>
      </trkpt>
      <trkpt lat="-32.0367641110691" lon="-71.15439829572121">
        <time>2019-03-07T04:33:31Z</time>
      </trkpt>
      <trkpt lat="-32.0365443125861" lon="-71.15443732711927">
        <time>2019-03-07T04:33:31Z</time>
      </trkpt>
      <trkpt lat="-32.03643179211441" lon="-71.15445462479553">
        <time>2019-03-07T04:33:31Z</time>
      </trkpt>
      <trkpt lat="-32.03635157020107" lon="-71.15447013230963">
        <time>2019-03-07T04:33:31Z</time>
      </trkpt>
      <trkpt lat="-32.03626941869066" lon="-71.1544977085602">
        <time>2019-03-07T04:33:31Z</time>
      </trkpt>
      <trkpt lat="-32.03618405796479" lon="-71.1545480798241">
        <time>2019-03-07T04:33:31Z</time>
      </trkpt>
      <trkpt lat="-32.03575825670421" lon="-71.15482162151653">
        <time>2019-03-07T04:33:31Z</time>
      </trkpt>
      <trkpt lat="-32.03567443304488" lon="-71.15486428684183">
        <time>2019-03-07T04:33:31Z</time>
      </trkpt>
      <trkpt lat="-32.03558980443507" lon="-71.15489166054933">
        <time>2019-03-07T04:33:31Z</time>
      </trkpt>
      <trkpt lat="-32.03518664839493" lon="-71.15500723543124">
        <time>2019-03-07T04:33:31Z</time>
      </trkpt>
      <trkpt lat="-32.03509657530665" lon="-71.15502244248248">
        <time>2019-03-07T04:33:31Z</time>
      </trkpt>
      <trkpt lat="-32.03501381909938" lon="-71.15502362614056">
        <time>2019-03-07T04:33:31Z</time>
      </trkpt>
      <trkpt lat="-32.03488423492778" lon="-71.15500270849293">
        <time>2019-03-07T04:33:31Z</time>
      </trkpt>
      <trkpt lat="-32.03476314595349" lon="-71.15496969032388">
        <time>2019-03-07T04:33:31Z</time>
      </trkpt>
      <trkpt lat="-32.03466110479734" lon="-71.15491122167259">
        <time>2019-03-07T04:33:31Z</time>
      </trkpt>
      <trkpt lat="-32.0345312236683" lon="-71.15482912491866">
        <time>2019-03-07T04:33:31Z</time>
      </trkpt>
      <trkpt lat="-32.03444177965773" lon="-71.15476451266227">
        <time>2019-03-07T04:33:31Z</time>
      </trkpt>
      <trkpt lat="-32.03428294913408" lon="-71.15462083731649">
        <time>2019-03-07T04:33:31Z</time>
      </trkpt>
      <trkpt lat="-32.03418452498796" lon="-71.15450545687654">
        <time>2019-03-07T04:33:31Z</time>
      </trkpt>
      <trkpt lat="-32.03404912381789" lon="-71.15432399278897">
        <time>2019-03-07T04:33:31Z</time>
      </trkpt>
      <trkpt lat="-32.03390802125091" lon="-71.15411224789018">
        <time>2019-03-07T04:33:31Z</time>
      </trkpt>
      <trkpt lat="-32.0335196559513" lon="-71.153464501302">
        <time>2019-03-07T04:33:31Z</time>
      </trkpt>
      <trkpt lat="-32.03327919330032" lon="-71.15306931784022">
        <time>2019-03-07T04:33:31Z</time>
      </trkpt>
      <trkpt lat="-32.03306932523192" lon="-71.15273997157188">
        <time>2019-03-07T04:33:31Z</time>
      </trkpt>
      <trkpt lat="-32.03301051534608" lon="-71.15266738894471">
        <time>2019-03-07T04:33:31Z</time>
      </trkpt>
      <trkpt lat="-32.03294656020014" lon="-71.15259723442519">
        <time>2019-03-07T04:33:31Z</time>
      </trkpt>
      <trkpt lat="-32.03284186336393" lon="-71.15248484780793">
        <time>2019-03-07T04:33:31Z</time>
      </trkpt>
      <trkpt lat="-32.03273600128747" lon="-71.15240231086294">
        <time>2019-03-07T04:33:31Z</time>
      </trkpt>
      <trkpt lat="-32.03265498827557" lon="-71.1523657994599">
        <time>2019-03-07T04:33:31Z</time>
      </trkpt>
      <trkpt lat="-32.03248216826333" lon="-71.15230456033919">
        <time>2019-03-07T04:33:31Z</time>
      </trkpt>
      <trkpt lat="-32.03210389479432" lon="-71.15223779804688">
        <time>2019-03-07T04:33:31Z</time>
      </trkpt>
      <trkpt lat="-32.03197792739636" lon="-71.15222967653764">
        <time>2019-03-07T04:33:31Z</time>
      </trkpt>
      <trkpt lat="-32.03190525011025" lon="-71.15224101436384">
        <time>2019-03-07T04:33:31Z</time>
      </trkpt>
      <trkpt lat="-32.03177237191655" lon="-71.15227577768548">
        <time>2019-03-07T04:33:31Z</time>
      </trkpt>
      <trkpt lat="-32.03159166434591" lon="-71.15234903951004">
        <time>2019-03-07T04:33:31Z</time>
      </trkpt>
      <trkpt lat="-32.03146025801523" lon="-71.15241046080269">
        <time>2019-03-07T04:33:31Z</time>
      </trkpt>
      <trkpt lat="-32.03130900163183" lon="-71.15249060450826">
        <time>2019-03-07T04:33:31Z</time>
      </trkpt>
      <trkpt lat="-32.03067397799175" lon="-71.15283038756728">
        <time>2019-03-07T04:33:31Z</time>
      </trkpt>
      <trkpt lat="-32.03054123627355" lon="-71.15286356023458">
        <time>2019-03-07T04:33:31Z</time>
      </trkpt>
      <trkpt lat="-32.03039918944639" lon="-71.15288020799774">
        <time>2019-03-07T04:33:31Z</time>
      </trkpt>
      <trkpt lat="-32.03031917305958" lon="-71.15287446405576">
        <time>2019-03-07T04:33:31Z</time>
      </trkpt>
      <trkpt lat="-32.03012779145259" lon="-71.15282141147165">
        <time>2019-03-07T04:33:31Z</time>
      </trkpt>
      <trkpt lat="-32.0299027863536" lon="-71.15276771892769">
        <time>2019-03-07T04:33:31Z</time>
      </trkpt>
      <trkpt lat="-32.02976286241713" lon="-71.1527031569824">
        <time>2019-03-07T04:33:31Z</time>
      </trkpt>
      <trkpt lat="-32.02967471781841" lon="-71.15263954536366">
        <time>2019-03-07T04:33:31Z</time>
      </trkpt>
      <trkpt lat="-32.02958032093699" lon="-71.15258289855157">
        <time>2019-03-07T04:33:31Z</time>
      </trkpt>
      <trkpt lat="-32.02925013135604" lon="-71.15236918415376">
        <time>2019-03-07T04:33:31Z</time>
      </trkpt>
      <trkpt lat="-32.02883682599634" lon="-71.1521300006454">
        <time>2019-03-07T04:33:31Z</time>
      </trkpt>
      <trkpt lat="-32.02870532577892" lon="-71.15207107558585">
        <time>2019-03-07T04:33:31Z</time>
      </trkpt>
      <trkpt lat="-32.02858686607566" lon="-71.15202685762655">
        <time>2019-03-07T04:33:31Z</time>
      </trkpt>
      <trkpt lat="-32.02845106448262" lon="-71.15200262297246">
        <time>2019-03-07T04:33:31Z</time>
      </trkpt>
      <trkpt lat="-32.02819551713209" lon="-71.15197882561429">
        <time>2019-03-07T04:33:31Z</time>
      </trkpt>
      <trkpt lat="-32.02809727174761" lon="-71.15196713901031">
        <time>2019-03-07T04:33:31Z</time>
      </trkpt>
      <trkpt lat="-32.02802815002217" lon="-71.15195449407008">
        <time>2019-03-07T04:33:31Z</time>
      </trkpt>
      <trkpt lat="-32.02785732201181" lon="-71.15189430544739">
        <time>2019-03-07T04:33:31Z</time>
      </trkpt>
      <trkpt lat="-32.0274756040665" lon="-71.15177256331783">
        <time>2019-03-07T04:33:31Z</time>
      </trkpt>
      <trkpt lat="-32.02732728210649" lon="-71.1517388659238">
        <time>2019-03-07T04:33:31Z</time>
      </trkpt>
      <trkpt lat="-32.02717375195559" lon="-71.15172042049542">
        <time>2019-03-07T04:33:31Z</time>
      </trkpt>
      <trkpt lat="-32.02707577285201" lon="-71.15171305728062">
        <time>2019-03-07T04:33:31Z</time>
      </trkpt>
      <trkpt lat="-32.02700694656684" lon="-71.15172009517471">
        <time>2019-03-07T04:33:31Z</time>
      </trkpt>
      <trkpt lat="-32.0268553988772" lon="-71.15174845500343">
        <time>2019-03-07T04:33:31Z</time>
      </trkpt>
      <trkpt lat="-32.0267194902387" lon="-71.15178885296758">
        <time>2019-03-07T04:33:31Z</time>
      </trkpt>
      <trkpt lat="-32.02662951070685" lon="-71.15182755854649">
        <time>2019-03-07T04:33:31Z</time>
      </trkpt>
      <trkpt lat="-32.02653437006716" lon="-71.15187545095714">
        <time>2019-03-07T04:33:31Z</time>
      </trkpt>
      <trkpt lat="-32.02642607564392" lon="-71.15194633642375">
        <time>2019-03-07T04:33:31Z</time>
      </trkpt>
      <trkpt lat="-32.02630538349634" lon="-71.15204072699362">
        <time>2019-03-07T04:33:31Z</time>
      </trkpt>
      <trkpt lat="-32.02570484581067" lon="-71.1525716144411">
        <time>2019-03-07T04:33:31Z</time>
      </trkpt>
      <trkpt lat="-32.02554612116187" lon="-71.1527063287221">
        <time>2019-03-07T04:33:31Z</time>
      </trkpt>
      <trkpt lat="-32.02544058469321" lon="-71.15277770704867">
        <time>2019-03-07T04:33:31Z</time>
      </trkpt>
      <trkpt lat="-32.02531303835551" lon="-71.15285110579205">
        <time>2019-03-07T04:33:31Z</time>
      </trkpt>
      <trkpt lat="-32.02523085620773" lon="-71.15288613449347">
        <time>2019-03-07T04:33:31Z</time>
      </trkpt>
      <trkpt lat="-32.0251178227363" lon="-71.15292031592591">
        <time>2019-03-07T04:33:31Z</time>
      </trkpt>
      <trkpt lat="-32.02495865959273" lon="-71.15295070499739">
        <time>2019-03-07T04:33:31Z</time>
      </trkpt>
      <trkpt lat="-32.02483752736729" lon="-71.15295604567979">
        <time>2019-03-07T04:33:31Z</time>
      </trkpt>
      <trkpt lat="-32.02470816497813" lon="-71.15294428491367">
        <time>2019-03-07T04:33:31Z</time>
      </trkpt>
      <trkpt lat="-32.02455368904317" lon="-71.15291144309197">
        <time>2019-03-07T04:33:31Z</time>
      </trkpt>
      <trkpt lat="-32.02440686943184" lon="-71.15285719919504">
        <time>2019-03-07T04:33:31Z</time>
      </trkpt>
      <trkpt lat="-32.02424596504881" lon="-71.15277536687611">
        <time>2019-03-07T04:33:31Z</time>
      </trkpt>
      <trkpt lat="-32.02415959166274" lon="-71.15272341721163">
        <time>2019-03-07T04:33:31Z</time>
      </trkpt>
      <trkpt lat="-32.02400585808463" lon="-71.15261205939086">
        <time>2019-03-07T04:33:31Z</time>
      </trkpt>
      <trkpt lat="-32.02392890751626" lon="-71.1525192014778">
        <time>2019-03-07T04:33:31Z</time>
      </trkpt>
      <trkpt lat="-32.02384693906642" lon="-71.15240083151093">
        <time>2019-03-07T04:33:31Z</time>
      </trkpt>
      <trkpt lat="-32.02375002016434" lon="-71.1521805083766">
        <time>2019-03-07T04:33:31Z</time>
      </trkpt>
      <trkpt lat="-32.02364204444498" lon="-71.15188471243833">
        <time>2019-03-07T04:33:31Z</time>
      </trkpt>
      <trkpt lat="-32.02345107034128" lon="-71.15132774467544">
        <time>2019-03-07T04:33:31Z</time>
      </trkpt>
      <trkpt lat="-32.02335465667589" lon="-71.15110958562819">
        <time>2019-03-07T04:33:31Z</time>
      </trkpt>
      <trkpt lat="-32.02327725195006" lon="-71.15097790006708">
        <time>2019-03-07T04:33:31Z</time>
      </trkpt>
      <trkpt lat="-32.02319703057707" lon="-71.15085753962937">
        <time>2019-03-07T04:33:31Z</time>
      </trkpt>
      <trkpt lat="-32.02311296505453" lon="-71.15076118009819">
        <time>2019-03-07T04:33:31Z</time>
      </trkpt>
      <trkpt lat="-32.02294570693104" lon="-71.15063032012075">
        <time>2019-03-07T04:33:31Z</time>
      </trkpt>
      <trkpt lat="-32.02254861301313" lon="-71.15040921725436">
        <time>2019-03-07T04:33:31Z</time>
      </trkpt>
      <trkpt lat="-32.02217686463374" lon="-71.15022830705084">
        <time>2019-03-07T04:33:31Z</time>
      </trkpt>
      <trkpt lat="-32.02212637566469" lon="-71.15019752835471">
        <time>2019-03-07T04:33:31Z</time>
      </trkpt>
      <trkpt lat="-32.02207726824512" lon="-71.15015673192809">
        <time>2019-03-07T04:33:31Z</time>
      </trkpt>
      <trkpt lat="-32.02204045625597" lon="-71.15012358158835">
        <time>2019-03-07T04:33:31Z</time>
      </trkpt>
      <trkpt lat="-32.02200517574714" lon="-71.15009049319914">
        <time>2019-03-07T04:33:31Z</time>
      </trkpt>
      <trkpt lat="-32.02190418663275" lon="-71.15000858482657">
        <time>2019-03-07T04:33:31Z</time>
      </trkpt>
      <trkpt lat="-32.02135709589458" lon="-71.14941874223371">
        <time>2019-03-07T04:33:31Z</time>
      </trkpt>
      <trkpt lat="-32.02098881221719" lon="-71.1491069903484">
        <time>2019-03-07T04:33:31Z</time>
      </trkpt>
      <trkpt lat="-32.02085633391968" lon="-71.14903433306434">
        <time>2019-03-07T04:33:31Z</time>
      </trkpt>
      <trkpt lat="-32.02070878968732" lon="-71.14898281132987">
        <time>2019-03-07T04:33:31Z</time>
      </trkpt>
      <trkpt lat="-32.02057223422514" lon="-71.1489563929316">
        <time>2019-03-07T04:33:31Z</time>
      </trkpt>
      <trkpt lat="-32.02045364564847" lon="-71.14894795819751">
        <time>2019-03-07T04:33:31Z</time>
      </trkpt>
      <trkpt lat="-32.01962202095178" lon="-71.14891035595494">
        <time>2019-03-07T04:33:31Z</time>
      </trkpt>
      <trkpt lat="-32.01899208660402" lon="-71.14886041263321">
        <time>2019-03-07T04:33:31Z</time>
      </trkpt>
      <trkpt lat="-32.01888960889644" lon="-71.14883736494375">
        <time>2019-03-07T04:33:31Z</time>
      </trkpt>
      <trkpt lat="-32.01878172045516" lon="-71.14880253184801">
        <time>2019-03-07T04:33:31Z</time>
      </trkpt>
      <trkpt lat="-32.01872287896473" lon="-71.14877109059168">
        <time>2019-03-07T04:33:31Z</time>
      </trkpt>
      <trkpt lat="-32.01854240342893" lon="-71.14865112174488">
        <time>2019-03-07T04:33:31Z</time>
      </trkpt>
      <trkpt lat="-32.01829641571704" lon="-71.1484775220861">
        <time>2019-03-07T04:33:31Z</time>
      </trkpt>
      <trkpt lat="-32.01753051101959" lon="-71.14784814180668">
        <time>2019-03-07T04:33:31Z</time>
      </trkpt>
      <trkpt lat="-32.01739592730429" lon="-71.14775889678647">
        <time>2019-03-07T04:33:31Z</time>
      </trkpt>
      <trkpt lat="-32.01729033199489" lon="-71.14769799002077">
        <time>2019-03-07T04:33:31Z</time>
      </trkpt>
      <trkpt lat="-32.01720059072605" lon="-71.14765921531664">
        <time>2019-03-07T04:33:31Z</time>
      </trkpt>
      <trkpt lat="-32.01671055749799" lon="-71.14744113629533">
        <time>2019-03-07T04:33:31Z</time>
      </trkpt>
      <trkpt lat="-32.01666577084821" lon="-71.14741993200899">
        <time>2019-03-07T04:33:31Z</time>
      </trkpt>
      <trkpt lat="-32.01661690628382" lon="-71.14739266703425">
        <time>2019-03-07T04:33:31Z</time>
      </trkpt>
      <trkpt lat="-32.01657966761181" lon="-71.14736648078575">
        <time>2019-03-07T04:33:31Z</time>
      </trkpt>
      <trkpt lat="-32.01638016029036" lon="-71.14718015530025">
        <time>2019-03-07T04:33:31Z</time>
      </trkpt>
      <trkpt lat="-32.01630688032106" lon="-71.14709558306484">
        <time>2019-03-07T04:33:31Z</time>
      </trkpt>
      <trkpt lat="-32.01615933911143" lon="-71.1468772001583">
        <time>2019-03-07T04:33:31Z</time>
      </trkpt>
      <trkpt lat="-32.01611560625904" lon="-71.14681693134908">
        <time>2019-03-07T04:33:31Z</time>
      </trkpt>
      <trkpt lat="-32.01606745877856" lon="-71.1467638693769">
        <time>2019-03-07T04:33:31Z</time>
      </trkpt>
      <trkpt lat="-32.01597827052646" lon="-71.14668318006369">
        <time>2019-03-07T04:33:31Z</time>
      </trkpt>
      <trkpt lat="-32.01590145701398" lon="-71.14661981347781">
        <time>2019-03-07T04:33:31Z</time>
      </trkpt>
      <trkpt lat="-32.01571816782677" lon="-71.14651109021244">
        <time>2019-03-07T04:33:31Z</time>
      </trkpt>
      <trkpt lat="-32.0155759511281" lon="-71.14644888600576">
        <time>2019-03-07T04:33:31Z</time>
      </trkpt>
      <trkpt lat="-32.01540274158852" lon="-71.14640409606632">
        <time>2019-03-07T04:33:31Z</time>
      </trkpt>
      <trkpt lat="-32.01521087910072" lon="-71.14637552573602">
        <time>2019-03-07T04:33:31Z</time>
      </trkpt>
      <trkpt lat="-32.01508543532356" lon="-71.14637284598818">
        <time>2019-03-07T04:33:31Z</time>
      </trkpt>
      <trkpt lat="-32.01495428693573" lon="-71.14639030724379">
        <time>2019-03-07T04:33:31Z</time>
      </trkpt>
      <trkpt lat="-32.01487562970087" lon="-71.14640669705359">
        <time>2019-03-07T04:33:31Z</time>
      </trkpt>
      <trkpt lat="-32.01467409810468" lon="-71.14647166742556">
        <time>2019-03-07T04:33:31Z</time>
      </trkpt>
      <trkpt lat="-32.01409505239929" lon="-71.14671101392692">
        <time>2019-03-07T04:33:31Z</time>
      </trkpt>
      <trkpt lat="-32.01403772988665" lon="-71.14672582532708">
        <time>2019-03-07T04:33:31Z</time>
      </trkpt>
      <trkpt lat="-32.01396311769128" lon="-71.1467383342502">
        <time>2019-03-07T04:33:31Z</time>
      </trkpt>
      <trkpt lat="-32.0138900671168" lon="-71.14675123864245">
        <time>2019-03-07T04:33:31Z</time>
      </trkpt>
      <trkpt lat="-32.01379139145585" lon="-71.14675194546224">
        <time>2019-03-07T04:33:31Z</time>
      </trkpt>
      <trkpt lat="-32.01369460520226" lon="-71.14673979183904">
        <time>2019-03-07T04:33:31Z</time>
      </trkpt>
      <trkpt lat="-32.01352044902298" lon="-71.14671158745092">
        <time>2019-03-07T04:33:31Z</time>
      </trkpt>
      <trkpt lat="-32.01344287998968" lon="-71.14669280394782">
        <time>2019-03-07T04:33:31Z</time>
      </trkpt>
      <trkpt lat="-32.01308922225239" lon="-71.14655834301126">
        <time>2019-03-07T04:33:31Z</time>
      </trkpt>
      <trkpt lat="-32.01230571957935" lon="-71.14626132955797">
        <time>2019-03-07T04:33:31Z</time>
      </trkpt>
      <trkpt lat="-32.01145611494327" lon="-71.14591931607768">
        <time>2019-03-07T04:33:31Z</time>
      </trkpt>
      <trkpt lat="-32.01100930675113" lon="-71.14572998578515">
        <time>2019-03-07T04:33:31Z</time>
      </trkpt>
      <trkpt lat="-32.01091030626572" lon="-71.14567996259252">
        <time>2019-03-07T04:33:31Z</time>
      </trkpt>
      <trkpt lat="-32.01072314741907" lon="-71.14555978281979">
        <time>2019-03-07T04:33:31Z</time>
      </trkpt>
      <trkpt lat="-32.01054351042173" lon="-71.14539916398482">
        <time>2019-03-07T04:33:31Z</time>
      </trkpt>
      <trkpt lat="-32.0104540913023" lon="-71.14530193999845">
        <time>2019-03-07T04:33:31Z</time>
      </trkpt>
      <trkpt lat="-32.01025829186098" lon="-71.14504188731489">
        <time>2019-03-07T04:33:31Z</time>
      </trkpt>
      <trkpt lat="-32.01011671566504" lon="-71.14489563584772">
        <time>2019-03-07T04:33:31Z</time>
      </trkpt>
      <trkpt lat="-32.00997656513883" lon="-71.14478184510355">
        <time>2019-03-07T04:33:31Z</time>
      </trkpt>
      <trkpt lat="-32.00980697481384" lon="-71.14466470663864">
        <time>2019-03-07T04:33:31Z</time>
      </trkpt>
      <trkpt lat="-32.00962661928592" lon="-71.14457117780134">
        <time>2019-03-07T04:33:31Z</time>
      </trkpt>
      <trkpt lat="-32.009443155642" lon="-71.14451038655128">
        <time>2019-03-07T04:33:31Z</time>
      </trkpt>
      <trkpt lat="-32.00928195471487" lon="-71.14447178841098">
        <time>2019-03-07T04:33:31Z</time>
      </trkpt>
      <trkpt lat="-32.00917227996765" lon="-71.14446907463405">
        <time>2019-03-07T04:33:31Z</time>
      </trkpt>
      <trkpt lat="-32.00800612734429" lon="-71.14455099065476">
        <time>2019-03-07T04:33:31Z</time>
      </trkpt>
      <trkpt lat="-32.00675141834688" lon="-71.1446286194935">
        <time>2019-03-07T04:33:31Z</time>
      </trkpt>
      <trkpt lat="-32.00668100270544" lon="-71.14462810493895">
        <time>2019-03-07T04:33:31Z</time>
      </trkpt>
      <trkpt lat="-32.00660214586524" lon="-71.14461704144679">
        <time>2019-03-07T04:33:31Z</time>
      </trkpt>
      <trkpt lat="-32.00651013170687" lon="-71.14460060300061">
        <time>2019-03-07T04:33:31Z</time>
      </trkpt>
      <trkpt lat="-32.00643084892388" lon="-71.14457987825244">
        <time>2019-03-07T04:33:31Z</time>
      </trkpt>
      <trkpt lat="-32.00632554957245" lon="-71.14454414943442">
        <time>2019-03-07T04:33:31Z</time>
      </trkpt>
      <trkpt lat="-32.00619858007018" lon="-71.14447694240978">
        <time>2019-03-07T04:33:31Z</time>
      </trkpt>
      <trkpt lat="-32.00612039214975" lon="-71.14443157766158">
        <time>2019-03-07T04:33:31Z</time>
      </trkpt>
      <trkpt lat="-32.00599899371188" lon="-71.14434236080653">
        <time>2019-03-07T04:33:31Z</time>
      </trkpt>
      <trkpt lat="-32.00592087790898" lon="-71.14427051472347">
        <time>2019-03-07T04:33:31Z</time>
      </trkpt>
      <trkpt lat="-32.00579744784521" lon="-71.14413763983002">
        <time>2019-03-07T04:33:31Z</time>
      </trkpt>
      <trkpt lat="-32.0057276694482" lon="-71.14403446939035">
        <time>2019-03-07T04:33:31Z</time>
      </trkpt>
      <trkpt lat="-32.00559650765466" lon="-71.14377240194391">
        <time>2019-03-07T04:33:31Z</time>
      </trkpt>
      <trkpt lat="-32.00545512611033" lon="-71.14342931442809">
        <time>2019-03-07T04:33:31Z</time>
      </trkpt>
      <trkpt lat="-32.00532885263645" lon="-71.14311445375572">
        <time>2019-03-07T04:33:31Z</time>
      </trkpt>
      <trkpt lat="-32.00523035674565" lon="-71.14295615513981">
        <time>2019-03-07T04:33:31Z</time>
      </trkpt>
      <trkpt lat="-32.00511200290649" lon="-71.14279861425146">
        <time>2019-03-07T04:33:31Z</time>
      </trkpt>
      <trkpt lat="-32.0049026744566" lon="-71.14259940419233">
        <time>2019-03-07T04:33:31Z</time>
      </trkpt>
      <trkpt lat="-32.00478702480559" lon="-71.14252565323794">
        <time>2019-03-07T04:33:31Z</time>
      </trkpt>
      <trkpt lat="-32.00466674382475" lon="-71.14246530140113">
        <time>2019-03-07T04:33:31Z</time>
      </trkpt>
      <trkpt lat="-32.00455066825347" lon="-71.14242242565595">
        <time>2019-03-07T04:33:31Z</time>
      </trkpt>
      <trkpt lat="-32.00442910227264" lon="-71.14240306678302">
        <time>2019-03-07T04:33:31Z</time>
      </trkpt>
      <trkpt lat="-32.00430489077645" lon="-71.14239228474206">
        <time>2019-03-07T04:33:31Z</time>
      </trkpt>
      <trkpt lat="-32.004197070703" lon="-71.14239061351813">
        <time>2019-03-07T04:33:31Z</time>
      </trkpt>
      <trkpt lat="-32.00409448095591" lon="-71.14240682956819">
        <time>2019-03-07T04:33:31Z</time>
      </trkpt>
      <trkpt lat="-32.0039888264604" lon="-71.14242971823069">
        <time>2019-03-07T04:33:31Z</time>
      </trkpt>
      <trkpt lat="-32.0039212064363" lon="-71.14245151914911">
        <time>2019-03-07T04:33:31Z</time>
      </trkpt>
      <trkpt lat="-32.00383852528321" lon="-71.14248311963495">
        <time>2019-03-07T04:33:31Z</time>
      </trkpt>
      <trkpt lat="-32.00369858429262" lon="-71.1425545628783">
        <time>2019-03-07T04:33:31Z</time>
      </trkpt>
      <trkpt lat="-32.00355002207996" lon="-71.14264600184205">
        <time>2019-03-07T04:33:31Z</time>
      </trkpt>
      <trkpt lat="-32.00310008958125" lon="-71.14296358323418">
        <time>2019-03-07T04:33:31Z</time>
      </trkpt>
      <trkpt lat="-32.00304663643519" lon="-71.14299171291125">
        <time>2019-03-07T04:33:31Z</time>
      </trkpt>
      <trkpt lat="-32.00296955768096" lon="-71.14302846104272">
        <time>2019-03-07T04:33:31Z</time>
      </trkpt>
      <trkpt lat="-32.00290045274228" lon="-71.14305546262389">
        <time>2019-03-07T04:33:31Z</time>
      </trkpt>
      <trkpt lat="-32.00279324068864" lon="-71.14309178526609">
        <time>2019-03-07T04:33:31Z</time>
      </trkpt>
      <trkpt lat="-32.00201626268432" lon="-71.14323136254428">
        <time>2019-03-07T04:33:31Z</time>
      </trkpt>
      <trkpt lat="-32.00185210350298" lon="-71.14325990572716">
        <time>2019-03-07T04:33:31Z</time>
      </trkpt>
      <trkpt lat="-32.00165471629224" lon="-71.14329894877685">
        <time>2019-03-07T04:33:31Z</time>
      </trkpt>
      <trkpt lat="-32.00159025587594" lon="-71.14331732341964">
        <time>2019-03-07T04:33:31Z</time>
      </trkpt>
      <trkpt lat="-32.0015191602086" lon="-71.14334492939182">
        <time>2019-03-07T04:33:31Z</time>
      </trkpt>
      <trkpt lat="-32.0014207566209" lon="-71.14339435262254">
        <time>2019-03-07T04:33:31Z</time>
      </trkpt>
      <trkpt lat="-32.0011575932506" lon="-71.14358031860142">
        <time>2019-03-07T04:33:31Z</time>
      </trkpt>
      <trkpt lat="-32.00067662481828" lon="-71.14401259474644">
        <time>2019-03-07T04:33:31Z</time>
      </trkpt>
      <trkpt lat="-32.0003778069832" lon="-71.14425332354719">
        <time>2019-03-07T04:33:31Z</time>
      </trkpt>
      <trkpt lat="-32.00024108387742" lon="-71.14432470887073">
        <time>2019-03-07T04:33:31Z</time>
      </trkpt>
      <trkpt lat="-32.00015380094578" lon="-71.14436330068888">
        <time>2019-03-07T04:33:31Z</time>
      </trkpt>
      <trkpt lat="-32.00006094760794" lon="-71.14439099196824">
        <time>2019-03-07T04:33:31Z</time>
      </trkpt>
      <trkpt lat="-31.99994143896462" lon="-71.14442168525588">
        <time>2019-03-07T04:33:31Z</time>
      </trkpt>
      <trkpt lat="-31.99987515956067" lon="-71.14443105950636">
        <time>2019-03-07T04:33:31Z</time>
      </trkpt>
      <trkpt lat="-31.99977015560155" lon="-71.14442908641878">
        <time>2019-03-07T04:33:31Z</time>
      </trkpt>
      <trkpt lat="-31.9991877402423" lon="-71.1443429882611">
        <time>2019-03-07T04:33:31Z</time>
      </trkpt>
      <trkpt lat="-31.99896908903248" lon="-71.14433009123412">
        <time>2019-03-07T04:33:31Z</time>
      </trkpt>
      <trkpt lat="-31.99872404994123" lon="-71.14436621721056">
        <time>2019-03-07T04:33:31Z</time>
      </trkpt>
      <trkpt lat="-31.99854314606418" lon="-71.14443009157449">
        <time>2019-03-07T04:33:31Z</time>
      </trkpt>
      <trkpt lat="-31.99796177342858" lon="-71.14470095302296">
        <time>2019-03-07T04:33:31Z</time>
      </trkpt>
      <trkpt lat="-31.99786697080105" lon="-71.1447373416936">
        <time>2019-03-07T04:33:31Z</time>
      </trkpt>
      <trkpt lat="-31.99776970665246" lon="-71.14476135151715">
        <time>2019-03-07T04:33:31Z</time>
      </trkpt>
      <trkpt lat="-31.99752936338727" lon="-71.14477488793084">
        <time>2019-03-07T04:33:31Z</time>
      </trkpt>
      <trkpt lat="-31.99739973478225" lon="-71.1447934148628">
        <time>2019-03-07T04:33:31Z</time>
      </trkpt>
      <trkpt lat="-31.99689526208932" lon="-71.14493623320836">
        <time>2019-03-07T04:33:31Z</time>
      </trkpt>
      <trkpt lat="-31.99648489681131" lon="-71.14510346273963">
        <time>2019-03-07T04:33:31Z</time>
      </trkpt>
      <trkpt lat="-31.99633068579859" lon="-71.14515647772386">
        <time>2019-03-07T04:33:31Z</time>
      </trkpt>
      <trkpt lat="-31.99620757690939" lon="-71.14518656301316">
        <time>2019-03-07T04:33:31Z</time>
      </trkpt>
      <trkpt lat="-31.99539428132756" lon="-71.14526039121282">
        <time>2019-03-07T04:33:31Z</time>
      </trkpt>
      <trkpt lat="-31.99492022372199" lon="-71.14532109501909">
        <time>2019-03-07T04:33:31Z</time>
      </trkpt>
      <trkpt lat="-31.99474896474166" lon="-71.1453421759864">
        <time>2019-03-07T04:33:31Z</time>
      </trkpt>
      <trkpt lat="-31.99452284263242" lon="-71.14541578070732">
        <time>2019-03-07T04:33:31Z</time>
      </trkpt>
      <trkpt lat="-31.99437275821626" lon="-71.14549589710873">
        <time>2019-03-07T04:33:31Z</time>
      </trkpt>
      <trkpt lat="-31.9942889998611" lon="-71.14557585591442">
        <time>2019-03-07T04:33:31Z</time>
      </trkpt>
      <trkpt lat="-31.99413154969188" lon="-71.14575386410732">
        <time>2019-03-07T04:33:31Z</time>
      </trkpt>
      <trkpt lat="-31.99402296664806" lon="-71.14590990839278">
        <time>2019-03-07T04:33:31Z</time>
      </trkpt>
      <trkpt lat="-31.99375471155978" lon="-71.14650849467888">
        <time>2019-03-07T04:33:31Z</time>
      </trkpt>
      <trkpt lat="-31.99358602002806" lon="-71.14679317448982">
        <time>2019-03-07T04:33:31Z</time>
      </trkpt>
      <trkpt lat="-31.99352682497017" lon="-71.14688549589529">
        <time>2019-03-07T04:33:31Z</time>
      </trkpt>
      <trkpt lat="-31.99334784086776" lon="-71.14707505838192">
        <time>2019-03-07T04:33:31Z</time>
      </trkpt>
      <trkpt lat="-31.99319549028505" lon="-71.14718510111533">
        <time>2019-03-07T04:33:31Z</time>
      </trkpt>
      <trkpt lat="-31.99300092529147" lon="-71.14729448795376">
        <time>2019-03-07T04:33:31Z</time>
      </trkpt>
      <trkpt lat="-31.99283349167118" lon="-71.14735670635101">
        <time>2019-03-07T04:33:31Z</time>
      </trkpt>
      <trkpt lat="-31.99256739462402" lon="-71.14739760431465">
        <time>2019-03-07T04:33:31Z</time>
      </trkpt>
      <trkpt lat="-31.99241386365554" lon="-71.1474000739385">
        <time>2019-03-07T04:33:31Z</time>
      </trkpt>
      <trkpt lat="-31.99214234336842" lon="-71.14741302082783">
        <time>2019-03-07T04:33:31Z</time>
      </trkpt>
      <trkpt lat="-31.99051576130647" lon="-71.14738740468863">
        <time>2019-03-07T04:33:31Z</time>
      </trkpt>
      <trkpt lat="-31.99004430087276" lon="-71.14741113492013">
        <time>2019-03-07T04:33:31Z</time>
      </trkpt>
      <trkpt lat="-31.98988524789425" lon="-71.14741038429889">
        <time>2019-03-07T04:33:31Z</time>
      </trkpt>
      <trkpt lat="-31.98970225500399" lon="-71.14738227828752">
        <time>2019-03-07T04:33:31Z</time>
      </trkpt>
      <trkpt lat="-31.98883761276098" lon="-71.14726919225842">
        <time>2019-03-07T04:33:31Z</time>
      </trkpt>
      <trkpt lat="-31.9886959141503" lon="-71.14724530908691">
        <time>2019-03-07T04:33:31Z</time>
      </trkpt>
      <trkpt lat="-31.98787992397778" lon="-71.14709676813826">
        <time>2019-03-07T04:33:31Z</time>
      </trkpt>
      <trkpt lat="-31.98762235517277" lon="-71.14702504683265">
        <time>2019-03-07T04:33:31Z</time>
      </trkpt>
      <trkpt lat="-31.98744528764703" lon="-71.14693223134006">
        <time>2019-03-07T04:33:31Z</time>
      </trkpt>
      <trkpt lat="-31.98727597453184" lon="-71.14680804747263">
        <time>2019-03-07T04:33:31Z</time>
      </trkpt>
      <trkpt lat="-31.98715182797511" lon="-71.14667747534121">
        <time>2019-03-07T04:33:31Z</time>
      </trkpt>
      <trkpt lat="-31.98709020686531" lon="-71.14658085477346">
        <time>2019-03-07T04:33:31Z</time>
      </trkpt>
      <trkpt lat="-31.9870000729774" lon="-71.14640237568032">
        <time>2019-03-07T04:33:31Z</time>
      </trkpt>
      <trkpt lat="-31.98692273688548" lon="-71.14622649909673">
        <time>2019-03-07T04:33:31Z</time>
      </trkpt>
      <trkpt lat="-31.98674115796512" lon="-71.14570499597727">
        <time>2019-03-07T04:33:31Z</time>
      </trkpt>
      <trkpt lat="-31.98662708308543" lon="-71.14539693928516">
        <time>2019-03-07T04:33:31Z</time>
      </trkpt>
      <trkpt lat="-31.98653668259967" lon="-71.14519367730479">
        <time>2019-03-07T04:33:31Z</time>
      </trkpt>
      <trkpt lat="-31.98648522747452" lon="-71.14511005327471">
        <time>2019-03-07T04:33:31Z</time>
      </trkpt>
      <trkpt lat="-31.98562612042306" lon="-71.14384031276502">
        <time>2019-03-07T04:33:31Z</time>
      </trkpt>
      <trkpt lat="-31.98543437740531" lon="-71.14355629929108">
        <time>2019-03-07T04:33:31Z</time>
      </trkpt>
      <trkpt lat="-31.98525499907691" lon="-71.14333342971021">
        <time>2019-03-07T04:33:31Z</time>
      </trkpt>
      <trkpt lat="-31.98514760297066" lon="-71.14321586144257">
        <time>2019-03-07T04:33:31Z</time>
      </trkpt>
      <trkpt lat="-31.98503943632655" lon="-71.14310539733083">
        <time>2019-03-07T04:33:31Z</time>
      </trkpt>
      <trkpt lat="-31.98494647505084" lon="-71.1430333898338">
        <time>2019-03-07T04:33:31Z</time>
      </trkpt>
      <trkpt lat="-31.9848501064579" lon="-71.14297030323984">
        <time>2019-03-07T04:33:31Z</time>
      </trkpt>
      <trkpt lat="-31.98461475198252" lon="-71.14283677141219">
        <time>2019-03-07T04:33:31Z</time>
      </trkpt>
      <trkpt lat="-31.9844467625362" lon="-71.14276957167972">
        <time>2019-03-07T04:33:31Z</time>
      </trkpt>
      <trkpt lat="-31.98427873110551" lon="-71.14272309684245">
        <time>2019-03-07T04:33:31Z</time>
      </trkpt>
      <trkpt lat="-31.98409145173527" lon="-71.14268926356496">
        <time>2019-03-07T04:33:31Z</time>
      </trkpt>
      <trkpt lat="-31.98394690961298" lon="-71.14268610118889">
        <time>2019-03-07T04:33:31Z</time>
      </trkpt>
      <trkpt lat="-31.98375873292321" lon="-71.14270046255342">
        <time>2019-03-07T04:33:31Z</time>
      </trkpt>
      <trkpt lat="-31.98296847058486" lon="-71.14285589621944">
        <time>2019-03-07T04:33:31Z</time>
      </trkpt>
      <trkpt lat="-31.98276411325816" lon="-71.14289995988533">
        <time>2019-03-07T04:33:31Z</time>
      </trkpt>
      <trkpt lat="-31.98267560357098" lon="-71.14291011806509">
        <time>2019-03-07T04:33:31Z</time>
      </trkpt>
      <trkpt lat="-31.98261684660701" lon="-71.14290530859411">
        <time>2019-03-07T04:33:31Z</time>
      </trkpt>
      <trkpt lat="-31.98252786716304" lon="-71.14289048141538">
        <time>2019-03-07T04:33:31Z</time>
      </trkpt>
      <trkpt lat="-31.98242835868865" lon="-71.1428609362594">
        <time>2019-03-07T04:33:31Z</time>
      </trkpt>
      <trkpt lat="-31.98234221903451" lon="-71.14282883379651">
        <time>2019-03-07T04:33:31Z</time>
      </trkpt>
      <trkpt lat="-31.98225209820199" lon="-71.14278493869745">
        <time>2019-03-07T04:33:31Z</time>
      </trkpt>
      <trkpt lat="-31.9820467597419" lon="-71.14266195044591">
        <time>2019-03-07T04:33:31Z</time>
      </trkpt>
      <trkpt lat="-31.98191830790743" lon="-71.14255486613068">
        <time>2019-03-07T04:33:31Z</time>
      </trkpt>
      <trkpt lat="-31.98155990197298" lon="-71.14218538172433">
        <time>2019-03-07T04:33:31Z</time>
      </trkpt>
      <trkpt lat="-31.98136000238683" lon="-71.14200199861054">
        <time>2019-03-07T04:33:31Z</time>
      </trkpt>
      <trkpt lat="-31.9812084269476" lon="-71.14185756599333">
        <time>2019-03-07T04:33:31Z</time>
      </trkpt>
      <trkpt lat="-31.98113329821252" lon="-71.14180742235322">
        <time>2019-03-07T04:33:31Z</time>
      </trkpt>
      <trkpt lat="-31.98086283079422" lon="-71.14166655515219">
        <time>2019-03-07T04:33:31Z</time>
      </trkpt>
      <trkpt lat="-31.98046532632482" lon="-71.14146662344929">
        <time>2019-03-07T04:33:31Z</time>
      </trkpt>
      <trkpt lat="-31.9797907923179" lon="-71.14108142824844">
        <time>2019-03-07T04:33:31Z</time>
      </trkpt>
      <trkpt lat="-31.97923000432214" lon="-71.14075857013103">
        <time>2019-03-07T04:33:31Z</time>
      </trkpt>
      <trkpt lat="-31.97857718021046" lon="-71.14041640975717">
        <time>2019-03-07T04:33:31Z</time>
      </trkpt>
      <trkpt lat="-31.97841709619148" lon="-71.14034749733507">
        <time>2019-03-07T04:33:31Z</time>
      </trkpt>
      <trkpt lat="-31.97829929555186" lon="-71.1403110751522">
        <time>2019-03-07T04:33:31Z</time>
      </trkpt>
      <trkpt lat="-31.97818148294417" lon="-71.14028799229976">
        <time>2019-03-07T04:33:31Z</time>
      </trkpt>
      <trkpt lat="-31.97802046803053" lon="-71.14027748365336">
        <time>2019-03-07T04:33:31Z</time>
      </trkpt>
      <trkpt lat="-31.97789767437791" lon="-71.14029410701508">
        <time>2019-03-07T04:33:31Z</time>
      </trkpt>
      <trkpt lat="-31.97761989792549" lon="-71.14033988962163">
        <time>2019-03-07T04:33:31Z</time>
      </trkpt>
      <trkpt lat="-31.97731120549464" lon="-71.14045579150114">
        <time>2019-03-07T04:33:31Z</time>
      </trkpt>
      <trkpt lat="-31.97715940322775" lon="-71.14054255461026">
        <time>2019-03-07T04:33:31Z</time>
      </trkpt>
      <trkpt lat="-31.9770404079428" lon="-71.14064642312277">
        <time>2019-03-07T04:33:31Z</time>
      </trkpt>
      <trkpt lat="-31.97678409401999" lon="-71.14094035904127">
        <time>2019-03-07T04:33:31Z</time>
      </trkpt>
      <trkpt lat="-31.97657984362299" lon="-71.1412159895703">
        <time>2019-03-07T04:33:31Z</time>
      </trkpt>
      <trkpt lat="-31.9763906896386" lon="-71.14141170448271">
        <time>2019-03-07T04:33:31Z</time>
      </trkpt>
      <trkpt lat="-31.97618420194422" lon="-71.14160099083256">
        <time>2019-03-07T04:33:31Z</time>
      </trkpt>
      <trkpt lat="-31.97608429604258" lon="-71.14167606362342">
        <time>2019-03-07T04:33:31Z</time>
      </trkpt>
      <trkpt lat="-31.97598020703265" lon="-71.14173888566505">
        <time>2019-03-07T04:33:31Z</time>
      </trkpt>
      <trkpt lat="-31.9758654369861" lon="-71.1417873308465">
        <time>2019-03-07T04:33:31Z</time>
      </trkpt>
      <trkpt lat="-31.97575472974519" lon="-71.14180660619589">
        <time>2019-03-07T04:33:31Z</time>
      </trkpt>
      <trkpt lat="-31.97553573937836" lon="-71.14181891193354">
        <time>2019-03-07T04:33:31Z</time>
      </trkpt>
      <trkpt lat="-31.97539411617138" lon="-71.14181441300381">
        <time>2019-03-07T04:33:31Z</time>
      </trkpt>
      <trkpt lat="-31.97529889133041" lon="-71.14179399290649">
        <time>2019-03-07T04:33:31Z</time>
      </trkpt>
      <trkpt lat="-31.97505802605749" lon="-71.14171699271171">
        <time>2019-03-07T04:33:31Z</time>
      </trkpt>
      <trkpt lat="-31.97496263262852" lon="-71.14166200118903">
        <time>2019-03-07T04:33:31Z</time>
      </trkpt>
      <trkpt lat="-31.97485348277467" lon="-71.1415869754881">
        <time>2019-03-07T04:33:31Z</time>
      </trkpt>
      <trkpt lat="-31.97456434572516" lon="-71.14130022402208">
        <time>2019-03-07T04:33:31Z</time>
      </trkpt>
      <trkpt lat="-31.97428959681303" lon="-71.14100079302443">
        <time>2019-03-07T04:33:31Z</time>
      </trkpt>
      <trkpt lat="-31.97406735408668" lon="-71.14081748353108">
        <time>2019-03-07T04:33:31Z</time>
      </trkpt>
      <trkpt lat="-31.97378374329833" lon="-71.14066249107987">
        <time>2019-03-07T04:33:31Z</time>
      </trkpt>
      <trkpt lat="-31.97355621044258" lon="-71.14060231523321">
        <time>2019-03-07T04:33:31Z</time>
      </trkpt>
      <trkpt lat="-31.97315918682341" lon="-71.14060647183948">
        <time>2019-03-07T04:33:31Z</time>
      </trkpt>
      <trkpt lat="-31.97258943015948" lon="-71.14060462423257">
        <time>2019-03-07T04:33:31Z</time>
      </trkpt>
      <trkpt lat="-31.97228677536246" lon="-71.14058384107639">
        <time>2019-03-07T04:33:31Z</time>
      </trkpt>
      <trkpt lat="-31.97215617353677" lon="-71.14056568247514">
        <time>2019-03-07T04:33:31Z</time>
      </trkpt>
      <trkpt lat="-31.97165846092955" lon="-71.14041690852169">
        <time>2019-03-07T04:33:31Z</time>
      </trkpt>
      <trkpt lat="-31.97157206220389" lon="-71.14037800324138">
        <time>2019-03-07T04:33:31Z</time>
      </trkpt>
      <trkpt lat="-31.97130135609403" lon="-71.14023610570543">
        <time>2019-03-07T04:33:31Z</time>
      </trkpt>
      <trkpt lat="-31.97090824471475" lon="-71.14001225369889">
        <time>2019-03-07T04:33:31Z</time>
      </trkpt>
      <trkpt lat="-31.97049581346588" lon="-71.13976713237854">
        <time>2019-03-07T04:33:31Z</time>
      </trkpt>
      <trkpt lat="-31.97012209902916" lon="-71.13955617491355">
        <time>2019-03-07T04:33:31Z</time>
      </trkpt>
      <trkpt lat="-31.96973161423203" lon="-71.13932902755074">
        <time>2019-03-07T04:33:31Z</time>
      </trkpt>
      <trkpt lat="-31.96936339406624" lon="-71.13912095268907">
        <time>2019-03-07T04:33:31Z</time>
      </trkpt>
      <trkpt lat="-31.96903376547074" lon="-71.13894506322863">
        <time>2019-03-07T04:33:31Z</time>
      </trkpt>
      <trkpt lat="-31.968780383842" lon="-71.13885206715602">
        <time>2019-03-07T04:33:31Z</time>
      </trkpt>
      <trkpt lat="-31.9685792163868" lon="-71.13880576615711">
        <time>2019-03-07T04:33:31Z</time>
      </trkpt>
      <trkpt lat="-31.96843552782861" lon="-71.13880372757591">
        <time>2019-03-07T04:33:31Z</time>
      </trkpt>
      <trkpt lat="-31.96827891637745" lon="-71.13882223941576">
        <time>2019-03-07T04:33:31Z</time>
      </trkpt>
      <trkpt lat="-31.96813729187283" lon="-71.1388501534896">
        <time>2019-03-07T04:33:31Z</time>
      </trkpt>
      <trkpt lat="-31.96791315030403" lon="-71.1389304957473">
        <time>2019-03-07T04:33:31Z</time>
      </trkpt>
      <trkpt lat="-31.96754567569792" lon="-71.1390660191781">
        <time>2019-03-07T04:33:31Z</time>
      </trkpt>
      <trkpt lat="-31.96741577799139" lon="-71.13908736460319">
        <time>2019-03-07T04:33:31Z</time>
      </trkpt>
      <trkpt lat="-31.96726911671144" lon="-71.13909279106809">
        <time>2019-03-07T04:33:31Z</time>
      </trkpt>
      <trkpt lat="-31.9671477764964" lon="-71.13907600173414">
        <time>2019-03-07T04:33:31Z</time>
      </trkpt>
      <trkpt lat="-31.96694862825868" lon="-71.13903548822242">
        <time>2019-03-07T04:33:31Z</time>
      </trkpt>
      <trkpt lat="-31.96675006308144" lon="-71.13895238055955">
        <time>2019-03-07T04:33:31Z</time>
      </trkpt>
      <trkpt lat="-31.96650063893696" lon="-71.13876272112925">
        <time>2019-03-07T04:33:31Z</time>
      </trkpt>
      <trkpt lat="-31.96616790058992" lon="-71.13844491191395">
        <time>2019-03-07T04:33:31Z</time>
      </trkpt>
      <trkpt lat="-31.96589583272438" lon="-71.13821768153611">
        <time>2019-03-07T04:33:31Z</time>
      </trkpt>
      <trkpt lat="-31.96555185855568" lon="-71.13791675508958">
        <time>2019-03-07T04:33:31Z</time>
      </trkpt>
      <trkpt lat="-31.96533918998772" lon="-71.13779901490648">
        <time>2019-03-07T04:33:31Z</time>
      </trkpt>
      <trkpt lat="-31.96514989974768" lon="-71.13771953576178">
        <time>2019-03-07T04:33:31Z</time>
      </trkpt>
      <trkpt lat="-31.96488254899029" lon="-71.13763310279438">
        <time>2019-03-07T04:33:31Z</time>
      </trkpt>
      <trkpt lat="-31.96460692477318" lon="-71.13759327415409">
        <time>2019-03-07T04:33:31Z</time>
      </trkpt>
      <trkpt lat="-31.96439620137404" lon="-71.13758316859361">
        <time>2019-03-07T04:33:31Z</time>
      </trkpt>
      <trkpt lat="-31.96415386195701" lon="-71.137595100151">
        <time>2019-03-07T04:33:31Z</time>
      </trkpt>
      <trkpt lat="-31.96389691007082" lon="-71.13764344637851">
        <time>2019-03-07T04:33:31Z</time>
      </trkpt>
      <trkpt lat="-31.96357401666462" lon="-71.13774434383036">
        <time>2019-03-07T04:33:31Z</time>
      </trkpt>
      <trkpt lat="-31.96303161727056" lon="-71.13796407046893">
        <time>2019-03-07T04:33:31Z</time>
      </trkpt>
      <trkpt lat="-31.96246288545148" lon="-71.1381837636003">
        <time>2019-03-07T04:33:31Z</time>
      </trkpt>
      <trkpt lat="-31.96190175091145" lon="-71.13840873184576">
        <time>2019-03-07T04:33:31Z</time>
      </trkpt>
      <trkpt lat="-31.96180614411421" lon="-71.13843892062181">
        <time>2019-03-07T04:33:31Z</time>
      </trkpt>
      <trkpt lat="-31.96171857139554" lon="-71.13846363657669">
        <time>2019-03-07T04:33:31Z</time>
      </trkpt>
      <trkpt lat="-31.96166732166657" lon="-71.13847050093996">
        <time>2019-03-07T04:33:31Z</time>
      </trkpt>
      <trkpt lat="-31.96155622550301" lon="-71.13847189857493">
        <time>2019-03-07T04:33:31Z</time>
      </trkpt>
      <trkpt lat="-31.96119510397544" lon="-71.13841208788008">
        <time>2019-03-07T04:33:31Z</time>
      </trkpt>
      <trkpt lat="-31.95993994938402" lon="-71.13804833446268">
        <time>2019-03-07T04:33:31Z</time>
      </trkpt>
      <trkpt lat="-31.95975354290815" lon="-71.1379916492313">
        <time>2019-03-07T04:33:31Z</time>
      </trkpt>
      <trkpt lat="-31.95967442810388" lon="-71.13796898236625">
        <time>2019-03-07T04:33:31Z</time>
      </trkpt>
      <trkpt lat="-31.95943166700284" lon="-71.1379231144504">
        <time>2019-03-07T04:33:31Z</time>
      </trkpt>
      <trkpt lat="-31.95924153877888" lon="-71.13790481946914">
        <time>2019-03-07T04:33:31Z</time>
      </trkpt>
      <trkpt lat="-31.95880415884651" lon="-71.13788531803078">
        <time>2019-03-07T04:33:31Z</time>
      </trkpt>
      <trkpt lat="-31.95866744711032" lon="-71.13786642623045">
        <time>2019-03-07T04:33:31Z</time>
      </trkpt>
      <trkpt lat="-31.95847032821233" lon="-71.13783781862634">
        <time>2019-03-07T04:33:31Z</time>
      </trkpt>
      <trkpt lat="-31.95834873548261" lon="-71.13781504736653">
        <time>2019-03-07T04:33:31Z</time>
      </trkpt>
      <trkpt lat="-31.95749745537399" lon="-71.1375654074255">
        <time>2019-03-07T04:33:31Z</time>
      </trkpt>
      <trkpt lat="-31.95732556504466" lon="-71.13752879577589">
        <time>2019-03-07T04:33:31Z</time>
      </trkpt>
      <trkpt lat="-31.95723855950174" lon="-71.13751317752423">
        <time>2019-03-07T04:33:31Z</time>
      </trkpt>
      <trkpt lat="-31.95594025190932" lon="-71.1375642871089">
        <time>2019-03-07T04:33:31Z</time>
      </trkpt>
      <trkpt lat="-31.95460788927741" lon="-71.13758184276239">
        <time>2019-03-07T04:33:31Z</time>
      </trkpt>
      <trkpt lat="-31.95419429067825" lon="-71.1376032242386">
        <time>2019-03-07T04:33:31Z</time>
      </trkpt>
      <trkpt lat="-31.95413606518587" lon="-71.13759892948184">
        <time>2019-03-07T04:33:31Z</time>
      </trkpt>
      <trkpt lat="-31.95406452976281" lon="-71.13759569261272">
        <time>2019-03-07T04:33:31Z</time>
      </trkpt>
      <trkpt lat="-31.95388519909163" lon="-71.13757515447142">
        <time>2019-03-07T04:33:31Z</time>
      </trkpt>
      <trkpt lat="-31.95375565914623" lon="-71.13754626453768">
        <time>2019-03-07T04:33:31Z</time>
      </trkpt>
      <trkpt lat="-31.95362338696643" lon="-71.1375012592452">
        <time>2019-03-07T04:33:31Z</time>
      </trkpt>
      <trkpt lat="-31.95346262370969" lon="-71.13740419948698">
        <time>2019-03-07T04:33:31Z</time>
      </trkpt>
      <trkpt lat="-31.95325342431936" lon="-71.1372229052693">
        <time>2019-03-07T04:33:31Z</time>
      </trkpt>
      <trkpt lat="-31.95306995276447" lon="-71.1369965589998">
        <time>2019-03-07T04:33:31Z</time>
      </trkpt>
      <trkpt lat="-31.95267085941056" lon="-71.13640890655188">
        <time>2019-03-07T04:33:31Z</time>
      </trkpt>
      <trkpt lat="-31.95248797101931" lon="-71.13613282072429">
        <time>2019-03-07T04:33:31Z</time>
      </trkpt>
      <trkpt lat="-31.9520897583971" lon="-71.13559047978362">
        <time>2019-03-07T04:33:31Z</time>
      </trkpt>
      <trkpt lat="-31.95197248021653" lon="-71.13546453001575">
        <time>2019-03-07T04:33:31Z</time>
      </trkpt>
      <trkpt lat="-31.95186598046811" lon="-71.13537134609662">
        <time>2019-03-07T04:33:31Z</time>
      </trkpt>
      <trkpt lat="-31.95175592237213" lon="-71.13529830449633">
        <time>2019-03-07T04:33:31Z</time>
      </trkpt>
      <trkpt lat="-31.95156969595507" lon="-71.13520510929784">
        <time>2019-03-07T04:33:31Z</time>
      </trkpt>
      <trkpt lat="-31.95146974754374" lon="-71.13517120206109">
        <time>2019-03-07T04:33:31Z</time>
      </trkpt>
      <trkpt lat="-31.95125459181692" lon="-71.13513143844835">
        <time>2019-03-07T04:33:31Z</time>
      </trkpt>
      <trkpt lat="-31.95107477513126" lon="-71.13513013241087">
        <time>2019-03-07T04:33:31Z</time>
      </trkpt>
      <trkpt lat="-31.9508100140227" lon="-71.13514659596079">
        <time>2019-03-07T04:33:31Z</time>
      </trkpt>
      <trkpt lat="-31.95004700523724" lon="-71.13521701387592">
        <time>2019-03-07T04:33:31Z</time>
      </trkpt>
      <trkpt lat="-31.94928867996251" lon="-71.13529979456003">
        <time>2019-03-07T04:33:31Z</time>
      </trkpt>
      <trkpt lat="-31.94890043612353" lon="-71.13533907414808">
        <time>2019-03-07T04:33:31Z</time>
      </trkpt>
      <trkpt lat="-31.94864780338957" lon="-71.13535863882174">
        <time>2019-03-07T04:33:31Z</time>
      </trkpt>
      <trkpt lat="-31.94837391614781" lon="-71.13537407318808">
        <time>2019-03-07T04:33:31Z</time>
      </trkpt>
      <trkpt lat="-31.94823524367062" lon="-71.13536325563864">
        <time>2019-03-07T04:33:31Z</time>
      </trkpt>
      <trkpt lat="-31.94803861518023" lon="-71.13533065597198">
        <time>2019-03-07T04:33:31Z</time>
      </trkpt>
      <trkpt lat="-31.94786321690765" lon="-71.13529558283412">
        <time>2019-03-07T04:33:31Z</time>
      </trkpt>
      <trkpt lat="-31.94742463073428" lon="-71.13517832525602">
        <time>2019-03-07T04:33:31Z</time>
      </trkpt>
      <trkpt lat="-31.94718469637224" lon="-71.135120439312">
        <time>2019-03-07T04:33:31Z</time>
      </trkpt>
      <trkpt lat="-31.94625810306745" lon="-71.13490579236634">
        <time>2019-03-07T04:33:31Z</time>
      </trkpt>
      <trkpt lat="-31.94565472682047" lon="-71.13475756324516">
        <time>2019-03-07T04:33:31Z</time>
      </trkpt>
      <trkpt lat="-31.9455492108234" lon="-71.1347312921675">
        <time>2019-03-07T04:33:31Z</time>
      </trkpt>
      <trkpt lat="-31.94543031513402" lon="-71.13468855499588">
        <time>2019-03-07T04:33:31Z</time>
      </trkpt>
      <trkpt lat="-31.94528782149877" lon="-71.13463261117984">
        <time>2019-03-07T04:33:31Z</time>
      </trkpt>
      <trkpt lat="-31.94506126017267" lon="-71.13452830866596">
        <time>2019-03-07T04:33:31Z</time>
      </trkpt>
      <trkpt lat="-31.94486072241352" lon="-71.13443360121235">
        <time>2019-03-07T04:33:31Z</time>
      </trkpt>
      <trkpt lat="-31.94474409222802" lon="-71.13436537153801">
        <time>2019-03-07T04:33:31Z</time>
      </trkpt>
      <trkpt lat="-31.94459488713914" lon="-71.13427005267793">
        <time>2019-03-07T04:33:31Z</time>
      </trkpt>
      <trkpt lat="-31.94447362895978" lon="-71.13417561216716">
        <time>2019-03-07T04:33:31Z</time>
      </trkpt>
      <trkpt lat="-31.94430007928763" lon="-71.13401900609973">
        <time>2019-03-07T04:33:31Z</time>
      </trkpt>
      <trkpt lat="-31.94381365367371" lon="-71.13357545886699">
        <time>2019-03-07T04:33:31Z</time>
      </trkpt>
      <trkpt lat="-31.9431506573624" lon="-71.13297659150567">
        <time>2019-03-07T04:33:31Z</time>
      </trkpt>
      <trkpt lat="-31.9423880516939" lon="-71.13226629945957">
        <time>2019-03-07T04:33:31Z</time>
      </trkpt>
      <trkpt lat="-31.94173214870186" lon="-71.13165942043925">
        <time>2019-03-07T04:33:31Z</time>
      </trkpt>
      <trkpt lat="-31.94159000459353" lon="-71.1315397398288">
        <time>2019-03-07T04:33:31Z</time>
      </trkpt>
      <trkpt lat="-31.94114268818684" lon="-71.13112899030321">
        <time>2019-03-07T04:33:31Z</time>
      </trkpt>
      <trkpt lat="-31.94100107172811" lon="-71.13099662968428">
        <time>2019-03-07T04:33:31Z</time>
      </trkpt>
      <trkpt lat="-31.94086741179865" lon="-71.13087156244838">
        <time>2019-03-07T04:33:31Z</time>
      </trkpt>
      <trkpt lat="-31.94081612785426" lon="-71.13081894885738">
        <time>2019-03-07T04:33:31Z</time>
      </trkpt>
      <trkpt lat="-31.9407830445082" lon="-71.13078686150719">
        <time>2019-03-07T04:33:31Z</time>
      </trkpt>
      <trkpt lat="-31.94076352848542" lon="-71.13077168434636">
        <time>2019-03-07T04:33:31Z</time>
      </trkpt>
      <trkpt lat="-31.94070606294119" lon="-71.13073955347699">
        <time>2019-03-07T04:33:31Z</time>
      </trkpt>
      <trkpt lat="-31.94056355824722" lon="-71.13068151581979">
        <time>2019-03-07T04:33:31Z</time>
      </trkpt>
      <trkpt lat="-31.94044502608781" lon="-71.13065346446655">
        <time>2019-03-07T04:33:31Z</time>
      </trkpt>
      <trkpt lat="-31.94030939237355" lon="-71.13063536507646">
        <time>2019-03-07T04:33:31Z</time>
      </trkpt>
      <trkpt lat="-31.9401602335027" lon="-71.13064391321704">
        <time>2019-03-07T04:33:31Z</time>
      </trkpt>
      <trkpt lat="-31.94004753484126" lon="-71.13067189279511">
        <time>2019-03-07T04:33:31Z</time>
      </trkpt>
      <trkpt lat="-31.93995322274638" lon="-71.13071219343495">
        <time>2019-03-07T04:33:31Z</time>
      </trkpt>
      <trkpt lat="-31.93984933362715" lon="-71.13077456586659">
        <time>2019-03-07T04:33:31Z</time>
      </trkpt>
      <trkpt lat="-31.93974160057474" lon="-71.13086519417432">
        <time>2019-03-07T04:33:31Z</time>
      </trkpt>
      <trkpt lat="-31.93966633249453" lon="-71.13094680725517">
        <time>2019-03-07T04:33:31Z</time>
      </trkpt>
      <trkpt lat="-31.9395601270519" lon="-71.13108565157786">
        <time>2019-03-07T04:33:31Z</time>
      </trkpt>
      <trkpt lat="-31.93913418013181" lon="-71.13167379587846">
        <time>2019-03-07T04:33:31Z</time>
      </trkpt>
      <trkpt lat="-31.93867930566047" lon="-71.13230995799455">
        <time>2019-03-07T04:33:31Z</time>
      </trkpt>
      <trkpt lat="-31.93819823111904" lon="-71.13298138975414">
        <time>2019-03-07T04:33:31Z</time>
      </trkpt>
      <trkpt lat="-31.9378413833282" lon="-71.13345901986664">
        <time>2019-03-07T04:33:31Z</time>
      </trkpt>
      <trkpt lat="-31.93776437776999" lon="-71.13354720783394">
        <time>2019-03-07T04:33:31Z</time>
      </trkpt>
      <trkpt lat="-31.93769652850718" lon="-71.13361835086549">
        <time>2019-03-07T04:33:31Z</time>
      </trkpt>
      <trkpt lat="-31.93761417413392" lon="-71.13369344242479">
        <time>2019-03-07T04:33:31Z</time>
      </trkpt>
      <trkpt lat="-31.93745818372909" lon="-71.13381426497247">
        <time>2019-03-07T04:33:31Z</time>
      </trkpt>
      <trkpt lat="-31.93730629048133" lon="-71.13391957009505">
        <time>2019-03-07T04:33:31Z</time>
      </trkpt>
      <trkpt lat="-31.93718167612801" lon="-71.13399103951024">
        <time>2019-03-07T04:33:31Z</time>
      </trkpt>
      <trkpt lat="-31.93707776279829" lon="-71.13403587632458">
        <time>2019-03-07T04:33:31Z</time>
      </trkpt>
      <trkpt lat="-31.93692217813106" lon="-71.13408462123992">
        <time>2019-03-07T04:33:31Z</time>
      </trkpt>
      <trkpt lat="-31.93679454018858" lon="-71.13410713634856">
        <time>2019-03-07T04:33:31Z</time>
      </trkpt>
      <trkpt lat="-31.9365349515186" lon="-71.13413209314653">
        <time>2019-03-07T04:33:31Z</time>
      </trkpt>
      <trkpt lat="-32.11926138777687" lon="-71.49266175008921">
        <time>2019-03-07T04:33:31Z</time>
      </trkpt>
      <trkpt lat="-32.11936680379696" lon="-71.49253294531502">
        <time>2019-03-07T04:33:31Z</time>
      </trkpt>
      <trkpt lat="-32.11938953456649" lon="-71.49249680344313">
        <time>2019-03-07T04:33:31Z</time>
      </trkpt>
      <trkpt lat="-32.1194185685283" lon="-71.49244086651066">
        <time>2019-03-07T04:33:31Z</time>
      </trkpt>
      <trkpt lat="-32.11943356976484" lon="-71.49237529171515">
        <time>2019-03-07T04:33:31Z</time>
      </trkpt>
      <trkpt lat="-32.11943939310172" lon="-71.49231386959559">
        <time>2019-03-07T04:33:31Z</time>
      </trkpt>
      <trkpt lat="-32.11943168548112" lon="-71.49225422000524">
        <time>2019-03-07T04:33:31Z</time>
      </trkpt>
      <trkpt lat="-32.11941523379954" lon="-71.49220210645726">
        <time>2019-03-07T04:33:31Z</time>
      </trkpt>
      <trkpt lat="-32.11910213780637" lon="-71.49136714188319">
        <time>2019-03-07T04:33:31Z</time>
      </trkpt>
      <trkpt lat="-32.11889083388066" lon="-71.4907132565491">
        <time>2019-03-07T04:33:31Z</time>
      </trkpt>
      <trkpt lat="-32.11887147545308" lon="-71.4906288043548">
        <time>2019-03-07T04:33:31Z</time>
      </trkpt>
      <trkpt lat="-32.11879008030275" lon="-71.49006002309284">
        <time>2019-03-07T04:33:31Z</time>
      </trkpt>
      <trkpt lat="-32.11876818433023" lon="-71.4899443546321">
        <time>2019-03-07T04:33:31Z</time>
      </trkpt>
      <trkpt lat="-32.11873504009112" lon="-71.4897987748864">
        <time>2019-03-07T04:33:31Z</time>
      </trkpt>
      <trkpt lat="-32.11870317527592" lon="-71.48968330087455">
        <time>2019-03-07T04:33:31Z</time>
      </trkpt>
      <trkpt lat="-32.11866489632678" lon="-71.48960470945215">
        <time>2019-03-07T04:33:31Z</time>
      </trkpt>
      <trkpt lat="-32.11859175327875" lon="-71.4895270976227">
        <time>2019-03-07T04:33:31Z</time>
      </trkpt>
      <trkpt lat="-32.1182197860834" lon="-71.48916752283917">
        <time>2019-03-07T04:33:31Z</time>
      </trkpt>
      <trkpt lat="-32.11753088573965" lon="-71.48819707534975">
        <time>2019-03-07T04:33:31Z</time>
      </trkpt>
      <trkpt lat="-32.11747071646956" lon="-71.48809279570737">
        <time>2019-03-07T04:33:31Z</time>
      </trkpt>
      <trkpt lat="-32.1174310006683" lon="-71.48800817124059">
        <time>2019-03-07T04:33:31Z</time>
      </trkpt>
      <trkpt lat="-32.11740707677409" lon="-71.48793025463839">
        <time>2019-03-07T04:33:31Z</time>
      </trkpt>
      <trkpt lat="-32.1173945456631" lon="-71.48784522029779">
        <time>2019-03-07T04:33:31Z</time>
      </trkpt>
      <trkpt lat="-32.11738739613893" lon="-71.48773990020351">
        <time>2019-03-07T04:33:31Z</time>
      </trkpt>
      <trkpt lat="-32.11740108182134" lon="-71.48758411173581">
        <time>2019-03-07T04:33:31Z</time>
      </trkpt>
      <trkpt lat="-32.11760016255621" lon="-71.4866262122403">
        <time>2019-03-07T04:33:31Z</time>
      </trkpt>
      <trkpt lat="-32.11780575371928" lon="-71.48558653697539">
        <time>2019-03-07T04:33:31Z</time>
      </trkpt>
      <trkpt lat="-32.11783708183544" lon="-71.48535741662522">
        <time>2019-03-07T04:33:31Z</time>
      </trkpt>
      <trkpt lat="-32.11784214267085" lon="-71.48528972319083">
        <time>2019-03-07T04:33:31Z</time>
      </trkpt>
      <trkpt lat="-32.11784115383284" lon="-71.48479621421497">
        <time>2019-03-07T04:33:31Z</time>
      </trkpt>
      <trkpt lat="-32.11783352291593" lon="-71.484307057058">
        <time>2019-03-07T04:33:31Z</time>
      </trkpt>
      <trkpt lat="-32.11783897602403" lon="-71.48389881723863">
        <time>2019-03-07T04:33:31Z</time>
      </trkpt>
      <trkpt lat="-32.11784717144817" lon="-71.48376701468155">
        <time>2019-03-07T04:33:31Z</time>
      </trkpt>
      <trkpt lat="-32.11785831864058" lon="-71.48370770723562">
        <time>2019-03-07T04:33:31Z</time>
      </trkpt>
      <trkpt lat="-32.11789562712865" lon="-71.48352920447093">
        <time>2019-03-07T04:33:31Z</time>
      </trkpt>
      <trkpt lat="-32.11800612593234" lon="-71.48309212788153">
        <time>2019-03-07T04:33:31Z</time>
      </trkpt>
      <trkpt lat="-32.11810277716663" lon="-71.48280342083285">
        <time>2019-03-07T04:33:31Z</time>
      </trkpt>
      <trkpt lat="-32.11830181268982" lon="-71.48216182244644">
        <time>2019-03-07T04:33:31Z</time>
      </trkpt>
      <trkpt lat="-32.11860809626014" lon="-71.48144781863823">
        <time>2019-03-07T04:33:31Z</time>
      </trkpt>
      <trkpt lat="-32.1186412111655" lon="-71.48137938970257">
        <time>2019-03-07T04:33:31Z</time>
      </trkpt>
      <trkpt lat="-32.11912461179399" lon="-71.48047715828564">
        <time>2019-03-07T04:33:31Z</time>
      </trkpt>
      <trkpt lat="-32.11914310172454" lon="-71.48043296687797">
        <time>2019-03-07T04:33:31Z</time>
      </trkpt>
      <trkpt lat="-32.11917495088567" lon="-71.48035013739225">
        <time>2019-03-07T04:33:31Z</time>
      </trkpt>
      <trkpt lat="-32.11920412475389" lon="-71.48025784483268">
        <time>2019-03-07T04:33:31Z</time>
      </trkpt>
      <trkpt lat="-32.1192158897339" lon="-71.48019593808471">
        <time>2019-03-07T04:33:31Z</time>
      </trkpt>
      <trkpt lat="-32.11922775640309" lon="-71.4800852511777">
        <time>2019-03-07T04:33:31Z</time>
      </trkpt>
      <trkpt lat="-32.11918044958418" lon="-71.4792454215257">
        <time>2019-03-07T04:33:31Z</time>
      </trkpt>
      <trkpt lat="-32.11918027962381" lon="-71.47918743684296">
        <time>2019-03-07T04:33:31Z</time>
      </trkpt>
      <trkpt lat="-32.11918358329059" lon="-71.47911443988353">
        <time>2019-03-07T04:33:31Z</time>
      </trkpt>
      <trkpt lat="-32.1191911411562" lon="-71.47899778568986">
        <time>2019-03-07T04:33:31Z</time>
      </trkpt>
      <trkpt lat="-32.11920554773802" lon="-71.4788946366878">
        <time>2019-03-07T04:33:31Z</time>
      </trkpt>
      <trkpt lat="-32.11923733046898" lon="-71.47875246488823">
        <time>2019-03-07T04:33:31Z</time>
      </trkpt>
      <trkpt lat="-32.11927907689579" lon="-71.47865143955349">
        <time>2019-03-07T04:33:31Z</time>
      </trkpt>
      <trkpt lat="-32.11956789645998" lon="-71.47797866718379">
        <time>2019-03-07T04:33:31Z</time>
      </trkpt>
      <trkpt lat="-32.11959885805536" lon="-71.47788174661108">
        <time>2019-03-07T04:33:31Z</time>
      </trkpt>
      <trkpt lat="-32.11961250920926" lon="-71.4778054649103">
        <time>2019-03-07T04:33:31Z</time>
      </trkpt>
      <trkpt lat="-32.11962439456771" lon="-71.47772328446143">
        <time>2019-03-07T04:33:31Z</time>
      </trkpt>
      <trkpt lat="-32.11964000748331" lon="-71.47751563107077">
        <time>2019-03-07T04:33:31Z</time>
      </trkpt>
      <trkpt lat="-32.11964738319311" lon="-71.47666987173626">
        <time>2019-03-07T04:33:31Z</time>
      </trkpt>
      <trkpt lat="-32.11964366754156" lon="-71.47661312134045">
        <time>2019-03-07T04:33:31Z</time>
      </trkpt>
      <trkpt lat="-32.1196255217223" lon="-71.47651872155258">
        <time>2019-03-07T04:33:31Z</time>
      </trkpt>
      <trkpt lat="-32.11961076531001" lon="-71.47643503655763">
        <time>2019-03-07T04:33:31Z</time>
      </trkpt>
      <trkpt lat="-32.11959226891162" lon="-71.47635731363077">
        <time>2019-03-07T04:33:31Z</time>
      </trkpt>
      <trkpt lat="-32.11956571176756" lon="-71.47625482068247">
        <time>2019-03-07T04:33:31Z</time>
      </trkpt>
      <trkpt lat="-32.11946879183383" lon="-71.4759288847482">
        <time>2019-03-07T04:33:31Z</time>
      </trkpt>
      <trkpt lat="-32.11942517027536" lon="-71.47575265551987">
        <time>2019-03-07T04:33:31Z</time>
      </trkpt>
      <trkpt lat="-32.11941168097465" lon="-71.47564528760154">
        <time>2019-03-07T04:33:31Z</time>
      </trkpt>
      <trkpt lat="-32.11939998239479" lon="-71.47556540130012">
        <time>2019-03-07T04:33:31Z</time>
      </trkpt>
      <trkpt lat="-32.11940710746904" lon="-71.47548722170959">
        <time>2019-03-07T04:33:31Z</time>
      </trkpt>
      <trkpt lat="-32.11942214291498" lon="-71.47538697840062">
        <time>2019-03-07T04:33:31Z</time>
      </trkpt>
      <trkpt lat="-32.11945507138034" lon="-71.47527344289938">
        <time>2019-03-07T04:33:31Z</time>
      </trkpt>
      <trkpt lat="-32.1195256850569" lon="-71.47512080518169">
        <time>2019-03-07T04:33:31Z</time>
      </trkpt>
      <trkpt lat="-32.11957464601528" lon="-71.47503033549099">
        <time>2019-03-07T04:33:31Z</time>
      </trkpt>
      <trkpt lat="-32.11978244057867" lon="-71.47467487856203">
        <time>2019-03-07T04:33:31Z</time>
      </trkpt>
      <trkpt lat="-32.12028794108844" lon="-71.47381786109345">
        <time>2019-03-07T04:33:31Z</time>
      </trkpt>
      <trkpt lat="-32.12038128930013" lon="-71.47363362900919">
        <time>2019-03-07T04:33:31Z</time>
      </trkpt>
      <trkpt lat="-32.12041226034454" lon="-71.47357705454964">
        <time>2019-03-07T04:33:31Z</time>
      </trkpt>
      <trkpt lat="-32.12042865253564" lon="-71.47353911074815">
        <time>2019-03-07T04:33:31Z</time>
      </trkpt>
      <trkpt lat="-32.12044427500748" lon="-71.47349578649175">
        <time>2019-03-07T04:33:31Z</time>
      </trkpt>
      <trkpt lat="-32.12045778577338" lon="-71.47345230512764">
        <time>2019-03-07T04:33:31Z</time>
      </trkpt>
      <trkpt lat="-32.1204732869034" lon="-71.47340149833022">
        <time>2019-03-07T04:33:31Z</time>
      </trkpt>
      <trkpt lat="-32.12048968059728" lon="-71.47333409136859">
        <time>2019-03-07T04:33:31Z</time>
      </trkpt>
      <trkpt lat="-32.12053252598083" lon="-71.47307720316864">
        <time>2019-03-07T04:33:31Z</time>
      </trkpt>
      <trkpt lat="-32.12053834082292" lon="-71.47300573649326">
        <time>2019-03-07T04:33:31Z</time>
      </trkpt>
      <trkpt lat="-32.12054083749235" lon="-71.47292190259037">
        <time>2019-03-07T04:33:31Z</time>
      </trkpt>
      <trkpt lat="-32.12053610287357" lon="-71.47285015423428">
        <time>2019-03-07T04:33:31Z</time>
      </trkpt>
      <trkpt lat="-32.12043182923684" lon="-71.47218403676395">
        <time>2019-03-07T04:33:31Z</time>
      </trkpt>
      <trkpt lat="-32.12031902244591" lon="-71.47159105448385">
        <time>2019-03-07T04:33:31Z</time>
      </trkpt>
      <trkpt lat="-32.12029511437491" lon="-71.47136552695191">
        <time>2019-03-07T04:33:31Z</time>
      </trkpt>
      <trkpt lat="-32.12030491473801" lon="-71.4711684354141">
        <time>2019-03-07T04:33:31Z</time>
      </trkpt>
      <trkpt lat="-32.12031974209882" lon="-71.47106183163956">
        <time>2019-03-07T04:33:31Z</time>
      </trkpt>
      <trkpt lat="-32.12035188008156" lon="-71.47091526060036">
        <time>2019-03-07T04:33:31Z</time>
      </trkpt>
      <trkpt lat="-32.12037280011483" lon="-71.47084083823974">
        <time>2019-03-07T04:33:31Z</time>
      </trkpt>
      <trkpt lat="-32.12041280873866" lon="-71.47072950397684">
        <time>2019-03-07T04:33:31Z</time>
      </trkpt>
      <trkpt lat="-32.12046400335171" lon="-71.47063599984999">
        <time>2019-03-07T04:33:31Z</time>
      </trkpt>
      <trkpt lat="-32.12059804848739" lon="-71.47043182540971">
        <time>2019-03-07T04:33:31Z</time>
      </trkpt>
      <trkpt lat="-32.12070784566324" lon="-71.47032175838015">
        <time>2019-03-07T04:33:31Z</time>
      </trkpt>
      <trkpt lat="-32.12085110462061" lon="-71.47020316744522">
        <time>2019-03-07T04:33:31Z</time>
      </trkpt>
      <trkpt lat="-32.12094530669513" lon="-71.47013862362059">
        <time>2019-03-07T04:33:31Z</time>
      </trkpt>
      <trkpt lat="-32.12103226210574" lon="-71.47009164435991">
        <time>2019-03-07T04:33:31Z</time>
      </trkpt>
      <trkpt lat="-32.12166736436963" lon="-71.46979009461869">
        <time>2019-03-07T04:33:31Z</time>
      </trkpt>
      <trkpt lat="-32.12210786751874" lon="-71.46957540968315">
        <time>2019-03-07T04:33:31Z</time>
      </trkpt>
      <trkpt lat="-32.12217857151123" lon="-71.46952214707916">
        <time>2019-03-07T04:33:31Z</time>
      </trkpt>
      <trkpt lat="-32.12223146649874" lon="-71.46944872496415">
        <time>2019-03-07T04:33:31Z</time>
      </trkpt>
      <trkpt lat="-32.12226728692808" lon="-71.4693781097845">
        <time>2019-03-07T04:33:31Z</time>
      </trkpt>
      <trkpt lat="-32.12228515710243" lon="-71.46931551286924">
        <time>2019-03-07T04:33:31Z</time>
      </trkpt>
      <trkpt lat="-32.12229284019961" lon="-71.46924979539978">
        <time>2019-03-07T04:33:31Z</time>
      </trkpt>
      <trkpt lat="-32.12228000658578" lon="-71.46914665729636">
        <time>2019-03-07T04:33:31Z</time>
      </trkpt>
      <trkpt lat="-32.1221027731273" lon="-71.46834561172143">
        <time>2019-03-07T04:33:31Z</time>
      </trkpt>
      <trkpt lat="-32.12208210770903" lon="-71.46826016920187">
        <time>2019-03-07T04:33:31Z</time>
      </trkpt>
      <trkpt lat="-32.12204540397177" lon="-71.46815223192034">
        <time>2019-03-07T04:33:31Z</time>
      </trkpt>
      <trkpt lat="-32.12200388084305" lon="-71.46805467872783">
        <time>2019-03-07T04:33:31Z</time>
      </trkpt>
      <trkpt lat="-32.1219534689666" lon="-71.46796597726953">
        <time>2019-03-07T04:33:31Z</time>
      </trkpt>
      <trkpt lat="-32.12133441494331" lon="-71.46719702206892">
        <time>2019-03-07T04:33:31Z</time>
      </trkpt>
      <trkpt lat="-32.12112332536385" lon="-71.46691989573141">
        <time>2019-03-07T04:33:31Z</time>
      </trkpt>
      <trkpt lat="-32.12104204752595" lon="-71.46676478744236">
        <time>2019-03-07T04:33:31Z</time>
      </trkpt>
      <trkpt lat="-32.12100986016983" lon="-71.46666594034019">
        <time>2019-03-07T04:33:31Z</time>
      </trkpt>
      <trkpt lat="-32.12099174526771" lon="-71.46653794081264">
        <time>2019-03-07T04:33:31Z</time>
      </trkpt>
      <trkpt lat="-32.1209955317597" lon="-71.46631909644501">
        <time>2019-03-07T04:33:31Z</time>
      </trkpt>
      <trkpt lat="-32.12103255266046" lon="-71.46605757961355">
        <time>2019-03-07T04:33:31Z</time>
      </trkpt>
      <trkpt lat="-32.12106605866678" lon="-71.46584695794159">
        <time>2019-03-07T04:33:31Z</time>
      </trkpt>
      <trkpt lat="-32.12107851882807" lon="-71.46570325659367">
        <time>2019-03-07T04:33:31Z</time>
      </trkpt>
      <trkpt lat="-32.12107494701772" lon="-71.4656141735082">
        <time>2019-03-07T04:33:31Z</time>
      </trkpt>
      <trkpt lat="-32.12106393187546" lon="-71.46549792089544">
        <time>2019-03-07T04:33:31Z</time>
      </trkpt>
      <trkpt lat="-32.12101323905912" lon="-71.46505645068666">
        <time>2019-03-07T04:33:31Z</time>
      </trkpt>
      <trkpt lat="-32.12100380655944" lon="-71.46482020975969">
        <time>2019-03-07T04:33:31Z</time>
      </trkpt>
      <trkpt lat="-32.12101129411386" lon="-71.46464800542422">
        <time>2019-03-07T04:33:31Z</time>
      </trkpt>
      <trkpt lat="-32.12104053768453" lon="-71.46440157069706">
        <time>2019-03-07T04:33:31Z</time>
      </trkpt>
      <trkpt lat="-32.12112218613495" lon="-71.46402346547085">
        <time>2019-03-07T04:33:31Z</time>
      </trkpt>
      <trkpt lat="-32.12115791888665" lon="-71.46390714105998">
        <time>2019-03-07T04:33:31Z</time>
      </trkpt>
      <trkpt lat="-32.1212612746324" lon="-71.46357862795293">
        <time>2019-03-07T04:33:31Z</time>
      </trkpt>
      <trkpt lat="-32.12131698809381" lon="-71.4633639075111">
        <time>2019-03-07T04:33:31Z</time>
      </trkpt>
      <trkpt lat="-32.12133749363841" lon="-71.46323825276814">
        <time>2019-03-07T04:33:31Z</time>
      </trkpt>
      <trkpt lat="-32.12136695854926" lon="-71.46302477868895">
        <time>2019-03-07T04:33:31Z</time>
      </trkpt>
      <trkpt lat="-32.12136990302922" lon="-71.46294127386994">
        <time>2019-03-07T04:33:31Z</time>
      </trkpt>
      <trkpt lat="-32.12135108140598" lon="-71.46206520887355">
        <time>2019-03-07T04:33:31Z</time>
      </trkpt>
      <trkpt lat="-32.12133275930437" lon="-71.46121501775613">
        <time>2019-03-07T04:33:31Z</time>
      </trkpt>
      <trkpt lat="-32.12131974499125" lon="-71.46105486702915">
        <time>2019-03-07T04:33:31Z</time>
      </trkpt>
      <trkpt lat="-32.12130346104261" lon="-71.46086727756904">
        <time>2019-03-07T04:33:31Z</time>
      </trkpt>
      <trkpt lat="-32.1212689328886" lon="-71.46069520086213">
        <time>2019-03-07T04:33:31Z</time>
      </trkpt>
      <trkpt lat="-32.1210055386068" lon="-71.45948195743854">
        <time>2019-03-07T04:33:31Z</time>
      </trkpt>
      <trkpt lat="-32.12097265969268" lon="-71.45933015402592">
        <time>2019-03-07T04:33:31Z</time>
      </trkpt>
      <trkpt lat="-32.12093885343605" lon="-71.45917514150325">
        <time>2019-03-07T04:33:31Z</time>
      </trkpt>
      <trkpt lat="-32.12074726905673" lon="-71.45832047734059">
        <time>2019-03-07T04:33:31Z</time>
      </trkpt>
      <trkpt lat="-32.12050402930922" lon="-71.45729257840053">
        <time>2019-03-07T04:33:31Z</time>
      </trkpt>
      <trkpt lat="-32.12043320984596" lon="-71.4570429625837">
        <time>2019-03-07T04:33:31Z</time>
      </trkpt>
      <trkpt lat="-32.12035246706829" lon="-71.45680031643875">
        <time>2019-03-07T04:33:31Z</time>
      </trkpt>
      <trkpt lat="-32.12028145233981" lon="-71.45664547032803">
        <time>2019-03-07T04:33:31Z</time>
      </trkpt>
      <trkpt lat="-32.11965439495665" lon="-71.45539253075667">
        <time>2019-03-07T04:33:31Z</time>
      </trkpt>
      <trkpt lat="-32.11950666956409" lon="-71.45510336555867">
        <time>2019-03-07T04:33:31Z</time>
      </trkpt>
      <trkpt lat="-32.11943901884089" lon="-71.45499054052604">
        <time>2019-03-07T04:33:31Z</time>
      </trkpt>
      <trkpt lat="-32.11938576213493" lon="-71.45491749396393">
        <time>2019-03-07T04:33:31Z</time>
      </trkpt>
      <trkpt lat="-32.11892026738863" lon="-71.45437089942794">
        <time>2019-03-07T04:33:31Z</time>
      </trkpt>
      <trkpt lat="-32.1186226558942" lon="-71.45403386104505">
        <time>2019-03-07T04:33:31Z</time>
      </trkpt>
      <trkpt lat="-32.11857051187248" lon="-71.45395929408851">
        <time>2019-03-07T04:33:31Z</time>
      </trkpt>
      <trkpt lat="-32.11852607982075" lon="-71.45386640390252">
        <time>2019-03-07T04:33:31Z</time>
      </trkpt>
      <trkpt lat="-32.11850463723312" lon="-71.45378660135046">
        <time>2019-03-07T04:33:31Z</time>
      </trkpt>
      <trkpt lat="-32.11836639060431" lon="-71.45307906563676">
        <time>2019-03-07T04:33:31Z</time>
      </trkpt>
      <trkpt lat="-32.11789238468918" lon="-71.45147802655369">
        <time>2019-03-07T04:33:31Z</time>
      </trkpt>
      <trkpt lat="-32.11767794381598" lon="-71.45064479446626">
        <time>2019-03-07T04:33:31Z</time>
      </trkpt>
      <trkpt lat="-32.11761204689138" lon="-71.45033963447433">
        <time>2019-03-07T04:33:31Z</time>
      </trkpt>
      <trkpt lat="-32.11760399285305" lon="-71.4502593437407">
        <time>2019-03-07T04:33:31Z</time>
      </trkpt>
      <trkpt lat="-32.11760171168326" lon="-71.45011453909309">
        <time>2019-03-07T04:33:31Z</time>
      </trkpt>
      <trkpt lat="-32.11761536317961" lon="-71.44999034374693">
        <time>2019-03-07T04:33:31Z</time>
      </trkpt>
      <trkpt lat="-32.11767469510141" lon="-71.44976865765698">
        <time>2019-03-07T04:33:31Z</time>
      </trkpt>
      <trkpt lat="-32.11778449723111" lon="-71.44946265441394">
        <time>2019-03-07T04:33:31Z</time>
      </trkpt>
      <trkpt lat="-32.11780496320937" lon="-71.4493885736302">
        <time>2019-03-07T04:33:31Z</time>
      </trkpt>
      <trkpt lat="-32.11781460156581" lon="-71.44930400228186">
        <time>2019-03-07T04:33:31Z</time>
      </trkpt>
      <trkpt lat="-32.1178190286829" lon="-71.44898846086461">
        <time>2019-03-07T04:33:31Z</time>
      </trkpt>
      <trkpt lat="-32.11784223239354" lon="-71.44880900930181">
        <time>2019-03-07T04:33:31Z</time>
      </trkpt>
      <trkpt lat="-32.11787793387528" lon="-71.44867946009346">
        <time>2019-03-07T04:33:31Z</time>
      </trkpt>
      <trkpt lat="-32.11793447465455" lon="-71.44854728164285">
        <time>2019-03-07T04:33:31Z</time>
      </trkpt>
      <trkpt lat="-32.11798950935243" lon="-71.44844974274">
        <time>2019-03-07T04:33:31Z</time>
      </trkpt>
      <trkpt lat="-32.11808061640924" lon="-71.44832435911251">
        <time>2019-03-07T04:33:31Z</time>
      </trkpt>
      <trkpt lat="-32.11818746660838" lon="-71.44820312492654">
        <time>2019-03-07T04:33:31Z</time>
      </trkpt>
      <trkpt lat="-32.1185433756003" lon="-71.44793257042267">
        <time>2019-03-07T04:33:31Z</time>
      </trkpt>
      <trkpt lat="-32.11869070847939" lon="-71.44782241890337">
        <time>2019-03-07T04:33:31Z</time>
      </trkpt>
      <trkpt lat="-32.11879218389534" lon="-71.44771063102627">
        <time>2019-03-07T04:33:31Z</time>
      </trkpt>
      <trkpt lat="-32.11884606354746" lon="-71.44762229357069">
        <time>2019-03-07T04:33:31Z</time>
      </trkpt>
      <trkpt lat="-32.11887240974262" lon="-71.44754723464419">
        <time>2019-03-07T04:33:31Z</time>
      </trkpt>
      <trkpt lat="-32.11888381866975" lon="-71.44741607835606">
        <time>2019-03-07T04:33:31Z</time>
      </trkpt>
      <trkpt lat="-32.11887983563142" lon="-71.44728175982158">
        <time>2019-03-07T04:33:31Z</time>
      </trkpt>
      <trkpt lat="-32.11887830359495" lon="-71.44717983524352">
        <time>2019-03-07T04:33:31Z</time>
      </trkpt>
      <trkpt lat="-32.1188864089948" lon="-71.44711068707672">
        <time>2019-03-07T04:33:31Z</time>
      </trkpt>
      <trkpt lat="-32.11890566843495" lon="-71.44705465472273">
        <time>2019-03-07T04:33:31Z</time>
      </trkpt>
      <trkpt lat="-32.11893695069677" lon="-71.44700296833112">
        <time>2019-03-07T04:33:31Z</time>
      </trkpt>
      <trkpt lat="-32.11897716456576" lon="-71.4469484492998">
        <time>2019-03-07T04:33:31Z</time>
      </trkpt>
      <trkpt lat="-32.11936589360879" lon="-71.44668893835407">
        <time>2019-03-07T04:33:31Z</time>
      </trkpt>
      <trkpt lat="-32.11989795345144" lon="-71.44630705523889">
        <time>2019-03-07T04:33:31Z</time>
      </trkpt>
      <trkpt lat="-32.11994767066098" lon="-71.44625148075735">
        <time>2019-03-07T04:33:31Z</time>
      </trkpt>
      <trkpt lat="-32.11998921889721" lon="-71.44618440931792">
        <time>2019-03-07T04:33:31Z</time>
      </trkpt>
      <trkpt lat="-32.12002715218704" lon="-71.44609080250535">
        <time>2019-03-07T04:33:31Z</time>
      </trkpt>
      <trkpt lat="-32.12004043189306" lon="-71.44600221094011">
        <time>2019-03-07T04:33:31Z</time>
      </trkpt>
      <trkpt lat="-32.12003106279431" lon="-71.44592544990147">
        <time>2019-03-07T04:33:31Z</time>
      </trkpt>
      <trkpt lat="-32.11999765675955" lon="-71.44581719372849">
        <time>2019-03-07T04:33:31Z</time>
      </trkpt>
      <trkpt lat="-32.11995640011662" lon="-71.44575082133254">
        <time>2019-03-07T04:33:31Z</time>
      </trkpt>
      <trkpt lat="-32.11990869077746" lon="-71.44569771578485">
        <time>2019-03-07T04:33:31Z</time>
      </trkpt>
      <trkpt lat="-32.11985880654639" lon="-71.44565978656144">
        <time>2019-03-07T04:33:31Z</time>
      </trkpt>
      <trkpt lat="-32.11980893570338" lon="-71.44563928991765">
        <time>2019-03-07T04:33:31Z</time>
      </trkpt>
      <trkpt lat="-32.11972921386512" lon="-71.44562210027279">
        <time>2019-03-07T04:33:31Z</time>
      </trkpt>
      <trkpt lat="-32.11932307131397" lon="-71.4456196039105">
        <time>2019-03-07T04:33:31Z</time>
      </trkpt>
      <trkpt lat="-32.11923110636585" lon="-71.44560695293234">
        <time>2019-03-07T04:33:31Z</time>
      </trkpt>
      <trkpt lat="-32.11915941824189" lon="-71.44557687180827">
        <time>2019-03-07T04:33:31Z</time>
      </trkpt>
      <trkpt lat="-32.11909585713985" lon="-71.44551671312486">
        <time>2019-03-07T04:33:31Z</time>
      </trkpt>
      <trkpt lat="-32.11904832792533" lon="-71.4454430458925">
        <time>2019-03-07T04:33:31Z</time>
      </trkpt>
      <trkpt lat="-32.11901077653554" lon="-71.44536401237639">
        <time>2019-03-07T04:33:31Z</time>
      </trkpt>
      <trkpt lat="-32.11898919642717" lon="-71.44527975758437">
        <time>2019-03-07T04:33:31Z</time>
      </trkpt>
      <trkpt lat="-32.11898603879629" lon="-71.44518921918034">
        <time>2019-03-07T04:33:31Z</time>
      </trkpt>
      <trkpt lat="-32.11901442017432" lon="-71.44488184594215">
        <time>2019-03-07T04:33:31Z</time>
      </trkpt>
      <trkpt lat="-32.11901211939753" lon="-71.44473315618699">
        <time>2019-03-07T04:33:31Z</time>
      </trkpt>
      <trkpt lat="-32.11900223452658" lon="-71.44460571075513">
        <time>2019-03-07T04:33:31Z</time>
      </trkpt>
      <trkpt lat="-32.11893395488499" lon="-71.4443454622598">
        <time>2019-03-07T04:33:31Z</time>
      </trkpt>
      <trkpt lat="-32.11889795176079" lon="-71.44419665315334">
        <time>2019-03-07T04:33:31Z</time>
      </trkpt>
      <trkpt lat="-32.11887415592697" lon="-71.44410074021927">
        <time>2019-03-07T04:33:31Z</time>
      </trkpt>
      <trkpt lat="-32.11886405028416" lon="-71.44397002556691">
        <time>2019-03-07T04:33:31Z</time>
      </trkpt>
      <trkpt lat="-32.11885553867688" lon="-71.44323226681901">
        <time>2019-03-07T04:33:31Z</time>
      </trkpt>
      <trkpt lat="-32.1188440139433" lon="-71.44291376166234">
        <time>2019-03-07T04:33:31Z</time>
      </trkpt>
      <trkpt lat="-32.11884628752516" lon="-71.44273117576574">
        <time>2019-03-07T04:33:31Z</time>
      </trkpt>
      <trkpt lat="-32.11886147942608" lon="-71.44246693950939">
        <time>2019-03-07T04:33:31Z</time>
      </trkpt>
      <trkpt lat="-32.11887648781528" lon="-71.44236592343695">
        <time>2019-03-07T04:33:31Z</time>
      </trkpt>
      <trkpt lat="-32.1189112506724" lon="-71.44220945120331">
        <time>2019-03-07T04:33:31Z</time>
      </trkpt>
      <trkpt lat="-32.11895810777192" lon="-71.44207533359177">
        <time>2019-03-07T04:33:31Z</time>
      </trkpt>
      <trkpt lat="-32.11911546147243" lon="-71.44171677856133">
        <time>2019-03-07T04:33:31Z</time>
      </trkpt>
      <trkpt lat="-32.11944303683832" lon="-71.4410336934446">
        <time>2019-03-07T04:33:31Z</time>
      </trkpt>
      <trkpt lat="-32.11964397673474" lon="-71.44059497359463">
        <time>2019-03-07T04:33:31Z</time>
      </trkpt>
      <trkpt lat="-32.11971038881406" lon="-71.44041338743972">
        <time>2019-03-07T04:33:31Z</time>
      </trkpt>
      <trkpt lat="-32.11973587930023" lon="-71.4402999895963">
        <time>2019-03-07T04:33:31Z</time>
      </trkpt>
      <trkpt lat="-32.11974741281377" lon="-71.44019361019053">
        <time>2019-03-07T04:33:31Z</time>
      </trkpt>
      <trkpt lat="-32.11974686686172" lon="-71.44010737917994">
        <time>2019-03-07T04:33:31Z</time>
      </trkpt>
      <trkpt lat="-32.11969583770658" lon="-71.43951133714845">
        <time>2019-03-07T04:33:31Z</time>
      </trkpt>
      <trkpt lat="-32.11956570849822" lon="-71.43799194412384">
        <time>2019-03-07T04:33:31Z</time>
      </trkpt>
      <trkpt lat="-32.11949700916381" lon="-71.43723767112789">
        <time>2019-03-07T04:33:31Z</time>
      </trkpt>
      <trkpt lat="-32.11947747663465" lon="-71.43709761240118">
        <time>2019-03-07T04:33:31Z</time>
      </trkpt>
      <trkpt lat="-32.11945603648309" lon="-71.43697383711965">
        <time>2019-03-07T04:33:31Z</time>
      </trkpt>
      <trkpt lat="-32.11942606991892" lon="-71.43688136578092">
        <time>2019-03-07T04:33:31Z</time>
      </trkpt>
      <trkpt lat="-32.11935735346866" lon="-71.43674696565836">
        <time>2019-03-07T04:33:31Z</time>
      </trkpt>
      <trkpt lat="-32.119194043657" lon="-71.43648075328656">
        <time>2019-03-07T04:33:31Z</time>
      </trkpt>
      <trkpt lat="-32.11907565908884" lon="-71.43630953719469">
        <time>2019-03-07T04:33:31Z</time>
      </trkpt>
      <trkpt lat="-32.11901311297395" lon="-71.43620184021856">
        <time>2019-03-07T04:33:31Z</time>
      </trkpt>
      <trkpt lat="-32.11896880095351" lon="-71.43609195374826">
        <time>2019-03-07T04:33:31Z</time>
      </trkpt>
      <trkpt lat="-32.11895019784449" lon="-71.43601172079775">
        <time>2019-03-07T04:33:31Z</time>
      </trkpt>
      <trkpt lat="-32.11893581241404" lon="-71.43592222718476">
        <time>2019-03-07T04:33:31Z</time>
      </trkpt>
      <trkpt lat="-32.118882372841" lon="-71.43502537943697">
        <time>2019-03-07T04:33:31Z</time>
      </trkpt>
      <trkpt lat="-32.11888793407695" lon="-71.43493809262279">
        <time>2019-03-07T04:33:31Z</time>
      </trkpt>
      <trkpt lat="-32.11890253424654" lon="-71.43482477472067">
        <time>2019-03-07T04:33:31Z</time>
      </trkpt>
      <trkpt lat="-32.11893921818254" lon="-71.43471014713826">
        <time>2019-03-07T04:33:31Z</time>
      </trkpt>
      <trkpt lat="-32.11936531707715" lon="-71.43373503087159">
        <time>2019-03-07T04:33:31Z</time>
      </trkpt>
      <trkpt lat="-32.11948809241591" lon="-71.43340484013869">
        <time>2019-03-07T04:33:31Z</time>
      </trkpt>
      <trkpt lat="-32.11952225195761" lon="-71.43329292928415">
        <time>2019-03-07T04:33:31Z</time>
      </trkpt>
      <trkpt lat="-32.11954228649515" lon="-71.43320863955221">
        <time>2019-03-07T04:33:31Z</time>
      </trkpt>
      <trkpt lat="-32.11958416198268" lon="-71.43291016617934">
        <time>2019-03-07T04:33:31Z</time>
      </trkpt>
      <trkpt lat="-32.11966218861861" lon="-71.43193957284068">
        <time>2019-03-07T04:33:31Z</time>
      </trkpt>
      <trkpt lat="-32.11971992592687" lon="-71.43109095279532">
        <time>2019-03-07T04:33:31Z</time>
      </trkpt>
      <trkpt lat="-32.1197380653657" lon="-71.43098005559615">
        <time>2019-03-07T04:33:31Z</time>
      </trkpt>
      <trkpt lat="-32.11976062047557" lon="-71.43087219204469">
        <time>2019-03-07T04:33:31Z</time>
      </trkpt>
      <trkpt lat="-32.11978230976077" lon="-71.430791066292">
        <time>2019-03-07T04:33:31Z</time>
      </trkpt>
      <trkpt lat="-32.11982033102337" lon="-71.43070460949886">
        <time>2019-03-07T04:33:31Z</time>
      </trkpt>
      <trkpt lat="-32.1198676729124" lon="-71.43060669245357">
        <time>2019-03-07T04:33:31Z</time>
      </trkpt>
      <trkpt lat="-32.11993757685325" lon="-71.43049704153083">
        <time>2019-03-07T04:33:31Z</time>
      </trkpt>
      <trkpt lat="-32.12066730030934" lon="-71.42951795619416">
        <time>2019-03-07T04:33:31Z</time>
      </trkpt>
      <trkpt lat="-32.12124448083406" lon="-71.42872883363309">
        <time>2019-03-07T04:33:31Z</time>
      </trkpt>
      <trkpt lat="-32.12133542214064" lon="-71.42859300382088">
        <time>2019-03-07T04:33:31Z</time>
      </trkpt>
      <trkpt lat="-32.12142959670938" lon="-71.42843186741706">
        <time>2019-03-07T04:33:31Z</time>
      </trkpt>
      <trkpt lat="-32.12152648423964" lon="-71.4282534425771">
        <time>2019-03-07T04:33:31Z</time>
      </trkpt>
      <trkpt lat="-32.12166052437292" lon="-71.42796688453935">
        <time>2019-03-07T04:33:31Z</time>
      </trkpt>
      <trkpt lat="-32.12206332043231" lon="-71.42697777747183">
        <time>2019-03-07T04:33:31Z</time>
      </trkpt>
      <trkpt lat="-32.12261252413772" lon="-71.42565652154305">
        <time>2019-03-07T04:33:31Z</time>
      </trkpt>
      <trkpt lat="-32.12308465670666" lon="-71.42456351124068">
        <time>2019-03-07T04:33:31Z</time>
      </trkpt>
      <trkpt lat="-32.12355879801694" lon="-71.42344894845441">
        <time>2019-03-07T04:33:31Z</time>
      </trkpt>
      <trkpt lat="-32.12398638361838" lon="-71.42243672383894">
        <time>2019-03-07T04:33:31Z</time>
      </trkpt>
      <trkpt lat="-32.1241430083592" lon="-71.42199755962443">
        <time>2019-03-07T04:33:31Z</time>
      </trkpt>
      <trkpt lat="-32.12427950347796" lon="-71.42160640972014">
        <time>2019-03-07T04:33:31Z</time>
      </trkpt>
      <trkpt lat="-32.12435878482499" lon="-71.4213386374983">
        <time>2019-03-07T04:33:31Z</time>
      </trkpt>
      <trkpt lat="-32.12451952786237" lon="-71.42072550175793">
        <time>2019-03-07T04:33:31Z</time>
      </trkpt>
      <trkpt lat="-32.12484156360608" lon="-71.41949868158775">
        <time>2019-03-07T04:33:31Z</time>
      </trkpt>
      <trkpt lat="-32.12518162820988" lon="-71.41822776953758">
        <time>2019-03-07T04:33:31Z</time>
      </trkpt>
      <trkpt lat="-32.1255098930341" lon="-71.41701477732889">
        <time>2019-03-07T04:33:31Z</time>
      </trkpt>
      <trkpt lat="-32.12564266432244" lon="-71.41653470089295">
        <time>2019-03-07T04:33:31Z</time>
      </trkpt>
      <trkpt lat="-32.12566682778091" lon="-71.41644380633348">
        <time>2019-03-07T04:33:31Z</time>
      </trkpt>
      <trkpt lat="-32.12581680536819" lon="-71.4158547936504">
        <time>2019-03-07T04:33:31Z</time>
      </trkpt>
      <trkpt lat="-32.12583724236398" lon="-71.41576068003127">
        <time>2019-03-07T04:33:31Z</time>
      </trkpt>
      <trkpt lat="-32.1258650922537" lon="-71.41564006645096">
        <time>2019-03-07T04:33:31Z</time>
      </trkpt>
      <trkpt lat="-32.12591163883562" lon="-71.41539388444269">
        <time>2019-03-07T04:33:31Z</time>
      </trkpt>
      <trkpt lat="-32.1260120953911" lon="-71.41472206649024">
        <time>2019-03-07T04:33:31Z</time>
      </trkpt>
      <trkpt lat="-32.12620576343984" lon="-71.41348337472613">
        <time>2019-03-07T04:33:31Z</time>
      </trkpt>
      <trkpt lat="-32.12639884113496" lon="-71.41220144792993">
        <time>2019-03-07T04:33:31Z</time>
      </trkpt>
      <trkpt lat="-32.12657725644687" lon="-71.41108538698427">
        <time>2019-03-07T04:33:31Z</time>
      </trkpt>
      <trkpt lat="-32.12663143387136" lon="-71.41071929994037">
        <time>2019-03-07T04:33:31Z</time>
      </trkpt>
      <trkpt lat="-32.126857842334" lon="-71.40924784824534">
        <time>2019-03-07T04:33:31Z</time>
      </trkpt>
      <trkpt lat="-32.12693402394003" lon="-71.40877497226541">
        <time>2019-03-07T04:33:31Z</time>
      </trkpt>
      <trkpt lat="-32.1269653376965" lon="-71.40862797201906">
        <time>2019-03-07T04:33:31Z</time>
      </trkpt>
      <trkpt lat="-32.12701366289105" lon="-71.40843639528079">
        <time>2019-03-07T04:33:31Z</time>
      </trkpt>
      <trkpt lat="-32.12706037433746" lon="-71.40830080508464">
        <time>2019-03-07T04:33:31Z</time>
      </trkpt>
      <trkpt lat="-32.12714037775297" lon="-71.40811864268166">
        <time>2019-03-07T04:33:31Z</time>
      </trkpt>
      <trkpt lat="-32.12732574501787" lon="-71.40776623746689">
        <time>2019-03-07T04:33:31Z</time>
      </trkpt>
      <trkpt lat="-32.12785218777916" lon="-71.40674171938782">
        <time>2019-03-07T04:33:31Z</time>
      </trkpt>
      <trkpt lat="-32.12805680170479" lon="-71.4063400807577">
        <time>2019-03-07T04:33:31Z</time>
      </trkpt>
      <trkpt lat="-32.12842051630867" lon="-71.40579363013721">
        <time>2019-03-07T04:33:31Z</time>
      </trkpt>
      <trkpt lat="-32.12889772078549" lon="-71.4051096984181">
        <time>2019-03-07T04:33:31Z</time>
      </trkpt>
      <trkpt lat="-32.1290890615271" lon="-71.40482917652808">
        <time>2019-03-07T04:33:31Z</time>
      </trkpt>
      <trkpt lat="-32.12927981973091" lon="-71.40462175806799">
        <time>2019-03-07T04:33:31Z</time>
      </trkpt>
      <trkpt lat="-32.12935727401075" lon="-71.40455677330392">
        <time>2019-03-07T04:33:31Z</time>
      </trkpt>
      <trkpt lat="-32.1295856606897" lon="-71.40437232261783">
        <time>2019-03-07T04:33:31Z</time>
      </trkpt>
      <trkpt lat="-32.12969926038542" lon="-71.40424737784433">
        <time>2019-03-07T04:33:31Z</time>
      </trkpt>
      <trkpt lat="-32.12978110046454" lon="-71.40412835389644">
        <time>2019-03-07T04:33:31Z</time>
      </trkpt>
      <trkpt lat="-32.12983666280918" lon="-71.40397198996868">
        <time>2019-03-07T04:33:31Z</time>
      </trkpt>
      <trkpt lat="-32.12987975628735" lon="-71.40380298667947">
        <time>2019-03-07T04:33:31Z</time>
      </trkpt>
      <trkpt lat="-32.12993228422231" lon="-71.4034735390517">
        <time>2019-03-07T04:33:31Z</time>
      </trkpt>
      <trkpt lat="-32.13004483784131" lon="-71.40290304935303">
        <time>2019-03-07T04:33:31Z</time>
      </trkpt>
      <trkpt lat="-32.13013232450948" lon="-71.4025769495007">
        <time>2019-03-07T04:33:31Z</time>
      </trkpt>
      <trkpt lat="-32.13030487668947" lon="-71.40216273838722">
        <time>2019-03-07T04:33:31Z</time>
      </trkpt>
      <trkpt lat="-32.13049478427313" lon="-71.40177818502572">
        <time>2019-03-07T04:33:31Z</time>
      </trkpt>
      <trkpt lat="-32.13072713858839" lon="-71.40142302821138">
        <time>2019-03-07T04:33:31Z</time>
      </trkpt>
      <trkpt lat="-32.13105353673961" lon="-71.40104175975945">
        <time>2019-03-07T04:33:31Z</time>
      </trkpt>
      <trkpt lat="-32.13123339529908" lon="-71.40086243303593">
        <time>2019-03-07T04:33:31Z</time>
      </trkpt>
      <trkpt lat="-32.13174770344401" lon="-71.4004082474748">
        <time>2019-03-07T04:33:31Z</time>
      </trkpt>
      <trkpt lat="-32.13272030986194" lon="-71.39957547961386">
        <time>2019-03-07T04:33:31Z</time>
      </trkpt>
      <trkpt lat="-32.1329148351001" lon="-71.39938269993624">
        <time>2019-03-07T04:33:31Z</time>
      </trkpt>
      <trkpt lat="-32.13315858069645" lon="-71.39908447104246">
        <time>2019-03-07T04:33:31Z</time>
      </trkpt>
      <trkpt lat="-32.13336820077346" lon="-71.3987580351246">
        <time>2019-03-07T04:33:31Z</time>
      </trkpt>
      <trkpt lat="-32.13345621387951" lon="-71.39860552952266">
        <time>2019-03-07T04:33:31Z</time>
      </trkpt>
      <trkpt lat="-32.13383586261239" lon="-71.39778635441355">
        <time>2019-03-07T04:33:31Z</time>
      </trkpt>
      <trkpt lat="-32.13486287239164" lon="-71.39554821068828">
        <time>2019-03-07T04:33:31Z</time>
      </trkpt>
      <trkpt lat="-32.13583155511812" lon="-71.39342771934872">
        <time>2019-03-07T04:33:31Z</time>
      </trkpt>
      <trkpt lat="-32.13684520097082" lon="-71.39119811540108">
        <time>2019-03-07T04:33:31Z</time>
      </trkpt>
      <trkpt lat="-32.13695895126271" lon="-71.39096327641073">
        <time>2019-03-07T04:33:31Z</time>
      </trkpt>
      <trkpt lat="-32.13705688649653" lon="-71.39078835338314">
        <time>2019-03-07T04:33:31Z</time>
      </trkpt>
      <trkpt lat="-32.13717451598818" lon="-71.39062504820852">
        <time>2019-03-07T04:33:31Z</time>
      </trkpt>
      <trkpt lat="-32.13734003364736" lon="-71.3904248807559">
        <time>2019-03-07T04:33:31Z</time>
      </trkpt>
      <trkpt lat="-32.13769402267942" lon="-71.39005521471667">
        <time>2019-03-07T04:33:31Z</time>
      </trkpt>
      <trkpt lat="-32.13791599575298" lon="-71.389822871576">
        <time>2019-03-07T04:33:31Z</time>
      </trkpt>
      <trkpt lat="-32.13808592011776" lon="-71.38964032421052">
        <time>2019-03-07T04:33:31Z</time>
      </trkpt>
      <trkpt lat="-32.13815043573565" lon="-71.38954349767614">
        <time>2019-03-07T04:33:31Z</time>
      </trkpt>
      <trkpt lat="-32.13817545694931" lon="-71.38946495453084">
        <time>2019-03-07T04:33:31Z</time>
      </trkpt>
      <trkpt lat="-32.13816829706598" lon="-71.38936974578904">
        <time>2019-03-07T04:33:31Z</time>
      </trkpt>
      <trkpt lat="-32.13813510444037" lon="-71.38925280068222">
        <time>2019-03-07T04:33:31Z</time>
      </trkpt>
      <trkpt lat="-32.13807812772271" lon="-71.38915956997487">
        <time>2019-03-07T04:33:31Z</time>
      </trkpt>
      <trkpt lat="-32.13801632861977" lon="-71.38910034223889">
        <time>2019-03-07T04:33:31Z</time>
      </trkpt>
      <trkpt lat="-32.13793160611487" lon="-71.38905613420157">
        <time>2019-03-07T04:33:31Z</time>
      </trkpt>
      <trkpt lat="-32.1375830869685" lon="-71.38890272526257">
        <time>2019-03-07T04:33:31Z</time>
      </trkpt>
      <trkpt lat="-32.13743257783427" lon="-71.38881039705231">
        <time>2019-03-07T04:33:31Z</time>
      </trkpt>
      <trkpt lat="-32.13731206483612" lon="-71.38869744816812">
        <time>2019-03-07T04:33:31Z</time>
      </trkpt>
      <trkpt lat="-32.13720136436184" lon="-71.38854088097538">
        <time>2019-03-07T04:33:31Z</time>
      </trkpt>
      <trkpt lat="-32.13715729453252" lon="-71.38844568114239">
        <time>2019-03-07T04:33:31Z</time>
      </trkpt>
      <trkpt lat="-32.13712868843368" lon="-71.38835424404574">
        <time>2019-03-07T04:33:31Z</time>
      </trkpt>
      <trkpt lat="-32.13706920317975" lon="-71.38805568723949">
        <time>2019-03-07T04:33:31Z</time>
      </trkpt>
      <trkpt lat="-32.13674007789135" lon="-71.38594601223781">
        <time>2019-03-07T04:33:31Z</time>
      </trkpt>
      <trkpt lat="-32.13664872882161" lon="-71.38533924745872">
        <time>2019-03-07T04:33:31Z</time>
      </trkpt>
      <trkpt lat="-32.13662614422025" lon="-71.38520351213721">
        <time>2019-03-07T04:33:31Z</time>
      </trkpt>
      <trkpt lat="-32.13658689784452" lon="-71.38508191496219">
        <time>2019-03-07T04:33:31Z</time>
      </trkpt>
      <trkpt lat="-32.13653892997592" lon="-71.38496016467499">
        <time>2019-03-07T04:33:31Z</time>
      </trkpt>
      <trkpt lat="-32.13584628491363" lon="-71.3837371787393">
        <time>2019-03-07T04:33:31Z</time>
      </trkpt>
      <trkpt lat="-32.13560952639359" lon="-71.38329254373048">
        <time>2019-03-07T04:33:31Z</time>
      </trkpt>
      <trkpt lat="-32.13533764391023" lon="-71.38260063494239">
        <time>2019-03-07T04:33:31Z</time>
      </trkpt>
      <trkpt lat="-32.13514808156851" lon="-71.38207029042617">
        <time>2019-03-07T04:33:31Z</time>
      </trkpt>
      <trkpt lat="-32.13506055962111" lon="-71.38186275293201">
        <time>2019-03-07T04:33:31Z</time>
      </trkpt>
      <trkpt lat="-32.13468046273279" lon="-71.38101933728385">
        <time>2019-03-07T04:33:31Z</time>
      </trkpt>
      <trkpt lat="-32.13442900384143" lon="-71.38054271404354">
        <time>2019-03-07T04:33:31Z</time>
      </trkpt>
      <trkpt lat="-32.13389967838103" lon="-71.37958096995196">
        <time>2019-03-07T04:33:31Z</time>
      </trkpt>
      <trkpt lat="-32.13381916750886" lon="-71.37940975630006">
        <time>2019-03-07T04:33:31Z</time>
      </trkpt>
      <trkpt lat="-32.13377381625287" lon="-71.37928744656415">
        <time>2019-03-07T04:33:31Z</time>
      </trkpt>
      <trkpt lat="-32.13374009397219" lon="-71.3791535241614">
        <time>2019-03-07T04:33:31Z</time>
      </trkpt>
      <trkpt lat="-32.1337288681917" lon="-71.37904623510157">
        <time>2019-03-07T04:33:31Z</time>
      </trkpt>
      <trkpt lat="-32.13378645375256" lon="-71.378384725328">
        <time>2019-03-07T04:33:31Z</time>
      </trkpt>
      <trkpt lat="-32.13392495586" lon="-71.37697303268176">
        <time>2019-03-07T04:33:31Z</time>
      </trkpt>
      <trkpt lat="-32.13393304709225" lon="-71.37684847379094">
        <time>2019-03-07T04:33:31Z</time>
      </trkpt>
      <trkpt lat="-32.1339410501552" lon="-71.376692196468">
        <time>2019-03-07T04:33:31Z</time>
      </trkpt>
      <trkpt lat="-32.13395424577563" lon="-71.37658621257982">
        <time>2019-03-07T04:33:31Z</time>
      </trkpt>
      <trkpt lat="-32.13403166886804" lon="-71.37622146526159">
        <time>2019-03-07T04:33:31Z</time>
      </trkpt>
      <trkpt lat="-32.13413235919836" lon="-71.37583255270909">
        <time>2019-03-07T04:33:31Z</time>
      </trkpt>
      <trkpt lat="-32.13433069567977" lon="-71.37498554493318">
        <time>2019-03-07T04:33:31Z</time>
      </trkpt>
      <trkpt lat="-32.13435640415273" lon="-71.37481674996003">
        <time>2019-03-07T04:33:31Z</time>
      </trkpt>
      <trkpt lat="-32.13435501422442" lon="-71.37471283214516">
        <time>2019-03-07T04:33:31Z</time>
      </trkpt>
      <trkpt lat="-32.13434034731152" lon="-71.37464461058045">
        <time>2019-03-07T04:33:31Z</time>
      </trkpt>
      <trkpt lat="-32.13430082779874" lon="-71.37456815508477">
        <time>2019-03-07T04:33:31Z</time>
      </trkpt>
      <trkpt lat="-32.13424407311502" lon="-71.3744923252015">
        <time>2019-03-07T04:33:31Z</time>
      </trkpt>
      <trkpt lat="-32.13383897023793" lon="-71.37410916471866">
        <time>2019-03-07T04:33:31Z</time>
      </trkpt>
      <trkpt lat="-32.13374961725371" lon="-71.37401636337758">
        <time>2019-03-07T04:33:31Z</time>
      </trkpt>
      <trkpt lat="-32.13368777508968" lon="-71.37393394892371">
        <time>2019-03-07T04:33:31Z</time>
      </trkpt>
      <trkpt lat="-32.13361629134772" lon="-71.37379776490462">
        <time>2019-03-07T04:33:31Z</time>
      </trkpt>
      <trkpt lat="-32.13355874748346" lon="-71.37364342309063">
        <time>2019-03-07T04:33:31Z</time>
      </trkpt>
      <trkpt lat="-32.13354739593157" lon="-71.3735257573383">
        <time>2019-03-07T04:33:31Z</time>
      </trkpt>
      <trkpt lat="-32.13357068387937" lon="-71.37329698500059">
        <time>2019-03-07T04:33:31Z</time>
      </trkpt>
      <trkpt lat="-32.13370868371239" lon="-71.37248966643432">
        <time>2019-03-07T04:33:31Z</time>
      </trkpt>
      <trkpt lat="-32.13410679651201" lon="-71.37028067896155">
        <time>2019-03-07T04:33:31Z</time>
      </trkpt>
      <trkpt lat="-32.1343177829234" lon="-71.3692200729656">
        <time>2019-03-07T04:33:31Z</time>
      </trkpt>
      <trkpt lat="-32.13438773476459" lon="-71.36893294027205">
        <time>2019-03-07T04:33:31Z</time>
      </trkpt>
      <trkpt lat="-32.13442897530371" lon="-71.36877375669864">
        <time>2019-03-07T04:33:31Z</time>
      </trkpt>
      <trkpt lat="-32.13470339867222" lon="-71.36791320353035">
        <time>2019-03-07T04:33:31Z</time>
      </trkpt>
      <trkpt lat="-32.13503903814365" lon="-71.36686148526484">
        <time>2019-03-07T04:33:31Z</time>
      </trkpt>
      <trkpt lat="-32.13506359834688" lon="-71.3667978657909">
        <time>2019-03-07T04:33:31Z</time>
      </trkpt>
      <trkpt lat="-32.13509111966504" lon="-71.36671619285738">
        <time>2019-03-07T04:33:31Z</time>
      </trkpt>
      <trkpt lat="-32.1354474995047" lon="-71.36592034630996">
        <time>2019-03-07T04:33:31Z</time>
      </trkpt>
      <trkpt lat="-32.13548855017228" lon="-71.36581058744109">
        <time>2019-03-07T04:33:31Z</time>
      </trkpt>
      <trkpt lat="-32.13551720246765" lon="-71.36570811424457">
        <time>2019-03-07T04:33:31Z</time>
      </trkpt>
      <trkpt lat="-32.13554260402583" lon="-71.36557177932259">
        <time>2019-03-07T04:33:31Z</time>
      </trkpt>
      <trkpt lat="-32.1355558840256" lon="-71.36545876981096">
        <time>2019-03-07T04:33:31Z</time>
      </trkpt>
      <trkpt lat="-32.13555071829271" lon="-71.3653600795984">
        <time>2019-03-07T04:33:31Z</time>
      </trkpt>
      <trkpt lat="-32.13543779958192" lon="-71.36409070559961">
        <time>2019-03-07T04:33:31Z</time>
      </trkpt>
      <trkpt lat="-32.13535136241136" lon="-71.3631540803535">
        <time>2019-03-07T04:33:31Z</time>
      </trkpt>
      <trkpt lat="-32.13534188316204" lon="-71.36306591989494">
        <time>2019-03-07T04:33:31Z</time>
      </trkpt>
      <trkpt lat="-32.13532819392718" lon="-71.36299247914569">
        <time>2019-03-07T04:33:31Z</time>
      </trkpt>
      <trkpt lat="-32.13527948823346" lon="-71.36287272967417">
        <time>2019-03-07T04:33:31Z</time>
      </trkpt>
      <trkpt lat="-32.13521222789495" lon="-71.36273848751428">
        <time>2019-03-07T04:33:31Z</time>
      </trkpt>
      <trkpt lat="-32.13512402829874" lon="-71.36254691452112">
        <time>2019-03-07T04:33:31Z</time>
      </trkpt>
      <trkpt lat="-32.13506400972943" lon="-71.36243968510543">
        <time>2019-03-07T04:33:31Z</time>
      </trkpt>
      <trkpt lat="-32.13503055973028" lon="-71.36235764126599">
        <time>2019-03-07T04:33:31Z</time>
      </trkpt>
      <trkpt lat="-32.13501666769553" lon="-71.36228001740776">
        <time>2019-03-07T04:33:31Z</time>
      </trkpt>
      <trkpt lat="-32.13502733910632" lon="-71.36218168442753">
        <time>2019-03-07T04:33:31Z</time>
      </trkpt>
      <trkpt lat="-32.13508700822867" lon="-71.36206306813685">
        <time>2019-03-07T04:33:31Z</time>
      </trkpt>
      <trkpt lat="-32.13529330695619" lon="-71.36176768964792">
        <time>2019-03-07T04:33:31Z</time>
      </trkpt>
      <trkpt lat="-32.13533856969709" lon="-71.36169256734375">
        <time>2019-03-07T04:33:31Z</time>
      </trkpt>
      <trkpt lat="-32.13535881507509" lon="-71.36161991250098">
        <time>2019-03-07T04:33:31Z</time>
      </trkpt>
      <trkpt lat="-32.1353711116323" lon="-71.36147656348267">
        <time>2019-03-07T04:33:31Z</time>
      </trkpt>
      <trkpt lat="-32.13537953910306" lon="-71.36114449783199">
        <time>2019-03-07T04:33:31Z</time>
      </trkpt>
      <trkpt lat="-32.13537637057264" lon="-71.3610450364491">
        <time>2019-03-07T04:33:31Z</time>
      </trkpt>
      <trkpt lat="-32.1353731096345" lon="-71.36094393441778">
        <time>2019-03-07T04:33:31Z</time>
      </trkpt>
      <trkpt lat="-32.13536928404291" lon="-71.36084781926107">
        <time>2019-03-07T04:33:31Z</time>
      </trkpt>
      <trkpt lat="-32.13536885479734" lon="-71.36073088680683">
        <time>2019-03-07T04:33:31Z</time>
      </trkpt>
      <trkpt lat="-32.13537726749001" lon="-71.36064077382866">
        <time>2019-03-07T04:33:31Z</time>
      </trkpt>
      <trkpt lat="-32.13540500702629" lon="-71.36044394453471">
        <time>2019-03-07T04:33:31Z</time>
      </trkpt>
      <trkpt lat="-32.13553126639144" lon="-71.35984534711788">
        <time>2019-03-07T04:33:31Z</time>
      </trkpt>
      <trkpt lat="-32.13561584024255" lon="-71.3595520679975">
        <time>2019-03-07T04:33:31Z</time>
      </trkpt>
      <trkpt lat="-32.13567859900308" lon="-71.35937789084282">
        <time>2019-03-07T04:33:31Z</time>
      </trkpt>
      <trkpt lat="-32.13571490955507" lon="-71.35924813904023">
        <time>2019-03-07T04:33:31Z</time>
      </trkpt>
      <trkpt lat="-32.13577213578435" lon="-71.35900936829054">
        <time>2019-03-07T04:33:31Z</time>
      </trkpt>
      <trkpt lat="-32.13578916345352" lon="-71.3589040036811">
        <time>2019-03-07T04:33:31Z</time>
      </trkpt>
      <trkpt lat="-32.13581398396557" lon="-71.35870239119632">
        <time>2019-03-07T04:33:31Z</time>
      </trkpt>
      <trkpt lat="-32.13583226237723" lon="-71.35850104806893">
        <time>2019-03-07T04:33:31Z</time>
      </trkpt>
      <trkpt lat="-32.13583514444883" lon="-71.35836744618129">
        <time>2019-03-07T04:33:31Z</time>
      </trkpt>
      <trkpt lat="-32.13583508219755" lon="-71.35817634302278">
        <time>2019-03-07T04:33:31Z</time>
      </trkpt>
      <trkpt lat="-32.13582548665771" lon="-71.35808310506633">
        <time>2019-03-07T04:33:31Z</time>
      </trkpt>
      <trkpt lat="-32.13579646646437" lon="-71.357843032766">
        <time>2019-03-07T04:33:31Z</time>
      </trkpt>
      <trkpt lat="-32.13568432457317" lon="-71.35727685766334">
        <time>2019-03-07T04:33:31Z</time>
      </trkpt>
      <trkpt lat="-32.13561662659319" lon="-71.35694625755833">
        <time>2019-03-07T04:33:31Z</time>
      </trkpt>
      <trkpt lat="-32.13558107152971" lon="-71.35674538120037">
        <time>2019-03-07T04:33:31Z</time>
      </trkpt>
      <trkpt lat="-32.13556682774328" lon="-71.35663329005023">
        <time>2019-03-07T04:33:31Z</time>
      </trkpt>
      <trkpt lat="-32.13555889966087" lon="-71.35651938582603">
        <time>2019-03-07T04:33:31Z</time>
      </trkpt>
      <trkpt lat="-32.13556721832283" lon="-71.35640478465895">
        <time>2019-03-07T04:33:31Z</time>
      </trkpt>
      <trkpt lat="-32.13558320219549" lon="-71.35632166884858">
        <time>2019-03-07T04:33:31Z</time>
      </trkpt>
      <trkpt lat="-32.13561550468348" lon="-71.3562320038282">
        <time>2019-03-07T04:33:31Z</time>
      </trkpt>
      <trkpt lat="-32.13583291263485" lon="-71.35583188729524">
        <time>2019-03-07T04:33:31Z</time>
      </trkpt>
      <trkpt lat="-32.13591880012316" lon="-71.35568145850705">
        <time>2019-03-07T04:33:31Z</time>
      </trkpt>
      <trkpt lat="-32.13600752895095" lon="-71.35554695631979">
        <time>2019-03-07T04:33:31Z</time>
      </trkpt>
      <trkpt lat="-32.13606050476357" lon="-71.35548578614544">
        <time>2019-03-07T04:33:31Z</time>
      </trkpt>
      <trkpt lat="-32.13614986938457" lon="-71.35538789165788">
        <time>2019-03-07T04:33:31Z</time>
      </trkpt>
      <trkpt lat="-32.13620160155284" lon="-71.35533946350897">
        <time>2019-03-07T04:33:31Z</time>
      </trkpt>
      <trkpt lat="-32.13683088651791" lon="-71.35489771645956">
        <time>2019-03-07T04:33:31Z</time>
      </trkpt>
      <trkpt lat="-32.13729097869449" lon="-71.35457553352411">
        <time>2019-03-07T04:33:31Z</time>
      </trkpt>
      <trkpt lat="-32.13739096294884" lon="-71.35449479697805">
        <time>2019-03-07T04:33:31Z</time>
      </trkpt>
      <trkpt lat="-32.13750479912003" lon="-71.35438434201828">
        <time>2019-03-07T04:33:31Z</time>
      </trkpt>
      <trkpt lat="-32.13762017733033" lon="-71.35423893924241">
        <time>2019-03-07T04:33:31Z</time>
      </trkpt>
      <trkpt lat="-32.1377581943486" lon="-71.35404144261983">
        <time>2019-03-07T04:33:31Z</time>
      </trkpt>
      <trkpt lat="-32.13784847119441" lon="-71.35393738939389">
        <time>2019-03-07T04:33:31Z</time>
      </trkpt>
      <trkpt lat="-32.13797643316922" lon="-71.35381432018443">
        <time>2019-03-07T04:33:31Z</time>
      </trkpt>
      <trkpt lat="-32.13804583892301" lon="-71.35376115367444">
        <time>2019-03-07T04:33:31Z</time>
      </trkpt>
      <trkpt lat="-32.13816671792699" lon="-71.35366702369302">
        <time>2019-03-07T04:33:31Z</time>
      </trkpt>
      <trkpt lat="-32.13825699801669" lon="-71.35358833441536">
        <time>2019-03-07T04:33:31Z</time>
      </trkpt>
      <trkpt lat="-32.13830500591857" lon="-71.35353219263605">
        <time>2019-03-07T04:33:31Z</time>
      </trkpt>
      <trkpt lat="-32.13834185054004" lon="-71.35346493835459">
        <time>2019-03-07T04:33:31Z</time>
      </trkpt>
      <trkpt lat="-32.13835478721836" lon="-71.3533983614107">
        <time>2019-03-07T04:33:31Z</time>
      </trkpt>
      <trkpt lat="-32.13834873440001" lon="-71.35332380741018">
        <time>2019-03-07T04:33:31Z</time>
      </trkpt>
      <trkpt lat="-32.13832845720677" lon="-71.35326722455289">
        <time>2019-03-07T04:33:31Z</time>
      </trkpt>
      <trkpt lat="-32.13829365311133" lon="-71.35320212626405">
        <time>2019-03-07T04:33:31Z</time>
      </trkpt>
      <trkpt lat="-32.13822215538114" lon="-71.35312359230402">
        <time>2019-03-07T04:33:31Z</time>
      </trkpt>
      <trkpt lat="-32.13806223328829" lon="-71.35295678868414">
        <time>2019-03-07T04:33:31Z</time>
      </trkpt>
      <trkpt lat="-32.13800451034609" lon="-71.35288315002069">
        <time>2019-03-07T04:33:31Z</time>
      </trkpt>
      <trkpt lat="-32.13780121381628" lon="-71.35262327412065">
        <time>2019-03-07T04:33:31Z</time>
      </trkpt>
      <trkpt lat="-32.13774190497347" lon="-71.35255198720911">
        <time>2019-03-07T04:33:31Z</time>
      </trkpt>
      <trkpt lat="-32.13699804740803" lon="-71.35168390307815">
        <time>2019-03-07T04:33:31Z</time>
      </trkpt>
      <trkpt lat="-32.135804106674" lon="-71.35026844380825">
        <time>2019-03-07T04:33:31Z</time>
      </trkpt>
      <trkpt lat="-32.13554466589397" lon="-71.34999824081937">
        <time>2019-03-07T04:33:31Z</time>
      </trkpt>
      <trkpt lat="-32.13538138307985" lon="-71.34986631000921">
        <time>2019-03-07T04:33:31Z</time>
      </trkpt>
      <trkpt lat="-32.13509303603045" lon="-71.34972023949287">
        <time>2019-03-07T04:33:31Z</time>
      </trkpt>
      <trkpt lat="-32.13437116914" lon="-71.34932725231249">
        <time>2019-03-07T04:33:31Z</time>
      </trkpt>
      <trkpt lat="-32.13391326737585" lon="-71.34906167390095">
        <time>2019-03-07T04:33:31Z</time>
      </trkpt>
      <trkpt lat="-32.13382234949914" lon="-71.34900380432713">
        <time>2019-03-07T04:33:31Z</time>
      </trkpt>
      <trkpt lat="-32.13370772259744" lon="-71.3489069714883">
        <time>2019-03-07T04:33:31Z</time>
      </trkpt>
      <trkpt lat="-32.1334482489905" lon="-71.34862810897039">
        <time>2019-03-07T04:33:31Z</time>
      </trkpt>
      <trkpt lat="-32.13338362645596" lon="-71.34856290155238">
        <time>2019-03-07T04:33:31Z</time>
      </trkpt>
      <trkpt lat="-32.13329199269865" lon="-71.34849538824369">
        <time>2019-03-07T04:33:31Z</time>
      </trkpt>
      <trkpt lat="-32.13281075492067" lon="-71.34810616569608">
        <time>2019-03-07T04:33:31Z</time>
      </trkpt>
      <trkpt lat="-32.13267318616918" lon="-71.34796430359775">
        <time>2019-03-07T04:33:31Z</time>
      </trkpt>
      <trkpt lat="-32.13254190083489" lon="-71.34779535628465">
        <time>2019-03-07T04:33:31Z</time>
      </trkpt>
      <trkpt lat="-32.132380370743" lon="-71.34753546491913">
        <time>2019-03-07T04:33:31Z</time>
      </trkpt>
      <trkpt lat="-32.13221752845328" lon="-71.34725930129267">
        <time>2019-03-07T04:33:31Z</time>
      </trkpt>
      <trkpt lat="-32.13214035994114" lon="-71.34710145174331">
        <time>2019-03-07T04:33:31Z</time>
      </trkpt>
      <trkpt lat="-32.13210071005406" lon="-71.34699635449182">
        <time>2019-03-07T04:33:31Z</time>
      </trkpt>
      <trkpt lat="-32.13205744854695" lon="-71.3468031998611">
        <time>2019-03-07T04:33:31Z</time>
      </trkpt>
      <trkpt lat="-32.1320468805834" lon="-71.34656097634903">
        <time>2019-03-07T04:33:31Z</time>
      </trkpt>
      <trkpt lat="-32.13209048567698" lon="-71.34606345019253">
        <time>2019-03-07T04:33:31Z</time>
      </trkpt>
      <trkpt lat="-32.13209273242224" lon="-71.34590832296719">
        <time>2019-03-07T04:33:31Z</time>
      </trkpt>
      <trkpt lat="-32.13208386798379" lon="-71.34559599132992">
        <time>2019-03-07T04:33:31Z</time>
      </trkpt>
      <trkpt lat="-32.13207590134575" lon="-71.34535777535677">
        <time>2019-03-07T04:33:31Z</time>
      </trkpt>
      <trkpt lat="-32.1320454183394" lon="-71.34482150657289">
        <time>2019-03-07T04:33:31Z</time>
      </trkpt>
      <trkpt lat="-32.1319920573051" lon="-71.34439007075032">
        <time>2019-03-07T04:33:31Z</time>
      </trkpt>
      <trkpt lat="-32.13189011508815" lon="-71.34373748260217">
        <time>2019-03-07T04:33:31Z</time>
      </trkpt>
      <trkpt lat="-32.13174181494047" lon="-71.34291104922173">
        <time>2019-03-07T04:33:31Z</time>
      </trkpt>
      <trkpt lat="-32.131675572322" lon="-71.34261074803419">
        <time>2019-03-07T04:33:31Z</time>
      </trkpt>
      <trkpt lat="-32.13156690704165" lon="-71.34216143551545">
        <time>2019-03-07T04:33:31Z</time>
      </trkpt>
      <trkpt lat="-32.13150842939825" lon="-71.34188475083536">
        <time>2019-03-07T04:33:31Z</time>
      </trkpt>
      <trkpt lat="-32.13141388309336" lon="-71.34139072192657">
        <time>2019-03-07T04:33:31Z</time>
      </trkpt>
      <trkpt lat="-32.13105966820346" lon="-71.33960951968527">
        <time>2019-03-07T04:33:31Z</time>
      </trkpt>
      <trkpt lat="-32.13102760015234" lon="-71.33939754896875">
        <time>2019-03-07T04:33:31Z</time>
      </trkpt>
      <trkpt lat="-32.13099224053553" lon="-71.33915202050487">
        <time>2019-03-07T04:33:31Z</time>
      </trkpt>
      <trkpt lat="-32.13095987251034" lon="-71.33892692526919">
        <time>2019-03-07T04:33:31Z</time>
      </trkpt>
      <trkpt lat="-32.13093227931278" lon="-71.33874713420561">
        <time>2019-03-07T04:33:31Z</time>
      </trkpt>
      <trkpt lat="-32.13090061902179" lon="-71.3386386922553">
        <time>2019-03-07T04:33:31Z</time>
      </trkpt>
      <trkpt lat="-32.13083902149001" lon="-71.33849802051677">
        <time>2019-03-07T04:33:31Z</time>
      </trkpt>
      <trkpt lat="-32.13074154187858" lon="-71.33831480325355">
        <time>2019-03-07T04:33:31Z</time>
      </trkpt>
      <trkpt lat="-32.13060650951724" lon="-71.33806660778848">
        <time>2019-03-07T04:33:31Z</time>
      </trkpt>
      <trkpt lat="-32.13054137880326" lon="-71.33797403899739">
        <time>2019-03-07T04:33:31Z</time>
      </trkpt>
      <trkpt lat="-32.1304638814043" lon="-71.33788305585928">
        <time>2019-03-07T04:33:31Z</time>
      </trkpt>
      <trkpt lat="-32.13038060721107" lon="-71.33778665337147">
        <time>2019-03-07T04:33:31Z</time>
      </trkpt>
      <trkpt lat="-32.13026886983523" lon="-71.33768134316254">
        <time>2019-03-07T04:33:31Z</time>
      </trkpt>
      <trkpt lat="-32.12991966322468" lon="-71.33736001715808">
        <time>2019-03-07T04:33:31Z</time>
      </trkpt>
      <trkpt lat="-32.12929562494877" lon="-71.33685744808413">
        <time>2019-03-07T04:33:31Z</time>
      </trkpt>
      <trkpt lat="-32.12770109884866" lon="-71.33553013941507">
        <time>2019-03-07T04:33:31Z</time>
      </trkpt>
      <trkpt lat="-32.12732519138488" lon="-71.33523476544126">
        <time>2019-03-07T04:33:31Z</time>
      </trkpt>
      <trkpt lat="-32.12721498302406" lon="-71.33512907226225">
        <time>2019-03-07T04:33:31Z</time>
      </trkpt>
      <trkpt lat="-32.12716811974485" lon="-71.33504752176044">
        <time>2019-03-07T04:33:31Z</time>
      </trkpt>
      <trkpt lat="-32.12713682811481" lon="-71.33496593300156">
        <time>2019-03-07T04:33:31Z</time>
      </trkpt>
      <trkpt lat="-32.12712907554053" lon="-71.33487472009631">
        <time>2019-03-07T04:33:31Z</time>
      </trkpt>
      <trkpt lat="-32.12714914841623" lon="-71.33466801274989">
        <time>2019-03-07T04:33:31Z</time>
      </trkpt>
      <trkpt lat="-32.12716358334444" lon="-71.33445438365555">
        <time>2019-03-07T04:33:31Z</time>
      </trkpt>
      <trkpt lat="-32.12715014936614" lon="-71.33436869723194">
        <time>2019-03-07T04:33:31Z</time>
      </trkpt>
      <trkpt lat="-32.127117137162" lon="-71.33430196013812">
        <time>2019-03-07T04:33:31Z</time>
      </trkpt>
      <trkpt lat="-32.12708443317005" lon="-71.33426568338705">
        <time>2019-03-07T04:33:31Z</time>
      </trkpt>
      <trkpt lat="-32.12703946900514" lon="-71.33424633286579">
        <time>2019-03-07T04:33:31Z</time>
      </trkpt>
      <trkpt lat="-32.12698153264234" lon="-71.33423095536885">
        <time>2019-03-07T04:33:31Z</time>
      </trkpt>
      <trkpt lat="-32.12691473792722" lon="-71.33423959159514">
        <time>2019-03-07T04:33:31Z</time>
      </trkpt>
      <trkpt lat="-32.12617224172436" lon="-71.33461593924696">
        <time>2019-03-07T04:33:31Z</time>
      </trkpt>
      <trkpt lat="-32.12610538735999" lon="-71.33464964163969">
        <time>2019-03-07T04:33:31Z</time>
      </trkpt>
      <trkpt lat="-32.1260391810442" lon="-71.33465803655983">
        <time>2019-03-07T04:33:31Z</time>
      </trkpt>
      <trkpt lat="-32.12598572193564" lon="-71.33465310266369">
        <time>2019-03-07T04:33:31Z</time>
      </trkpt>
      <trkpt lat="-32.12592358402727" lon="-71.33463315566432">
        <time>2019-03-07T04:33:31Z</time>
      </trkpt>
      <trkpt lat="-32.12585608363344" lon="-71.33457676628521">
        <time>2019-03-07T04:33:31Z</time>
      </trkpt>
      <trkpt lat="-32.12578615156262" lon="-71.3345141275891">
        <time>2019-03-07T04:33:31Z</time>
      </trkpt>
      <trkpt lat="-32.12534326735981" lon="-71.33391312629648">
        <time>2019-03-07T04:33:31Z</time>
      </trkpt>
      <trkpt lat="-32.12514098825606" lon="-71.33362576971678">
        <time>2019-03-07T04:33:31Z</time>
      </trkpt>
      <trkpt lat="-32.12494676512837" lon="-71.33338113044857">
        <time>2019-03-07T04:33:31Z</time>
      </trkpt>
      <trkpt lat="-32.12484021109339" lon="-71.33326206354523">
        <time>2019-03-07T04:33:31Z</time>
      </trkpt>
      <trkpt lat="-32.12460346951151" lon="-71.33293612311499">
        <time>2019-03-07T04:33:31Z</time>
      </trkpt>
      <trkpt lat="-32.12399838962795" lon="-71.33209754492674">
        <time>2019-03-07T04:33:31Z</time>
      </trkpt>
      <trkpt lat="-32.12372229464604" lon="-71.33173540716484">
        <time>2019-03-07T04:33:31Z</time>
      </trkpt>
      <trkpt lat="-32.12361866565188" lon="-71.33159681870095">
        <time>2019-03-07T04:33:31Z</time>
      </trkpt>
      <trkpt lat="-32.12350606910025" lon="-71.33142553609085">
        <time>2019-03-07T04:33:31Z</time>
      </trkpt>
      <trkpt lat="-32.12341379780512" lon="-71.33130327696922">
        <time>2019-03-07T04:33:31Z</time>
      </trkpt>
      <trkpt lat="-32.12242898353096" lon="-71.32998458173525">
        <time>2019-03-07T04:33:31Z</time>
      </trkpt>
      <trkpt lat="-32.12064966898699" lon="-71.3276539833786">
        <time>2019-03-07T04:33:31Z</time>
      </trkpt>
      <trkpt lat="-32.11960616943846" lon="-71.32625918727199">
        <time>2019-03-07T04:33:31Z</time>
      </trkpt>
      <trkpt lat="-32.11949903979103" lon="-71.32610888487623">
        <time>2019-03-07T04:33:31Z</time>
      </trkpt>
      <trkpt lat="-32.11941283944058" lon="-71.32598027871904">
        <time>2019-03-07T04:33:31Z</time>
      </trkpt>
      <trkpt lat="-32.11933619318324" lon="-71.32588073986589">
        <time>2019-03-07T04:33:31Z</time>
      </trkpt>
      <trkpt lat="-32.11910526567949" lon="-71.32557172455992">
        <time>2019-03-07T04:33:31Z</time>
      </trkpt>
      <trkpt lat="-32.11885748234094" lon="-71.32523007851056">
        <time>2019-03-07T04:33:31Z</time>
      </trkpt>
      <trkpt lat="-32.11875628757034" lon="-71.32506251738455">
        <time>2019-03-07T04:33:31Z</time>
      </trkpt>
      <trkpt lat="-32.11867172341211" lon="-71.3248986535629">
        <time>2019-03-07T04:33:31Z</time>
      </trkpt>
      <trkpt lat="-32.11859018361767" lon="-71.32471387714226">
        <time>2019-03-07T04:33:31Z</time>
      </trkpt>
      <trkpt lat="-32.11853789934311" lon="-71.32455126956648">
        <time>2019-03-07T04:33:31Z</time>
      </trkpt>
      <trkpt lat="-32.11849872818457" lon="-71.32437297150835">
        <time>2019-03-07T04:33:31Z</time>
      </trkpt>
      <trkpt lat="-32.11847082909554" lon="-71.32419832882566">
        <time>2019-03-07T04:33:31Z</time>
      </trkpt>
      <trkpt lat="-32.11846265565312" lon="-71.32404196508591">
        <time>2019-03-07T04:33:31Z</time>
      </trkpt>
      <trkpt lat="-32.11838663828445" lon="-71.32267705829015">
        <time>2019-03-07T04:33:31Z</time>
      </trkpt>
      <trkpt lat="-32.11825258294432" lon="-71.32063298154205">
        <time>2019-03-07T04:33:31Z</time>
      </trkpt>
      <trkpt lat="-32.11810102182361" lon="-71.3184929182713">
        <time>2019-03-07T04:33:31Z</time>
      </trkpt>
      <trkpt lat="-32.11796717551808" lon="-71.31623885311316">
        <time>2019-03-07T04:33:31Z</time>
      </trkpt>
      <trkpt lat="-32.11788750387564" lon="-71.31510840634951">
        <time>2019-03-07T04:33:31Z</time>
      </trkpt>
      <trkpt lat="-32.11787343460539" lon="-71.3149893035751">
        <time>2019-03-07T04:33:31Z</time>
      </trkpt>
      <trkpt lat="-32.11784335898632" lon="-71.31486439400729">
        <time>2019-03-07T04:33:31Z</time>
      </trkpt>
      <trkpt lat="-32.11779747075301" lon="-71.31476328522393">
        <time>2019-03-07T04:33:31Z</time>
      </trkpt>
      <trkpt lat="-32.11773422218131" lon="-71.31466545213861">
        <time>2019-03-07T04:33:31Z</time>
      </trkpt>
      <trkpt lat="-32.1176004058778" lon="-71.31452139025885">
        <time>2019-03-07T04:33:31Z</time>
      </trkpt>
      <trkpt lat="-32.11750229980119" lon="-71.31443652725896">
        <time>2019-03-07T04:33:31Z</time>
      </trkpt>
      <trkpt lat="-32.11723634554214" lon="-71.31427497342743">
        <time>2019-03-07T04:33:31Z</time>
      </trkpt>
      <trkpt lat="-32.11708193246012" lon="-71.31416272264296">
        <time>2019-03-07T04:33:31Z</time>
      </trkpt>
      <trkpt lat="-32.1170023457972" lon="-71.31406300055554">
        <time>2019-03-07T04:33:31Z</time>
      </trkpt>
      <trkpt lat="-32.11694514164" lon="-71.31398489775374">
        <time>2019-03-07T04:33:31Z</time>
      </trkpt>
      <trkpt lat="-32.11689538622751" lon="-71.31395634827555">
        <time>2019-03-07T04:33:31Z</time>
      </trkpt>
      <trkpt lat="-32.11684709133649" lon="-71.31395819187058">
        <time>2019-03-07T04:33:31Z</time>
      </trkpt>
      <trkpt lat="-32.11677630301918" lon="-71.31398727466241">
        <time>2019-03-07T04:33:31Z</time>
      </trkpt>
      <trkpt lat="-32.1167082795722" lon="-71.31402296068191">
        <time>2019-03-07T04:33:31Z</time>
      </trkpt>
      <trkpt lat="-32.11665027810895" lon="-71.31404348008054">
        <time>2019-03-07T04:33:31Z</time>
      </trkpt>
      <trkpt lat="-32.11655023809711" lon="-71.31404935724551">
        <time>2019-03-07T04:33:31Z</time>
      </trkpt>
      <trkpt lat="-32.11627748650327" lon="-71.31401740357596">
        <time>2019-03-07T04:33:31Z</time>
      </trkpt>
      <trkpt lat="-32.11608759741229" lon="-71.31398763548454">
        <time>2019-03-07T04:33:31Z</time>
      </trkpt>
      <trkpt lat="-32.11571441278808" lon="-71.31391669047751">
        <time>2019-03-07T04:33:31Z</time>
      </trkpt>
      <trkpt lat="-32.11538784270704" lon="-71.31384596257659">
        <time>2019-03-07T04:33:31Z</time>
      </trkpt>
      <trkpt lat="-32.11522881919812" lon="-71.31378612320411">
        <time>2019-03-07T04:33:31Z</time>
      </trkpt>
      <trkpt lat="-32.11503965872934" lon="-71.31366856102851">
        <time>2019-03-07T04:33:31Z</time>
      </trkpt>
      <trkpt lat="-32.1148967982597" lon="-71.31355845005663">
        <time>2019-03-07T04:33:31Z</time>
      </trkpt>
      <trkpt lat="-32.11474210443549" lon="-71.31346088006782">
        <time>2019-03-07T04:33:31Z</time>
      </trkpt>
      <trkpt lat="-32.11465119870158" lon="-71.31341648873993">
        <time>2019-03-07T04:33:31Z</time>
      </trkpt>
      <trkpt lat="-32.11454994204676" lon="-71.31333962922102">
        <time>2019-03-07T04:33:31Z</time>
      </trkpt>
      <trkpt lat="-32.11444959225945" lon="-71.31325628264972">
        <time>2019-03-07T04:33:31Z</time>
      </trkpt>
      <trkpt lat="-32.11439600827329" lon="-71.31322345425613">
        <time>2019-03-07T04:33:31Z</time>
      </trkpt>
      <trkpt lat="-32.11434758638852" lon="-71.31320507296444">
        <time>2019-03-07T04:33:31Z</time>
      </trkpt>
      <trkpt lat="-32.11427264547478" lon="-71.3132117180561">
        <time>2019-03-07T04:33:31Z</time>
      </trkpt>
      <trkpt lat="-32.11422117680957" lon="-71.31325314557121">
        <time>2019-03-07T04:33:31Z</time>
      </trkpt>
      <trkpt lat="-32.1141609330254" lon="-71.31334973154814">
        <time>2019-03-07T04:33:31Z</time>
      </trkpt>
      <trkpt lat="-32.11408212250022" lon="-71.3134569358463">
        <time>2019-03-07T04:33:31Z</time>
      </trkpt>
      <trkpt lat="-32.11401958687996" lon="-71.31351005848647">
        <time>2019-03-07T04:33:31Z</time>
      </trkpt>
      <trkpt lat="-32.11395563835904" lon="-71.31352630273503">
        <time>2019-03-07T04:33:31Z</time>
      </trkpt>
      <trkpt lat="-32.11387679223671" lon="-71.31354298918437">
        <time>2019-03-07T04:33:31Z</time>
      </trkpt>
      <trkpt lat="-32.11364263223821" lon="-71.31353015728801">
        <time>2019-03-07T04:33:31Z</time>
      </trkpt>
      <trkpt lat="-32.11324075116944" lon="-71.31349958827565">
        <time>2019-03-07T04:33:31Z</time>
      </trkpt>
      <trkpt lat="-32.11301456984549" lon="-71.31346693266316">
        <time>2019-03-07T04:33:31Z</time>
      </trkpt>
      <trkpt lat="-32.11275438736514" lon="-71.31340977366955">
        <time>2019-03-07T04:33:31Z</time>
      </trkpt>
      <trkpt lat="-32.11181742098654" lon="-71.31320959697349">
        <time>2019-03-07T04:33:31Z</time>
      </trkpt>
      <trkpt lat="-32.11063223822893" lon="-71.31300960881072">
        <time>2019-03-07T04:33:31Z</time>
      </trkpt>
      <trkpt lat="-32.11054787374197" lon="-71.31301077901559">
        <time>2019-03-07T04:33:31Z</time>
      </trkpt>
      <trkpt lat="-32.1103759341535" lon="-71.31299444319184">
        <time>2019-03-07T04:33:31Z</time>
      </trkpt>
      <trkpt lat="-32.11022177545263" lon="-71.31298385820539">
        <time>2019-03-07T04:33:31Z</time>
      </trkpt>
      <trkpt lat="-32.11010910270707" lon="-71.31296026007803">
        <time>2019-03-07T04:33:31Z</time>
      </trkpt>
      <trkpt lat="-32.10998155171708" lon="-71.31290682829504">
        <time>2019-03-07T04:33:31Z</time>
      </trkpt>
      <trkpt lat="-32.10984829540472" lon="-71.31285191768379">
        <time>2019-03-07T04:33:31Z</time>
      </trkpt>
      <trkpt lat="-32.1096472591418" lon="-71.31272570758888">
        <time>2019-03-07T04:33:31Z</time>
      </trkpt>
      <trkpt lat="-32.10953353472955" lon="-71.31261289805956">
        <time>2019-03-07T04:33:31Z</time>
      </trkpt>
      <trkpt lat="-32.10939780527026" lon="-71.31244358365332">
        <time>2019-03-07T04:33:31Z</time>
      </trkpt>
      <trkpt lat="-32.10930191458398" lon="-71.31232223288889">
        <time>2019-03-07T04:33:31Z</time>
      </trkpt>
      <trkpt lat="-32.10924804644466" lon="-71.31229788884882">
        <time>2019-03-07T04:33:31Z</time>
      </trkpt>
      <trkpt lat="-32.10919089328147" lon="-71.31228802455019">
        <time>2019-03-07T04:33:31Z</time>
      </trkpt>
      <trkpt lat="-32.10913949981021" lon="-71.31231027132836">
        <time>2019-03-07T04:33:31Z</time>
      </trkpt>
      <trkpt lat="-32.10907873526548" lon="-71.31236614321533">
        <time>2019-03-07T04:33:31Z</time>
      </trkpt>
      <trkpt lat="-32.10901596341625" lon="-71.31245736639342">
        <time>2019-03-07T04:33:31Z</time>
      </trkpt>
      <trkpt lat="-32.10891792901053" lon="-71.31256088971632">
        <time>2019-03-07T04:33:31Z</time>
      </trkpt>
      <trkpt lat="-32.10881124744989" lon="-71.31262794706198">
        <time>2019-03-07T04:33:31Z</time>
      </trkpt>
      <trkpt lat="-32.1087014988902" lon="-71.31265020913143">
        <time>2019-03-07T04:33:31Z</time>
      </trkpt>
      <trkpt lat="-32.10856097811489" lon="-71.31265920210366">
        <time>2019-03-07T04:33:31Z</time>
      </trkpt>
      <trkpt lat="-32.10843797395504" lon="-71.31262522878393">
        <time>2019-03-07T04:33:31Z</time>
      </trkpt>
      <trkpt lat="-32.10831746947056" lon="-71.31255504419526">
        <time>2019-03-07T04:33:31Z</time>
      </trkpt>
      <trkpt lat="-32.10810706578741" lon="-71.31238708767388">
        <time>2019-03-07T04:33:31Z</time>
      </trkpt>
      <trkpt lat="-32.10802209183697" lon="-71.31230851542118">
        <time>2019-03-07T04:33:31Z</time>
      </trkpt>
      <trkpt lat="-32.10799036226622" lon="-71.3122685899484">
        <time>2019-03-07T04:33:31Z</time>
      </trkpt>
      <trkpt lat="-32.10795519365908" lon="-71.31220986222763">
        <time>2019-03-07T04:33:31Z</time>
      </trkpt>
      <trkpt lat="-32.10794100970895" lon="-71.31217494219007">
        <time>2019-03-07T04:33:31Z</time>
      </trkpt>
      <trkpt lat="-32.1079280634664" lon="-71.312132702257">
        <time>2019-03-07T04:33:31Z</time>
      </trkpt>
      <trkpt lat="-32.10792302961818" lon="-71.3120649583622">
        <time>2019-03-07T04:33:31Z</time>
      </trkpt>
      <trkpt lat="-32.10792897494873" lon="-71.31201783061604">
        <time>2019-03-07T04:33:31Z</time>
      </trkpt>
      <trkpt lat="-32.10795181570467" lon="-71.31193860927444">
        <time>2019-03-07T04:33:31Z</time>
      </trkpt>
      <trkpt lat="-32.10797726650297" lon="-71.31186055207377">
        <time>2019-03-07T04:33:31Z</time>
      </trkpt>
      <trkpt lat="-32.10798548657849" lon="-71.31178132432878">
        <time>2019-03-07T04:33:31Z</time>
      </trkpt>
      <trkpt lat="-32.10798290594442" lon="-71.31169097664427">
        <time>2019-03-07T04:33:31Z</time>
      </trkpt>
      <trkpt lat="-32.10796567623988" lon="-71.31163000451988">
        <time>2019-03-07T04:33:31Z</time>
      </trkpt>
      <trkpt lat="-32.10794117485171" lon="-71.31156723040591">
        <time>2019-03-07T04:33:31Z</time>
      </trkpt>
      <trkpt lat="-32.10774856808826" lon="-71.31117105078366">
        <time>2019-03-07T04:33:31Z</time>
      </trkpt>
      <trkpt lat="-32.1077136150497" lon="-71.31108011782072">
        <time>2019-03-07T04:33:31Z</time>
      </trkpt>
      <trkpt lat="-32.10767141225688" lon="-71.31094822735219">
        <time>2019-03-07T04:33:31Z</time>
      </trkpt>
      <trkpt lat="-32.10762661809863" lon="-71.3108040008666">
        <time>2019-03-07T04:33:31Z</time>
      </trkpt>
      <trkpt lat="-32.10757472250684" lon="-71.31064141987164">
        <time>2019-03-07T04:33:31Z</time>
      </trkpt>
      <trkpt lat="-32.10754769387799" lon="-71.31054934067367">
        <time>2019-03-07T04:33:31Z</time>
      </trkpt>
      <trkpt lat="-32.10750574308213" lon="-71.31043736880893">
        <time>2019-03-07T04:33:31Z</time>
      </trkpt>
      <trkpt lat="-32.107450667733" lon="-71.31031728773402">
        <time>2019-03-07T04:33:31Z</time>
      </trkpt>
      <trkpt lat="-32.10719732224091" lon="-71.30980409485865">
        <time>2019-03-07T04:33:31Z</time>
      </trkpt>
      <trkpt lat="-32.10712959991454" lon="-71.30968872598947">
        <time>2019-03-07T04:33:31Z</time>
      </trkpt>
      <trkpt lat="-32.1070662496612" lon="-71.30958038068187">
        <time>2019-03-07T04:33:31Z</time>
      </trkpt>
      <trkpt lat="-32.10700659217441" lon="-71.30950410375701">
        <time>2019-03-07T04:33:31Z</time>
      </trkpt>
      <trkpt lat="-32.10662671001783" lon="-71.30904316119951">
        <time>2019-03-07T04:33:31Z</time>
      </trkpt>
      <trkpt lat="-32.10639780564703" lon="-71.30877549590174">
        <time>2019-03-07T04:33:31Z</time>
      </trkpt>
      <trkpt lat="-32.10633832526715" lon="-71.3086957773822">
        <time>2019-03-07T04:33:31Z</time>
      </trkpt>
      <trkpt lat="-32.10627351030892" lon="-71.30859960326983">
        <time>2019-03-07T04:33:31Z</time>
      </trkpt>
      <trkpt lat="-32.10620210983132" lon="-71.30847696367229">
        <time>2019-03-07T04:33:31Z</time>
      </trkpt>
      <trkpt lat="-32.10613010720248" lon="-71.30833052052822">
        <time>2019-03-07T04:33:31Z</time>
      </trkpt>
      <trkpt lat="-32.10601147102419" lon="-71.30806212035695">
        <time>2019-03-07T04:33:31Z</time>
      </trkpt>
      <trkpt lat="-32.10590134101618" lon="-71.30778098566941">
        <time>2019-03-07T04:33:31Z</time>
      </trkpt>
      <trkpt lat="-32.10586765217342" lon="-71.30767698088938">
        <time>2019-03-07T04:33:31Z</time>
      </trkpt>
      <trkpt lat="-32.10578330078272" lon="-71.30742940470168">
        <time>2019-03-07T04:33:31Z</time>
      </trkpt>
      <trkpt lat="-32.10572467037785" lon="-71.30727712444084">
        <time>2019-03-07T04:33:31Z</time>
      </trkpt>
      <trkpt lat="-32.10563540323648" lon="-71.30707856189399">
        <time>2019-03-07T04:33:31Z</time>
      </trkpt>
      <trkpt lat="-32.10557779098588" lon="-71.30696047673344">
        <time>2019-03-07T04:33:31Z</time>
      </trkpt>
      <trkpt lat="-32.10552603162083" lon="-71.30686659318153">
        <time>2019-03-07T04:33:31Z</time>
      </trkpt>
      <trkpt lat="-32.10548664019449" lon="-71.30679856211287">
        <time>2019-03-07T04:33:31Z</time>
      </trkpt>
      <trkpt lat="-32.10544992459647" lon="-71.30674970442742">
        <time>2019-03-07T04:33:31Z</time>
      </trkpt>
      <trkpt lat="-32.10541586983684" lon="-71.30670782431379">
        <time>2019-03-07T04:33:31Z</time>
      </trkpt>
      <trkpt lat="-32.10537638377409" lon="-71.30667640657201">
        <time>2019-03-07T04:33:31Z</time>
      </trkpt>
      <trkpt lat="-32.10508431552076" lon="-71.30648668494368">
        <time>2019-03-07T04:33:31Z</time>
      </trkpt>
      <trkpt lat="-32.10466117444998" lon="-71.30617374464687">
        <time>2019-03-07T04:33:31Z</time>
      </trkpt>
      <trkpt lat="-32.10459604621678" lon="-71.30611711283659">
        <time>2019-03-07T04:33:31Z</time>
      </trkpt>
      <trkpt lat="-32.10455119745338" lon="-71.30606843407276">
        <time>2019-03-07T04:33:31Z</time>
      </trkpt>
      <trkpt lat="-32.1045165505242" lon="-71.30601453148036">
        <time>2019-03-07T04:33:31Z</time>
      </trkpt>
      <trkpt lat="-32.10447587326044" lon="-71.30594073328412">
        <time>2019-03-07T04:33:31Z</time>
      </trkpt>
      <trkpt lat="-32.10443447244817" lon="-71.30586214390974">
        <time>2019-03-07T04:33:31Z</time>
      </trkpt>
      <trkpt lat="-32.10439232524521" lon="-71.30579685191974">
        <time>2019-03-07T04:33:31Z</time>
      </trkpt>
      <trkpt lat="-32.10434681604849" lon="-71.30573502000912">
        <time>2019-03-07T04:33:31Z</time>
      </trkpt>
      <trkpt lat="-32.10431105487604" lon="-71.30569678356615">
        <time>2019-03-07T04:33:31Z</time>
      </trkpt>
      <trkpt lat="-32.10426285304219" lon="-71.30566215208658">
        <time>2019-03-07T04:33:31Z</time>
      </trkpt>
      <trkpt lat="-32.10422073439568" lon="-71.30565579720992">
        <time>2019-03-07T04:33:31Z</time>
      </trkpt>
      <trkpt lat="-32.10377803780268" lon="-71.30561952862001">
        <time>2019-03-07T04:33:31Z</time>
      </trkpt>
      <trkpt lat="-32.10347800427328" lon="-71.30554981994916">
        <time>2019-03-07T04:33:31Z</time>
      </trkpt>
      <trkpt lat="-32.10339396107533" lon="-71.30551939583799">
        <time>2019-03-07T04:33:31Z</time>
      </trkpt>
      <trkpt lat="-32.10330776269481" lon="-71.30547801819368">
        <time>2019-03-07T04:33:31Z</time>
      </trkpt>
      <trkpt lat="-32.10320877145877" lon="-71.30542541326027">
        <time>2019-03-07T04:33:31Z</time>
      </trkpt>
      <trkpt lat="-32.10313339320152" lon="-71.30537217876511">
        <time>2019-03-07T04:33:31Z</time>
      </trkpt>
      <trkpt lat="-32.10301153507941" lon="-71.30524439794243">
        <time>2019-03-07T04:33:31Z</time>
      </trkpt>
      <trkpt lat="-32.10290936433709" lon="-71.30510994620872">
        <time>2019-03-07T04:33:31Z</time>
      </trkpt>
      <trkpt lat="-32.10265106810998" lon="-71.30479220238929">
        <time>2019-03-07T04:33:31Z</time>
      </trkpt>
      <trkpt lat="-32.10260596858983" lon="-71.30473651203015">
        <time>2019-03-07T04:33:31Z</time>
      </trkpt>
      <trkpt lat="-32.10256616399708" lon="-71.30471059992654">
        <time>2019-03-07T04:33:31Z</time>
      </trkpt>
      <trkpt lat="-32.10252240931729" lon="-71.30470298378727">
        <time>2019-03-07T04:33:31Z</time>
      </trkpt>
      <trkpt lat="-32.10246707332492" lon="-71.30470010929254">
        <time>2019-03-07T04:33:31Z</time>
      </trkpt>
      <trkpt lat="-32.10227002398487" lon="-71.30469644919593">
        <time>2019-03-07T04:33:31Z</time>
      </trkpt>
      <trkpt lat="-32.10221907721712" lon="-71.30468464066668">
        <time>2019-03-07T04:33:31Z</time>
      </trkpt>
      <trkpt lat="-32.10215603335358" lon="-71.3046602757028">
        <time>2019-03-07T04:33:31Z</time>
      </trkpt>
      <trkpt lat="-32.10198069658742" lon="-71.30458077065281">
        <time>2019-03-07T04:33:31Z</time>
      </trkpt>
      <trkpt lat="-32.10182983843762" lon="-71.30451150781134">
        <time>2019-03-07T04:33:31Z</time>
      </trkpt>
      <trkpt lat="-32.10176876423164" lon="-71.30450131972066">
        <time>2019-03-07T04:33:31Z</time>
      </trkpt>
      <trkpt lat="-32.10169215439314" lon="-71.30449853659816">
        <time>2019-03-07T04:33:31Z</time>
      </trkpt>
      <trkpt lat="-32.10128197262346" lon="-71.3045413544224">
        <time>2019-03-07T04:33:31Z</time>
      </trkpt>
      <trkpt lat="-32.10107523551594" lon="-71.30451615729891">
        <time>2019-03-07T04:33:31Z</time>
      </trkpt>
      <trkpt lat="-32.10085369040015" lon="-71.30446137870196">
        <time>2019-03-07T04:33:31Z</time>
      </trkpt>
      <trkpt lat="-32.10070433670552" lon="-71.30440434450991">
        <time>2019-03-07T04:33:31Z</time>
      </trkpt>
      <trkpt lat="-32.10060859710365" lon="-71.30435649208155">
        <time>2019-03-07T04:33:31Z</time>
      </trkpt>
      <trkpt lat="-32.10053193604715" lon="-71.30430292316858">
        <time>2019-03-07T04:33:31Z</time>
      </trkpt>
      <trkpt lat="-32.10046516700445" lon="-71.3042308494653">
        <time>2019-03-07T04:33:31Z</time>
      </trkpt>
      <trkpt lat="-32.10041441460832" lon="-71.30415840090959">
        <time>2019-03-07T04:33:31Z</time>
      </trkpt>
      <trkpt lat="-32.10034908508045" lon="-71.30405759453704">
        <time>2019-03-07T04:33:31Z</time>
      </trkpt>
      <trkpt lat="-32.10028692101415" lon="-71.30396665386606">
        <time>2019-03-07T04:33:31Z</time>
      </trkpt>
      <trkpt lat="-32.10022751548446" lon="-71.30389296123126">
        <time>2019-03-07T04:33:31Z</time>
      </trkpt>
      <trkpt lat="-32.10018653443243" lon="-71.30385579940925">
        <time>2019-03-07T04:33:31Z</time>
      </trkpt>
      <trkpt lat="-32.10013987251224" lon="-71.30384520045297">
        <time>2019-03-07T04:33:31Z</time>
      </trkpt>
      <trkpt lat="-32.10008083435407" lon="-71.30385724065251">
        <time>2019-03-07T04:33:31Z</time>
      </trkpt>
      <trkpt lat="-32.10002585057796" lon="-71.30390733554681">
        <time>2019-03-07T04:33:31Z</time>
      </trkpt>
      <trkpt lat="-32.09999539289925" lon="-71.30395804100895">
        <time>2019-03-07T04:33:31Z</time>
      </trkpt>
      <trkpt lat="-32.09994458111305" lon="-71.3040192161866">
        <time>2019-03-07T04:33:31Z</time>
      </trkpt>
      <trkpt lat="-32.09988967701094" lon="-71.30409316954005">
        <time>2019-03-07T04:33:31Z</time>
      </trkpt>
      <trkpt lat="-32.09980722889734" lon="-71.30416976762068">
        <time>2019-03-07T04:33:31Z</time>
      </trkpt>
      <trkpt lat="-32.09969611461646" lon="-71.30424078347706">
        <time>2019-03-07T04:33:31Z</time>
      </trkpt>
      <trkpt lat="-32.09961098980208" lon="-71.30424919708952">
        <time>2019-03-07T04:33:31Z</time>
      </trkpt>
      <trkpt lat="-32.0995014655911" lon="-71.30422205316209">
        <time>2019-03-07T04:33:31Z</time>
      </trkpt>
      <trkpt lat="-32.09940105402536" lon="-71.30417613118894">
        <time>2019-03-07T04:33:31Z</time>
      </trkpt>
      <trkpt lat="-32.09931178639282" lon="-71.30412078415134">
        <time>2019-03-07T04:33:31Z</time>
      </trkpt>
      <trkpt lat="-32.09926245131066" lon="-71.30407635795019">
        <time>2019-03-07T04:33:31Z</time>
      </trkpt>
      <trkpt lat="-32.09922013354571" lon="-71.30402758717338">
        <time>2019-03-07T04:33:31Z</time>
      </trkpt>
      <trkpt lat="-32.09918254092237" lon="-71.30397058716366">
        <time>2019-03-07T04:33:31Z</time>
      </trkpt>
      <trkpt lat="-32.09914311702026" lon="-71.30390875199059">
        <time>2019-03-07T04:33:31Z</time>
      </trkpt>
      <trkpt lat="-32.09910616457888" lon="-71.3038425136499">
        <time>2019-03-07T04:33:31Z</time>
      </trkpt>
      <trkpt lat="-32.09891380336654" lon="-71.30333082027522">
        <time>2019-03-07T04:33:31Z</time>
      </trkpt>
      <trkpt lat="-32.09861108188941" lon="-71.30252997293563">
        <time>2019-03-07T04:33:31Z</time>
      </trkpt>
      <trkpt lat="-32.09850393758521" lon="-71.30229369050448">
        <time>2019-03-07T04:33:31Z</time>
      </trkpt>
      <trkpt lat="-32.09841012807236" lon="-71.3020968530512">
        <time>2019-03-07T04:33:31Z</time>
      </trkpt>
      <trkpt lat="-32.09828331470682" lon="-71.301894077322">
        <time>2019-03-07T04:33:31Z</time>
      </trkpt>
      <trkpt lat="-32.09744844748458" lon="-71.30065930073684">
        <time>2019-03-07T04:33:31Z</time>
      </trkpt>
      <trkpt lat="-32.09734395655958" lon="-71.30052353486573">
        <time>2019-03-07T04:33:31Z</time>
      </trkpt>
      <trkpt lat="-32.09722566806263" lon="-71.30039103324587">
        <time>2019-03-07T04:33:31Z</time>
      </trkpt>
      <trkpt lat="-32.09712957901029" lon="-71.3002620913866">
        <time>2019-03-07T04:33:31Z</time>
      </trkpt>
      <trkpt lat="-32.09626090794872" lon="-71.29897108690076">
        <time>2019-03-07T04:33:31Z</time>
      </trkpt>
      <trkpt lat="-32.09607205405434" lon="-71.29865458378292">
        <time>2019-03-07T04:33:31Z</time>
      </trkpt>
      <trkpt lat="-32.09520355429152" lon="-71.29713604138081">
        <time>2019-03-07T04:33:31Z</time>
      </trkpt>
      <trkpt lat="-32.09478931825491" lon="-71.29637382831589">
        <time>2019-03-07T04:33:31Z</time>
      </trkpt>
      <trkpt lat="-32.09472296357738" lon="-71.29622347968066">
        <time>2019-03-07T04:33:31Z</time>
      </trkpt>
      <trkpt lat="-32.09464862646061" lon="-71.29602566289893">
        <time>2019-03-07T04:33:31Z</time>
      </trkpt>
      <trkpt lat="-32.09460250141874" lon="-71.29582934949066">
        <time>2019-03-07T04:33:31Z</time>
      </trkpt>
      <trkpt lat="-32.09457405632022" lon="-71.29559414899596">
        <time>2019-03-07T04:33:31Z</time>
      </trkpt>
      <trkpt lat="-32.0945831934412" lon="-71.29549496742857">
        <time>2019-03-07T04:33:31Z</time>
      </trkpt>
      <trkpt lat="-32.09461455575146" lon="-71.29540508725573">
        <time>2019-03-07T04:33:31Z</time>
      </trkpt>
      <trkpt lat="-32.09478607746504" lon="-71.29518547228624">
        <time>2019-03-07T04:33:31Z</time>
      </trkpt>
      <trkpt lat="-32.09483975383518" lon="-71.29512423573888">
        <time>2019-03-07T04:33:31Z</time>
      </trkpt>
      <trkpt lat="-32.0948613819328" lon="-71.29504870236758">
        <time>2019-03-07T04:33:31Z</time>
      </trkpt>
      <trkpt lat="-32.09485182337269" lon="-71.29496663739943">
        <time>2019-03-07T04:33:31Z</time>
      </trkpt>
      <trkpt lat="-32.09481749696395" lon="-71.29492127271384">
        <time>2019-03-07T04:33:31Z</time>
      </trkpt>
      <trkpt lat="-32.09475752854943" lon="-71.29487297371185">
        <time>2019-03-07T04:33:31Z</time>
      </trkpt>
      <trkpt lat="-32.0946771721472" lon="-71.29485699635245">
        <time>2019-03-07T04:33:31Z</time>
      </trkpt>
      <trkpt lat="-32.0944045253426" lon="-71.29479385340841">
        <time>2019-03-07T04:33:31Z</time>
      </trkpt>
      <trkpt lat="-32.09427454242238" lon="-71.29472147954918">
        <time>2019-03-07T04:33:31Z</time>
      </trkpt>
      <trkpt lat="-32.09416586310233" lon="-71.29462661921397">
        <time>2019-03-07T04:33:31Z</time>
      </trkpt>
      <trkpt lat="-32.0940959105493" lon="-71.29453532328476">
        <time>2019-03-07T04:33:31Z</time>
      </trkpt>
      <trkpt lat="-32.09395560304594" lon="-71.29429040595797">
        <time>2019-03-07T04:33:31Z</time>
      </trkpt>
      <trkpt lat="-32.09389655815408" lon="-71.29415004221053">
        <time>2019-03-07T04:33:31Z</time>
      </trkpt>
      <trkpt lat="-32.0937861499" lon="-71.29388377333888">
        <time>2019-03-07T04:33:31Z</time>
      </trkpt>
      <trkpt lat="-32.09371637282991" lon="-71.29364721605546">
        <time>2019-03-07T04:33:31Z</time>
      </trkpt>
      <trkpt lat="-32.09363601825604" lon="-71.29297864739196">
        <time>2019-03-07T04:33:31Z</time>
      </trkpt>
      <trkpt lat="-32.0935808376833" lon="-71.29257438482708">
        <time>2019-03-07T04:33:31Z</time>
      </trkpt>
      <trkpt lat="-32.09340262028373" lon="-71.29173221056479">
        <time>2019-03-07T04:33:31Z</time>
      </trkpt>
      <trkpt lat="-32.09320517760755" lon="-71.29055948342766">
        <time>2019-03-07T04:33:31Z</time>
      </trkpt>
      <trkpt lat="-32.09314461407961" lon="-71.29022975451079">
        <time>2019-03-07T04:33:31Z</time>
      </trkpt>
      <trkpt lat="-32.09314457226053" lon="-71.29004496517">
        <time>2019-03-07T04:33:31Z</time>
      </trkpt>
      <trkpt lat="-32.0931428857882" lon="-71.28988989027333">
        <time>2019-03-07T04:33:31Z</time>
      </trkpt>
      <trkpt lat="-32.0931332055595" lon="-71.28974654142287">
        <time>2019-03-07T04:33:31Z</time>
      </trkpt>
      <trkpt lat="-32.09310618606952" lon="-71.28950557035103">
        <time>2019-03-07T04:33:31Z</time>
      </trkpt>
      <trkpt lat="-32.09302848174747" lon="-71.28912208641646">
        <time>2019-03-07T04:33:31Z</time>
      </trkpt>
      <trkpt lat="-32.09299492197049" lon="-71.28899958103519">
        <time>2019-03-07T04:33:31Z</time>
      </trkpt>
      <trkpt lat="-32.09293816184736" lon="-71.28881960017861">
        <time>2019-03-07T04:33:31Z</time>
      </trkpt>
      <trkpt lat="-32.09253107325174" lon="-71.28751249968481">
        <time>2019-03-07T04:33:31Z</time>
      </trkpt>
      <trkpt lat="-32.09244568304481" lon="-71.28717863256524">
        <time>2019-03-07T04:33:31Z</time>
      </trkpt>
      <trkpt lat="-32.092369412342" lon="-71.28680638966868">
        <time>2019-03-07T04:33:31Z</time>
      </trkpt>
      <trkpt lat="-32.09233886385727" lon="-71.28658926336946">
        <time>2019-03-07T04:33:31Z</time>
      </trkpt>
      <trkpt lat="-32.09232748013103" lon="-71.28643186702756">
        <time>2019-03-07T04:33:31Z</time>
      </trkpt>
      <trkpt lat="-32.09233325037086" lon="-71.28622384527436">
        <time>2019-03-07T04:33:31Z</time>
      </trkpt>
      <trkpt lat="-32.09237740152619" lon="-71.28600428099819">
        <time>2019-03-07T04:33:31Z</time>
      </trkpt>
      <trkpt lat="-32.09280358694763" lon="-71.28485615621734">
        <time>2019-03-07T04:33:31Z</time>
      </trkpt>
      <trkpt lat="-32.09289088274282" lon="-71.28462612117636">
        <time>2019-03-07T04:33:31Z</time>
      </trkpt>
      <trkpt lat="-32.09295544170721" lon="-71.28441445439954">
        <time>2019-03-07T04:33:31Z</time>
      </trkpt>
      <trkpt lat="-32.09306197437574" lon="-71.28404351700844">
        <time>2019-03-07T04:33:31Z</time>
      </trkpt>
      <trkpt lat="-32.09313247344782" lon="-71.28370936237926">
        <time>2019-03-07T04:33:31Z</time>
      </trkpt>
      <trkpt lat="-32.09319256328766" lon="-71.28341855372771">
        <time>2019-03-07T04:33:31Z</time>
      </trkpt>
      <trkpt lat="-32.09323685576872" lon="-71.28320953249146">
        <time>2019-03-07T04:33:31Z</time>
      </trkpt>
      <trkpt lat="-32.0932531584005" lon="-71.28310351707593">
        <time>2019-03-07T04:33:31Z</time>
      </trkpt>
      <trkpt lat="-32.0932558535991" lon="-71.28300382791686">
        <time>2019-03-07T04:33:31Z</time>
      </trkpt>
      <trkpt lat="-32.09320959849915" lon="-71.28236996789961">
        <time>2019-03-07T04:33:31Z</time>
      </trkpt>
      <trkpt lat="-32.09318510865543" lon="-71.28219052289036">
        <time>2019-03-07T04:33:31Z</time>
      </trkpt>
      <trkpt lat="-32.09316636269074" lon="-71.2820219347049">
        <time>2019-03-07T04:33:31Z</time>
      </trkpt>
      <trkpt lat="-32.09313358487817" lon="-71.2818642980905">
        <time>2019-03-07T04:33:31Z</time>
      </trkpt>
      <trkpt lat="-32.09310134832412" lon="-71.28170642251153">
        <time>2019-03-07T04:33:31Z</time>
      </trkpt>
      <trkpt lat="-32.09306135296194" lon="-71.28103508303398">
        <time>2019-03-07T04:33:31Z</time>
      </trkpt>
      <trkpt lat="-32.09304623153474" lon="-71.28080727949556">
        <time>2019-03-07T04:33:31Z</time>
      </trkpt>
      <trkpt lat="-32.09306164491536" lon="-71.28069613510962">
        <time>2019-03-07T04:33:31Z</time>
      </trkpt>
      <trkpt lat="-32.09311471464419" lon="-71.28054543723781">
        <time>2019-03-07T04:33:31Z</time>
      </trkpt>
      <trkpt lat="-32.09316921660405" lon="-71.28037506988666">
        <time>2019-03-07T04:33:31Z</time>
      </trkpt>
      <trkpt lat="-32.09319610774771" lon="-71.2802472586838">
        <time>2019-03-07T04:33:31Z</time>
      </trkpt>
      <trkpt lat="-32.09319768961251" lon="-71.28016705180251">
        <time>2019-03-07T04:33:31Z</time>
      </trkpt>
      <trkpt lat="-32.09318493760065" lon="-71.28007648595808">
        <time>2019-03-07T04:33:31Z</time>
      </trkpt>
      <trkpt lat="-32.09313951779674" lon="-71.27996544105901">
        <time>2019-03-07T04:33:31Z</time>
      </trkpt>
      <trkpt lat="-32.09305290828115" lon="-71.27979356220213">
        <time>2019-03-07T04:33:31Z</time>
      </trkpt>
      <trkpt lat="-32.09302976427882" lon="-71.27971076501329">
        <time>2019-03-07T04:33:31Z</time>
      </trkpt>
      <trkpt lat="-32.0928820122768" lon="-71.27906328092551">
        <time>2019-03-07T04:33:31Z</time>
      </trkpt>
      <trkpt lat="-32.09281567089809" lon="-71.27855723994649">
        <time>2019-03-07T04:33:31Z</time>
      </trkpt>
      <trkpt lat="-32.09278528961901" lon="-71.27835926440393">
        <time>2019-03-07T04:33:31Z</time>
      </trkpt>
      <trkpt lat="-32.09260938348267" lon="-71.27763334006028">
        <time>2019-03-07T04:33:31Z</time>
      </trkpt>
      <trkpt lat="-32.09258017418996" lon="-71.27740585021358">
        <time>2019-03-07T04:33:31Z</time>
      </trkpt>
      <trkpt lat="-32.09258323037835" lon="-71.27720840855169">
        <time>2019-03-07T04:33:31Z</time>
      </trkpt>
      <trkpt lat="-32.0925963180707" lon="-71.27705080757622">
        <time>2019-03-07T04:33:31Z</time>
      </trkpt>
      <trkpt lat="-32.09264608204724" lon="-71.2766650945718">
        <time>2019-03-07T04:33:31Z</time>
      </trkpt>
      <trkpt lat="-32.09278162546728" lon="-71.27602658124177">
        <time>2019-03-07T04:33:31Z</time>
      </trkpt>
      <trkpt lat="-32.09281574007037" lon="-71.27585263604172">
        <time>2019-03-07T04:33:31Z</time>
      </trkpt>
      <trkpt lat="-32.09283127987101" lon="-71.27572538871658">
        <time>2019-03-07T04:33:31Z</time>
      </trkpt>
      <trkpt lat="-32.09283010910542" lon="-71.27560547686865">
        <time>2019-03-07T04:33:31Z</time>
      </trkpt>
      <trkpt lat="-32.09282400881709" lon="-71.27553438285653">
        <time>2019-03-07T04:33:31Z</time>
      </trkpt>
      <trkpt lat="-32.09279667376146" lon="-71.27544854281705">
        <time>2019-03-07T04:33:31Z</time>
      </trkpt>
      <trkpt lat="-32.09276609302192" lon="-71.27536775659551">
        <time>2019-03-07T04:33:31Z</time>
      </trkpt>
      <trkpt lat="-32.09270978492077" lon="-71.27521900568611">
        <time>2019-03-07T04:33:31Z</time>
      </trkpt>
      <trkpt lat="-32.09269333676902" lon="-71.27513359273111">
        <time>2019-03-07T04:33:31Z</time>
      </trkpt>
      <trkpt lat="-32.09268217649299" lon="-71.27501589291656">
        <time>2019-03-07T04:33:31Z</time>
      </trkpt>
      <trkpt lat="-32.09268503687503" lon="-71.27483073292869">
        <time>2019-03-07T04:33:31Z</time>
      </trkpt>
      <trkpt lat="-32.09269504864854" lon="-71.27461355161722">
        <time>2019-03-07T04:33:31Z</time>
      </trkpt>
      <trkpt lat="-32.09270129815459" lon="-71.27455212671171">
        <time>2019-03-07T04:33:31Z</time>
      </trkpt>
      <trkpt lat="-32.09268630145592" lon="-71.27447350942514">
        <time>2019-03-07T04:33:31Z</time>
      </trkpt>
      <trkpt lat="-32.09265521612638" lon="-71.27436575275783">
        <time>2019-03-07T04:33:31Z</time>
      </trkpt>
      <trkpt lat="-32.09260417184215" lon="-71.27424289849137">
        <time>2019-03-07T04:33:31Z</time>
      </trkpt>
      <trkpt lat="-32.09216524676458" lon="-71.27321375644885">
        <time>2019-03-07T04:33:31Z</time>
      </trkpt>
      <trkpt lat="-32.09211295621621" lon="-71.27307567564453">
        <time>2019-03-07T04:33:31Z</time>
      </trkpt>
      <trkpt lat="-32.09208502216142" lon="-71.27298719027796">
        <time>2019-03-07T04:33:31Z</time>
      </trkpt>
      <trkpt lat="-32.09206557411198" lon="-71.27289560363447">
        <time>2019-03-07T04:33:31Z</time>
      </trkpt>
      <trkpt lat="-32.09206580761915" lon="-71.27282905663857">
        <time>2019-03-07T04:33:31Z</time>
      </trkpt>
      <trkpt lat="-32.0920726833406" lon="-71.27274475527301">
        <time>2019-03-07T04:33:31Z</time>
      </trkpt>
      <trkpt lat="-32.09209278766516" lon="-71.27264051667486">
        <time>2019-03-07T04:33:31Z</time>
      </trkpt>
      <trkpt lat="-32.09211179341009" lon="-71.27251440195612">
        <time>2019-03-07T04:33:31Z</time>
      </trkpt>
      <trkpt lat="-32.09212860574966" lon="-71.27239775505007">
        <time>2019-03-07T04:33:31Z</time>
      </trkpt>
      <trkpt lat="-32.09214086560866" lon="-71.27224875066383">
        <time>2019-03-07T04:33:31Z</time>
      </trkpt>
      <trkpt lat="-32.09215489769364" lon="-71.27201734997917">
        <time>2019-03-07T04:33:31Z</time>
      </trkpt>
      <trkpt lat="-32.09216755320347" lon="-71.27192057108469">
        <time>2019-03-07T04:33:31Z</time>
      </trkpt>
      <trkpt lat="-32.09225262890097" lon="-71.27163309283093">
        <time>2019-03-07T04:33:31Z</time>
      </trkpt>
      <trkpt lat="-32.09230796017232" lon="-71.27151735216542">
        <time>2019-03-07T04:33:31Z</time>
      </trkpt>
      <trkpt lat="-32.09245290748848" lon="-71.27132037818041">
        <time>2019-03-07T04:33:31Z</time>
      </trkpt>
      <trkpt lat="-32.09264460286028" lon="-71.27105184511245">
        <time>2019-03-07T04:33:31Z</time>
      </trkpt>
      <trkpt lat="-32.09276521230989" lon="-71.27086741973012">
        <time>2019-03-07T04:33:31Z</time>
      </trkpt>
      <trkpt lat="-32.09281522571321" lon="-71.27074875474106">
        <time>2019-03-07T04:33:31Z</time>
      </trkpt>
      <trkpt lat="-32.0932389673675" lon="-71.26990096176236">
        <time>2019-03-07T04:33:31Z</time>
      </trkpt>
      <trkpt lat="-32.09328488224337" lon="-71.26974966237179">
        <time>2019-03-07T04:33:31Z</time>
      </trkpt>
      <trkpt lat="-32.09330522720351" lon="-71.2696618781418">
        <time>2019-03-07T04:33:31Z</time>
      </trkpt>
      <trkpt lat="-32.09332192752665" lon="-71.26955422572725">
        <time>2019-03-07T04:33:31Z</time>
      </trkpt>
      <trkpt lat="-32.09330771296533" lon="-71.26907737128853">
        <time>2019-03-07T04:33:31Z</time>
      </trkpt>
      <trkpt lat="-32.0933034548296" lon="-71.26886101609888">
        <time>2019-03-07T04:33:31Z</time>
      </trkpt>
      <trkpt lat="-32.09328379603643" lon="-71.2686340212836">
        <time>2019-03-07T04:33:31Z</time>
      </trkpt>
      <trkpt lat="-32.09322915033443" lon="-71.26840260482432">
        <time>2019-03-07T04:33:31Z</time>
      </trkpt>
      <trkpt lat="-32.09318002783095" lon="-71.26826922125693">
        <time>2019-03-07T04:33:31Z</time>
      </trkpt>
      <trkpt lat="-32.0931018870615" lon="-71.26810654698038">
        <time>2019-03-07T04:33:31Z</time>
      </trkpt>
      <trkpt lat="-32.09300315978734" lon="-71.26796064214231">
        <time>2019-03-07T04:33:31Z</time>
      </trkpt>
      <trkpt lat="-32.09279493675379" lon="-71.26765031196679">
        <time>2019-03-07T04:33:31Z</time>
      </trkpt>
      <trkpt lat="-32.09274837257431" lon="-71.26757181620525">
        <time>2019-03-07T04:33:31Z</time>
      </trkpt>
      <trkpt lat="-32.0927147084386" lon="-71.26749612588402">
        <time>2019-03-07T04:33:31Z</time>
      </trkpt>
      <trkpt lat="-32.09270220950589" lon="-71.26743218876793">
        <time>2019-03-07T04:33:31Z</time>
      </trkpt>
      <trkpt lat="-32.0926994818037" lon="-71.267182347746">
        <time>2019-03-07T04:33:31Z</time>
      </trkpt>
      <trkpt lat="-32.09270766528606" lon="-71.26701306744309">
        <time>2019-03-07T04:33:31Z</time>
      </trkpt>
      <trkpt lat="-32.09272405357108" lon="-71.26689621720391">
        <time>2019-03-07T04:33:31Z</time>
      </trkpt>
      <trkpt lat="-32.0927584635925" lon="-71.26681353263381">
        <time>2019-03-07T04:33:31Z</time>
      </trkpt>
      <trkpt lat="-32.09313065808119" lon="-71.26623421609148">
        <time>2019-03-07T04:33:31Z</time>
      </trkpt>
      <trkpt lat="-32.09325911913427" lon="-71.26604220464012">
        <time>2019-03-07T04:33:31Z</time>
      </trkpt>
      <trkpt lat="-32.09332443721718" lon="-71.26590397977087">
        <time>2019-03-07T04:33:31Z</time>
      </trkpt>
      <trkpt lat="-32.09336489082423" lon="-71.26577071829478">
        <time>2019-03-07T04:33:31Z</time>
      </trkpt>
      <trkpt lat="-32.09340661834816" lon="-71.2655735880586">
        <time>2019-03-07T04:33:31Z</time>
      </trkpt>
      <trkpt lat="-32.09341755892124" lon="-71.26542206299438">
        <time>2019-03-07T04:33:31Z</time>
      </trkpt>
      <trkpt lat="-32.09342810241729" lon="-71.26526940136337">
        <time>2019-03-07T04:33:31Z</time>
      </trkpt>
      <trkpt lat="-32.09346866502899" lon="-71.26504836840026">
        <time>2019-03-07T04:33:31Z</time>
      </trkpt>
      <trkpt lat="-32.09349028430832" lon="-71.26492655433155">
        <time>2019-03-07T04:33:31Z</time>
      </trkpt>
      <trkpt lat="-32.09357212850252" lon="-71.26469509727993">
        <time>2019-03-07T04:33:31Z</time>
      </trkpt>
      <trkpt lat="-32.09365395924117" lon="-71.26457387580699">
        <time>2019-03-07T04:33:31Z</time>
      </trkpt>
      <trkpt lat="-32.09379167342298" lon="-71.26438132628445">
        <time>2019-03-07T04:33:31Z</time>
      </trkpt>
      <trkpt lat="-32.09389359020045" lon="-71.26425282894327">
        <time>2019-03-07T04:33:31Z</time>
      </trkpt>
      <trkpt lat="-32.09398186790054" lon="-71.26415144086253">
        <time>2019-03-07T04:33:31Z</time>
      </trkpt>
      <trkpt lat="-32.09404613292018" lon="-71.26402373311488">
        <time>2019-03-07T04:33:31Z</time>
      </trkpt>
      <trkpt lat="-32.09406001780571" lon="-71.26381994255412">
        <time>2019-03-07T04:33:31Z</time>
      </trkpt>
      <trkpt lat="-32.09402915972188" lon="-71.2635333984193">
        <time>2019-03-07T04:33:31Z</time>
      </trkpt>
      <trkpt lat="-32.09397811984415" lon="-71.26318581575033">
        <time>2019-03-07T04:33:31Z</time>
      </trkpt>
      <trkpt lat="-32.09391867133621" lon="-71.26297382582311">
        <time>2019-03-07T04:33:31Z</time>
      </trkpt>
      <trkpt lat="-32.09381578050328" lon="-71.26272090345512">
        <time>2019-03-07T04:33:31Z</time>
      </trkpt>
      <trkpt lat="-32.0936554142416" lon="-71.26231116440873">
        <time>2019-03-07T04:33:31Z</time>
      </trkpt>
      <trkpt lat="-32.09361174892447" lon="-71.26223303277736">
        <time>2019-03-07T04:33:31Z</time>
      </trkpt>
      <trkpt lat="-32.09356855132777" lon="-71.2621724582737">
        <time>2019-03-07T04:33:31Z</time>
      </trkpt>
      <trkpt lat="-32.09351367378871" lon="-71.26212105432794">
        <time>2019-03-07T04:33:31Z</time>
      </trkpt>
      <trkpt lat="-32.09345671251255" lon="-71.26206053409219">
        <time>2019-03-07T04:33:31Z</time>
      </trkpt>
      <trkpt lat="-32.09341653721263" lon="-71.26201298860582">
        <time>2019-03-07T04:33:31Z</time>
      </trkpt>
      <trkpt lat="-32.0933835423351" lon="-71.2619569585956">
        <time>2019-03-07T04:33:31Z</time>
      </trkpt>
      <trkpt lat="-32.09335719304689" lon="-71.26190530895109">
        <time>2019-03-07T04:33:31Z</time>
      </trkpt>
      <trkpt lat="-32.09328714446207" lon="-71.26175505891771">
        <time>2019-03-07T04:33:31Z</time>
      </trkpt>
      <trkpt lat="-32.09322181173172" lon="-71.26162685405251">
        <time>2019-03-07T04:33:31Z</time>
      </trkpt>
      <trkpt lat="-32.09313160100393" lon="-71.26150566320362">
        <time>2019-03-07T04:33:31Z</time>
      </trkpt>
      <trkpt lat="-32.09277946456172" lon="-71.26108448915505">
        <time>2019-03-07T04:33:31Z</time>
      </trkpt>
      <trkpt lat="-32.09254879212833" lon="-71.26082817093182">
        <time>2019-03-07T04:33:31Z</time>
      </trkpt>
      <trkpt lat="-32.09245369359689" lon="-71.26071092759872">
        <time>2019-03-07T04:33:31Z</time>
      </trkpt>
      <trkpt lat="-32.09219524718999" lon="-71.26036428479654">
        <time>2019-03-07T04:33:31Z</time>
      </trkpt>
      <trkpt lat="-32.09191916211041" lon="-71.25995766061566">
        <time>2019-03-07T04:33:31Z</time>
      </trkpt>
      <trkpt lat="-32.09179310826976" lon="-71.2597495935962">
        <time>2019-03-07T04:33:31Z</time>
      </trkpt>
      <trkpt lat="-32.09167502841563" lon="-71.25951574963564">
        <time>2019-03-07T04:33:31Z</time>
      </trkpt>
      <trkpt lat="-32.0915572349099" lon="-71.25930373125945">
        <time>2019-03-07T04:33:31Z</time>
      </trkpt>
      <trkpt lat="-32.09144566274031" lon="-71.25913281433621">
        <time>2019-03-07T04:33:31Z</time>
      </trkpt>
      <trkpt lat="-32.09131802495544" lon="-71.25898238473845">
        <time>2019-03-07T04:33:31Z</time>
      </trkpt>
      <trkpt lat="-32.09107916335291" lon="-71.25871211702543">
        <time>2019-03-07T04:33:31Z</time>
      </trkpt>
      <trkpt lat="-32.09103544920485" lon="-71.25865193564719">
        <time>2019-03-07T04:33:31Z</time>
      </trkpt>
      <trkpt lat="-32.09100814096516" lon="-71.25860118007645">
        <time>2019-03-07T04:33:31Z</time>
      </trkpt>
      <trkpt lat="-32.09084985186339" lon="-71.2582787847761">
        <time>2019-03-07T04:33:31Z</time>
      </trkpt>
      <trkpt lat="-32.09075982604065" lon="-71.25805902735269">
        <time>2019-03-07T04:33:31Z</time>
      </trkpt>
      <trkpt lat="-32.09071721248088" lon="-71.25790230192344">
        <time>2019-03-07T04:33:31Z</time>
      </trkpt>
      <trkpt lat="-32.09069819924739" lon="-71.25766205583329">
        <time>2019-03-07T04:33:31Z</time>
      </trkpt>
      <trkpt lat="-32.09066799700553" lon="-71.25712367179902">
        <time>2019-03-07T04:33:31Z</time>
      </trkpt>
      <trkpt lat="-32.09063129413263" lon="-71.25690890150631">
        <time>2019-03-07T04:33:31Z</time>
      </trkpt>
      <trkpt lat="-32.09057915002614" lon="-71.25664144124866">
        <time>2019-03-07T04:33:31Z</time>
      </trkpt>
      <trkpt lat="-32.09057007716405" lon="-71.25651280204825">
        <time>2019-03-07T04:33:31Z</time>
      </trkpt>
      <trkpt lat="-32.0905851546525" lon="-71.25637842958172">
        <time>2019-03-07T04:33:31Z</time>
      </trkpt>
      <trkpt lat="-32.09060673427724" lon="-71.25622722046204">
        <time>2019-03-07T04:33:31Z</time>
      </trkpt>
      <trkpt lat="-32.09071784710385" lon="-71.25566660028247">
        <time>2019-03-07T04:33:31Z</time>
      </trkpt>
      <trkpt lat="-32.09077100795278" lon="-71.25548294098351">
        <time>2019-03-07T04:33:31Z</time>
      </trkpt>
      <trkpt lat="-32.09079717689342" lon="-71.25542653907733">
        <time>2019-03-07T04:33:31Z</time>
      </trkpt>
      <trkpt lat="-32.09087007438152" lon="-71.2553193744385">
        <time>2019-03-07T04:33:31Z</time>
      </trkpt>
      <trkpt lat="-32.09093244978256" lon="-71.2552565330782">
        <time>2019-03-07T04:33:31Z</time>
      </trkpt>
      <trkpt lat="-32.09117178168759" lon="-71.25501469296552">
        <time>2019-03-07T04:33:31Z</time>
      </trkpt>
      <trkpt lat="-32.09140138657582" lon="-71.25480212477315">
        <time>2019-03-07T04:33:31Z</time>
      </trkpt>
      <trkpt lat="-32.09160644794102" lon="-71.25465090626211">
        <time>2019-03-07T04:33:31Z</time>
      </trkpt>
      <trkpt lat="-32.09167473582569" lon="-71.25460661532863">
        <time>2019-03-07T04:33:31Z</time>
      </trkpt>
      <trkpt lat="-32.09177661370508" lon="-71.25454929291568">
        <time>2019-03-07T04:33:31Z</time>
      </trkpt>
      <trkpt lat="-32.09192758178322" lon="-71.25446768479179">
        <time>2019-03-07T04:33:31Z</time>
      </trkpt>
      <trkpt lat="-32.09199220347696" lon="-71.25441890550314">
        <time>2019-03-07T04:33:31Z</time>
      </trkpt>
      <trkpt lat="-32.09204760904228" lon="-71.25437683353636">
        <time>2019-03-07T04:33:31Z</time>
      </trkpt>
      <trkpt lat="-32.09208801436586" lon="-71.25433411573989">
        <time>2019-03-07T04:33:31Z</time>
      </trkpt>
      <trkpt lat="-32.09233511164027" lon="-71.2540563767344">
        <time>2019-03-07T04:33:31Z</time>
      </trkpt>
      <trkpt lat="-32.09244344143377" lon="-71.25392693224261">
        <time>2019-03-07T04:33:31Z</time>
      </trkpt>
      <trkpt lat="-32.09264022656029" lon="-71.25362456568905">
        <time>2019-03-07T04:33:31Z</time>
      </trkpt>
      <trkpt lat="-32.09272337410565" lon="-71.25350144417722">
        <time>2019-03-07T04:33:31Z</time>
      </trkpt>
      <trkpt lat="-32.09279375649813" lon="-71.253411801127">
        <time>2019-03-07T04:33:31Z</time>
      </trkpt>
      <trkpt lat="-32.09290434589936" lon="-71.253244410956">
        <time>2019-03-07T04:33:31Z</time>
      </trkpt>
      <trkpt lat="-32.09298990005588" lon="-71.253126051631">
        <time>2019-03-07T04:33:31Z</time>
      </trkpt>
      <trkpt lat="-32.0930334308128" lon="-71.25301678728076">
        <time>2019-03-07T04:33:31Z</time>
      </trkpt>
      <trkpt lat="-32.09306730848408" lon="-71.25288479549093">
        <time>2019-03-07T04:33:31Z</time>
      </trkpt>
      <trkpt lat="-32.09308832916107" lon="-71.25277453491641">
        <time>2019-03-07T04:33:31Z</time>
      </trkpt>
      <trkpt lat="-32.09309102354975" lon="-71.25264795902794">
        <time>2019-03-07T04:33:31Z</time>
      </trkpt>
      <trkpt lat="-32.09308332476988" lon="-71.25253034551413">
        <time>2019-03-07T04:33:31Z</time>
      </trkpt>
      <trkpt lat="-32.0930537375557" lon="-71.25238232885603">
        <time>2019-03-07T04:33:31Z</time>
      </trkpt>
      <trkpt lat="-32.09300523907878" lon="-71.25223283213732">
        <time>2019-03-07T04:33:31Z</time>
      </trkpt>
      <trkpt lat="-32.09283244021467" lon="-71.25176133243383">
        <time>2019-03-07T04:33:31Z</time>
      </trkpt>
      <trkpt lat="-32.09264181473945" lon="-71.25127851211248">
        <time>2019-03-07T04:33:31Z</time>
      </trkpt>
      <trkpt lat="-32.09259209485612" lon="-71.25118171252468">
        <time>2019-03-07T04:33:31Z</time>
      </trkpt>
      <trkpt lat="-32.09252372676146" lon="-71.25109636516854">
        <time>2019-03-07T04:33:31Z</time>
      </trkpt>
      <trkpt lat="-32.09206666332538" lon="-71.2504829123241">
        <time>2019-03-07T04:33:31Z</time>
      </trkpt>
      <trkpt lat="-32.09197193803743" lon="-71.2503465476356">
        <time>2019-03-07T04:33:31Z</time>
      </trkpt>
      <trkpt lat="-32.09190336693887" lon="-71.25023513077102">
        <time>2019-03-07T04:33:31Z</time>
      </trkpt>
      <trkpt lat="-32.09186199707381" lon="-71.25014156835944">
        <time>2019-03-07T04:33:31Z</time>
      </trkpt>
      <trkpt lat="-32.09183980195858" lon="-71.25005690229641">
        <time>2019-03-07T04:33:31Z</time>
      </trkpt>
      <trkpt lat="-32.09184153830551" lon="-71.24998379007091">
        <time>2019-03-07T04:33:31Z</time>
      </trkpt>
      <trkpt lat="-32.09185799088868" lon="-71.24990060350913">
        <time>2019-03-07T04:33:31Z</time>
      </trkpt>
      <trkpt lat="-32.09201452423552" lon="-71.24960002654429">
        <time>2019-03-07T04:33:31Z</time>
      </trkpt>
      <trkpt lat="-32.09206064346261" lon="-71.24949654329433">
        <time>2019-03-07T04:33:31Z</time>
      </trkpt>
      <trkpt lat="-32.09206722534236" lon="-71.24944692169483">
        <time>2019-03-07T04:33:31Z</time>
      </trkpt>
      <trkpt lat="-32.09206732205801" lon="-71.24940379216179">
        <time>2019-03-07T04:33:31Z</time>
      </trkpt>
      <trkpt lat="-32.09206198992177" lon="-71.24923109538621">
        <time>2019-03-07T04:33:31Z</time>
      </trkpt>
      <trkpt lat="-32.09206445350247" lon="-71.24916602266804">
        <time>2019-03-07T04:33:31Z</time>
      </trkpt>
      <trkpt lat="-32.09207258586686" lon="-71.24910844625512">
        <time>2019-03-07T04:33:31Z</time>
      </trkpt>
      <trkpt lat="-32.09209662896418" lon="-71.24901795064857">
        <time>2019-03-07T04:33:31Z</time>
      </trkpt>
      <trkpt lat="-32.0921235467725" lon="-71.24894801046574">
        <time>2019-03-07T04:33:31Z</time>
      </trkpt>
      <trkpt lat="-32.09218521050608" lon="-71.24885207710278">
        <time>2019-03-07T04:33:31Z</time>
      </trkpt>
      <trkpt lat="-32.09224588731185" lon="-71.24875048086309">
        <time>2019-03-07T04:33:31Z</time>
      </trkpt>
      <trkpt lat="-32.09227379919862" lon="-71.24869004826081">
        <time>2019-03-07T04:33:31Z</time>
      </trkpt>
      <trkpt lat="-32.09228429219051" lon="-71.2486409192896">
        <time>2019-03-07T04:33:31Z</time>
      </trkpt>
      <trkpt lat="-32.09228899073018" lon="-71.24857827422417">
        <time>2019-03-07T04:33:31Z</time>
      </trkpt>
      <trkpt lat="-32.09227995214489" lon="-71.24849005208763">
        <time>2019-03-07T04:33:31Z</time>
      </trkpt>
      <trkpt lat="-32.09224525992777" lon="-71.24833599705234">
        <time>2019-03-07T04:33:31Z</time>
      </trkpt>
      <trkpt lat="-32.09219608569401" lon="-71.24820898619804">
        <time>2019-03-07T04:33:31Z</time>
      </trkpt>
      <trkpt lat="-32.09206701999696" lon="-71.24794428208985">
        <time>2019-03-07T04:33:31Z</time>
      </trkpt>
      <trkpt lat="-32.09193133163595" lon="-71.24769641437497">
        <time>2019-03-07T04:33:31Z</time>
      </trkpt>
      <trkpt lat="-32.09188694850084" lon="-71.24762425074059">
        <time>2019-03-07T04:33:31Z</time>
      </trkpt>
      <trkpt lat="-32.09184466764901" lon="-71.24756638760468">
        <time>2019-03-07T04:33:31Z</time>
      </trkpt>
      <trkpt lat="-32.09180521275444" lon="-71.24752630707613">
        <time>2019-03-07T04:33:31Z</time>
      </trkpt>
      <trkpt lat="-32.09175760705552" lon="-71.24749846951643">
        <time>2019-03-07T04:33:31Z</time>
      </trkpt>
      <trkpt lat="-32.0915051713143" lon="-71.2473797311152">
        <time>2019-03-07T04:33:31Z</time>
      </trkpt>
      <trkpt lat="-32.09146311750832" lon="-71.24735092032761">
        <time>2019-03-07T04:33:31Z</time>
      </trkpt>
      <trkpt lat="-32.09117820833528" lon="-71.24714347004996">
        <time>2019-03-07T04:33:31Z</time>
      </trkpt>
      <trkpt lat="-32.09114027413181" lon="-71.2471212662922">
        <time>2019-03-07T04:33:31Z</time>
      </trkpt>
      <trkpt lat="-32.09107472987098" lon="-71.24708336877905">
        <time>2019-03-07T04:33:31Z</time>
      </trkpt>
      <trkpt lat="-32.09086133071789" lon="-71.24696553648749">
        <time>2019-03-07T04:33:31Z</time>
      </trkpt>
      <trkpt lat="-32.09025395858762" lon="-71.24663446412841">
        <time>2019-03-07T04:33:31Z</time>
      </trkpt>
      <trkpt lat="-32.08994339964028" lon="-71.2464417678075">
        <time>2019-03-07T04:33:31Z</time>
      </trkpt>
      <trkpt lat="-32.08988715006873" lon="-71.24641554941798">
        <time>2019-03-07T04:33:31Z</time>
      </trkpt>
      <trkpt lat="-32.08977661199013" lon="-71.24637673559265">
        <time>2019-03-07T04:33:31Z</time>
      </trkpt>
      <trkpt lat="-32.08970283961389" lon="-71.24635134792158">
        <time>2019-03-07T04:33:31Z</time>
      </trkpt>
      <trkpt lat="-32.08966339113407" lon="-71.24633127399282">
        <time>2019-03-07T04:33:31Z</time>
      </trkpt>
      <trkpt lat="-32.08963327297115" lon="-71.24630673985749">
        <time>2019-03-07T04:33:31Z</time>
      </trkpt>
      <trkpt lat="-32.08959589831878" lon="-71.2462645213469">
        <time>2019-03-07T04:33:31Z</time>
      </trkpt>
      <trkpt lat="-32.08957222445505" lon="-71.24624667679866">
        <time>2019-03-07T04:33:31Z</time>
      </trkpt>
      <trkpt lat="-32.08953680299773" lon="-71.24622748486392">
        <time>2019-03-07T04:33:31Z</time>
      </trkpt>
      <trkpt lat="-32.0894987362135" lon="-71.24621276701299">
        <time>2019-03-07T04:33:31Z</time>
      </trkpt>
      <trkpt lat="-32.08943610083155" lon="-71.24619395800245">
        <time>2019-03-07T04:33:31Z</time>
      </trkpt>
      <trkpt lat="-32.08938071439368" lon="-71.24619004666079">
        <time>2019-03-07T04:33:31Z</time>
      </trkpt>
      <trkpt lat="-32.08925425480967" lon="-71.24619413450637">
        <time>2019-03-07T04:33:31Z</time>
      </trkpt>
      <trkpt lat="-32.08913341618634" lon="-71.24621410408933">
        <time>2019-03-07T04:33:31Z</time>
      </trkpt>
      <trkpt lat="-32.08893324409576" lon="-71.24627882552798">
        <time>2019-03-07T04:33:31Z</time>
      </trkpt>
      <trkpt lat="-32.08857696436483" lon="-71.24640324011602">
        <time>2019-03-07T04:33:31Z</time>
      </trkpt>
      <trkpt lat="-32.08852612775537" lon="-71.24641608367426">
        <time>2019-03-07T04:33:31Z</time>
      </trkpt>
      <trkpt lat="-32.08847368019299" lon="-71.24643146165634">
        <time>2019-03-07T04:33:31Z</time>
      </trkpt>
      <trkpt lat="-32.08833003184014" lon="-71.24645883875517">
        <time>2019-03-07T04:33:31Z</time>
      </trkpt>
      <trkpt lat="-32.0882031167415" lon="-71.246469496091">
        <time>2019-03-07T04:33:31Z</time>
      </trkpt>
      <trkpt lat="-32.08809385681122" lon="-71.24646457849141">
        <time>2019-03-07T04:33:31Z</time>
      </trkpt>
      <trkpt lat="-32.08802633992895" lon="-71.24646012950653">
        <time>2019-03-07T04:33:31Z</time>
      </trkpt>
      <trkpt lat="-32.08780456642189" lon="-71.24645569018863">
        <time>2019-03-07T04:33:31Z</time>
      </trkpt>
      <trkpt lat="-32.08767500196603" lon="-71.2464596050522">
        <time>2019-03-07T04:33:31Z</time>
      </trkpt>
      <trkpt lat="-32.08755057760082" lon="-71.24648055205581">
        <time>2019-03-07T04:33:31Z</time>
      </trkpt>
      <trkpt lat="-32.08738436637353" lon="-71.24651687176021">
        <time>2019-03-07T04:33:31Z</time>
      </trkpt>
      <trkpt lat="-32.08724112218956" lon="-71.2465684227921">
        <time>2019-03-07T04:33:31Z</time>
      </trkpt>
      <trkpt lat="-32.0866638483592" lon="-71.24680704567255">
        <time>2019-03-07T04:33:31Z</time>
      </trkpt>
      <trkpt lat="-32.08663291580078" lon="-71.24683395583593">
        <time>2019-03-07T04:33:31Z</time>
      </trkpt>
      <trkpt lat="-32.08659518621438" lon="-71.24689189365994">
        <time>2019-03-07T04:33:31Z</time>
      </trkpt>
      <trkpt lat="-32.08655917370734" lon="-71.24699412199247">
        <time>2019-03-07T04:33:31Z</time>
      </trkpt>
      <trkpt lat="-32.0864697764851" lon="-71.24721215715766">
        <time>2019-03-07T04:33:31Z</time>
      </trkpt>
      <trkpt lat="-32.08643013112714" lon="-71.24729095218865">
        <time>2019-03-07T04:33:31Z</time>
      </trkpt>
      <trkpt lat="-32.08635962652853" lon="-71.2474113949778">
        <time>2019-03-07T04:33:31Z</time>
      </trkpt>
      <trkpt lat="-32.0863023880996" lon="-71.24748033988038">
        <time>2019-03-07T04:33:31Z</time>
      </trkpt>
      <trkpt lat="-32.08611822316367" lon="-71.24766390934155">
        <time>2019-03-07T04:33:31Z</time>
      </trkpt>
      <trkpt lat="-32.08604495219483" lon="-71.24774311335045">
        <time>2019-03-07T04:33:31Z</time>
      </trkpt>
      <trkpt lat="-32.08589261964091" lon="-71.24790220443406">
        <time>2019-03-07T04:33:31Z</time>
      </trkpt>
      <trkpt lat="-32.08583395630201" lon="-71.24797232569466">
        <time>2019-03-07T04:33:31Z</time>
      </trkpt>
      <trkpt lat="-32.0857923461196" lon="-71.24802784574766">
        <time>2019-03-07T04:33:31Z</time>
      </trkpt>
      <trkpt lat="-32.08575534796255" lon="-71.24808664317578">
        <time>2019-03-07T04:33:31Z</time>
      </trkpt>
      <trkpt lat="-32.08570463302478" lon="-71.24817035965188">
        <time>2019-03-07T04:33:31Z</time>
      </trkpt>
      <trkpt lat="-32.08565726231376" lon="-71.24824204049749">
        <time>2019-03-07T04:33:31Z</time>
      </trkpt>
      <trkpt lat="-32.08562580090537" lon="-71.24828620435733">
        <time>2019-03-07T04:33:31Z</time>
      </trkpt>
      <trkpt lat="-32.08559621987544" lon="-71.24831430961743">
        <time>2019-03-07T04:33:31Z</time>
      </trkpt>
      <trkpt lat="-32.08554774930899" lon="-71.24835144085861">
        <time>2019-03-07T04:33:31Z</time>
      </trkpt>
      <trkpt lat="-32.08550537609482" lon="-71.24836901147164">
        <time>2019-03-07T04:33:31Z</time>
      </trkpt>
      <trkpt lat="-32.08533573619948" lon="-71.24842860321714">
        <time>2019-03-07T04:33:31Z</time>
      </trkpt>
      <trkpt lat="-32.08527532837329" lon="-71.24844420234928">
        <time>2019-03-07T04:33:31Z</time>
      </trkpt>
      <trkpt lat="-32.08522945605954" lon="-71.24844922417822">
        <time>2019-03-07T04:33:31Z</time>
      </trkpt>
      <trkpt lat="-32.08514372241272" lon="-71.24844529509335">
        <time>2019-03-07T04:33:31Z</time>
      </trkpt>
      <trkpt lat="-32.08494814382846" lon="-71.24839460372994">
        <time>2019-03-07T04:33:31Z</time>
      </trkpt>
      <trkpt lat="-32.08486538582574" lon="-71.24834940885683">
        <time>2019-03-07T04:33:31Z</time>
      </trkpt>
      <trkpt lat="-32.08479244630608" lon="-71.24830448871731">
        <time>2019-03-07T04:33:31Z</time>
      </trkpt>
      <trkpt lat="-32.08471694255628" lon="-71.24826947170389">
        <time>2019-03-07T04:33:31Z</time>
      </trkpt>
      <trkpt lat="-32.08465893525323" lon="-71.24823984540196">
        <time>2019-03-07T04:33:31Z</time>
      </trkpt>
      <trkpt lat="-32.08459222336929" lon="-71.24819708151742">
        <time>2019-03-07T04:33:31Z</time>
      </trkpt>
      <trkpt lat="-32.0845365019563" lon="-71.24814816383241">
        <time>2019-03-07T04:33:31Z</time>
      </trkpt>
      <trkpt lat="-32.08445948746149" lon="-71.24805517828622">
        <time>2019-03-07T04:33:31Z</time>
      </trkpt>
      <trkpt lat="-32.08438650012808" lon="-71.24796353046939">
        <time>2019-03-07T04:33:31Z</time>
      </trkpt>
      <trkpt lat="-32.0843295713148" lon="-71.24791520317385">
        <time>2019-03-07T04:33:31Z</time>
      </trkpt>
      <trkpt lat="-32.08426578865565" lon="-71.24787217549847">
        <time>2019-03-07T04:33:31Z</time>
      </trkpt>
      <trkpt lat="-32.08421102827853" lon="-71.24780827150147">
        <time>2019-03-07T04:33:31Z</time>
      </trkpt>
      <trkpt lat="-32.0841375051608" lon="-71.24770034557082">
        <time>2019-03-07T04:33:31Z</time>
      </trkpt>
      <trkpt lat="-32.08407294010048" lon="-71.24755565896666">
        <time>2019-03-07T04:33:31Z</time>
      </trkpt>
      <trkpt lat="-32.08396694883218" lon="-71.24733964082925">
        <time>2019-03-07T04:33:31Z</time>
      </trkpt>
      <trkpt lat="-32.08388787890683" lon="-71.24719575049032">
        <time>2019-03-07T04:33:31Z</time>
      </trkpt>
      <trkpt lat="-32.08378779237826" lon="-71.24709216795375">
        <time>2019-03-07T04:33:31Z</time>
      </trkpt>
      <trkpt lat="-32.0837075823861" lon="-71.24704944574479">
        <time>2019-03-07T04:33:31Z</time>
      </trkpt>
      <trkpt lat="-32.08346849528258" lon="-71.24691256439611">
        <time>2019-03-07T04:33:31Z</time>
      </trkpt>
      <trkpt lat="-32.08280289347556" lon="-71.24644374024122">
        <time>2019-03-07T04:33:31Z</time>
      </trkpt>
      <trkpt lat="-32.08259967205635" lon="-71.24624793552913">
        <time>2019-03-07T04:33:31Z</time>
      </trkpt>
      <trkpt lat="-32.0824894754882" lon="-71.24611081538055">
        <time>2019-03-07T04:33:31Z</time>
      </trkpt>
      <trkpt lat="-32.08243045928047" lon="-71.24596397136632">
        <time>2019-03-07T04:33:31Z</time>
      </trkpt>
      <trkpt lat="-32.08240981985007" lon="-71.24585679597361">
        <time>2019-03-07T04:33:31Z</time>
      </trkpt>
      <trkpt lat="-32.08236269884607" lon="-71.24537681052649">
        <time>2019-03-07T04:33:31Z</time>
      </trkpt>
      <trkpt lat="-32.08233893424247" lon="-71.24510947226578">
        <time>2019-03-07T04:33:31Z</time>
      </trkpt>
      <trkpt lat="-32.08228522895694" lon="-71.24439144584773">
        <time>2019-03-07T04:33:31Z</time>
      </trkpt>
      <trkpt lat="-32.08226412479345" lon="-71.24427125898548">
        <time>2019-03-07T04:33:31Z</time>
      </trkpt>
      <trkpt lat="-32.08222713288577" lon="-71.2441715428017">
        <time>2019-03-07T04:33:31Z</time>
      </trkpt>
      <trkpt lat="-32.08217907221884" lon="-71.24407873234799">
        <time>2019-03-07T04:33:31Z</time>
      </trkpt>
      <trkpt lat="-32.08214293058136" lon="-71.24403469226586">
        <time>2019-03-07T04:33:31Z</time>
      </trkpt>
      <trkpt lat="-32.08209094000159" lon="-71.24398812501423">
        <time>2019-03-07T04:33:31Z</time>
      </trkpt>
      <trkpt lat="-32.08200290665091" lon="-71.24389272254598">
        <time>2019-03-07T04:33:31Z</time>
      </trkpt>
      <trkpt lat="-32.08190381552111" lon="-71.24377500954819">
        <time>2019-03-07T04:33:31Z</time>
      </trkpt>
      <trkpt lat="-32.08186668978809" lon="-71.24371770021496">
        <time>2019-03-07T04:33:31Z</time>
      </trkpt>
      <trkpt lat="-32.08181778201014" lon="-71.24362758595123">
        <time>2019-03-07T04:33:31Z</time>
      </trkpt>
      <trkpt lat="-32.08176155052769" lon="-71.24354172796905">
        <time>2019-03-07T04:33:31Z</time>
      </trkpt>
      <trkpt lat="-32.08169826524836" lon="-71.2434724533199">
        <time>2019-03-07T04:33:31Z</time>
      </trkpt>
      <trkpt lat="-32.08157660248909" lon="-71.24334109885315">
        <time>2019-03-07T04:33:31Z</time>
      </trkpt>
      <trkpt lat="-32.08148074242641" lon="-71.24319260150924">
        <time>2019-03-07T04:33:31Z</time>
      </trkpt>
      <trkpt lat="-32.08139698316411" lon="-71.24303444366628">
        <time>2019-03-07T04:33:31Z</time>
      </trkpt>
      <trkpt lat="-32.08133050900322" lon="-71.24288580447444">
        <time>2019-03-07T04:33:31Z</time>
      </trkpt>
      <trkpt lat="-32.08127625718558" lon="-71.24279546118208">
        <time>2019-03-07T04:33:31Z</time>
      </trkpt>
      <trkpt lat="-32.08121792185321" lon="-71.24274099512907">
        <time>2019-03-07T04:33:31Z</time>
      </trkpt>
      <trkpt lat="-32.08108735155779" lon="-71.24266574193857">
        <time>2019-03-07T04:33:31Z</time>
      </trkpt>
      <trkpt lat="-32.08092630643224" lon="-71.24254846305473">
        <time>2019-03-07T04:33:31Z</time>
      </trkpt>
      <trkpt lat="-32.08066123014229" lon="-71.24232255597207">
        <time>2019-03-07T04:33:31Z</time>
      </trkpt>
      <trkpt lat="-32.08049719763397" lon="-71.2421700256065">
        <time>2019-03-07T04:33:31Z</time>
      </trkpt>
      <trkpt lat="-32.0801977209711" lon="-71.24186463120753">
        <time>2019-03-07T04:33:31Z</time>
      </trkpt>
      <trkpt lat="-32.08000717334151" lon="-71.24165087958271">
        <time>2019-03-07T04:33:31Z</time>
      </trkpt>
      <trkpt lat="-32.07994170925352" lon="-71.24155150427963">
        <time>2019-03-07T04:33:31Z</time>
      </trkpt>
      <trkpt lat="-32.07986943454743" lon="-71.2414327373538">
        <time>2019-03-07T04:33:31Z</time>
      </trkpt>
      <trkpt lat="-32.07979647567989" lon="-71.24134497933466">
        <time>2019-03-07T04:33:31Z</time>
      </trkpt>
      <trkpt lat="-32.0797175676247" lon="-71.24126251656755">
        <time>2019-03-07T04:33:31Z</time>
      </trkpt>
      <trkpt lat="-32.07952278392376" lon="-71.24110041617354">
        <time>2019-03-07T04:33:31Z</time>
      </trkpt>
      <trkpt lat="-32.07946926849166" lon="-71.24101258098779">
        <time>2019-03-07T04:33:31Z</time>
      </trkpt>
      <trkpt lat="-32.07944078201108" lon="-71.24093376357007">
        <time>2019-03-07T04:33:31Z</time>
      </trkpt>
      <trkpt lat="-32.07942412839034" lon="-71.24085346686262">
        <time>2019-03-07T04:33:31Z</time>
      </trkpt>
      <trkpt lat="-32.07941454854085" lon="-71.24069341181227">
        <time>2019-03-07T04:33:31Z</time>
      </trkpt>
      <trkpt lat="-32.07940830569729" lon="-71.24060178485732">
        <time>2019-03-07T04:33:31Z</time>
      </trkpt>
      <trkpt lat="-32.07939214050616" lon="-71.24054266866864">
        <time>2019-03-07T04:33:31Z</time>
      </trkpt>
      <trkpt lat="-32.07936612391976" lon="-71.24048733054393">
        <time>2019-03-07T04:33:31Z</time>
      </trkpt>
      <trkpt lat="-32.07928294064186" lon="-71.2403468810363">
        <time>2019-03-07T04:33:31Z</time>
      </trkpt>
      <trkpt lat="-32.07909545148634" lon="-71.24005473211609">
        <time>2019-03-07T04:33:31Z</time>
      </trkpt>
      <trkpt lat="-32.0790617810578" lon="-71.23996918176214">
        <time>2019-03-07T04:33:31Z</time>
      </trkpt>
      <trkpt lat="-32.07903890829631" lon="-71.23985945833233">
        <time>2019-03-07T04:33:31Z</time>
      </trkpt>
      <trkpt lat="-32.07896190582405" lon="-71.23957211522699">
        <time>2019-03-07T04:33:31Z</time>
      </trkpt>
      <trkpt lat="-32.07891296928065" lon="-71.2394398184813">
        <time>2019-03-07T04:33:31Z</time>
      </trkpt>
      <trkpt lat="-32.07884653367572" lon="-71.23929098358498">
        <time>2019-03-07T04:33:31Z</time>
      </trkpt>
      <trkpt lat="-32.07878952554997" lon="-71.2391850219107">
        <time>2019-03-07T04:33:31Z</time>
      </trkpt>
      <trkpt lat="-32.07869517066867" lon="-71.23905526844958">
        <time>2019-03-07T04:33:31Z</time>
      </trkpt>
      <trkpt lat="-32.07842119802152" lon="-71.23873590172383">
        <time>2019-03-07T04:33:31Z</time>
      </trkpt>
      <trkpt lat="-32.07819057075872" lon="-71.23843575229836">
        <time>2019-03-07T04:33:31Z</time>
      </trkpt>
      <trkpt lat="-32.07813807605804" lon="-71.23835140127527">
        <time>2019-03-07T04:33:31Z</time>
      </trkpt>
      <trkpt lat="-32.07809041091787" lon="-71.23825037240387">
        <time>2019-03-07T04:33:31Z</time>
      </trkpt>
      <trkpt lat="-32.0780343099305" lon="-71.23812503112374">
        <time>2019-03-07T04:33:31Z</time>
      </trkpt>
      <trkpt lat="-32.07798191385161" lon="-71.23800621045402">
        <time>2019-03-07T04:33:31Z</time>
      </trkpt>
      <trkpt lat="-32.07793766528813" lon="-71.23791652385474">
        <time>2019-03-07T04:33:31Z</time>
      </trkpt>
      <trkpt lat="-32.07781366480857" lon="-71.23770361262874">
        <time>2019-03-07T04:33:31Z</time>
      </trkpt>
      <trkpt lat="-32.07772135833697" lon="-71.23753461344238">
        <time>2019-03-07T04:33:31Z</time>
      </trkpt>
      <trkpt lat="-32.07765853544699" lon="-71.23742208727828">
        <time>2019-03-07T04:33:31Z</time>
      </trkpt>
      <trkpt lat="-32.07761685415697" lon="-71.23731582082914">
        <time>2019-03-07T04:33:31Z</time>
      </trkpt>
      <trkpt lat="-32.07759478890919" lon="-71.23722752931255">
        <time>2019-03-07T04:33:31Z</time>
      </trkpt>
      <trkpt lat="-32.07758857312837" lon="-71.23713071493306">
        <time>2019-03-07T04:33:31Z</time>
      </trkpt>
      <trkpt lat="-32.07760475041818" lon="-71.23694355183869">
        <time>2019-03-07T04:33:31Z</time>
      </trkpt>
      <trkpt lat="-32.07763580867976" lon="-71.23683136445722">
        <time>2019-03-07T04:33:31Z</time>
      </trkpt>
      <trkpt lat="-32.07768138269837" lon="-71.23671717269056">
        <time>2019-03-07T04:33:31Z</time>
      </trkpt>
      <trkpt lat="-32.07768827935579" lon="-71.23660235695593">
        <time>2019-03-07T04:33:31Z</time>
      </trkpt>
      <trkpt lat="-32.07765564001665" lon="-71.23651051730248">
        <time>2019-03-07T04:33:31Z</time>
      </trkpt>
      <trkpt lat="-32.07760187916599" lon="-71.23643881780129">
        <time>2019-03-07T04:33:31Z</time>
      </trkpt>
      <trkpt lat="-32.07753932570504" lon="-71.23640246869985">
        <time>2019-03-07T04:33:31Z</time>
      </trkpt>
      <trkpt lat="-32.0774885687656" lon="-71.23638996286364">
        <time>2019-03-07T04:33:31Z</time>
      </trkpt>
      <trkpt lat="-32.07742227143449" lon="-71.23639553683817">
        <time>2019-03-07T04:33:31Z</time>
      </trkpt>
      <trkpt lat="-32.07736651405238" lon="-71.23642104626629">
        <time>2019-03-07T04:33:31Z</time>
      </trkpt>
      <trkpt lat="-32.07726456019327" lon="-71.23647673417368">
        <time>2019-03-07T04:33:31Z</time>
      </trkpt>
      <trkpt lat="-32.07714710325028" lon="-71.23653767436893">
        <time>2019-03-07T04:33:31Z</time>
      </trkpt>
      <trkpt lat="-32.07707690911018" lon="-71.23655674962794">
        <time>2019-03-07T04:33:31Z</time>
      </trkpt>
      <trkpt lat="-32.07699933233144" lon="-71.23656434026755">
        <time>2019-03-07T04:33:31Z</time>
      </trkpt>
      <trkpt lat="-32.07688864569087" lon="-71.23656145617699">
        <time>2019-03-07T04:33:31Z</time>
      </trkpt>
      <trkpt lat="-32.07677468478724" lon="-71.23654674998532">
        <time>2019-03-07T04:33:31Z</time>
      </trkpt>
      <trkpt lat="-32.07667979314247" lon="-71.23651220162117">
        <time>2019-03-07T04:33:31Z</time>
      </trkpt>
      <trkpt lat="-32.0765750454784" lon="-71.23645254615271">
        <time>2019-03-07T04:33:31Z</time>
      </trkpt>
      <trkpt lat="-32.07649560805879" lon="-71.23638467691065">
        <time>2019-03-07T04:33:31Z</time>
      </trkpt>
      <trkpt lat="-32.07639534656817" lon="-71.23626199907058">
        <time>2019-03-07T04:33:31Z</time>
      </trkpt>
      <trkpt lat="-32.07619240189106" lon="-71.23597565051587">
        <time>2019-03-07T04:33:31Z</time>
      </trkpt>
      <trkpt lat="-32.07609130000846" lon="-71.23586978947216">
        <time>2019-03-07T04:33:31Z</time>
      </trkpt>
      <trkpt lat="-32.07604034089105" lon="-71.23580838129287">
        <time>2019-03-07T04:33:31Z</time>
      </trkpt>
      <trkpt lat="-32.07589984606491" lon="-71.23567060483046">
        <time>2019-03-07T04:33:31Z</time>
      </trkpt>
      <trkpt lat="-32.07578766403677" lon="-71.23557411706118">
        <time>2019-03-07T04:33:31Z</time>
      </trkpt>
      <trkpt lat="-32.0756388088891" lon="-71.23547409211244">
        <time>2019-03-07T04:33:31Z</time>
      </trkpt>
      <trkpt lat="-32.07546646276322" lon="-71.23538117242489">
        <time>2019-03-07T04:33:31Z</time>
      </trkpt>
      <trkpt lat="-32.07532861952348" lon="-71.23529046848397">
        <time>2019-03-07T04:33:31Z</time>
      </trkpt>
      <trkpt lat="-32.07522888564835" lon="-71.23520467931661">
        <time>2019-03-07T04:33:31Z</time>
      </trkpt>
      <trkpt lat="-32.07508788132225" lon="-71.23508611671196">
        <time>2019-03-07T04:33:31Z</time>
      </trkpt>
      <trkpt lat="-32.0746398597996" lon="-71.2347187563996">
        <time>2019-03-07T04:33:31Z</time>
      </trkpt>
      <trkpt lat="-32.07443929650358" lon="-71.23457047149229">
        <time>2019-03-07T04:33:31Z</time>
      </trkpt>
      <trkpt lat="-32.07430250269332" lon="-71.23448250263611">
        <time>2019-03-07T04:33:31Z</time>
      </trkpt>
      <trkpt lat="-32.07379329386004" lon="-71.23419822511357">
        <time>2019-03-07T04:33:31Z</time>
      </trkpt>
      <trkpt lat="-32.0736030378446" lon="-71.23406924686583">
        <time>2019-03-07T04:33:31Z</time>
      </trkpt>
      <trkpt lat="-32.07350655790296" lon="-71.23398033192014">
        <time>2019-03-07T04:33:31Z</time>
      </trkpt>
      <trkpt lat="-32.07344022998039" lon="-71.23389953105101">
        <time>2019-03-07T04:33:31Z</time>
      </trkpt>
      <trkpt lat="-32.07333493614486" lon="-71.23378833263665">
        <time>2019-03-07T04:33:31Z</time>
      </trkpt>
      <trkpt lat="-32.07322983491589" lon="-71.23367616349511">
        <time>2019-03-07T04:33:31Z</time>
      </trkpt>
      <trkpt lat="-32.07318297953853" lon="-71.23361457870347">
        <time>2019-03-07T04:33:31Z</time>
      </trkpt>
      <trkpt lat="-32.0731228488512" lon="-71.23352135032327">
        <time>2019-03-07T04:33:31Z</time>
      </trkpt>
      <trkpt lat="-32.07308378375988" lon="-71.23343185714164">
        <time>2019-03-07T04:33:31Z</time>
      </trkpt>
      <trkpt lat="-32.07306406578058" lon="-71.23333842747285">
        <time>2019-03-07T04:33:31Z</time>
      </trkpt>
      <trkpt lat="-32.0730646715613" lon="-71.23326741571546">
        <time>2019-03-07T04:33:31Z</time>
      </trkpt>
      <trkpt lat="-32.07313234102771" lon="-71.23301763809275">
        <time>2019-03-07T04:33:31Z</time>
      </trkpt>
      <trkpt lat="-32.07318134384072" lon="-71.23283197619358">
        <time>2019-03-07T04:33:31Z</time>
      </trkpt>
      <trkpt lat="-32.07319003605279" lon="-71.23277818768868">
        <time>2019-03-07T04:33:31Z</time>
      </trkpt>
      <trkpt lat="-32.07318664808448" lon="-71.23272840833882">
        <time>2019-03-07T04:33:31Z</time>
      </trkpt>
      <trkpt lat="-32.07318326086435" lon="-71.23259281263992">
        <time>2019-03-07T04:33:31Z</time>
      </trkpt>
      <trkpt lat="-32.07320213783308" lon="-71.23250054426545">
        <time>2019-03-07T04:33:31Z</time>
      </trkpt>
      <trkpt lat="-32.07324455575344" lon="-71.23240148731307">
        <time>2019-03-07T04:33:31Z</time>
      </trkpt>
      <trkpt lat="-32.07331036245031" lon="-71.23227023796221">
        <time>2019-03-07T04:33:31Z</time>
      </trkpt>
      <trkpt lat="-32.07333869837758" lon="-71.23221205005737">
        <time>2019-03-07T04:33:31Z</time>
      </trkpt>
      <trkpt lat="-32.07337140817249" lon="-71.23213865369729">
        <time>2019-03-07T04:33:31Z</time>
      </trkpt>
      <trkpt lat="-32.0733931655654" lon="-71.23206703062527">
        <time>2019-03-07T04:33:31Z</time>
      </trkpt>
      <trkpt lat="-32.07343464138256" lon="-71.23196387979307">
        <time>2019-03-07T04:33:31Z</time>
      </trkpt>
      <trkpt lat="-32.07350833199688" lon="-71.23182820826378">
        <time>2019-03-07T04:33:31Z</time>
      </trkpt>
      <trkpt lat="-32.0736070588862" lon="-71.23169146108072">
        <time>2019-03-07T04:33:31Z</time>
      </trkpt>
      <trkpt lat="-32.07363913313571" lon="-71.23164300383013">
        <time>2019-03-07T04:33:31Z</time>
      </trkpt>
      <trkpt lat="-32.07366607595918" lon="-71.23158301898646">
        <time>2019-03-07T04:33:31Z</time>
      </trkpt>
      <trkpt lat="-32.0736930890954" lon="-71.23149219186261">
        <time>2019-03-07T04:33:31Z</time>
      </trkpt>
      <trkpt lat="-32.07372357040004" lon="-71.23138919088453">
        <time>2019-03-07T04:33:31Z</time>
      </trkpt>
      <trkpt lat="-32.07378725424294" lon="-71.23126233775714">
        <time>2019-03-07T04:33:31Z</time>
      </trkpt>
      <trkpt lat="-32.07385119567422" lon="-71.23113810219928">
        <time>2019-03-07T04:33:31Z</time>
      </trkpt>
      <trkpt lat="-32.0738932643001" lon="-71.23107288545356">
        <time>2019-03-07T04:33:31Z</time>
      </trkpt>
      <trkpt lat="-32.07396293986885" lon="-71.23097705587392">
        <time>2019-03-07T04:33:31Z</time>
      </trkpt>
      <trkpt lat="-32.07403250269429" lon="-71.23091515390134">
        <time>2019-03-07T04:33:31Z</time>
      </trkpt>
      <trkpt lat="-32.07409030532656" lon="-71.23085055433572">
        <time>2019-03-07T04:33:31Z</time>
      </trkpt>
      <trkpt lat="-32.07411882136015" lon="-71.23080333344859">
        <time>2019-03-07T04:33:31Z</time>
      </trkpt>
      <trkpt lat="-32.07413502449963" lon="-71.23076734088259">
        <time>2019-03-07T04:33:31Z</time>
      </trkpt>
      <trkpt lat="-32.07413512312127" lon="-71.23073263269141">
        <time>2019-03-07T04:33:31Z</time>
      </trkpt>
      <trkpt lat="-32.07412102997173" lon="-71.2306873773943">
        <time>2019-03-07T04:33:31Z</time>
      </trkpt>
      <trkpt lat="-32.07407851418587" lon="-71.23062576309208">
        <time>2019-03-07T04:33:31Z</time>
      </trkpt>
      <trkpt lat="-32.07404955103333" lon="-71.23058019084742">
        <time>2019-03-07T04:33:31Z</time>
      </trkpt>
      <trkpt lat="-32.07402893561894" lon="-71.23053157018944">
        <time>2019-03-07T04:33:31Z</time>
      </trkpt>
      <trkpt lat="-32.07402205711538" lon="-71.23048235750969">
        <time>2019-03-07T04:33:31Z</time>
      </trkpt>
      <trkpt lat="-32.074021936098" lon="-71.23029801895511">
        <time>2019-03-07T04:33:31Z</time>
      </trkpt>
      <trkpt lat="-32.07403023337466" lon="-71.23017628104218">
        <time>2019-03-07T04:33:31Z</time>
      </trkpt>
      <trkpt lat="-32.07404822599101" lon="-71.23009758023417">
        <time>2019-03-07T04:33:31Z</time>
      </trkpt>
      <trkpt lat="-32.07409503298111" lon="-71.22997272445903">
        <time>2019-03-07T04:33:31Z</time>
      </trkpt>
      <trkpt lat="-32.07414338723856" lon="-71.229873653836">
        <time>2019-03-07T04:33:31Z</time>
      </trkpt>
      <trkpt lat="-32.07423131921232" lon="-71.22973508604912">
        <time>2019-03-07T04:33:31Z</time>
      </trkpt>
      <trkpt lat="-32.07433696247202" lon="-71.22958393962941">
        <time>2019-03-07T04:33:31Z</time>
      </trkpt>
      <trkpt lat="-32.07443961872504" lon="-71.22941759848332">
        <time>2019-03-07T04:33:31Z</time>
      </trkpt>
      <trkpt lat="-32.0745338668861" lon="-71.22921378928491">
        <time>2019-03-07T04:33:31Z</time>
      </trkpt>
      <trkpt lat="-32.07459171179219" lon="-71.22904068061025">
        <time>2019-03-07T04:33:31Z</time>
      </trkpt>
      <trkpt lat="-32.07473397263069" lon="-71.22843456063785">
        <time>2019-03-07T04:33:31Z</time>
      </trkpt>
      <trkpt lat="-32.07480031804261" lon="-71.22790832978163">
        <time>2019-03-07T04:33:31Z</time>
      </trkpt>
      <trkpt lat="-32.07480107932192" lon="-71.22777849285129">
        <time>2019-03-07T04:33:31Z</time>
      </trkpt>
      <trkpt lat="-32.07473482102864" lon="-71.22669820757974">
        <time>2019-03-07T04:33:31Z</time>
      </trkpt>
      <trkpt lat="-32.07472806314036" lon="-71.22623174873729">
        <time>2019-03-07T04:33:31Z</time>
      </trkpt>
      <trkpt lat="-32.07473459310854" lon="-71.22615322734346">
        <time>2019-03-07T04:33:31Z</time>
      </trkpt>
      <trkpt lat="-32.07475369593401" lon="-71.22603965210814">
        <time>2019-03-07T04:33:31Z</time>
      </trkpt>
      <trkpt lat="-32.07481058981716" lon="-71.2258811119891">
        <time>2019-03-07T04:33:31Z</time>
      </trkpt>
      <trkpt lat="-32.07487606119143" lon="-71.22576442013965">
        <time>2019-03-07T04:33:31Z</time>
      </trkpt>
      <trkpt lat="-32.07494783471206" lon="-71.22565066782424">
        <time>2019-03-07T04:33:31Z</time>
      </trkpt>
      <trkpt lat="-32.075036541855" lon="-71.22553770177952">
        <time>2019-03-07T04:33:31Z</time>
      </trkpt>
      <trkpt lat="-32.07506443507115" lon="-71.22550019473282">
        <time>2019-03-07T04:33:31Z</time>
      </trkpt>
      <trkpt lat="-32.07511339254776" lon="-71.2254273764181">
        <time>2019-03-07T04:33:31Z</time>
      </trkpt>
      <trkpt lat="-32.07525027754689" lon="-71.22513688816242">
        <time>2019-03-07T04:33:31Z</time>
      </trkpt>
      <trkpt lat="-32.07540218033591" lon="-71.2245754290916">
        <time>2019-03-07T04:33:31Z</time>
      </trkpt>
      <trkpt lat="-32.07543522202712" lon="-71.22444857338019">
        <time>2019-03-07T04:33:31Z</time>
      </trkpt>
      <trkpt lat="-32.07553429830475" lon="-71.22410772655556">
        <time>2019-03-07T04:33:31Z</time>
      </trkpt>
      <trkpt lat="-32.07567031029547" lon="-71.22371753027547">
        <time>2019-03-07T04:33:31Z</time>
      </trkpt>
      <trkpt lat="-32.07571391685701" lon="-71.22353359848042">
        <time>2019-03-07T04:33:31Z</time>
      </trkpt>
      <trkpt lat="-32.0758082863878" lon="-71.22316247386013">
        <time>2019-03-07T04:33:31Z</time>
      </trkpt>
      <trkpt lat="-32.07595898470865" lon="-71.22260510974863">
        <time>2019-03-07T04:33:31Z</time>
      </trkpt>
      <trkpt lat="-32.07605840558675" lon="-71.22217411792094">
        <time>2019-03-07T04:33:31Z</time>
      </trkpt>
      <trkpt lat="-32.07612606383555" lon="-71.22192397441407">
        <time>2019-03-07T04:33:31Z</time>
      </trkpt>
      <trkpt lat="-32.07622457329834" lon="-71.22165850431428">
        <time>2019-03-07T04:33:31Z</time>
      </trkpt>
      <trkpt lat="-32.07629351531725" lon="-71.22147274525857">
        <time>2019-03-07T04:33:31Z</time>
      </trkpt>
      <trkpt lat="-32.07636886550274" lon="-71.22128719644815">
        <time>2019-03-07T04:33:31Z</time>
      </trkpt>
      <trkpt lat="-32.07642197409548" lon="-71.22115039915127">
        <time>2019-03-07T04:33:31Z</time>
      </trkpt>
      <trkpt lat="-32.0765285437092" lon="-71.22089468299888">
        <time>2019-03-07T04:33:31Z</time>
      </trkpt>
      <trkpt lat="-32.07655718716943" lon="-71.22082168098687">
        <time>2019-03-07T04:33:31Z</time>
      </trkpt>
      <trkpt lat="-32.07657396198627" lon="-71.22075021589444">
        <time>2019-03-07T04:33:31Z</time>
      </trkpt>
      <trkpt lat="-32.07670752757666" lon="-71.22035825565348">
        <time>2019-03-07T04:33:31Z</time>
      </trkpt>
      <trkpt lat="-32.07674379432211" lon="-71.22028183013347">
        <time>2019-03-07T04:33:31Z</time>
      </trkpt>
      <trkpt lat="-32.07680308832616" lon="-71.22019680127261">
        <time>2019-03-07T04:33:31Z</time>
      </trkpt>
      <trkpt lat="-32.07692636438783" lon="-71.22005330287584">
        <time>2019-03-07T04:33:31Z</time>
      </trkpt>
      <trkpt lat="-32.07722690797146" lon="-71.21976235616725">
        <time>2019-03-07T04:33:31Z</time>
      </trkpt>
      <trkpt lat="-32.07727661939343" lon="-71.21970121657422">
        <time>2019-03-07T04:33:31Z</time>
      </trkpt>
      <trkpt lat="-32.0773319243471" lon="-71.219627704597">
        <time>2019-03-07T04:33:31Z</time>
      </trkpt>
      <trkpt lat="-32.07735328254708" lon="-71.21958725768012">
        <time>2019-03-07T04:33:31Z</time>
      </trkpt>
      <trkpt lat="-32.07737732883636" lon="-71.21955265801773">
        <time>2019-03-07T04:33:31Z</time>
      </trkpt>
      <trkpt lat="-32.07762881134432" lon="-71.21913513752311">
        <time>2019-03-07T04:33:31Z</time>
      </trkpt>
      <trkpt lat="-32.07765790585275" lon="-71.21909292747218">
        <time>2019-03-07T04:33:31Z</time>
      </trkpt>
      <trkpt lat="-32.07768327245672" lon="-71.2190315240906">
        <time>2019-03-07T04:33:31Z</time>
      </trkpt>
      <trkpt lat="-32.07772930699019" lon="-71.21889619224739">
        <time>2019-03-07T04:33:31Z</time>
      </trkpt>
      <trkpt lat="-32.07776038378079" lon="-71.21883822601949">
        <time>2019-03-07T04:33:31Z</time>
      </trkpt>
      <trkpt lat="-32.0778381332113" lon="-71.21872470028748">
        <time>2019-03-07T04:33:31Z</time>
      </trkpt>
      <trkpt lat="-32.07789184587271" lon="-71.21861569318359">
        <time>2019-03-07T04:33:31Z</time>
      </trkpt>
      <trkpt lat="-32.07837989975878" lon="-71.21756884095731">
        <time>2019-03-07T04:33:31Z</time>
      </trkpt>
      <trkpt lat="-32.07849401067651" lon="-71.21730474756127">
        <time>2019-03-07T04:33:31Z</time>
      </trkpt>
      <trkpt lat="-32.07858659635993" lon="-71.21704614142354">
        <time>2019-03-07T04:33:31Z</time>
      </trkpt>
      <trkpt lat="-32.07866059943606" lon="-71.21684203363864">
        <time>2019-03-07T04:33:31Z</time>
      </trkpt>
      <trkpt lat="-32.07868400487569" lon="-71.21678050990849">
        <time>2019-03-07T04:33:31Z</time>
      </trkpt>
      <trkpt lat="-32.07873478828656" lon="-71.21666183023166">
        <time>2019-03-07T04:33:31Z</time>
      </trkpt>
      <trkpt lat="-32.07878842811015" lon="-71.21652918911367">
        <time>2019-03-07T04:33:31Z</time>
      </trkpt>
      <trkpt lat="-32.07893062642096" lon="-71.21624045630408">
        <time>2019-03-07T04:33:31Z</time>
      </trkpt>
      <trkpt lat="-32.078985770691" lon="-71.21609829349681">
        <time>2019-03-07T04:33:31Z</time>
      </trkpt>
      <trkpt lat="-32.07901423007841" lon="-71.21595757882908">
        <time>2019-03-07T04:33:31Z</time>
      </trkpt>
      <trkpt lat="-32.07903466549386" lon="-71.21581911934074">
        <time>2019-03-07T04:33:31Z</time>
      </trkpt>
      <trkpt lat="-32.07906926778771" lon="-71.21569001569695">
        <time>2019-03-07T04:33:31Z</time>
      </trkpt>
      <trkpt lat="-32.07910921026937" lon="-71.21562689519354">
        <time>2019-03-07T04:33:31Z</time>
      </trkpt>
      <trkpt lat="-32.07918597444505" lon="-71.21553456367349">
        <time>2019-03-07T04:33:31Z</time>
      </trkpt>
      <trkpt lat="-32.07940170262176" lon="-71.21529376990472">
        <time>2019-03-07T04:33:31Z</time>
      </trkpt>
      <trkpt lat="-32.0796249654072" lon="-71.21503034179598">
        <time>2019-03-07T04:33:31Z</time>
      </trkpt>
      <trkpt lat="-32.07985108711293" lon="-71.21476444776064">
        <time>2019-03-07T04:33:31Z</time>
      </trkpt>
      <trkpt lat="-32.07998486493617" lon="-71.21456277647076">
        <time>2019-03-07T04:33:31Z</time>
      </trkpt>
      <trkpt lat="-32.08008152431984" lon="-71.21436211399784">
        <time>2019-03-07T04:33:31Z</time>
      </trkpt>
      <trkpt lat="-32.0801767478855" lon="-71.21409672571541">
        <time>2019-03-07T04:33:31Z</time>
      </trkpt>
      <trkpt lat="-32.0801987831482" lon="-71.21388901987626">
        <time>2019-03-07T04:33:31Z</time>
      </trkpt>
      <trkpt lat="-32.08019753808709" lon="-71.21360018881553">
        <time>2019-03-07T04:33:31Z</time>
      </trkpt>
      <trkpt lat="-32.08019524493846" lon="-71.21343439024162">
        <time>2019-03-07T04:33:31Z</time>
      </trkpt>
      <trkpt lat="-32.08019862946869" lon="-71.21335636534954">
        <time>2019-03-07T04:33:31Z</time>
      </trkpt>
      <trkpt lat="-32.08021235152899" lon="-71.21325939846365">
        <time>2019-03-07T04:33:31Z</time>
      </trkpt>
      <trkpt lat="-32.08026322272122" lon="-71.21310100970162">
        <time>2019-03-07T04:33:31Z</time>
      </trkpt>
      <trkpt lat="-32.08043705754899" lon="-71.21269974143546">
        <time>2019-03-07T04:33:31Z</time>
      </trkpt>
      <trkpt lat="-32.08048621076891" lon="-71.21246518269511">
        <time>2019-03-07T04:33:31Z</time>
      </trkpt>
      <trkpt lat="-32.0804899255305" lon="-71.21239696391184">
        <time>2019-03-07T04:33:31Z</time>
      </trkpt>
      <trkpt lat="-32.08048336431639" lon="-71.21221879968245">
        <time>2019-03-07T04:33:31Z</time>
      </trkpt>
      <trkpt lat="-32.08049113208594" lon="-71.21212123621378">
        <time>2019-03-07T04:33:31Z</time>
      </trkpt>
      <trkpt lat="-32.08053803701926" lon="-71.21195418958909">
        <time>2019-03-07T04:33:31Z</time>
      </trkpt>
      <trkpt lat="-32.08059206154537" lon="-71.21181504201894">
        <time>2019-03-07T04:33:31Z</time>
      </trkpt>
      <trkpt lat="-32.08064716584175" lon="-71.21174801635357">
        <time>2019-03-07T04:33:31Z</time>
      </trkpt>
      <trkpt lat="-32.08074097094859" lon="-71.21166559491502">
        <time>2019-03-07T04:33:31Z</time>
      </trkpt>
      <trkpt lat="-32.08084581309716" lon="-71.21156527566068">
        <time>2019-03-07T04:33:31Z</time>
      </trkpt>
      <trkpt lat="-32.08091172344616" lon="-71.21148751542262">
        <time>2019-03-07T04:33:31Z</time>
      </trkpt>
      <trkpt lat="-32.08096546769578" lon="-71.21140315662855">
        <time>2019-03-07T04:33:31Z</time>
      </trkpt>
      <trkpt lat="-32.08103572157378" lon="-71.21116146889858">
        <time>2019-03-07T04:33:31Z</time>
      </trkpt>
      <trkpt lat="-32.08117045130536" lon="-71.21066589661022">
        <time>2019-03-07T04:33:31Z</time>
      </trkpt>
      <trkpt lat="-32.08122050839466" lon="-71.21053687882916">
        <time>2019-03-07T04:33:31Z</time>
      </trkpt>
      <trkpt lat="-32.08130935032199" lon="-71.21039833873095">
        <time>2019-03-07T04:33:31Z</time>
      </trkpt>
      <trkpt lat="-32.08141294978348" lon="-71.21030188455106">
        <time>2019-03-07T04:33:31Z</time>
      </trkpt>
      <trkpt lat="-32.08152544033874" lon="-71.2102475597641">
        <time>2019-03-07T04:33:31Z</time>
      </trkpt>
      <trkpt lat="-32.08159644636176" lon="-71.21018633859684">
        <time>2019-03-07T04:33:31Z</time>
      </trkpt>
      <trkpt lat="-32.08164072466281" lon="-71.2101401749391">
        <time>2019-03-07T04:33:31Z</time>
      </trkpt>
      <trkpt lat="-32.08165285508886" lon="-71.21007945725128">
        <time>2019-03-07T04:33:31Z</time>
      </trkpt>
      <trkpt lat="-32.0816393388656" lon="-71.21005093090585">
        <time>2019-03-07T04:33:31Z</time>
      </trkpt>
      <trkpt lat="-32.08160763617364" lon="-71.21003246004858">
        <time>2019-03-07T04:33:31Z</time>
      </trkpt>
      <trkpt lat="-32.08156677255656" lon="-71.21002355005415">
        <time>2019-03-07T04:33:31Z</time>
      </trkpt>
      <trkpt lat="-32.08151798972465" lon="-71.21001191186412">
        <time>2019-03-07T04:33:31Z</time>
      </trkpt>
      <trkpt lat="-32.08145146128636" lon="-71.21000329514254">
        <time>2019-03-07T04:33:31Z</time>
      </trkpt>
      <trkpt lat="-32.08139257552368" lon="-71.20998843221187">
        <time>2019-03-07T04:33:31Z</time>
      </trkpt>
      <trkpt lat="-32.08133947505626" lon="-71.20995539512684">
        <time>2019-03-07T04:33:31Z</time>
      </trkpt>
      <trkpt lat="-32.08130097983811" lon="-71.2099098385213">
        <time>2019-03-07T04:33:31Z</time>
      </trkpt>
      <trkpt lat="-32.08126242775263" lon="-71.20983014562179">
        <time>2019-03-07T04:33:31Z</time>
      </trkpt>
      <trkpt lat="-32.08123919306102" lon="-71.20974510001739">
        <time>2019-03-07T04:33:31Z</time>
      </trkpt>
      <trkpt lat="-32.08124016702147" lon="-71.20963238742203">
        <time>2019-03-07T04:33:31Z</time>
      </trkpt>
      <trkpt lat="-32.08123882300098" lon="-71.2093961625751">
        <time>2019-03-07T04:33:31Z</time>
      </trkpt>
      <trkpt lat="-32.08131202506396" lon="-71.20896055300499">
        <time>2019-03-07T04:33:31Z</time>
      </trkpt>
      <trkpt lat="-32.0813046792908" lon="-71.20890823082844">
        <time>2019-03-07T04:33:31Z</time>
      </trkpt>
      <trkpt lat="-32.08129140780799" lon="-71.20881499073589">
        <time>2019-03-07T04:33:31Z</time>
      </trkpt>
      <trkpt lat="-32.08126947959193" lon="-71.20863529140094">
        <time>2019-03-07T04:33:31Z</time>
      </trkpt>
      <trkpt lat="-32.08126876354044" lon="-71.20853082106817">
        <time>2019-03-07T04:33:31Z</time>
      </trkpt>
      <trkpt lat="-32.0812690930052" lon="-71.20846739202315">
        <time>2019-03-07T04:33:31Z</time>
      </trkpt>
      <trkpt lat="-32.0814104530242" lon="-71.20799397846754">
        <time>2019-03-07T04:33:31Z</time>
      </trkpt>
      <trkpt lat="-32.08186656219658" lon="-71.20671398210689">
        <time>2019-03-07T04:33:31Z</time>
      </trkpt>
      <trkpt lat="-32.08213999634211" lon="-71.20592211328868">
        <time>2019-03-07T04:33:31Z</time>
      </trkpt>
      <trkpt lat="-32.08215448469564" lon="-71.2058215166376">
        <time>2019-03-07T04:33:31Z</time>
      </trkpt>
      <trkpt lat="-32.08216105943419" lon="-71.20567127054497">
        <time>2019-03-07T04:33:31Z</time>
      </trkpt>
      <trkpt lat="-32.08214952360291" lon="-71.20559634172756">
        <time>2019-03-07T04:33:31Z</time>
      </trkpt>
      <trkpt lat="-32.08212783374684" lon="-71.20550468138912">
        <time>2019-03-07T04:33:31Z</time>
      </trkpt>
      <trkpt lat="-32.08206401543611" lon="-71.20532720885772">
        <time>2019-03-07T04:33:31Z</time>
      </trkpt>
      <trkpt lat="-32.08191826263985" lon="-71.20499487959478">
        <time>2019-03-07T04:33:31Z</time>
      </trkpt>
      <trkpt lat="-32.08170885848644" lon="-71.204460310234">
        <time>2019-03-07T04:33:31Z</time>
      </trkpt>
      <trkpt lat="-32.08162053434693" lon="-71.20418193321099">
        <time>2019-03-07T04:33:31Z</time>
      </trkpt>
      <trkpt lat="-32.08161049472867" lon="-71.2040512065897">
        <time>2019-03-07T04:33:31Z</time>
      </trkpt>
      <trkpt lat="-32.08162406960807" lon="-71.2038972897746">
        <time>2019-03-07T04:33:31Z</time>
      </trkpt>
      <trkpt lat="-32.08185399211669" lon="-71.2030756003668">
        <time>2019-03-07T04:33:31Z</time>
      </trkpt>
      <trkpt lat="-32.08197926494616" lon="-71.2027330129045">
        <time>2019-03-07T04:33:31Z</time>
      </trkpt>
      <trkpt lat="-32.08202496421534" lon="-71.20258365512201">
        <time>2019-03-07T04:33:31Z</time>
      </trkpt>
      <trkpt lat="-32.0822797466851" lon="-71.2017281245236">
        <time>2019-03-07T04:33:31Z</time>
      </trkpt>
      <trkpt lat="-32.08239057715567" lon="-71.20148020724861">
        <time>2019-03-07T04:33:31Z</time>
      </trkpt>
      <trkpt lat="-32.08243192129441" lon="-71.20140079676098">
        <time>2019-03-07T04:33:31Z</time>
      </trkpt>
      <trkpt lat="-32.08246884967432" lon="-71.20135587648611">
        <time>2019-03-07T04:33:31Z</time>
      </trkpt>
      <trkpt lat="-32.08254735296404" lon="-71.20129030585495">
        <time>2019-03-07T04:33:31Z</time>
      </trkpt>
      <trkpt lat="-32.08284887563703" lon="-71.20107812691354">
        <time>2019-03-07T04:33:31Z</time>
      </trkpt>
      <trkpt lat="-32.08299401873625" lon="-71.20095547583529">
        <time>2019-03-07T04:33:31Z</time>
      </trkpt>
      <trkpt lat="-32.08313732520885" lon="-71.20078547529565">
        <time>2019-03-07T04:33:31Z</time>
      </trkpt>
      <trkpt lat="-32.08329007130305" lon="-71.20055855202871">
        <time>2019-03-07T04:33:31Z</time>
      </trkpt>
      <trkpt lat="-32.08333722861175" lon="-71.20041765220093">
        <time>2019-03-07T04:33:31Z</time>
      </trkpt>
      <trkpt lat="-32.08336218553961" lon="-71.20029276252349">
        <time>2019-03-07T04:33:31Z</time>
      </trkpt>
      <trkpt lat="-32.08336763514423" lon="-71.20010525717478">
        <time>2019-03-07T04:33:31Z</time>
      </trkpt>
      <trkpt lat="-32.08336134634963" lon="-71.19958532574343">
        <time>2019-03-07T04:33:31Z</time>
      </trkpt>
      <trkpt lat="-32.08333854949677" lon="-71.19938927940966">
        <time>2019-03-07T04:33:31Z</time>
      </trkpt>
      <trkpt lat="-32.08325658853617" lon="-71.19896272448476">
        <time>2019-03-07T04:33:31Z</time>
      </trkpt>
      <trkpt lat="-32.08316671822928" lon="-71.1985651204111">
        <time>2019-03-07T04:33:31Z</time>
      </trkpt>
      <trkpt lat="-32.08312715296295" lon="-71.19832165707321">
        <time>2019-03-07T04:33:31Z</time>
      </trkpt>
      <trkpt lat="-32.08309360355268" lon="-71.19736761102821">
        <time>2019-03-07T04:33:31Z</time>
      </trkpt>
      <trkpt lat="-32.08308183613701" lon="-71.19702188691065">
        <time>2019-03-07T04:33:31Z</time>
      </trkpt>
      <trkpt lat="-32.08308070754293" lon="-71.19678150283684">
        <time>2019-03-07T04:33:31Z</time>
      </trkpt>
      <trkpt lat="-32.08307673498398" lon="-71.19662996265069">
        <time>2019-03-07T04:33:31Z</time>
      </trkpt>
      <trkpt lat="-32.08307589654425" lon="-71.19652861130219">
        <time>2019-03-07T04:33:31Z</time>
      </trkpt>
      <trkpt lat="-32.08309190088732" lon="-71.19613992111994">
        <time>2019-03-07T04:33:31Z</time>
      </trkpt>
      <trkpt lat="-32.08310929910207" lon="-71.1958248214293">
        <time>2019-03-07T04:33:31Z</time>
      </trkpt>
      <trkpt lat="-32.08312735422143" lon="-71.1956274243323">
        <time>2019-03-07T04:33:31Z</time>
      </trkpt>
      <trkpt lat="-32.08315584112478" lon="-71.19542126568595">
        <time>2019-03-07T04:33:31Z</time>
      </trkpt>
      <trkpt lat="-32.08316762725839" lon="-71.19525635871544">
        <time>2019-03-07T04:33:31Z</time>
      </trkpt>
      <trkpt lat="-32.08318620930751" lon="-71.19503007939828">
        <time>2019-03-07T04:33:31Z</time>
      </trkpt>
      <trkpt lat="-32.0831944356997" lon="-71.19460170621608">
        <time>2019-03-07T04:33:31Z</time>
      </trkpt>
      <trkpt lat="-32.08319899117163" lon="-71.19444153659177">
        <time>2019-03-07T04:33:31Z</time>
      </trkpt>
      <trkpt lat="-32.08319793722718" lon="-71.19411452443585">
        <time>2019-03-07T04:33:31Z</time>
      </trkpt>
      <trkpt lat="-32.08320945693771" lon="-71.19388640914551">
        <time>2019-03-07T04:33:31Z</time>
      </trkpt>
      <trkpt lat="-32.08333283355421" lon="-71.19267375282124">
        <time>2019-03-07T04:33:31Z</time>
      </trkpt>
      <trkpt lat="-32.08334580601291" lon="-71.19249018417042">
        <time>2019-03-07T04:33:31Z</time>
      </trkpt>
      <trkpt lat="-32.08337168977761" lon="-71.19216382889327">
        <time>2019-03-07T04:33:31Z</time>
      </trkpt>
      <trkpt lat="-32.08338564622133" lon="-71.19197348824073">
        <time>2019-03-07T04:33:31Z</time>
      </trkpt>
      <trkpt lat="-32.08341548464789" lon="-71.19167183235017">
        <time>2019-03-07T04:33:31Z</time>
      </trkpt>
      <trkpt lat="-32.08355530809483" lon="-71.19034424939434">
        <time>2019-03-07T04:33:31Z</time>
      </trkpt>
      <trkpt lat="-32.08360921853354" lon="-71.1896561608507">
        <time>2019-03-07T04:33:31Z</time>
      </trkpt>
      <trkpt lat="-32.08368077605685" lon="-71.18899701342663">
        <time>2019-03-07T04:33:31Z</time>
      </trkpt>
      <trkpt lat="-32.08371188726565" lon="-71.18876095856997">
        <time>2019-03-07T04:33:31Z</time>
      </trkpt>
      <trkpt lat="-32.08375436825398" lon="-71.18855009788936">
        <time>2019-03-07T04:33:31Z</time>
      </trkpt>
      <trkpt lat="-32.08377484995899" lon="-71.1883857560159">
        <time>2019-03-07T04:33:31Z</time>
      </trkpt>
      <trkpt lat="-32.08378745156031" lon="-71.18827343300946">
        <time>2019-03-07T04:33:31Z</time>
      </trkpt>
      <trkpt lat="-32.08381288824522" lon="-71.18796099099951">
        <time>2019-03-07T04:33:31Z</time>
      </trkpt>
      <trkpt lat="-32.08386232730602" lon="-71.18745986911793">
        <time>2019-03-07T04:33:31Z</time>
      </trkpt>
      <trkpt lat="-32.08389040929255" lon="-71.18730872375528">
        <time>2019-03-07T04:33:31Z</time>
      </trkpt>
      <trkpt lat="-32.0839269089478" lon="-71.18716903155519">
        <time>2019-03-07T04:33:31Z</time>
      </trkpt>
      <trkpt lat="-32.08399969009695" lon="-71.18701573422541">
        <time>2019-03-07T04:33:31Z</time>
      </trkpt>
      <trkpt lat="-32.08419496079442" lon="-71.18666165117246">
        <time>2019-03-07T04:33:31Z</time>
      </trkpt>
      <trkpt lat="-32.08444180838824" lon="-71.18629169648403">
        <time>2019-03-07T04:33:31Z</time>
      </trkpt>
      <trkpt lat="-32.08453302573594" lon="-71.18613197954933">
        <time>2019-03-07T04:33:31Z</time>
      </trkpt>
      <trkpt lat="-32.08482806343606" lon="-71.18557332094721">
        <time>2019-03-07T04:33:31Z</time>
      </trkpt>
      <trkpt lat="-32.08536652118077" lon="-71.18455138971278">
        <time>2019-03-07T04:33:31Z</time>
      </trkpt>
      <trkpt lat="-32.08544217140119" lon="-71.18441343070255">
        <time>2019-03-07T04:33:31Z</time>
      </trkpt>
      <trkpt lat="-32.08555876960398" lon="-71.18424914728276">
        <time>2019-03-07T04:33:31Z</time>
      </trkpt>
      <trkpt lat="-32.08635377982378" lon="-71.18345454036036">
        <time>2019-03-07T04:33:31Z</time>
      </trkpt>
      <trkpt lat="-32.08677547626241" lon="-71.18304437653382">
        <time>2019-03-07T04:33:31Z</time>
      </trkpt>
      <trkpt lat="-32.08697105525478" lon="-71.18283680582468">
        <time>2019-03-07T04:33:31Z</time>
      </trkpt>
      <trkpt lat="-32.08724152330537" lon="-71.18253636164015">
        <time>2019-03-07T04:33:31Z</time>
      </trkpt>
      <trkpt lat="-32.08739086591713" lon="-71.1823303346461">
        <time>2019-03-07T04:33:31Z</time>
      </trkpt>
      <trkpt lat="-32.08748707392408" lon="-71.18217800057686">
        <time>2019-03-07T04:33:31Z</time>
      </trkpt>
      <trkpt lat="-32.08756946252856" lon="-71.181990274684">
        <time>2019-03-07T04:33:31Z</time>
      </trkpt>
      <trkpt lat="-32.08771894422756" lon="-71.18157477190023">
        <time>2019-03-07T04:33:31Z</time>
      </trkpt>
      <trkpt lat="-32.08799817368909" lon="-71.18066458318459">
        <time>2019-03-07T04:33:31Z</time>
      </trkpt>
      <trkpt lat="-32.08814888044936" lon="-71.18017901894828">
        <time>2019-03-07T04:33:31Z</time>
      </trkpt>
      <trkpt lat="-32.08822603931065" lon="-71.17994125229185">
        <time>2019-03-07T04:33:31Z</time>
      </trkpt>
      <trkpt lat="-32.08827994849015" lon="-71.17977229996497">
        <time>2019-03-07T04:33:31Z</time>
      </trkpt>
      <trkpt lat="-32.08835321919683" lon="-71.17960661581522">
        <time>2019-03-07T04:33:31Z</time>
      </trkpt>
      <trkpt lat="-32.08843381324962" lon="-71.17942832509407">
        <time>2019-03-07T04:33:31Z</time>
      </trkpt>
      <trkpt lat="-32.08855226227363" lon="-71.17914263171774">
        <time>2019-03-07T04:33:31Z</time>
      </trkpt>
      <trkpt lat="-32.08864585317649" lon="-71.17891443702584">
        <time>2019-03-07T04:33:31Z</time>
      </trkpt>
      <trkpt lat="-32.08881338618912" lon="-71.17856329237836">
        <time>2019-03-07T04:33:31Z</time>
      </trkpt>
      <trkpt lat="-32.0888631069386" lon="-71.17845475629899">
        <time>2019-03-07T04:33:31Z</time>
      </trkpt>
      <trkpt lat="-32.08888869553483" lon="-71.17836581157101">
        <time>2019-03-07T04:33:31Z</time>
      </trkpt>
      <trkpt lat="-32.08896070327234" lon="-71.17803899107173">
        <time>2019-03-07T04:33:31Z</time>
      </trkpt>
      <trkpt lat="-32.08902041429008" lon="-71.17770035545649">
        <time>2019-03-07T04:33:31Z</time>
      </trkpt>
      <trkpt lat="-32.08908234179931" lon="-71.17739768631654">
        <time>2019-03-07T04:33:31Z</time>
      </trkpt>
      <trkpt lat="-32.0891055239287" lon="-71.17726516826676">
        <time>2019-03-07T04:33:31Z</time>
      </trkpt>
      <trkpt lat="-32.08911592466711" lon="-71.17716310957867">
        <time>2019-03-07T04:33:31Z</time>
      </trkpt>
      <trkpt lat="-32.08911779389376" lon="-71.17708434249288">
        <time>2019-03-07T04:33:31Z</time>
      </trkpt>
      <trkpt lat="-32.08910503295171" lon="-71.17701363180798">
        <time>2019-03-07T04:33:31Z</time>
      </trkpt>
      <trkpt lat="-32.08906193291327" lon="-71.17689366682757">
        <time>2019-03-07T04:33:31Z</time>
      </trkpt>
      <trkpt lat="-32.08899010714564" lon="-71.17676998444844">
        <time>2019-03-07T04:33:31Z</time>
      </trkpt>
      <trkpt lat="-32.08879022511445" lon="-71.17643864763512">
        <time>2019-03-07T04:33:31Z</time>
      </trkpt>
      <trkpt lat="-32.08865750051578" lon="-71.17625121522006">
        <time>2019-03-07T04:33:31Z</time>
      </trkpt>
      <trkpt lat="-32.08861890526767" lon="-71.17620798791521">
        <time>2019-03-07T04:33:31Z</time>
      </trkpt>
      <trkpt lat="-32.08856593974834" lon="-71.17617310656311">
        <time>2019-03-07T04:33:31Z</time>
      </trkpt>
      <trkpt lat="-32.08849263852974" lon="-71.17614519828993">
        <time>2019-03-07T04:33:31Z</time>
      </trkpt>
      <trkpt lat="-32.08830553876354" lon="-71.17606788113477">
        <time>2019-03-07T04:33:31Z</time>
      </trkpt>
      <trkpt lat="-32.08821126283017" lon="-71.17601025214854">
        <time>2019-03-07T04:33:31Z</time>
      </trkpt>
      <trkpt lat="-32.08811489304105" lon="-71.17593825106002">
        <time>2019-03-07T04:33:31Z</time>
      </trkpt>
      <trkpt lat="-32.08801458230856" lon="-71.17582444572719">
        <time>2019-03-07T04:33:31Z</time>
      </trkpt>
      <trkpt lat="-32.08788244395826" lon="-71.17560489153912">
        <time>2019-03-07T04:33:31Z</time>
      </trkpt>
      <trkpt lat="-32.08770709309365" lon="-71.17532120653246">
        <time>2019-03-07T04:33:31Z</time>
      </trkpt>
      <trkpt lat="-32.08742616075365" lon="-71.17503706220353">
        <time>2019-03-07T04:33:31Z</time>
      </trkpt>
      <trkpt lat="-32.08724328275286" lon="-71.17480951730163">
        <time>2019-03-07T04:33:31Z</time>
      </trkpt>
      <trkpt lat="-32.08700439531391" lon="-71.17455013035945">
        <time>2019-03-07T04:33:31Z</time>
      </trkpt>
      <trkpt lat="-32.08686249382465" lon="-71.17440347661278">
        <time>2019-03-07T04:33:31Z</time>
      </trkpt>
      <trkpt lat="-32.08680236743499" lon="-71.17432311619768">
        <time>2019-03-07T04:33:31Z</time>
      </trkpt>
      <trkpt lat="-32.08677212035623" lon="-71.17426564053416">
        <time>2019-03-07T04:33:31Z</time>
      </trkpt>
      <trkpt lat="-32.08674734617676" lon="-71.17418858370878">
        <time>2019-03-07T04:33:31Z</time>
      </trkpt>
      <trkpt lat="-32.08674020914399" lon="-71.17410461753207">
        <time>2019-03-07T04:33:31Z</time>
      </trkpt>
      <trkpt lat="-32.08674920181106" lon="-71.17401818638248">
        <time>2019-03-07T04:33:31Z</time>
      </trkpt>
      <trkpt lat="-32.08684771905161" lon="-71.17346748264781">
        <time>2019-03-07T04:33:31Z</time>
      </trkpt>
      <trkpt lat="-32.08702282913752" lon="-71.17261047669147">
        <time>2019-03-07T04:33:31Z</time>
      </trkpt>
      <trkpt lat="-32.08708958594129" lon="-71.17222630177207">
        <time>2019-03-07T04:33:31Z</time>
      </trkpt>
      <trkpt lat="-32.0871093184351" lon="-71.17210693272884">
        <time>2019-03-07T04:33:31Z</time>
      </trkpt>
      <trkpt lat="-32.08711252699413" lon="-71.17202473649628">
        <time>2019-03-07T04:33:31Z</time>
      </trkpt>
      <trkpt lat="-32.08709705797198" lon="-71.17192492420179">
        <time>2019-03-07T04:33:31Z</time>
      </trkpt>
      <trkpt lat="-32.08700873620859" lon="-71.17136046259631">
        <time>2019-03-07T04:33:31Z</time>
      </trkpt>
      <trkpt lat="-32.08693705506647" lon="-71.17099057803318">
        <time>2019-03-07T04:33:31Z</time>
      </trkpt>
      <trkpt lat="-32.08691586594675" lon="-71.17088626539164">
        <time>2019-03-07T04:33:31Z</time>
      </trkpt>
      <trkpt lat="-32.08689894302582" lon="-71.17080349751865">
        <time>2019-03-07T04:33:31Z</time>
      </trkpt>
      <trkpt lat="-32.08686066001643" lon="-71.1707007752816">
        <time>2019-03-07T04:33:31Z</time>
      </trkpt>
      <trkpt lat="-32.08679249487273" lon="-71.17052104720109">
        <time>2019-03-07T04:33:31Z</time>
      </trkpt>
      <trkpt lat="-32.08676516493238" lon="-71.17045523620733">
        <time>2019-03-07T04:33:31Z</time>
      </trkpt>
      <trkpt lat="-32.08674417582737" lon="-71.17037658071149">
        <time>2019-03-07T04:33:31Z</time>
      </trkpt>
      <trkpt lat="-32.08673175348679" lon="-71.17028414278663">
        <time>2019-03-07T04:33:31Z</time>
      </trkpt>
      <trkpt lat="-32.08673239168538" lon="-71.17011058516499">
        <time>2019-03-07T04:33:31Z</time>
      </trkpt>
      <trkpt lat="-32.08673630832765" lon="-71.1697463263513">
        <time>2019-03-07T04:33:31Z</time>
      </trkpt>
      <trkpt lat="-32.08673216358589" lon="-71.16906517982758">
        <time>2019-03-07T04:33:31Z</time>
      </trkpt>
      <trkpt lat="-32.08670165553397" lon="-71.16857140105709">
        <time>2019-03-07T04:33:31Z</time>
      </trkpt>
      <trkpt lat="-32.08663442327593" lon="-71.16757759686097">
        <time>2019-03-07T04:33:31Z</time>
      </trkpt>
      <trkpt lat="-32.08661973029823" lon="-71.16733011974462">
        <time>2019-03-07T04:33:31Z</time>
      </trkpt>
      <trkpt lat="-32.0866111223663" lon="-71.16714021340819">
        <time>2019-03-07T04:33:31Z</time>
      </trkpt>
      <trkpt lat="-32.0866046047495" lon="-71.1670866921904">
        <time>2019-03-07T04:33:31Z</time>
      </trkpt>
      <trkpt lat="-32.08660260053752" lon="-71.16707628998859">
        <time>2019-03-07T04:33:31Z</time>
      </trkpt>
      <trkpt lat="-32.08659967914347" lon="-71.16706732316561">
        <time>2019-03-07T04:33:31Z</time>
      </trkpt>
      <trkpt lat="-32.08659664095387" lon="-71.1670607087695">
        <time>2019-03-07T04:33:31Z</time>
      </trkpt>
      <trkpt lat="-32.08659083347156" lon="-71.16705799749846">
        <time>2019-03-07T04:33:31Z</time>
      </trkpt>
      <trkpt lat="-32.08657678501403" lon="-71.16705632116177">
        <time>2019-03-07T04:33:31Z</time>
      </trkpt>
      <trkpt lat="-32.08648201359546" lon="-71.16704787105891">
        <time>2019-03-07T04:33:31Z</time>
      </trkpt>
      <trkpt lat="-32.08621626410741" lon="-71.16704582633741">
        <time>2019-03-07T04:33:31Z</time>
      </trkpt>
      <trkpt lat="-32.08611847134151" lon="-71.16704454319731">
        <time>2019-03-07T04:33:31Z</time>
      </trkpt>
      <trkpt lat="-32.08601714584244" lon="-71.16703477200051">
        <time>2019-03-07T04:33:31Z</time>
      </trkpt>
      <trkpt lat="-32.08584268404521" lon="-71.16701098598878">
        <time>2019-03-07T04:33:31Z</time>
      </trkpt>
      <trkpt lat="-32.08575651686797" lon="-71.16698500137956">
        <time>2019-03-07T04:33:31Z</time>
      </trkpt>
      <trkpt lat="-32.08562868133404" lon="-71.16693687122304">
        <time>2019-03-07T04:33:31Z</time>
      </trkpt>
      <trkpt lat="-32.08550826141276" lon="-71.16687003880904">
        <time>2019-03-07T04:33:31Z</time>
      </trkpt>
      <trkpt lat="-32.08535174062531" lon="-71.16676665563509">
        <time>2019-03-07T04:33:31Z</time>
      </trkpt>
      <trkpt lat="-32.08520964812894" lon="-71.16663447757358">
        <time>2019-03-07T04:33:31Z</time>
      </trkpt>
      <trkpt lat="-32.08506959075664" lon="-71.1664791103378">
        <time>2019-03-07T04:33:31Z</time>
      </trkpt>
      <trkpt lat="-32.08480125634924" lon="-71.16608514662498">
        <time>2019-03-07T04:33:31Z</time>
      </trkpt>
      <trkpt lat="-32.08473779855835" lon="-71.1659834838942">
        <time>2019-03-07T04:33:31Z</time>
      </trkpt>
      <trkpt lat="-32.0844263141225" lon="-71.16554049595372">
        <time>2019-03-07T04:33:31Z</time>
      </trkpt>
      <trkpt lat="-32.0842357822517" lon="-71.16528903598835">
        <time>2019-03-07T04:33:31Z</time>
      </trkpt>
      <trkpt lat="-32.08364983575134" lon="-71.16438010314982">
        <time>2019-03-07T04:33:31Z</time>
      </trkpt>
      <trkpt lat="-32.08344788344481" lon="-71.16406684593822">
        <time>2019-03-07T04:33:31Z</time>
      </trkpt>
      <trkpt lat="-32.08287538684497" lon="-71.16326508766211">
        <time>2019-03-07T04:33:31Z</time>
      </trkpt>
      <trkpt lat="-32.08217381470247" lon="-71.16216184138146">
        <time>2019-03-07T04:33:31Z</time>
      </trkpt>
      <trkpt lat="-32.0819269382112" lon="-71.1618193899272">
        <time>2019-03-07T04:33:31Z</time>
      </trkpt>
      <trkpt lat="-32.08174320743034" lon="-71.16156505780602">
        <time>2019-03-07T04:33:31Z</time>
      </trkpt>
      <trkpt lat="-32.08161845072713" lon="-71.16139508832511">
        <time>2019-03-07T04:33:31Z</time>
      </trkpt>
      <trkpt lat="-32.08136143917122" lon="-71.16108697622411">
        <time>2019-03-07T04:33:31Z</time>
      </trkpt>
      <trkpt lat="-32.08113478245545" lon="-71.16088760529323">
        <time>2019-03-07T04:33:31Z</time>
      </trkpt>
      <trkpt lat="-32.08100098456812" lon="-71.16078829544615">
        <time>2019-03-07T04:33:31Z</time>
      </trkpt>
      <trkpt lat="-32.08088814560421" lon="-71.16071695633163">
        <time>2019-03-07T04:33:31Z</time>
      </trkpt>
      <trkpt lat="-32.08070276478918" lon="-71.16062730632872">
        <time>2019-03-07T04:33:31Z</time>
      </trkpt>
      <trkpt lat="-32.08055702151025" lon="-71.1605914584439">
        <time>2019-03-07T04:33:31Z</time>
      </trkpt>
      <trkpt lat="-32.08027778149325" lon="-71.16054003372189">
        <time>2019-03-07T04:33:31Z</time>
      </trkpt>
      <trkpt lat="-32.07872021005984" lon="-71.16034385358611">
        <time>2019-03-07T04:33:31Z</time>
      </trkpt>
      <trkpt lat="-32.07816175805664" lon="-71.16023852528096">
        <time>2019-03-07T04:33:31Z</time>
      </trkpt>
      <trkpt lat="-32.07812494634084" lon="-71.16022435678541">
        <time>2019-03-07T04:33:31Z</time>
      </trkpt>
      <trkpt lat="-32.07805463737568" lon="-71.16020124355555">
        <time>2019-03-07T04:33:31Z</time>
      </trkpt>
      <trkpt lat="-32.07801203753228" lon="-71.16019096471808">
        <time>2019-03-07T04:33:31Z</time>
      </trkpt>
      <trkpt lat="-32.07781627975617" lon="-71.16016502690707">
        <time>2019-03-07T04:33:31Z</time>
      </trkpt>
      <trkpt lat="-32.07752960590636" lon="-71.16012974045334">
        <time>2019-03-07T04:33:31Z</time>
      </trkpt>
      <trkpt lat="-32.0766690005947" lon="-71.1600157820394">
        <time>2019-03-07T04:33:31Z</time>
      </trkpt>
      <trkpt lat="-32.07642430638218" lon="-71.15995724167259">
        <time>2019-03-07T04:33:31Z</time>
      </trkpt>
      <trkpt lat="-32.07622672920535" lon="-71.15992057475488">
        <time>2019-03-07T04:33:31Z</time>
      </trkpt>
      <trkpt lat="-32.07602020613715" lon="-71.1598822476264">
        <time>2019-03-07T04:33:31Z</time>
      </trkpt>
      <trkpt lat="-32.07583169100122" lon="-71.15985132824879">
        <time>2019-03-07T04:33:31Z</time>
      </trkpt>
      <trkpt lat="-32.07561984209588" lon="-71.15983031882379">
        <time>2019-03-07T04:33:31Z</time>
      </trkpt>
      <trkpt lat="-32.0754651912135" lon="-71.15982608429054">
        <time>2019-03-07T04:33:31Z</time>
      </trkpt>
      <trkpt lat="-32.07527341481261" lon="-71.15985643539908">
        <time>2019-03-07T04:33:31Z</time>
      </trkpt>
      <trkpt lat="-32.07507930597824" lon="-71.15994715712161">
        <time>2019-03-07T04:33:31Z</time>
      </trkpt>
      <trkpt lat="-32.07438335197122" lon="-71.16041868671559">
        <time>2019-03-07T04:33:31Z</time>
      </trkpt>
      <trkpt lat="-32.07430299519994" lon="-71.16050940930342">
        <time>2019-03-07T04:33:31Z</time>
      </trkpt>
      <trkpt lat="-32.07425601652688" lon="-71.16058716293138">
        <time>2019-03-07T04:33:31Z</time>
      </trkpt>
      <trkpt lat="-32.07418582502108" lon="-71.16074299432881">
        <time>2019-03-07T04:33:31Z</time>
      </trkpt>
      <trkpt lat="-32.07413967762157" lon="-71.16087386954567">
        <time>2019-03-07T04:33:31Z</time>
      </trkpt>
      <trkpt lat="-32.07411464127785" lon="-71.16107579693181">
        <time>2019-03-07T04:33:31Z</time>
      </trkpt>
      <trkpt lat="-32.07412676251995" lon="-71.16221103418657">
        <time>2019-03-07T04:33:31Z</time>
      </trkpt>
      <trkpt lat="-32.07411637506724" lon="-71.16238762566806">
        <time>2019-03-07T04:33:31Z</time>
      </trkpt>
      <trkpt lat="-32.07409331819346" lon="-71.16253513053071">
        <time>2019-03-07T04:33:31Z</time>
      </trkpt>
      <trkpt lat="-32.07404899396454" lon="-71.16268291864297">
        <time>2019-03-07T04:33:31Z</time>
      </trkpt>
      <trkpt lat="-32.07397221776601" lon="-71.16285146924156">
        <time>2019-03-07T04:33:31Z</time>
      </trkpt>
      <trkpt lat="-32.0738620006307" lon="-71.16300040425881">
        <time>2019-03-07T04:33:31Z</time>
      </trkpt>
      <trkpt lat="-32.07368069377858" lon="-71.16318957520524">
        <time>2019-03-07T04:33:31Z</time>
      </trkpt>
      <trkpt lat="-32.07355763419809" lon="-71.16326890123916">
        <time>2019-03-07T04:33:31Z</time>
      </trkpt>
      <trkpt lat="-32.07337207882728" lon="-71.16335834590305">
        <time>2019-03-07T04:33:31Z</time>
      </trkpt>
      <trkpt lat="-32.07326363159354" lon="-71.16337421608203">
        <time>2019-03-07T04:33:31Z</time>
      </trkpt>
      <trkpt lat="-32.07304955145676" lon="-71.16334457107679">
        <time>2019-03-07T04:33:31Z</time>
      </trkpt>
      <trkpt lat="-32.07228435662194" lon="-71.1631572820851">
        <time>2019-03-07T04:33:31Z</time>
      </trkpt>
      <trkpt lat="-32.07185956306365" lon="-71.16303197327828">
        <time>2019-03-07T04:33:31Z</time>
      </trkpt>
      <trkpt lat="-32.07140899368427" lon="-71.16290845775073">
        <time>2019-03-07T04:33:31Z</time>
      </trkpt>
      <trkpt lat="-32.07096886738801" lon="-71.16279281801995">
        <time>2019-03-07T04:33:31Z</time>
      </trkpt>
      <trkpt lat="-32.0702185205869" lon="-71.16255664976605">
        <time>2019-03-07T04:33:31Z</time>
      </trkpt>
      <trkpt lat="-32.07003937891719" lon="-71.16251529442951">
        <time>2019-03-07T04:33:31Z</time>
      </trkpt>
      <trkpt lat="-32.06995549280578" lon="-71.16250133690853">
        <time>2019-03-07T04:33:31Z</time>
      </trkpt>
      <trkpt lat="-32.06986800537381" lon="-71.16250343873064">
        <time>2019-03-07T04:33:31Z</time>
      </trkpt>
      <trkpt lat="-32.06972297845507" lon="-71.16254245827923">
        <time>2019-03-07T04:33:31Z</time>
      </trkpt>
      <trkpt lat="-32.06893493520334" lon="-71.16278275799407">
        <time>2019-03-07T04:33:31Z</time>
      </trkpt>
      <trkpt lat="-32.06788721297638" lon="-71.16318114255215">
        <time>2019-03-07T04:33:31Z</time>
      </trkpt>
      <trkpt lat="-32.06757546679164" lon="-71.16327054078963">
        <time>2019-03-07T04:33:31Z</time>
      </trkpt>
      <trkpt lat="-32.06744964560124" lon="-71.16328588705494">
        <time>2019-03-07T04:33:31Z</time>
      </trkpt>
      <trkpt lat="-32.06729474372416" lon="-71.16329824720225">
        <time>2019-03-07T04:33:31Z</time>
      </trkpt>
      <trkpt lat="-32.0671753646095" lon="-71.16329688733057">
        <time>2019-03-07T04:33:31Z</time>
      </trkpt>
      <trkpt lat="-32.06705065966118" lon="-71.16328604962388">
        <time>2019-03-07T04:33:31Z</time>
      </trkpt>
      <trkpt lat="-32.06693141905404" lon="-71.16324220402167">
        <time>2019-03-07T04:33:31Z</time>
      </trkpt>
      <trkpt lat="-32.0665944596537" lon="-71.1630481155958">
        <time>2019-03-07T04:33:31Z</time>
      </trkpt>
      <trkpt lat="-32.06582380864143" lon="-71.16253121234904">
        <time>2019-03-07T04:33:31Z</time>
      </trkpt>
      <trkpt lat="-32.06561909586012" lon="-71.16240735414007">
        <time>2019-03-07T04:33:31Z</time>
      </trkpt>
      <trkpt lat="-32.0654957852675" lon="-71.16233887268507">
        <time>2019-03-07T04:33:31Z</time>
      </trkpt>
      <trkpt lat="-32.06537490048145" lon="-71.162286227704">
        <time>2019-03-07T04:33:31Z</time>
      </trkpt>
      <trkpt lat="-32.06522815682301" lon="-71.16223893707586">
        <time>2019-03-07T04:33:31Z</time>
      </trkpt>
      <trkpt lat="-32.0651263235295" lon="-71.16221950117141">
        <time>2019-03-07T04:33:31Z</time>
      </trkpt>
      <trkpt lat="-32.06500260026497" lon="-71.16221819444367">
        <time>2019-03-07T04:33:31Z</time>
      </trkpt>
      <trkpt lat="-32.06489000482242" lon="-71.16221742019877">
        <time>2019-03-07T04:33:31Z</time>
      </trkpt>
      <trkpt lat="-32.06476750181356" lon="-71.16220037674425">
        <time>2019-03-07T04:33:31Z</time>
      </trkpt>
      <trkpt lat="-32.06465018441313" lon="-71.16219892405181">
        <time>2019-03-07T04:33:31Z</time>
      </trkpt>
      <trkpt lat="-32.06454941043688" lon="-71.16220220176766">
        <time>2019-03-07T04:33:31Z</time>
      </trkpt>
      <trkpt lat="-32.0643605638383" lon="-71.16223724603314">
        <time>2019-03-07T04:33:31Z</time>
      </trkpt>
      <trkpt lat="-32.06329255071011" lon="-71.16239824273788">
        <time>2019-03-07T04:33:31Z</time>
      </trkpt>
      <trkpt lat="-32.06254926375112" lon="-71.16247993605981">
        <time>2019-03-07T04:33:31Z</time>
      </trkpt>
      <trkpt lat="-32.0617949010285" lon="-71.1625634931611">
        <time>2019-03-07T04:33:31Z</time>
      </trkpt>
      <trkpt lat="-32.06105269579746" lon="-71.16261401698127">
        <time>2019-03-07T04:33:31Z</time>
      </trkpt>
      <trkpt lat="-32.06039849719747" lon="-71.16266038598646">
        <time>2019-03-07T04:33:31Z</time>
      </trkpt>
      <trkpt lat="-32.05987452789196" lon="-71.16272494765687">
        <time>2019-03-07T04:33:31Z</time>
      </trkpt>
      <trkpt lat="-32.05969182306602" lon="-71.16275356684552">
        <time>2019-03-07T04:33:31Z</time>
      </trkpt>
      <trkpt lat="-32.05961024787224" lon="-71.16277869089251">
        <time>2019-03-07T04:33:31Z</time>
      </trkpt>
      <trkpt lat="-32.05951199760084" lon="-71.16281176988146">
        <time>2019-03-07T04:33:31Z</time>
      </trkpt>
      <trkpt lat="-32.05939431090234" lon="-71.16287539815046">
        <time>2019-03-07T04:33:31Z</time>
      </trkpt>
      <trkpt lat="-32.05913378413796" lon="-71.1630519832474">
        <time>2019-03-07T04:33:31Z</time>
      </trkpt>
      <trkpt lat="-32.05882757492547" lon="-71.1632879702216">
        <time>2019-03-07T04:33:31Z</time>
      </trkpt>
      <trkpt lat="-32.05870866550664" lon="-71.16335931242226">
        <time>2019-03-07T04:33:31Z</time>
      </trkpt>
      <trkpt lat="-32.05863626406553" lon="-71.16340137009108">
        <time>2019-03-07T04:33:31Z</time>
      </trkpt>
      <trkpt lat="-32.05856478638319" lon="-71.16343675065085">
        <time>2019-03-07T04:33:31Z</time>
      </trkpt>
      <trkpt lat="-32.05852007467161" lon="-71.16344059580706">
        <time>2019-03-07T04:33:31Z</time>
      </trkpt>
      <trkpt lat="-32.05839183388633" lon="-71.16346659198692">
        <time>2019-03-07T04:33:31Z</time>
      </trkpt>
      <trkpt lat="-32.05827948442198" lon="-71.16346698805576">
        <time>2019-03-07T04:33:31Z</time>
      </trkpt>
      <trkpt lat="-32.058095545677" lon="-71.16344622755133">
        <time>2019-03-07T04:33:31Z</time>
      </trkpt>
      <trkpt lat="-32.05667944630363" lon="-71.16314337602243">
        <time>2019-03-07T04:33:31Z</time>
      </trkpt>
      <trkpt lat="-32.05585520956468" lon="-71.16295205508922">
        <time>2019-03-07T04:33:31Z</time>
      </trkpt>
      <trkpt lat="-32.05557480495843" lon="-71.16288528626657">
        <time>2019-03-07T04:33:31Z</time>
      </trkpt>
      <trkpt lat="-32.05535185585661" lon="-71.16287217232883">
        <time>2019-03-07T04:33:31Z</time>
      </trkpt>
      <trkpt lat="-32.0552042537965" lon="-71.16285228963821">
        <time>2019-03-07T04:33:31Z</time>
      </trkpt>
      <trkpt lat="-32.05508021427506" lon="-71.16283020440663">
        <time>2019-03-07T04:33:31Z</time>
      </trkpt>
      <trkpt lat="-32.0549007077928" lon="-71.1627901930713">
        <time>2019-03-07T04:33:31Z</time>
      </trkpt>
      <trkpt lat="-32.0540222958813" lon="-71.16253530664933">
        <time>2019-03-07T04:33:31Z</time>
      </trkpt>
      <trkpt lat="-32.05393256591272" lon="-71.16250286310545">
        <time>2019-03-07T04:33:31Z</time>
      </trkpt>
      <trkpt lat="-32.05385061617436" lon="-71.16247563998215">
        <time>2019-03-07T04:33:31Z</time>
      </trkpt>
      <trkpt lat="-32.05379425475412" lon="-71.1624405847308">
        <time>2019-03-07T04:33:31Z</time>
      </trkpt>
      <trkpt lat="-32.05371806548481" lon="-71.16237288115562">
        <time>2019-03-07T04:33:31Z</time>
      </trkpt>
      <trkpt lat="-32.05312424380019" lon="-71.1616008330912">
        <time>2019-03-07T04:33:31Z</time>
      </trkpt>
      <trkpt lat="-32.05308431320542" lon="-71.16152989062155">
        <time>2019-03-07T04:33:31Z</time>
      </trkpt>
      <trkpt lat="-32.05304705349233" lon="-71.16146275625268">
        <time>2019-03-07T04:33:31Z</time>
      </trkpt>
      <trkpt lat="-32.05300442285859" lon="-71.16137625512961">
        <time>2019-03-07T04:33:31Z</time>
      </trkpt>
      <trkpt lat="-32.05297529259153" lon="-71.16129305849309">
        <time>2019-03-07T04:33:31Z</time>
      </trkpt>
      <trkpt lat="-32.05294349339588" lon="-71.16115800590629">
        <time>2019-03-07T04:33:31Z</time>
      </trkpt>
      <trkpt lat="-32.05289687319439" lon="-71.16052604580507">
        <time>2019-03-07T04:33:31Z</time>
      </trkpt>
      <trkpt lat="-32.05288198009212" lon="-71.15995273430823">
        <time>2019-03-07T04:33:31Z</time>
      </trkpt>
      <trkpt lat="-32.05286402342075" lon="-71.15973814955567">
        <time>2019-03-07T04:33:31Z</time>
      </trkpt>
      <trkpt lat="-32.05282367348677" lon="-71.15952513549239">
        <time>2019-03-07T04:33:31Z</time>
      </trkpt>
      <trkpt lat="-32.05277491128516" lon="-71.15936789805173">
        <time>2019-03-07T04:33:31Z</time>
      </trkpt>
      <trkpt lat="-32.0527192719259" lon="-71.15923437035575">
        <time>2019-03-07T04:33:31Z</time>
      </trkpt>
      <trkpt lat="-32.05252295864506" lon="-71.15893364409332">
        <time>2019-03-07T04:33:31Z</time>
      </trkpt>
      <trkpt lat="-32.05233748012206" lon="-71.15867211978849">
        <time>2019-03-07T04:33:31Z</time>
      </trkpt>
      <trkpt lat="-32.05210909928715" lon="-71.1583478028513">
        <time>2019-03-07T04:33:31Z</time>
      </trkpt>
      <trkpt lat="-32.0518290540487" lon="-71.1579100719554">
        <time>2019-03-07T04:33:31Z</time>
      </trkpt>
      <trkpt lat="-32.05167174614179" lon="-71.15768801880196">
        <time>2019-03-07T04:33:31Z</time>
      </trkpt>
      <trkpt lat="-32.05157391041067" lon="-71.15759796059626">
        <time>2019-03-07T04:33:31Z</time>
      </trkpt>
      <trkpt lat="-32.05146980055505" lon="-71.15751068259789">
        <time>2019-03-07T04:33:31Z</time>
      </trkpt>
      <trkpt lat="-32.05137880041085" lon="-71.15746715802064">
        <time>2019-03-07T04:33:31Z</time>
      </trkpt>
      <trkpt lat="-32.05126921056375" lon="-71.15742294071708">
        <time>2019-03-07T04:33:31Z</time>
      </trkpt>
      <trkpt lat="-32.05112579395647" lon="-71.15737668663066">
        <time>2019-03-07T04:33:31Z</time>
      </trkpt>
      <trkpt lat="-32.05098217913119" lon="-71.15735236311261">
        <time>2019-03-07T04:33:31Z</time>
      </trkpt>
      <trkpt lat="-32.05085918927301" lon="-71.15734043550626">
        <time>2019-03-07T04:33:31Z</time>
      </trkpt>
      <trkpt lat="-32.05074559851986" lon="-71.15734660175843">
        <time>2019-03-07T04:33:31Z</time>
      </trkpt>
      <trkpt lat="-32.05036356777224" lon="-71.15742217908552">
        <time>2019-03-07T04:33:31Z</time>
      </trkpt>
      <trkpt lat="-32.04887526668164" lon="-71.15776153495895">
        <time>2019-03-07T04:33:31Z</time>
      </trkpt>
      <trkpt lat="-32.04746106116995" lon="-71.1580967594432">
        <time>2019-03-07T04:33:31Z</time>
      </trkpt>
      <trkpt lat="-32.04693234354988" lon="-71.15821644870519">
        <time>2019-03-07T04:33:31Z</time>
      </trkpt>
      <trkpt lat="-32.04687302366119" lon="-71.15821904314926">
        <time>2019-03-07T04:33:31Z</time>
      </trkpt>
      <trkpt lat="-32.04662747949659" lon="-71.15821209733349">
        <time>2019-03-07T04:33:31Z</time>
      </trkpt>
      <trkpt lat="-32.04622300018693" lon="-71.15816198106579">
        <time>2019-03-07T04:33:31Z</time>
      </trkpt>
      <trkpt lat="-32.04481163152846" lon="-71.15792631683614">
        <time>2019-03-07T04:33:31Z</time>
      </trkpt>
      <trkpt lat="-32.04389361198935" lon="-71.15779007577214">
        <time>2019-03-07T04:33:31Z</time>
      </trkpt>
      <trkpt lat="-32.04270426399273" lon="-71.15760981161009">
        <time>2019-03-07T04:33:31Z</time>
      </trkpt>
      <trkpt lat="-32.04190459389734" lon="-71.1574800046773">
        <time>2019-03-07T04:33:31Z</time>
      </trkpt>
      <trkpt lat="-32.0408961496541" lon="-71.15731372681435">
        <time>2019-03-07T04:33:31Z</time>
      </trkpt>
      <trkpt lat="-32.0407777465211" lon="-71.15728291106402">
        <time>2019-03-07T04:33:31Z</time>
      </trkpt>
      <trkpt lat="-32.04058041726949" lon="-71.15723232661863">
        <time>2019-03-07T04:33:31Z</time>
      </trkpt>
      <trkpt lat="-32.04047597681415" lon="-71.15721385355883">
        <time>2019-03-07T04:33:31Z</time>
      </trkpt>
      <trkpt lat="-32.04040354843441" lon="-71.15720787585389">
        <time>2019-03-07T04:33:31Z</time>
      </trkpt>
      <trkpt lat="-32.04032983843364" lon="-71.15720947748901">
        <time>2019-03-07T04:33:31Z</time>
      </trkpt>
      <trkpt lat="-32.0402319036751" lon="-71.15722284056022">
        <time>2019-03-07T04:33:31Z</time>
      </trkpt>
      <trkpt lat="-32.03983665731889" lon="-71.15732562772583">
        <time>2019-03-07T04:33:31Z</time>
      </trkpt>
      <trkpt lat="-32.03956231571456" lon="-71.15737739275582">
        <time>2019-03-07T04:33:31Z</time>
      </trkpt>
      <trkpt lat="-32.03944636359061" lon="-71.15738694786322">
        <time>2019-03-07T04:33:31Z</time>
      </trkpt>
      <trkpt lat="-32.03927823989007" lon="-71.15738579785038">
        <time>2019-03-07T04:33:31Z</time>
      </trkpt>
      <trkpt lat="-32.03921193725205" lon="-71.15737214801833">
        <time>2019-03-07T04:33:31Z</time>
      </trkpt>
      <trkpt lat="-32.03897737745727" lon="-71.15728166278447">
        <time>2019-03-07T04:33:31Z</time>
      </trkpt>
      <trkpt lat="-32.03880769429098" lon="-71.15718059968273">
        <time>2019-03-07T04:33:31Z</time>
      </trkpt>
      <trkpt lat="-32.03872001106021" lon="-71.15711710546277">
        <time>2019-03-07T04:33:31Z</time>
      </trkpt>
      <trkpt lat="-32.03863937465379" lon="-71.15704554017466">
        <time>2019-03-07T04:33:31Z</time>
      </trkpt>
      <trkpt lat="-32.03856811856043" lon="-71.15698046993904">
        <time>2019-03-07T04:33:31Z</time>
      </trkpt>
      <trkpt lat="-32.03849206730971" lon="-71.15689369705363">
        <time>2019-03-07T04:33:31Z</time>
      </trkpt>
      <trkpt lat="-32.0384211981695" lon="-71.15678817698225">
        <time>2019-03-07T04:33:31Z</time>
      </trkpt>
      <trkpt lat="-32.0383351029249" lon="-71.15663138880852">
        <time>2019-03-07T04:33:31Z</time>
      </trkpt>
      <trkpt lat="-32.03828396260418" lon="-71.15650681182366">
        <time>2019-03-07T04:33:31Z</time>
      </trkpt>
      <trkpt lat="-32.03823947809147" lon="-71.15637442809474">
        <time>2019-03-07T04:33:31Z</time>
      </trkpt>
      <trkpt lat="-32.0382045884087" lon="-71.15626234256796">
        <time>2019-03-07T04:33:31Z</time>
      </trkpt>
      <trkpt lat="-32.03817540053063" lon="-71.15611922992865">
        <time>2019-03-07T04:33:31Z</time>
      </trkpt>
      <trkpt lat="-32.03815604185235" lon="-71.15599868660399">
        <time>2019-03-07T04:33:31Z</time>
      </trkpt>
      <trkpt lat="-32.03810353634381" lon="-71.15563958983383">
        <time>2019-03-07T04:33:31Z</time>
      </trkpt>
      <trkpt lat="-32.0380673642934" lon="-71.15545180732697">
        <time>2019-03-07T04:33:31Z</time>
      </trkpt>
      <trkpt lat="-32.0380482652692" lon="-71.15536919246515">
        <time>2019-03-07T04:33:31Z</time>
      </trkpt>
      <trkpt lat="-32.03798480396852" lon="-71.1551532183161">
        <time>2019-03-07T04:33:31Z</time>
      </trkpt>
      <trkpt lat="-32.03791404247158" lon="-71.1549793776089">
        <time>2019-03-07T04:33:31Z</time>
      </trkpt>
      <trkpt lat="-32.03786273140846" lon="-71.15489432355626">
        <time>2019-03-07T04:33:31Z</time>
      </trkpt>
      <trkpt lat="-32.03779159719144" lon="-71.15480813517009">
        <time>2019-03-07T04:33:31Z</time>
      </trkpt>
      <trkpt lat="-32.0376721699887" lon="-71.15470474145612">
        <time>2019-03-07T04:33:31Z</time>
      </trkpt>
      <trkpt lat="-32.03755450648912" lon="-71.15462185916795">
        <time>2019-03-07T04:33:31Z</time>
      </trkpt>
      <trkpt lat="-32.03733712042162" lon="-71.15449538654518">
        <time>2019-03-07T04:33:31Z</time>
      </trkpt>
      <trkpt lat="-32.03726161708788" lon="-71.15445294129782">
        <time>2019-03-07T04:33:31Z</time>
      </trkpt>
      <trkpt lat="-32.03719927460035" lon="-71.15442645784118">
        <time>2019-03-07T04:33:31Z</time>
      </trkpt>
      <trkpt lat="-32.03711134246388" lon="-71.1544063756844">
        <time>2019-03-07T04:33:31Z</time>
      </trkpt>
      <trkpt lat="-32.03696200693643" lon="-71.15438877395809">
        <time>2019-03-07T04:33:31Z</time>
      </trkpt>
      <trkpt lat="-32.03687298532945" lon="-71.15438681512704">
        <time>2019-03-07T04:33:31Z</time>
      </trkpt>
      <trkpt lat="-32.0367641110691" lon="-71.15439829572121">
        <time>2019-03-07T04:33:31Z</time>
      </trkpt>
      <trkpt lat="-32.0365443125861" lon="-71.15443732711927">
        <time>2019-03-07T04:33:31Z</time>
      </trkpt>
      <trkpt lat="-32.03643179211441" lon="-71.15445462479553">
        <time>2019-03-07T04:33:31Z</time>
      </trkpt>
      <trkpt lat="-32.03635157020107" lon="-71.15447013230963">
        <time>2019-03-07T04:33:31Z</time>
      </trkpt>
      <trkpt lat="-32.03626941869066" lon="-71.1544977085602">
        <time>2019-03-07T04:33:31Z</time>
      </trkpt>
      <trkpt lat="-32.03618405796479" lon="-71.1545480798241">
        <time>2019-03-07T04:33:31Z</time>
      </trkpt>
      <trkpt lat="-32.03575825670421" lon="-71.15482162151653">
        <time>2019-03-07T04:33:31Z</time>
      </trkpt>
      <trkpt lat="-32.03567443304488" lon="-71.15486428684183">
        <time>2019-03-07T04:33:31Z</time>
      </trkpt>
      <trkpt lat="-32.03558980443507" lon="-71.15489166054933">
        <time>2019-03-07T04:33:31Z</time>
      </trkpt>
      <trkpt lat="-32.03518664839493" lon="-71.15500723543124">
        <time>2019-03-07T04:33:31Z</time>
      </trkpt>
      <trkpt lat="-32.03509657530665" lon="-71.15502244248248">
        <time>2019-03-07T04:33:31Z</time>
      </trkpt>
      <trkpt lat="-32.03501381909938" lon="-71.15502362614056">
        <time>2019-03-07T04:33:31Z</time>
      </trkpt>
      <trkpt lat="-32.03488423492778" lon="-71.15500270849293">
        <time>2019-03-07T04:33:31Z</time>
      </trkpt>
      <trkpt lat="-32.03476314595349" lon="-71.15496969032388">
        <time>2019-03-07T04:33:31Z</time>
      </trkpt>
      <trkpt lat="-32.03466110479734" lon="-71.15491122167259">
        <time>2019-03-07T04:33:31Z</time>
      </trkpt>
      <trkpt lat="-32.0345312236683" lon="-71.15482912491866">
        <time>2019-03-07T04:33:31Z</time>
      </trkpt>
      <trkpt lat="-32.03444177965773" lon="-71.15476451266227">
        <time>2019-03-07T04:33:31Z</time>
      </trkpt>
      <trkpt lat="-32.03428294913408" lon="-71.15462083731649">
        <time>2019-03-07T04:33:31Z</time>
      </trkpt>
      <trkpt lat="-32.03418452498796" lon="-71.15450545687654">
        <time>2019-03-07T04:33:31Z</time>
      </trkpt>
      <trkpt lat="-32.03404912381789" lon="-71.15432399278897">
        <time>2019-03-07T04:33:31Z</time>
      </trkpt>
      <trkpt lat="-32.03390802125091" lon="-71.15411224789018">
        <time>2019-03-07T04:33:31Z</time>
      </trkpt>
      <trkpt lat="-32.0335196559513" lon="-71.153464501302">
        <time>2019-03-07T04:33:31Z</time>
      </trkpt>
      <trkpt lat="-32.03327919330032" lon="-71.15306931784022">
        <time>2019-03-07T04:33:31Z</time>
      </trkpt>
      <trkpt lat="-32.03306932523192" lon="-71.15273997157188">
        <time>2019-03-07T04:33:31Z</time>
      </trkpt>
      <trkpt lat="-32.03301051534608" lon="-71.15266738894471">
        <time>2019-03-07T04:33:31Z</time>
      </trkpt>
      <trkpt lat="-32.03294656020014" lon="-71.15259723442519">
        <time>2019-03-07T04:33:31Z</time>
      </trkpt>
      <trkpt lat="-32.03284186336393" lon="-71.15248484780793">
        <time>2019-03-07T04:33:31Z</time>
      </trkpt>
      <trkpt lat="-32.03273600128747" lon="-71.15240231086294">
        <time>2019-03-07T04:33:31Z</time>
      </trkpt>
      <trkpt lat="-32.03265498827557" lon="-71.1523657994599">
        <time>2019-03-07T04:33:31Z</time>
      </trkpt>
      <trkpt lat="-32.03248216826333" lon="-71.15230456033919">
        <time>2019-03-07T04:33:31Z</time>
      </trkpt>
      <trkpt lat="-32.03210389479432" lon="-71.15223779804688">
        <time>2019-03-07T04:33:31Z</time>
      </trkpt>
      <trkpt lat="-32.03197792739636" lon="-71.15222967653764">
        <time>2019-03-07T04:33:31Z</time>
      </trkpt>
      <trkpt lat="-32.03190525011025" lon="-71.15224101436384">
        <time>2019-03-07T04:33:31Z</time>
      </trkpt>
      <trkpt lat="-32.03177237191655" lon="-71.15227577768548">
        <time>2019-03-07T04:33:31Z</time>
      </trkpt>
      <trkpt lat="-32.03159166434591" lon="-71.15234903951004">
        <time>2019-03-07T04:33:31Z</time>
      </trkpt>
      <trkpt lat="-32.03146025801523" lon="-71.15241046080269">
        <time>2019-03-07T04:33:31Z</time>
      </trkpt>
      <trkpt lat="-32.03130900163183" lon="-71.15249060450826">
        <time>2019-03-07T04:33:31Z</time>
      </trkpt>
      <trkpt lat="-32.03067397799175" lon="-71.15283038756728">
        <time>2019-03-07T04:33:31Z</time>
      </trkpt>
      <trkpt lat="-32.03054123627355" lon="-71.15286356023458">
        <time>2019-03-07T04:33:31Z</time>
      </trkpt>
      <trkpt lat="-32.03039918944639" lon="-71.15288020799774">
        <time>2019-03-07T04:33:31Z</time>
      </trkpt>
      <trkpt lat="-32.03031917305958" lon="-71.15287446405576">
        <time>2019-03-07T04:33:31Z</time>
      </trkpt>
      <trkpt lat="-32.03012779145259" lon="-71.15282141147165">
        <time>2019-03-07T04:33:31Z</time>
      </trkpt>
      <trkpt lat="-32.0299027863536" lon="-71.15276771892769">
        <time>2019-03-07T04:33:31Z</time>
      </trkpt>
      <trkpt lat="-32.02976286241713" lon="-71.1527031569824">
        <time>2019-03-07T04:33:31Z</time>
      </trkpt>
      <trkpt lat="-32.02967471781841" lon="-71.15263954536366">
        <time>2019-03-07T04:33:31Z</time>
      </trkpt>
      <trkpt lat="-32.02958032093699" lon="-71.15258289855157">
        <time>2019-03-07T04:33:31Z</time>
      </trkpt>
      <trkpt lat="-32.02925013135604" lon="-71.15236918415376">
        <time>2019-03-07T04:33:31Z</time>
      </trkpt>
      <trkpt lat="-32.02883682599634" lon="-71.1521300006454">
        <time>2019-03-07T04:33:31Z</time>
      </trkpt>
      <trkpt lat="-32.02870532577892" lon="-71.15207107558585">
        <time>2019-03-07T04:33:31Z</time>
      </trkpt>
      <trkpt lat="-32.02858686607566" lon="-71.15202685762655">
        <time>2019-03-07T04:33:31Z</time>
      </trkpt>
      <trkpt lat="-32.02845106448262" lon="-71.15200262297246">
        <time>2019-03-07T04:33:31Z</time>
      </trkpt>
      <trkpt lat="-32.02819551713209" lon="-71.15197882561429">
        <time>2019-03-07T04:33:31Z</time>
      </trkpt>
      <trkpt lat="-32.02809727174761" lon="-71.15196713901031">
        <time>2019-03-07T04:33:31Z</time>
      </trkpt>
      <trkpt lat="-32.02802815002217" lon="-71.15195449407008">
        <time>2019-03-07T04:33:31Z</time>
      </trkpt>
      <trkpt lat="-32.02785732201181" lon="-71.15189430544739">
        <time>2019-03-07T04:33:31Z</time>
      </trkpt>
      <trkpt lat="-32.0274756040665" lon="-71.15177256331783">
        <time>2019-03-07T04:33:31Z</time>
      </trkpt>
      <trkpt lat="-32.02732728210649" lon="-71.1517388659238">
        <time>2019-03-07T04:33:31Z</time>
      </trkpt>
      <trkpt lat="-32.02717375195559" lon="-71.15172042049542">
        <time>2019-03-07T04:33:31Z</time>
      </trkpt>
      <trkpt lat="-32.02707577285201" lon="-71.15171305728062">
        <time>2019-03-07T04:33:31Z</time>
      </trkpt>
      <trkpt lat="-32.02700694656684" lon="-71.15172009517471">
        <time>2019-03-07T04:33:31Z</time>
      </trkpt>
      <trkpt lat="-32.0268553988772" lon="-71.15174845500343">
        <time>2019-03-07T04:33:31Z</time>
      </trkpt>
      <trkpt lat="-32.0267194902387" lon="-71.15178885296758">
        <time>2019-03-07T04:33:31Z</time>
      </trkpt>
      <trkpt lat="-32.02662951070685" lon="-71.15182755854649">
        <time>2019-03-07T04:33:31Z</time>
      </trkpt>
      <trkpt lat="-32.02653437006716" lon="-71.15187545095714">
        <time>2019-03-07T04:33:31Z</time>
      </trkpt>
      <trkpt lat="-32.02642607564392" lon="-71.15194633642375">
        <time>2019-03-07T04:33:31Z</time>
      </trkpt>
      <trkpt lat="-32.02630538349634" lon="-71.15204072699362">
        <time>2019-03-07T04:33:31Z</time>
      </trkpt>
      <trkpt lat="-32.02570484581067" lon="-71.1525716144411">
        <time>2019-03-07T04:33:31Z</time>
      </trkpt>
      <trkpt lat="-32.02554612116187" lon="-71.1527063287221">
        <time>2019-03-07T04:33:31Z</time>
      </trkpt>
      <trkpt lat="-32.02544058469321" lon="-71.15277770704867">
        <time>2019-03-07T04:33:31Z</time>
      </trkpt>
      <trkpt lat="-32.02531303835551" lon="-71.15285110579205">
        <time>2019-03-07T04:33:31Z</time>
      </trkpt>
      <trkpt lat="-32.02523085620773" lon="-71.15288613449347">
        <time>2019-03-07T04:33:31Z</time>
      </trkpt>
      <trkpt lat="-32.0251178227363" lon="-71.15292031592591">
        <time>2019-03-07T04:33:31Z</time>
      </trkpt>
      <trkpt lat="-32.02495865959273" lon="-71.15295070499739">
        <time>2019-03-07T04:33:31Z</time>
      </trkpt>
      <trkpt lat="-32.02483752736729" lon="-71.15295604567979">
        <time>2019-03-07T04:33:31Z</time>
      </trkpt>
      <trkpt lat="-32.02470816497813" lon="-71.15294428491367">
        <time>2019-03-07T04:33:31Z</time>
      </trkpt>
      <trkpt lat="-32.02455368904317" lon="-71.15291144309197">
        <time>2019-03-07T04:33:31Z</time>
      </trkpt>
      <trkpt lat="-32.02440686943184" lon="-71.15285719919504">
        <time>2019-03-07T04:33:31Z</time>
      </trkpt>
      <trkpt lat="-32.02424596504881" lon="-71.15277536687611">
        <time>2019-03-07T04:33:31Z</time>
      </trkpt>
      <trkpt lat="-32.02415959166274" lon="-71.15272341721163">
        <time>2019-03-07T04:33:31Z</time>
      </trkpt>
      <trkpt lat="-32.02400585808463" lon="-71.15261205939086">
        <time>2019-03-07T04:33:31Z</time>
      </trkpt>
      <trkpt lat="-32.02392890751626" lon="-71.1525192014778">
        <time>2019-03-07T04:33:31Z</time>
      </trkpt>
      <trkpt lat="-32.02384693906642" lon="-71.15240083151093">
        <time>2019-03-07T04:33:31Z</time>
      </trkpt>
      <trkpt lat="-32.02375002016434" lon="-71.1521805083766">
        <time>2019-03-07T04:33:31Z</time>
      </trkpt>
      <trkpt lat="-32.02364204444498" lon="-71.15188471243833">
        <time>2019-03-07T04:33:31Z</time>
      </trkpt>
      <trkpt lat="-32.02345107034128" lon="-71.15132774467544">
        <time>2019-03-07T04:33:31Z</time>
      </trkpt>
      <trkpt lat="-32.02335465667589" lon="-71.15110958562819">
        <time>2019-03-07T04:33:31Z</time>
      </trkpt>
      <trkpt lat="-32.02327725195006" lon="-71.15097790006708">
        <time>2019-03-07T04:33:31Z</time>
      </trkpt>
      <trkpt lat="-32.02319703057707" lon="-71.15085753962937">
        <time>2019-03-07T04:33:31Z</time>
      </trkpt>
      <trkpt lat="-32.02311296505453" lon="-71.15076118009819">
        <time>2019-03-07T04:33:31Z</time>
      </trkpt>
      <trkpt lat="-32.02294570693104" lon="-71.15063032012075">
        <time>2019-03-07T04:33:31Z</time>
      </trkpt>
      <trkpt lat="-32.02254861301313" lon="-71.15040921725436">
        <time>2019-03-07T04:33:31Z</time>
      </trkpt>
      <trkpt lat="-32.02217686463374" lon="-71.15022830705084">
        <time>2019-03-07T04:33:31Z</time>
      </trkpt>
      <trkpt lat="-32.02212637566469" lon="-71.15019752835471">
        <time>2019-03-07T04:33:31Z</time>
      </trkpt>
      <trkpt lat="-32.02207726824512" lon="-71.15015673192809">
        <time>2019-03-07T04:33:31Z</time>
      </trkpt>
      <trkpt lat="-32.02204045625597" lon="-71.15012358158835">
        <time>2019-03-07T04:33:31Z</time>
      </trkpt>
      <trkpt lat="-32.02200517574714" lon="-71.15009049319914">
        <time>2019-03-07T04:33:31Z</time>
      </trkpt>
      <trkpt lat="-32.02190418663275" lon="-71.15000858482657">
        <time>2019-03-07T04:33:31Z</time>
      </trkpt>
      <trkpt lat="-32.02135709589458" lon="-71.14941874223371">
        <time>2019-03-07T04:33:31Z</time>
      </trkpt>
      <trkpt lat="-32.02098881221719" lon="-71.1491069903484">
        <time>2019-03-07T04:33:31Z</time>
      </trkpt>
      <trkpt lat="-32.02085633391968" lon="-71.14903433306434">
        <time>2019-03-07T04:33:31Z</time>
      </trkpt>
      <trkpt lat="-32.02070878968732" lon="-71.14898281132987">
        <time>2019-03-07T04:33:31Z</time>
      </trkpt>
      <trkpt lat="-32.02057223422514" lon="-71.1489563929316">
        <time>2019-03-07T04:33:31Z</time>
      </trkpt>
      <trkpt lat="-32.02045364564847" lon="-71.14894795819751">
        <time>2019-03-07T04:33:31Z</time>
      </trkpt>
      <trkpt lat="-32.01962202095178" lon="-71.14891035595494">
        <time>2019-03-07T04:33:31Z</time>
      </trkpt>
      <trkpt lat="-32.01899208660402" lon="-71.14886041263321">
        <time>2019-03-07T04:33:31Z</time>
      </trkpt>
      <trkpt lat="-32.01888960889644" lon="-71.14883736494375">
        <time>2019-03-07T04:33:31Z</time>
      </trkpt>
      <trkpt lat="-32.01878172045516" lon="-71.14880253184801">
        <time>2019-03-07T04:33:31Z</time>
      </trkpt>
      <trkpt lat="-32.01872287896473" lon="-71.14877109059168">
        <time>2019-03-07T04:33:31Z</time>
      </trkpt>
      <trkpt lat="-32.01854240342893" lon="-71.14865112174488">
        <time>2019-03-07T04:33:31Z</time>
      </trkpt>
      <trkpt lat="-32.01829641571704" lon="-71.1484775220861">
        <time>2019-03-07T04:33:31Z</time>
      </trkpt>
      <trkpt lat="-32.01753051101959" lon="-71.14784814180668">
        <time>2019-03-07T04:33:31Z</time>
      </trkpt>
      <trkpt lat="-32.01739592730429" lon="-71.14775889678647">
        <time>2019-03-07T04:33:31Z</time>
      </trkpt>
      <trkpt lat="-32.01729033199489" lon="-71.14769799002077">
        <time>2019-03-07T04:33:31Z</time>
      </trkpt>
      <trkpt lat="-32.01720059072605" lon="-71.14765921531664">
        <time>2019-03-07T04:33:31Z</time>
      </trkpt>
      <trkpt lat="-32.01671055749799" lon="-71.14744113629533">
        <time>2019-03-07T04:33:31Z</time>
      </trkpt>
      <trkpt lat="-32.01666577084821" lon="-71.14741993200899">
        <time>2019-03-07T04:33:31Z</time>
      </trkpt>
      <trkpt lat="-32.01661690628382" lon="-71.14739266703425">
        <time>2019-03-07T04:33:31Z</time>
      </trkpt>
      <trkpt lat="-32.01657966761181" lon="-71.14736648078575">
        <time>2019-03-07T04:33:31Z</time>
      </trkpt>
      <trkpt lat="-32.01638016029036" lon="-71.14718015530025">
        <time>2019-03-07T04:33:31Z</time>
      </trkpt>
      <trkpt lat="-32.01630688032106" lon="-71.14709558306484">
        <time>2019-03-07T04:33:31Z</time>
      </trkpt>
      <trkpt lat="-32.01615933911143" lon="-71.1468772001583">
        <time>2019-03-07T04:33:31Z</time>
      </trkpt>
      <trkpt lat="-32.01611560625904" lon="-71.14681693134908">
        <time>2019-03-07T04:33:31Z</time>
      </trkpt>
      <trkpt lat="-32.01606745877856" lon="-71.1467638693769">
        <time>2019-03-07T04:33:31Z</time>
      </trkpt>
      <trkpt lat="-32.01597827052646" lon="-71.14668318006369">
        <time>2019-03-07T04:33:31Z</time>
      </trkpt>
      <trkpt lat="-32.01590145701398" lon="-71.14661981347781">
        <time>2019-03-07T04:33:31Z</time>
      </trkpt>
      <trkpt lat="-32.01571816782677" lon="-71.14651109021244">
        <time>2019-03-07T04:33:31Z</time>
      </trkpt>
      <trkpt lat="-32.0155759511281" lon="-71.14644888600576">
        <time>2019-03-07T04:33:31Z</time>
      </trkpt>
      <trkpt lat="-32.01540274158852" lon="-71.14640409606632">
        <time>2019-03-07T04:33:31Z</time>
      </trkpt>
      <trkpt lat="-32.01521087910072" lon="-71.14637552573602">
        <time>2019-03-07T04:33:31Z</time>
      </trkpt>
      <trkpt lat="-32.01508543532356" lon="-71.14637284598818">
        <time>2019-03-07T04:33:31Z</time>
      </trkpt>
      <trkpt lat="-32.01495428693573" lon="-71.14639030724379">
        <time>2019-03-07T04:33:31Z</time>
      </trkpt>
      <trkpt lat="-32.01487562970087" lon="-71.14640669705359">
        <time>2019-03-07T04:33:31Z</time>
      </trkpt>
      <trkpt lat="-32.01467409810468" lon="-71.14647166742556">
        <time>2019-03-07T04:33:31Z</time>
      </trkpt>
      <trkpt lat="-32.01409505239929" lon="-71.14671101392692">
        <time>2019-03-07T04:33:31Z</time>
      </trkpt>
      <trkpt lat="-32.01403772988665" lon="-71.14672582532708">
        <time>2019-03-07T04:33:31Z</time>
      </trkpt>
      <trkpt lat="-32.01396311769128" lon="-71.1467383342502">
        <time>2019-03-07T04:33:31Z</time>
      </trkpt>
      <trkpt lat="-32.0138900671168" lon="-71.14675123864245">
        <time>2019-03-07T04:33:31Z</time>
      </trkpt>
      <trkpt lat="-32.01379139145585" lon="-71.14675194546224">
        <time>2019-03-07T04:33:31Z</time>
      </trkpt>
      <trkpt lat="-32.01369460520226" lon="-71.14673979183904">
        <time>2019-03-07T04:33:31Z</time>
      </trkpt>
      <trkpt lat="-32.01352044902298" lon="-71.14671158745092">
        <time>2019-03-07T04:33:31Z</time>
      </trkpt>
      <trkpt lat="-32.01344287998968" lon="-71.14669280394782">
        <time>2019-03-07T04:33:31Z</time>
      </trkpt>
      <trkpt lat="-32.01308922225239" lon="-71.14655834301126">
        <time>2019-03-07T04:33:31Z</time>
      </trkpt>
      <trkpt lat="-32.01230571957935" lon="-71.14626132955797">
        <time>2019-03-07T04:33:31Z</time>
      </trkpt>
      <trkpt lat="-32.01145611494327" lon="-71.14591931607768">
        <time>2019-03-07T04:33:31Z</time>
      </trkpt>
      <trkpt lat="-32.01100930675113" lon="-71.14572998578515">
        <time>2019-03-07T04:33:31Z</time>
      </trkpt>
      <trkpt lat="-32.01091030626572" lon="-71.14567996259252">
        <time>2019-03-07T04:33:31Z</time>
      </trkpt>
      <trkpt lat="-32.01072314741907" lon="-71.14555978281979">
        <time>2019-03-07T04:33:31Z</time>
      </trkpt>
      <trkpt lat="-32.01054351042173" lon="-71.14539916398482">
        <time>2019-03-07T04:33:31Z</time>
      </trkpt>
      <trkpt lat="-32.0104540913023" lon="-71.14530193999845">
        <time>2019-03-07T04:33:31Z</time>
      </trkpt>
      <trkpt lat="-32.01025829186098" lon="-71.14504188731489">
        <time>2019-03-07T04:33:31Z</time>
      </trkpt>
      <trkpt lat="-32.01011671566504" lon="-71.14489563584772">
        <time>2019-03-07T04:33:31Z</time>
      </trkpt>
      <trkpt lat="-32.00997656513883" lon="-71.14478184510355">
        <time>2019-03-07T04:33:31Z</time>
      </trkpt>
      <trkpt lat="-32.00980697481384" lon="-71.14466470663864">
        <time>2019-03-07T04:33:31Z</time>
      </trkpt>
      <trkpt lat="-32.00962661928592" lon="-71.14457117780134">
        <time>2019-03-07T04:33:31Z</time>
      </trkpt>
      <trkpt lat="-32.009443155642" lon="-71.14451038655128">
        <time>2019-03-07T04:33:31Z</time>
      </trkpt>
      <trkpt lat="-32.00928195471487" lon="-71.14447178841098">
        <time>2019-03-07T04:33:31Z</time>
      </trkpt>
      <trkpt lat="-32.00917227996765" lon="-71.14446907463405">
        <time>2019-03-07T04:33:31Z</time>
      </trkpt>
      <trkpt lat="-32.00800612734429" lon="-71.14455099065476">
        <time>2019-03-07T04:33:31Z</time>
      </trkpt>
      <trkpt lat="-32.00675141834688" lon="-71.1446286194935">
        <time>2019-03-07T04:33:31Z</time>
      </trkpt>
      <trkpt lat="-32.00668100270544" lon="-71.14462810493895">
        <time>2019-03-07T04:33:31Z</time>
      </trkpt>
      <trkpt lat="-32.00660214586524" lon="-71.14461704144679">
        <time>2019-03-07T04:33:31Z</time>
      </trkpt>
      <trkpt lat="-32.00651013170687" lon="-71.14460060300061">
        <time>2019-03-07T04:33:31Z</time>
      </trkpt>
      <trkpt lat="-32.00643084892388" lon="-71.14457987825244">
        <time>2019-03-07T04:33:31Z</time>
      </trkpt>
      <trkpt lat="-32.00632554957245" lon="-71.14454414943442">
        <time>2019-03-07T04:33:31Z</time>
      </trkpt>
      <trkpt lat="-32.00619858007018" lon="-71.14447694240978">
        <time>2019-03-07T04:33:31Z</time>
      </trkpt>
      <trkpt lat="-32.00612039214975" lon="-71.14443157766158">
        <time>2019-03-07T04:33:31Z</time>
      </trkpt>
      <trkpt lat="-32.00599899371188" lon="-71.14434236080653">
        <time>2019-03-07T04:33:31Z</time>
      </trkpt>
      <trkpt lat="-32.00592087790898" lon="-71.14427051472347">
        <time>2019-03-07T04:33:31Z</time>
      </trkpt>
      <trkpt lat="-32.00579744784521" lon="-71.14413763983002">
        <time>2019-03-07T04:33:31Z</time>
      </trkpt>
      <trkpt lat="-32.0057276694482" lon="-71.14403446939035">
        <time>2019-03-07T04:33:31Z</time>
      </trkpt>
      <trkpt lat="-32.00559650765466" lon="-71.14377240194391">
        <time>2019-03-07T04:33:31Z</time>
      </trkpt>
      <trkpt lat="-32.00545512611033" lon="-71.14342931442809">
        <time>2019-03-07T04:33:31Z</time>
      </trkpt>
      <trkpt lat="-32.00532885263645" lon="-71.14311445375572">
        <time>2019-03-07T04:33:31Z</time>
      </trkpt>
      <trkpt lat="-32.00523035674565" lon="-71.14295615513981">
        <time>2019-03-07T04:33:31Z</time>
      </trkpt>
      <trkpt lat="-32.00511200290649" lon="-71.14279861425146">
        <time>2019-03-07T04:33:31Z</time>
      </trkpt>
      <trkpt lat="-32.0049026744566" lon="-71.14259940419233">
        <time>2019-03-07T04:33:31Z</time>
      </trkpt>
      <trkpt lat="-32.00478702480559" lon="-71.14252565323794">
        <time>2019-03-07T04:33:31Z</time>
      </trkpt>
      <trkpt lat="-32.00466674382475" lon="-71.14246530140113">
        <time>2019-03-07T04:33:31Z</time>
      </trkpt>
      <trkpt lat="-32.00455066825347" lon="-71.14242242565595">
        <time>2019-03-07T04:33:31Z</time>
      </trkpt>
      <trkpt lat="-32.00442910227264" lon="-71.14240306678302">
        <time>2019-03-07T04:33:31Z</time>
      </trkpt>
      <trkpt lat="-32.00430489077645" lon="-71.14239228474206">
        <time>2019-03-07T04:33:31Z</time>
      </trkpt>
      <trkpt lat="-32.004197070703" lon="-71.14239061351813">
        <time>2019-03-07T04:33:31Z</time>
      </trkpt>
      <trkpt lat="-32.00409448095591" lon="-71.14240682956819">
        <time>2019-03-07T04:33:31Z</time>
      </trkpt>
      <trkpt lat="-32.0039888264604" lon="-71.14242971823069">
        <time>2019-03-07T04:33:31Z</time>
      </trkpt>
      <trkpt lat="-32.0039212064363" lon="-71.14245151914911">
        <time>2019-03-07T04:33:31Z</time>
      </trkpt>
      <trkpt lat="-32.00383852528321" lon="-71.14248311963495">
        <time>2019-03-07T04:33:31Z</time>
      </trkpt>
      <trkpt lat="-32.00369858429262" lon="-71.1425545628783">
        <time>2019-03-07T04:33:31Z</time>
      </trkpt>
      <trkpt lat="-32.00355002207996" lon="-71.14264600184205">
        <time>2019-03-07T04:33:31Z</time>
      </trkpt>
      <trkpt lat="-32.00310008958125" lon="-71.14296358323418">
        <time>2019-03-07T04:33:31Z</time>
      </trkpt>
      <trkpt lat="-32.00304663643519" lon="-71.14299171291125">
        <time>2019-03-07T04:33:31Z</time>
      </trkpt>
      <trkpt lat="-32.00296955768096" lon="-71.14302846104272">
        <time>2019-03-07T04:33:31Z</time>
      </trkpt>
      <trkpt lat="-32.00290045274228" lon="-71.14305546262389">
        <time>2019-03-07T04:33:31Z</time>
      </trkpt>
      <trkpt lat="-32.00279324068864" lon="-71.14309178526609">
        <time>2019-03-07T04:33:31Z</time>
      </trkpt>
      <trkpt lat="-32.00201626268432" lon="-71.14323136254428">
        <time>2019-03-07T04:33:31Z</time>
      </trkpt>
      <trkpt lat="-32.00185210350298" lon="-71.14325990572716">
        <time>2019-03-07T04:33:31Z</time>
      </trkpt>
      <trkpt lat="-32.00165471629224" lon="-71.14329894877685">
        <time>2019-03-07T04:33:31Z</time>
      </trkpt>
      <trkpt lat="-32.00159025587594" lon="-71.14331732341964">
        <time>2019-03-07T04:33:31Z</time>
      </trkpt>
      <trkpt lat="-32.0015191602086" lon="-71.14334492939182">
        <time>2019-03-07T04:33:31Z</time>
      </trkpt>
      <trkpt lat="-32.0014207566209" lon="-71.14339435262254">
        <time>2019-03-07T04:33:31Z</time>
      </trkpt>
      <trkpt lat="-32.0011575932506" lon="-71.14358031860142">
        <time>2019-03-07T04:33:31Z</time>
      </trkpt>
      <trkpt lat="-32.00067662481828" lon="-71.14401259474644">
        <time>2019-03-07T04:33:31Z</time>
      </trkpt>
      <trkpt lat="-32.0003778069832" lon="-71.14425332354719">
        <time>2019-03-07T04:33:31Z</time>
      </trkpt>
      <trkpt lat="-32.00024108387742" lon="-71.14432470887073">
        <time>2019-03-07T04:33:31Z</time>
      </trkpt>
      <trkpt lat="-32.00015380094578" lon="-71.14436330068888">
        <time>2019-03-07T04:33:31Z</time>
      </trkpt>
      <trkpt lat="-32.00006094760794" lon="-71.14439099196824">
        <time>2019-03-07T04:33:31Z</time>
      </trkpt>
      <trkpt lat="-31.99994143896462" lon="-71.14442168525588">
        <time>2019-03-07T04:33:31Z</time>
      </trkpt>
      <trkpt lat="-31.99987515956067" lon="-71.14443105950636">
        <time>2019-03-07T04:33:31Z</time>
      </trkpt>
      <trkpt lat="-31.99977015560155" lon="-71.14442908641878">
        <time>2019-03-07T04:33:31Z</time>
      </trkpt>
      <trkpt lat="-31.9991877402423" lon="-71.1443429882611">
        <time>2019-03-07T04:33:31Z</time>
      </trkpt>
      <trkpt lat="-31.99896908903248" lon="-71.14433009123412">
        <time>2019-03-07T04:33:31Z</time>
      </trkpt>
      <trkpt lat="-31.99872404994123" lon="-71.14436621721056">
        <time>2019-03-07T04:33:31Z</time>
      </trkpt>
      <trkpt lat="-31.99854314606418" lon="-71.14443009157449">
        <time>2019-03-07T04:33:31Z</time>
      </trkpt>
      <trkpt lat="-31.99796177342858" lon="-71.14470095302296">
        <time>2019-03-07T04:33:31Z</time>
      </trkpt>
      <trkpt lat="-31.99786697080105" lon="-71.1447373416936">
        <time>2019-03-07T04:33:31Z</time>
      </trkpt>
      <trkpt lat="-31.99776970665246" lon="-71.14476135151715">
        <time>2019-03-07T04:33:31Z</time>
      </trkpt>
      <trkpt lat="-31.99752936338727" lon="-71.14477488793084">
        <time>2019-03-07T04:33:31Z</time>
      </trkpt>
      <trkpt lat="-31.99739973478225" lon="-71.1447934148628">
        <time>2019-03-07T04:33:31Z</time>
      </trkpt>
      <trkpt lat="-31.99689526208932" lon="-71.14493623320836">
        <time>2019-03-07T04:33:31Z</time>
      </trkpt>
      <trkpt lat="-31.99648489681131" lon="-71.14510346273963">
        <time>2019-03-07T04:33:31Z</time>
      </trkpt>
      <trkpt lat="-31.99633068579859" lon="-71.14515647772386">
        <time>2019-03-07T04:33:31Z</time>
      </trkpt>
      <trkpt lat="-31.99620757690939" lon="-71.14518656301316">
        <time>2019-03-07T04:33:31Z</time>
      </trkpt>
      <trkpt lat="-31.99539428132756" lon="-71.14526039121282">
        <time>2019-03-07T04:33:31Z</time>
      </trkpt>
      <trkpt lat="-31.99492022372199" lon="-71.14532109501909">
        <time>2019-03-07T04:33:31Z</time>
      </trkpt>
      <trkpt lat="-31.99474896474166" lon="-71.1453421759864">
        <time>2019-03-07T04:33:31Z</time>
      </trkpt>
      <trkpt lat="-31.99452284263242" lon="-71.14541578070732">
        <time>2019-03-07T04:33:31Z</time>
      </trkpt>
      <trkpt lat="-31.99437275821626" lon="-71.14549589710873">
        <time>2019-03-07T04:33:31Z</time>
      </trkpt>
      <trkpt lat="-31.9942889998611" lon="-71.14557585591442">
        <time>2019-03-07T04:33:31Z</time>
      </trkpt>
      <trkpt lat="-31.99413154969188" lon="-71.14575386410732">
        <time>2019-03-07T04:33:31Z</time>
      </trkpt>
      <trkpt lat="-31.99402296664806" lon="-71.14590990839278">
        <time>2019-03-07T04:33:31Z</time>
      </trkpt>
      <trkpt lat="-31.99375471155978" lon="-71.14650849467888">
        <time>2019-03-07T04:33:31Z</time>
      </trkpt>
      <trkpt lat="-31.99358602002806" lon="-71.14679317448982">
        <time>2019-03-07T04:33:31Z</time>
      </trkpt>
      <trkpt lat="-31.99352682497017" lon="-71.14688549589529">
        <time>2019-03-07T04:33:31Z</time>
      </trkpt>
      <trkpt lat="-31.99334784086776" lon="-71.14707505838192">
        <time>2019-03-07T04:33:31Z</time>
      </trkpt>
      <trkpt lat="-31.99319549028505" lon="-71.14718510111533">
        <time>2019-03-07T04:33:31Z</time>
      </trkpt>
      <trkpt lat="-31.99300092529147" lon="-71.14729448795376">
        <time>2019-03-07T04:33:31Z</time>
      </trkpt>
      <trkpt lat="-31.99283349167118" lon="-71.14735670635101">
        <time>2019-03-07T04:33:31Z</time>
      </trkpt>
      <trkpt lat="-31.99256739462402" lon="-71.14739760431465">
        <time>2019-03-07T04:33:31Z</time>
      </trkpt>
      <trkpt lat="-31.99241386365554" lon="-71.1474000739385">
        <time>2019-03-07T04:33:31Z</time>
      </trkpt>
      <trkpt lat="-31.99214234336842" lon="-71.14741302082783">
        <time>2019-03-07T04:33:31Z</time>
      </trkpt>
      <trkpt lat="-31.99051576130647" lon="-71.14738740468863">
        <time>2019-03-07T04:33:31Z</time>
      </trkpt>
      <trkpt lat="-31.99004430087276" lon="-71.14741113492013">
        <time>2019-03-07T04:33:31Z</time>
      </trkpt>
      <trkpt lat="-31.98988524789425" lon="-71.14741038429889">
        <time>2019-03-07T04:33:31Z</time>
      </trkpt>
      <trkpt lat="-31.98970225500399" lon="-71.14738227828752">
        <time>2019-03-07T04:33:31Z</time>
      </trkpt>
      <trkpt lat="-31.98883761276098" lon="-71.14726919225842">
        <time>2019-03-07T04:33:31Z</time>
      </trkpt>
      <trkpt lat="-31.9886959141503" lon="-71.14724530908691">
        <time>2019-03-07T04:33:31Z</time>
      </trkpt>
      <trkpt lat="-31.98787992397778" lon="-71.14709676813826">
        <time>2019-03-07T04:33:31Z</time>
      </trkpt>
      <trkpt lat="-31.98762235517277" lon="-71.14702504683265">
        <time>2019-03-07T04:33:31Z</time>
      </trkpt>
      <trkpt lat="-31.98744528764703" lon="-71.14693223134006">
        <time>2019-03-07T04:33:31Z</time>
      </trkpt>
      <trkpt lat="-31.98727597453184" lon="-71.14680804747263">
        <time>2019-03-07T04:33:31Z</time>
      </trkpt>
      <trkpt lat="-31.98715182797511" lon="-71.14667747534121">
        <time>2019-03-07T04:33:31Z</time>
      </trkpt>
      <trkpt lat="-31.98709020686531" lon="-71.14658085477346">
        <time>2019-03-07T04:33:31Z</time>
      </trkpt>
      <trkpt lat="-31.9870000729774" lon="-71.14640237568032">
        <time>2019-03-07T04:33:31Z</time>
      </trkpt>
      <trkpt lat="-31.98692273688548" lon="-71.14622649909673">
        <time>2019-03-07T04:33:31Z</time>
      </trkpt>
      <trkpt lat="-31.98674115796512" lon="-71.14570499597727">
        <time>2019-03-07T04:33:31Z</time>
      </trkpt>
      <trkpt lat="-31.98662708308543" lon="-71.14539693928516">
        <time>2019-03-07T04:33:31Z</time>
      </trkpt>
      <trkpt lat="-31.98653668259967" lon="-71.14519367730479">
        <time>2019-03-07T04:33:31Z</time>
      </trkpt>
      <trkpt lat="-31.98648522747452" lon="-71.14511005327471">
        <time>2019-03-07T04:33:31Z</time>
      </trkpt>
      <trkpt lat="-31.98562612042306" lon="-71.14384031276502">
        <time>2019-03-07T04:33:31Z</time>
      </trkpt>
      <trkpt lat="-31.98543437740531" lon="-71.14355629929108">
        <time>2019-03-07T04:33:31Z</time>
      </trkpt>
      <trkpt lat="-31.98525499907691" lon="-71.14333342971021">
        <time>2019-03-07T04:33:31Z</time>
      </trkpt>
      <trkpt lat="-31.98514760297066" lon="-71.14321586144257">
        <time>2019-03-07T04:33:31Z</time>
      </trkpt>
      <trkpt lat="-31.98503943632655" lon="-71.14310539733083">
        <time>2019-03-07T04:33:31Z</time>
      </trkpt>
      <trkpt lat="-31.98494647505084" lon="-71.1430333898338">
        <time>2019-03-07T04:33:31Z</time>
      </trkpt>
      <trkpt lat="-31.9848501064579" lon="-71.14297030323984">
        <time>2019-03-07T04:33:31Z</time>
      </trkpt>
      <trkpt lat="-31.98461475198252" lon="-71.14283677141219">
        <time>2019-03-07T04:33:31Z</time>
      </trkpt>
      <trkpt lat="-31.9844467625362" lon="-71.14276957167972">
        <time>2019-03-07T04:33:31Z</time>
      </trkpt>
      <trkpt lat="-31.98427873110551" lon="-71.14272309684245">
        <time>2019-03-07T04:33:31Z</time>
      </trkpt>
      <trkpt lat="-31.98409145173527" lon="-71.14268926356496">
        <time>2019-03-07T04:33:31Z</time>
      </trkpt>
      <trkpt lat="-31.98394690961298" lon="-71.14268610118889">
        <time>2019-03-07T04:33:31Z</time>
      </trkpt>
      <trkpt lat="-31.98375873292321" lon="-71.14270046255342">
        <time>2019-03-07T04:33:31Z</time>
      </trkpt>
      <trkpt lat="-31.98296847058486" lon="-71.14285589621944">
        <time>2019-03-07T04:33:31Z</time>
      </trkpt>
      <trkpt lat="-31.98276411325816" lon="-71.14289995988533">
        <time>2019-03-07T04:33:31Z</time>
      </trkpt>
      <trkpt lat="-31.98267560357098" lon="-71.14291011806509">
        <time>2019-03-07T04:33:31Z</time>
      </trkpt>
      <trkpt lat="-31.98261684660701" lon="-71.14290530859411">
        <time>2019-03-07T04:33:31Z</time>
      </trkpt>
      <trkpt lat="-31.98252786716304" lon="-71.14289048141538">
        <time>2019-03-07T04:33:31Z</time>
      </trkpt>
      <trkpt lat="-31.98242835868865" lon="-71.1428609362594">
        <time>2019-03-07T04:33:31Z</time>
      </trkpt>
      <trkpt lat="-31.98234221903451" lon="-71.14282883379651">
        <time>2019-03-07T04:33:31Z</time>
      </trkpt>
      <trkpt lat="-31.98225209820199" lon="-71.14278493869745">
        <time>2019-03-07T04:33:31Z</time>
      </trkpt>
      <trkpt lat="-31.9820467597419" lon="-71.14266195044591">
        <time>2019-03-07T04:33:31Z</time>
      </trkpt>
      <trkpt lat="-31.98191830790743" lon="-71.14255486613068">
        <time>2019-03-07T04:33:31Z</time>
      </trkpt>
      <trkpt lat="-31.98155990197298" lon="-71.14218538172433">
        <time>2019-03-07T04:33:31Z</time>
      </trkpt>
      <trkpt lat="-31.98136000238683" lon="-71.14200199861054">
        <time>2019-03-07T04:33:31Z</time>
      </trkpt>
      <trkpt lat="-31.9812084269476" lon="-71.14185756599333">
        <time>2019-03-07T04:33:31Z</time>
      </trkpt>
      <trkpt lat="-31.98113329821252" lon="-71.14180742235322">
        <time>2019-03-07T04:33:31Z</time>
      </trkpt>
      <trkpt lat="-31.98086283079422" lon="-71.14166655515219">
        <time>2019-03-07T04:33:31Z</time>
      </trkpt>
      <trkpt lat="-31.98046532632482" lon="-71.14146662344929">
        <time>2019-03-07T04:33:31Z</time>
      </trkpt>
      <trkpt lat="-31.9797907923179" lon="-71.14108142824844">
        <time>2019-03-07T04:33:31Z</time>
      </trkpt>
      <trkpt lat="-31.97923000432214" lon="-71.14075857013103">
        <time>2019-03-07T04:33:31Z</time>
      </trkpt>
      <trkpt lat="-31.97857718021046" lon="-71.14041640975717">
        <time>2019-03-07T04:33:31Z</time>
      </trkpt>
      <trkpt lat="-31.97841709619148" lon="-71.14034749733507">
        <time>2019-03-07T04:33:31Z</time>
      </trkpt>
      <trkpt lat="-31.97829929555186" lon="-71.1403110751522">
        <time>2019-03-07T04:33:31Z</time>
      </trkpt>
      <trkpt lat="-31.97818148294417" lon="-71.14028799229976">
        <time>2019-03-07T04:33:31Z</time>
      </trkpt>
      <trkpt lat="-31.97802046803053" lon="-71.14027748365336">
        <time>2019-03-07T04:33:31Z</time>
      </trkpt>
      <trkpt lat="-31.97789767437791" lon="-71.14029410701508">
        <time>2019-03-07T04:33:31Z</time>
      </trkpt>
      <trkpt lat="-31.97761989792549" lon="-71.14033988962163">
        <time>2019-03-07T04:33:31Z</time>
      </trkpt>
      <trkpt lat="-31.97731120549464" lon="-71.14045579150114">
        <time>2019-03-07T04:33:31Z</time>
      </trkpt>
      <trkpt lat="-31.97715940322775" lon="-71.14054255461026">
        <time>2019-03-07T04:33:31Z</time>
      </trkpt>
      <trkpt lat="-31.9770404079428" lon="-71.14064642312277">
        <time>2019-03-07T04:33:31Z</time>
      </trkpt>
      <trkpt lat="-31.97678409401999" lon="-71.14094035904127">
        <time>2019-03-07T04:33:31Z</time>
      </trkpt>
      <trkpt lat="-31.97657984362299" lon="-71.1412159895703">
        <time>2019-03-07T04:33:31Z</time>
      </trkpt>
      <trkpt lat="-31.9763906896386" lon="-71.14141170448271">
        <time>2019-03-07T04:33:31Z</time>
      </trkpt>
      <trkpt lat="-31.97618420194422" lon="-71.14160099083256">
        <time>2019-03-07T04:33:31Z</time>
      </trkpt>
      <trkpt lat="-31.97608429604258" lon="-71.14167606362342">
        <time>2019-03-07T04:33:31Z</time>
      </trkpt>
      <trkpt lat="-31.97598020703265" lon="-71.14173888566505">
        <time>2019-03-07T04:33:31Z</time>
      </trkpt>
      <trkpt lat="-31.9758654369861" lon="-71.1417873308465">
        <time>2019-03-07T04:33:31Z</time>
      </trkpt>
      <trkpt lat="-31.97575472974519" lon="-71.14180660619589">
        <time>2019-03-07T04:33:31Z</time>
      </trkpt>
      <trkpt lat="-31.97553573937836" lon="-71.14181891193354">
        <time>2019-03-07T04:33:31Z</time>
      </trkpt>
      <trkpt lat="-31.97539411617138" lon="-71.14181441300381">
        <time>2019-03-07T04:33:31Z</time>
      </trkpt>
      <trkpt lat="-31.97529889133041" lon="-71.14179399290649">
        <time>2019-03-07T04:33:31Z</time>
      </trkpt>
      <trkpt lat="-31.97505802605749" lon="-71.14171699271171">
        <time>2019-03-07T04:33:31Z</time>
      </trkpt>
      <trkpt lat="-31.97496263262852" lon="-71.14166200118903">
        <time>2019-03-07T04:33:31Z</time>
      </trkpt>
      <trkpt lat="-31.97485348277467" lon="-71.1415869754881">
        <time>2019-03-07T04:33:31Z</time>
      </trkpt>
      <trkpt lat="-31.97456434572516" lon="-71.14130022402208">
        <time>2019-03-07T04:33:31Z</time>
      </trkpt>
      <trkpt lat="-31.97428959681303" lon="-71.14100079302443">
        <time>2019-03-07T04:33:31Z</time>
      </trkpt>
      <trkpt lat="-31.97406735408668" lon="-71.14081748353108">
        <time>2019-03-07T04:33:31Z</time>
      </trkpt>
      <trkpt lat="-31.97378374329833" lon="-71.14066249107987">
        <time>2019-03-07T04:33:31Z</time>
      </trkpt>
      <trkpt lat="-31.97355621044258" lon="-71.14060231523321">
        <time>2019-03-07T04:33:31Z</time>
      </trkpt>
      <trkpt lat="-31.97315918682341" lon="-71.14060647183948">
        <time>2019-03-07T04:33:31Z</time>
      </trkpt>
      <trkpt lat="-31.97258943015948" lon="-71.14060462423257">
        <time>2019-03-07T04:33:31Z</time>
      </trkpt>
      <trkpt lat="-31.97228677536246" lon="-71.14058384107639">
        <time>2019-03-07T04:33:31Z</time>
      </trkpt>
      <trkpt lat="-31.97215617353677" lon="-71.14056568247514">
        <time>2019-03-07T04:33:31Z</time>
      </trkpt>
      <trkpt lat="-31.97165846092955" lon="-71.14041690852169">
        <time>2019-03-07T04:33:31Z</time>
      </trkpt>
      <trkpt lat="-31.97157206220389" lon="-71.14037800324138">
        <time>2019-03-07T04:33:31Z</time>
      </trkpt>
      <trkpt lat="-31.97130135609403" lon="-71.14023610570543">
        <time>2019-03-07T04:33:31Z</time>
      </trkpt>
      <trkpt lat="-31.97090824471475" lon="-71.14001225369889">
        <time>2019-03-07T04:33:31Z</time>
      </trkpt>
      <trkpt lat="-31.97049581346588" lon="-71.13976713237854">
        <time>2019-03-07T04:33:31Z</time>
      </trkpt>
      <trkpt lat="-31.97012209902916" lon="-71.13955617491355">
        <time>2019-03-07T04:33:31Z</time>
      </trkpt>
      <trkpt lat="-31.96973161423203" lon="-71.13932902755074">
        <time>2019-03-07T04:33:31Z</time>
      </trkpt>
      <trkpt lat="-31.96936339406624" lon="-71.13912095268907">
        <time>2019-03-07T04:33:31Z</time>
      </trkpt>
      <trkpt lat="-31.96903376547074" lon="-71.13894506322863">
        <time>2019-03-07T04:33:31Z</time>
      </trkpt>
      <trkpt lat="-31.968780383842" lon="-71.13885206715602">
        <time>2019-03-07T04:33:31Z</time>
      </trkpt>
      <trkpt lat="-31.9685792163868" lon="-71.13880576615711">
        <time>2019-03-07T04:33:31Z</time>
      </trkpt>
      <trkpt lat="-31.96843552782861" lon="-71.13880372757591">
        <time>2019-03-07T04:33:31Z</time>
      </trkpt>
      <trkpt lat="-31.96827891637745" lon="-71.13882223941576">
        <time>2019-03-07T04:33:31Z</time>
      </trkpt>
      <trkpt lat="-31.96813729187283" lon="-71.1388501534896">
        <time>2019-03-07T04:33:31Z</time>
      </trkpt>
      <trkpt lat="-31.96791315030403" lon="-71.1389304957473">
        <time>2019-03-07T04:33:31Z</time>
      </trkpt>
      <trkpt lat="-31.96754567569792" lon="-71.1390660191781">
        <time>2019-03-07T04:33:31Z</time>
      </trkpt>
      <trkpt lat="-31.96741577799139" lon="-71.13908736460319">
        <time>2019-03-07T04:33:31Z</time>
      </trkpt>
      <trkpt lat="-31.96726911671144" lon="-71.13909279106809">
        <time>2019-03-07T04:33:31Z</time>
      </trkpt>
      <trkpt lat="-31.9671477764964" lon="-71.13907600173414">
        <time>2019-03-07T04:33:31Z</time>
      </trkpt>
      <trkpt lat="-31.96694862825868" lon="-71.13903548822242">
        <time>2019-03-07T04:33:31Z</time>
      </trkpt>
      <trkpt lat="-31.96675006308144" lon="-71.13895238055955">
        <time>2019-03-07T04:33:31Z</time>
      </trkpt>
      <trkpt lat="-31.96650063893696" lon="-71.13876272112925">
        <time>2019-03-07T04:33:31Z</time>
      </trkpt>
      <trkpt lat="-31.96616790058992" lon="-71.13844491191395">
        <time>2019-03-07T04:33:31Z</time>
      </trkpt>
      <trkpt lat="-31.96589583272438" lon="-71.13821768153611">
        <time>2019-03-07T04:33:31Z</time>
      </trkpt>
      <trkpt lat="-31.96555185855568" lon="-71.13791675508958">
        <time>2019-03-07T04:33:31Z</time>
      </trkpt>
      <trkpt lat="-31.96533918998772" lon="-71.13779901490648">
        <time>2019-03-07T04:33:31Z</time>
      </trkpt>
      <trkpt lat="-31.96514989974768" lon="-71.13771953576178">
        <time>2019-03-07T04:33:31Z</time>
      </trkpt>
      <trkpt lat="-31.96488254899029" lon="-71.13763310279438">
        <time>2019-03-07T04:33:31Z</time>
      </trkpt>
      <trkpt lat="-31.96460692477318" lon="-71.13759327415409">
        <time>2019-03-07T04:33:31Z</time>
      </trkpt>
      <trkpt lat="-31.96439620137404" lon="-71.13758316859361">
        <time>2019-03-07T04:33:31Z</time>
      </trkpt>
      <trkpt lat="-31.96415386195701" lon="-71.137595100151">
        <time>2019-03-07T04:33:31Z</time>
      </trkpt>
      <trkpt lat="-31.96389691007082" lon="-71.13764344637851">
        <time>2019-03-07T04:33:31Z</time>
      </trkpt>
      <trkpt lat="-31.96357401666462" lon="-71.13774434383036">
        <time>2019-03-07T04:33:31Z</time>
      </trkpt>
      <trkpt lat="-31.96303161727056" lon="-71.13796407046893">
        <time>2019-03-07T04:33:31Z</time>
      </trkpt>
      <trkpt lat="-31.96246288545148" lon="-71.1381837636003">
        <time>2019-03-07T04:33:31Z</time>
      </trkpt>
      <trkpt lat="-31.96190175091145" lon="-71.13840873184576">
        <time>2019-03-07T04:33:31Z</time>
      </trkpt>
      <trkpt lat="-31.96180614411421" lon="-71.13843892062181">
        <time>2019-03-07T04:33:31Z</time>
      </trkpt>
      <trkpt lat="-31.96171857139554" lon="-71.13846363657669">
        <time>2019-03-07T04:33:31Z</time>
      </trkpt>
      <trkpt lat="-31.96166732166657" lon="-71.13847050093996">
        <time>2019-03-07T04:33:31Z</time>
      </trkpt>
      <trkpt lat="-31.96155622550301" lon="-71.13847189857493">
        <time>2019-03-07T04:33:31Z</time>
      </trkpt>
      <trkpt lat="-31.96119510397544" lon="-71.13841208788008">
        <time>2019-03-07T04:33:31Z</time>
      </trkpt>
      <trkpt lat="-31.95993994938402" lon="-71.13804833446268">
        <time>2019-03-07T04:33:31Z</time>
      </trkpt>
      <trkpt lat="-31.95975354290815" lon="-71.1379916492313">
        <time>2019-03-07T04:33:31Z</time>
      </trkpt>
      <trkpt lat="-31.95967442810388" lon="-71.13796898236625">
        <time>2019-03-07T04:33:31Z</time>
      </trkpt>
      <trkpt lat="-31.95943166700284" lon="-71.1379231144504">
        <time>2019-03-07T04:33:31Z</time>
      </trkpt>
      <trkpt lat="-31.95924153877888" lon="-71.13790481946914">
        <time>2019-03-07T04:33:31Z</time>
      </trkpt>
      <trkpt lat="-31.95880415884651" lon="-71.13788531803078">
        <time>2019-03-07T04:33:31Z</time>
      </trkpt>
      <trkpt lat="-31.95866744711032" lon="-71.13786642623045">
        <time>2019-03-07T04:33:31Z</time>
      </trkpt>
      <trkpt lat="-31.95847032821233" lon="-71.13783781862634">
        <time>2019-03-07T04:33:31Z</time>
      </trkpt>
      <trkpt lat="-31.95834873548261" lon="-71.13781504736653">
        <time>2019-03-07T04:33:31Z</time>
      </trkpt>
      <trkpt lat="-31.95749745537399" lon="-71.1375654074255">
        <time>2019-03-07T04:33:31Z</time>
      </trkpt>
      <trkpt lat="-31.95732556504466" lon="-71.13752879577589">
        <time>2019-03-07T04:33:31Z</time>
      </trkpt>
      <trkpt lat="-31.95723855950174" lon="-71.13751317752423">
        <time>2019-03-07T04:33:31Z</time>
      </trkpt>
      <trkpt lat="-31.95594025190932" lon="-71.1375642871089">
        <time>2019-03-07T04:33:31Z</time>
      </trkpt>
      <trkpt lat="-31.95460788927741" lon="-71.13758184276239">
        <time>2019-03-07T04:33:31Z</time>
      </trkpt>
      <trkpt lat="-31.95419429067825" lon="-71.1376032242386">
        <time>2019-03-07T04:33:31Z</time>
      </trkpt>
      <trkpt lat="-31.95413606518587" lon="-71.13759892948184">
        <time>2019-03-07T04:33:31Z</time>
      </trkpt>
      <trkpt lat="-31.95406452976281" lon="-71.13759569261272">
        <time>2019-03-07T04:33:31Z</time>
      </trkpt>
      <trkpt lat="-31.95388519909163" lon="-71.13757515447142">
        <time>2019-03-07T04:33:31Z</time>
      </trkpt>
      <trkpt lat="-31.95375565914623" lon="-71.13754626453768">
        <time>2019-03-07T04:33:31Z</time>
      </trkpt>
      <trkpt lat="-31.95362338696643" lon="-71.1375012592452">
        <time>2019-03-07T04:33:31Z</time>
      </trkpt>
      <trkpt lat="-31.95346262370969" lon="-71.13740419948698">
        <time>2019-03-07T04:33:31Z</time>
      </trkpt>
      <trkpt lat="-31.95325342431936" lon="-71.1372229052693">
        <time>2019-03-07T04:33:31Z</time>
      </trkpt>
      <trkpt lat="-31.95306995276447" lon="-71.1369965589998">
        <time>2019-03-07T04:33:31Z</time>
      </trkpt>
      <trkpt lat="-31.95267085941056" lon="-71.13640890655188">
        <time>2019-03-07T04:33:31Z</time>
      </trkpt>
      <trkpt lat="-31.95248797101931" lon="-71.13613282072429">
        <time>2019-03-07T04:33:31Z</time>
      </trkpt>
      <trkpt lat="-31.9520897583971" lon="-71.13559047978362">
        <time>2019-03-07T04:33:31Z</time>
      </trkpt>
      <trkpt lat="-31.95197248021653" lon="-71.13546453001575">
        <time>2019-03-07T04:33:31Z</time>
      </trkpt>
      <trkpt lat="-31.95186598046811" lon="-71.13537134609662">
        <time>2019-03-07T04:33:31Z</time>
      </trkpt>
      <trkpt lat="-31.95175592237213" lon="-71.13529830449633">
        <time>2019-03-07T04:33:31Z</time>
      </trkpt>
      <trkpt lat="-31.95156969595507" lon="-71.13520510929784">
        <time>2019-03-07T04:33:31Z</time>
      </trkpt>
      <trkpt lat="-31.95146974754374" lon="-71.13517120206109">
        <time>2019-03-07T04:33:31Z</time>
      </trkpt>
      <trkpt lat="-31.95125459181692" lon="-71.13513143844835">
        <time>2019-03-07T04:33:31Z</time>
      </trkpt>
      <trkpt lat="-31.95107477513126" lon="-71.13513013241087">
        <time>2019-03-07T04:33:31Z</time>
      </trkpt>
      <trkpt lat="-31.9508100140227" lon="-71.13514659596079">
        <time>2019-03-07T04:33:31Z</time>
      </trkpt>
      <trkpt lat="-31.95004700523724" lon="-71.13521701387592">
        <time>2019-03-07T04:33:31Z</time>
      </trkpt>
      <trkpt lat="-31.94928867996251" lon="-71.13529979456003">
        <time>2019-03-07T04:33:31Z</time>
      </trkpt>
      <trkpt lat="-31.94890043612353" lon="-71.13533907414808">
        <time>2019-03-07T04:33:31Z</time>
      </trkpt>
      <trkpt lat="-31.94864780338957" lon="-71.13535863882174">
        <time>2019-03-07T04:33:31Z</time>
      </trkpt>
      <trkpt lat="-31.94837391614781" lon="-71.13537407318808">
        <time>2019-03-07T04:33:31Z</time>
      </trkpt>
      <trkpt lat="-31.94823524367062" lon="-71.13536325563864">
        <time>2019-03-07T04:33:31Z</time>
      </trkpt>
      <trkpt lat="-31.94803861518023" lon="-71.13533065597198">
        <time>2019-03-07T04:33:31Z</time>
      </trkpt>
      <trkpt lat="-31.94786321690765" lon="-71.13529558283412">
        <time>2019-03-07T04:33:31Z</time>
      </trkpt>
      <trkpt lat="-31.94742463073428" lon="-71.13517832525602">
        <time>2019-03-07T04:33:31Z</time>
      </trkpt>
      <trkpt lat="-31.94718469637224" lon="-71.135120439312">
        <time>2019-03-07T04:33:31Z</time>
      </trkpt>
      <trkpt lat="-31.94625810306745" lon="-71.13490579236634">
        <time>2019-03-07T04:33:31Z</time>
      </trkpt>
      <trkpt lat="-31.94565472682047" lon="-71.13475756324516">
        <time>2019-03-07T04:33:31Z</time>
      </trkpt>
      <trkpt lat="-31.9455492108234" lon="-71.1347312921675">
        <time>2019-03-07T04:33:31Z</time>
      </trkpt>
      <trkpt lat="-31.94543031513402" lon="-71.13468855499588">
        <time>2019-03-07T04:33:31Z</time>
      </trkpt>
      <trkpt lat="-31.94528782149877" lon="-71.13463261117984">
        <time>2019-03-07T04:33:31Z</time>
      </trkpt>
      <trkpt lat="-31.94506126017267" lon="-71.13452830866596">
        <time>2019-03-07T04:33:31Z</time>
      </trkpt>
      <trkpt lat="-31.94486072241352" lon="-71.13443360121235">
        <time>2019-03-07T04:33:31Z</time>
      </trkpt>
      <trkpt lat="-31.94474409222802" lon="-71.13436537153801">
        <time>2019-03-07T04:33:31Z</time>
      </trkpt>
      <trkpt lat="-31.94459488713914" lon="-71.13427005267793">
        <time>2019-03-07T04:33:31Z</time>
      </trkpt>
      <trkpt lat="-31.94447362895978" lon="-71.13417561216716">
        <time>2019-03-07T04:33:31Z</time>
      </trkpt>
      <trkpt lat="-31.94430007928763" lon="-71.13401900609973">
        <time>2019-03-07T04:33:31Z</time>
      </trkpt>
      <trkpt lat="-31.94381365367371" lon="-71.13357545886699">
        <time>2019-03-07T04:33:31Z</time>
      </trkpt>
      <trkpt lat="-31.9431506573624" lon="-71.13297659150567">
        <time>2019-03-07T04:33:31Z</time>
      </trkpt>
      <trkpt lat="-31.9423880516939" lon="-71.13226629945957">
        <time>2019-03-07T04:33:31Z</time>
      </trkpt>
      <trkpt lat="-31.94173214870186" lon="-71.13165942043925">
        <time>2019-03-07T04:33:31Z</time>
      </trkpt>
      <trkpt lat="-31.94159000459353" lon="-71.1315397398288">
        <time>2019-03-07T04:33:31Z</time>
      </trkpt>
      <trkpt lat="-31.94114268818684" lon="-71.13112899030321">
        <time>2019-03-07T04:33:31Z</time>
      </trkpt>
      <trkpt lat="-31.94100107172811" lon="-71.13099662968428">
        <time>2019-03-07T04:33:31Z</time>
      </trkpt>
      <trkpt lat="-31.94086741179865" lon="-71.13087156244838">
        <time>2019-03-07T04:33:31Z</time>
      </trkpt>
      <trkpt lat="-31.94081612785426" lon="-71.13081894885738">
        <time>2019-03-07T04:33:31Z</time>
      </trkpt>
      <trkpt lat="-31.9407830445082" lon="-71.13078686150719">
        <time>2019-03-07T04:33:31Z</time>
      </trkpt>
      <trkpt lat="-31.94076352848542" lon="-71.13077168434636">
        <time>2019-03-07T04:33:31Z</time>
      </trkpt>
      <trkpt lat="-31.94070606294119" lon="-71.13073955347699">
        <time>2019-03-07T04:33:31Z</time>
      </trkpt>
      <trkpt lat="-31.94056355824722" lon="-71.13068151581979">
        <time>2019-03-07T04:33:31Z</time>
      </trkpt>
      <trkpt lat="-31.94044502608781" lon="-71.13065346446655">
        <time>2019-03-07T04:33:31Z</time>
      </trkpt>
      <trkpt lat="-31.94030939237355" lon="-71.13063536507646">
        <time>2019-03-07T04:33:31Z</time>
      </trkpt>
      <trkpt lat="-31.9401602335027" lon="-71.13064391321704">
        <time>2019-03-07T04:33:31Z</time>
      </trkpt>
      <trkpt lat="-31.94004753484126" lon="-71.13067189279511">
        <time>2019-03-07T04:33:31Z</time>
      </trkpt>
      <trkpt lat="-31.93995322274638" lon="-71.13071219343495">
        <time>2019-03-07T04:33:31Z</time>
      </trkpt>
      <trkpt lat="-31.93984933362715" lon="-71.13077456586659">
        <time>2019-03-07T04:33:31Z</time>
      </trkpt>
      <trkpt lat="-31.93974160057474" lon="-71.13086519417432">
        <time>2019-03-07T04:33:31Z</time>
      </trkpt>
      <trkpt lat="-31.93966633249453" lon="-71.13094680725517">
        <time>2019-03-07T04:33:31Z</time>
      </trkpt>
      <trkpt lat="-31.9395601270519" lon="-71.13108565157786">
        <time>2019-03-07T04:33:31Z</time>
      </trkpt>
      <trkpt lat="-31.93913418013181" lon="-71.13167379587846">
        <time>2019-03-07T04:33:31Z</time>
      </trkpt>
      <trkpt lat="-31.93867930566047" lon="-71.13230995799455">
        <time>2019-03-07T04:33:31Z</time>
      </trkpt>
      <trkpt lat="-31.93819823111904" lon="-71.13298138975414">
        <time>2019-03-07T04:33:31Z</time>
      </trkpt>
      <trkpt lat="-31.9378413833282" lon="-71.13345901986664">
        <time>2019-03-07T04:33:31Z</time>
      </trkpt>
      <trkpt lat="-31.93776437776999" lon="-71.13354720783394">
        <time>2019-03-07T04:33:31Z</time>
      </trkpt>
      <trkpt lat="-31.93769652850718" lon="-71.13361835086549">
        <time>2019-03-07T04:33:31Z</time>
      </trkpt>
      <trkpt lat="-31.93761417413392" lon="-71.13369344242479">
        <time>2019-03-07T04:33:31Z</time>
      </trkpt>
      <trkpt lat="-31.93745818372909" lon="-71.13381426497247">
        <time>2019-03-07T04:33:31Z</time>
      </trkpt>
      <trkpt lat="-31.93730629048133" lon="-71.13391957009505">
        <time>2019-03-07T04:33:31Z</time>
      </trkpt>
      <trkpt lat="-31.93718167612801" lon="-71.13399103951024">
        <time>2019-03-07T04:33:31Z</time>
      </trkpt>
      <trkpt lat="-31.93707776279829" lon="-71.13403587632458">
        <time>2019-03-07T04:33:31Z</time>
      </trkpt>
      <trkpt lat="-31.93692217813106" lon="-71.13408462123992">
        <time>2019-03-07T04:33:31Z</time>
      </trkpt>
      <trkpt lat="-31.93679454018858" lon="-71.13410713634856">
        <time>2019-03-07T04:33:31Z</time>
      </trkpt>
      <trkpt lat="-31.9365349515186" lon="-71.13413209314653">
        <time>2019-03-07T04:33:31Z</time>
      </trkpt>
      <trkpt lat="-31.93099690488524" lon="-71.13422599452611">
        <time>2019-03-07T04:32:33Z</time>
      </trkpt>
      <trkpt lat="-31.92941222996133" lon="-71.13424219841812">
        <time>2019-03-07T04:32:33Z</time>
      </trkpt>
      <trkpt lat="-31.9292579509226" lon="-71.13424578829418">
        <time>2019-03-07T04:32:33Z</time>
      </trkpt>
      <trkpt lat="-31.92909172429648" lon="-71.13425481662097">
        <time>2019-03-07T04:32:33Z</time>
      </trkpt>
      <trkpt lat="-31.92894641937918" lon="-71.13427259193915">
        <time>2019-03-07T04:32:33Z</time>
      </trkpt>
      <trkpt lat="-31.928825048535" lon="-71.13429145025307">
        <time>2019-03-07T04:32:33Z</time>
      </trkpt>
      <trkpt lat="-31.92872013813405" lon="-71.13432684865609">
        <time>2019-03-07T04:32:33Z</time>
      </trkpt>
      <trkpt lat="-31.92858852532527" lon="-71.13438812129434">
        <time>2019-03-07T04:32:33Z</time>
      </trkpt>
      <trkpt lat="-31.92844046658465" lon="-71.13448810673224">
        <time>2019-03-07T04:32:33Z</time>
      </trkpt>
      <trkpt lat="-31.9277245887936" lon="-71.13501469320487">
        <time>2019-03-07T04:32:33Z</time>
      </trkpt>
      <trkpt lat="-31.92692154941389" lon="-71.13564095960848">
        <time>2019-03-07T04:32:33Z</time>
      </trkpt>
      <trkpt lat="-31.9266802731627" lon="-71.13581958860961">
        <time>2019-03-07T04:32:33Z</time>
      </trkpt>
      <trkpt lat="-31.92635902341807" lon="-71.13608021920896">
        <time>2019-03-07T04:32:33Z</time>
      </trkpt>
      <trkpt lat="-31.92619584052971" lon="-71.13618689492226">
        <time>2019-03-07T04:32:33Z</time>
      </trkpt>
      <trkpt lat="-31.92606477964045" lon="-71.13625883998995">
        <time>2019-03-07T04:32:33Z</time>
      </trkpt>
      <trkpt lat="-31.92587472157089" lon="-71.13633988523748">
        <time>2019-03-07T04:32:33Z</time>
      </trkpt>
      <trkpt lat="-31.92568500422558" lon="-71.13637087894365">
        <time>2019-03-07T04:32:33Z</time>
      </trkpt>
      <trkpt lat="-31.92528313953472" lon="-71.1363705843296">
        <time>2019-03-07T04:32:33Z</time>
      </trkpt>
      <trkpt lat="-31.92463616252146" lon="-71.136351760588">
        <time>2019-03-07T04:32:33Z</time>
      </trkpt>
      <trkpt lat="-31.92380957014843" lon="-71.13634356738004">
        <time>2019-03-07T04:32:33Z</time>
      </trkpt>
      <trkpt lat="-31.92339848757764" lon="-71.13635333952077">
        <time>2019-03-07T04:32:33Z</time>
      </trkpt>
      <trkpt lat="-31.92309511544215" lon="-71.13636201396732">
        <time>2019-03-07T04:32:33Z</time>
      </trkpt>
      <trkpt lat="-31.9228883537853" lon="-71.1363511159699">
        <time>2019-03-07T04:32:33Z</time>
      </trkpt>
      <trkpt lat="-31.92276178197363" lon="-71.13632956479479">
        <time>2019-03-07T04:32:33Z</time>
      </trkpt>
      <trkpt lat="-31.92267276459497" lon="-71.13630321291174">
        <time>2019-03-07T04:32:33Z</time>
      </trkpt>
      <trkpt lat="-31.9225561941149" lon="-71.13625483227534">
        <time>2019-03-07T04:32:33Z</time>
      </trkpt>
      <trkpt lat="-31.92244421040822" lon="-71.13619147734886">
        <time>2019-03-07T04:32:33Z</time>
      </trkpt>
      <trkpt lat="-31.92191007601851" lon="-71.13582537381458">
        <time>2019-03-07T04:32:33Z</time>
      </trkpt>
      <trkpt lat="-31.92112205595025" lon="-71.13527411114974">
        <time>2019-03-07T04:32:33Z</time>
      </trkpt>
      <trkpt lat="-31.91988909694417" lon="-71.13438837932587">
        <time>2019-03-07T04:32:33Z</time>
      </trkpt>
      <trkpt lat="-31.91960484421863" lon="-71.13419745561781">
        <time>2019-03-07T04:32:33Z</time>
      </trkpt>
      <trkpt lat="-31.91942995219048" lon="-71.13410976906525">
        <time>2019-03-07T04:32:33Z</time>
      </trkpt>
      <trkpt lat="-31.91916626757183" lon="-71.13404954655611">
        <time>2019-03-07T04:32:33Z</time>
      </trkpt>
      <trkpt lat="-31.91886593530869" lon="-71.13404586725781">
        <time>2019-03-07T04:32:33Z</time>
      </trkpt>
      <trkpt lat="-31.91880092606893" lon="-71.13405040603611">
        <time>2019-03-07T04:32:33Z</time>
      </trkpt>
      <trkpt lat="-31.91874074175243" lon="-71.1340629055174">
        <time>2019-03-07T04:32:33Z</time>
      </trkpt>
      <trkpt lat="-31.91869447298242" lon="-71.13407419050648">
        <time>2019-03-07T04:32:33Z</time>
      </trkpt>
      <trkpt lat="-31.91757294577392" lon="-71.13435518633268">
        <time>2019-03-07T04:32:33Z</time>
      </trkpt>
      <trkpt lat="-31.91690261617985" lon="-71.13452581393229">
        <time>2019-03-07T04:32:33Z</time>
      </trkpt>
      <trkpt lat="-31.91652115851084" lon="-71.13459771254696">
        <time>2019-03-07T04:32:33Z</time>
      </trkpt>
      <trkpt lat="-31.91632115503843" lon="-71.13461006368927">
        <time>2019-03-07T04:32:33Z</time>
      </trkpt>
      <trkpt lat="-31.91603831090458" lon="-71.134587733815">
        <time>2019-03-07T04:32:33Z</time>
      </trkpt>
      <trkpt lat="-31.91578102274419" lon="-71.13450551947193">
        <time>2019-03-07T04:32:33Z</time>
      </trkpt>
      <trkpt lat="-31.91442696256123" lon="-71.1336702207532">
        <time>2019-03-07T04:32:33Z</time>
      </trkpt>
      <trkpt lat="-31.91319648642965" lon="-71.13294587968098">
        <time>2019-03-07T04:32:33Z</time>
      </trkpt>
      <trkpt lat="-31.91174186089909" lon="-71.13199863577739">
        <time>2019-03-07T04:32:33Z</time>
      </trkpt>
      <trkpt lat="-31.9116425120299" lon="-71.13196469336121">
        <time>2019-03-07T04:32:33Z</time>
      </trkpt>
      <trkpt lat="-31.91147914785971" lon="-71.13194525848155">
        <time>2019-03-07T04:32:33Z</time>
      </trkpt>
      <trkpt lat="-31.9113508610445" lon="-71.13195721422912">
        <time>2019-03-07T04:32:33Z</time>
      </trkpt>
      <trkpt lat="-31.91112348906815" lon="-71.13203566981299">
        <time>2019-03-07T04:32:33Z</time>
      </trkpt>
      <trkpt lat="-31.91092042188107" lon="-71.13221114937441">
        <time>2019-03-07T04:32:33Z</time>
      </trkpt>
      <trkpt lat="-31.91079348152307" lon="-71.13236776093099">
        <time>2019-03-07T04:32:33Z</time>
      </trkpt>
      <trkpt lat="-31.91067509522894" lon="-71.13258862962915">
        <time>2019-03-07T04:32:33Z</time>
      </trkpt>
      <trkpt lat="-31.91062152417588" lon="-71.13280434902121">
        <time>2019-03-07T04:32:33Z</time>
      </trkpt>
      <trkpt lat="-31.91062451647031" lon="-71.13305130332635">
        <time>2019-03-07T04:32:33Z</time>
      </trkpt>
      <trkpt lat="-31.91062231740924" lon="-71.13312609886715">
        <time>2019-03-07T04:32:33Z</time>
      </trkpt>
      <trkpt lat="-31.91065917848378" lon="-71.13327390882124">
        <time>2019-03-07T04:32:33Z</time>
      </trkpt>
      <trkpt lat="-31.91075095170971" lon="-71.13343783330113">
        <time>2019-03-07T04:32:33Z</time>
      </trkpt>
      <trkpt lat="-31.91089584938342" lon="-71.13361931991558">
        <time>2019-03-07T04:32:33Z</time>
      </trkpt>
      <trkpt lat="-31.9111529610859" lon="-71.1339158294126">
        <time>2019-03-07T04:32:33Z</time>
      </trkpt>
      <trkpt lat="-31.91123308348753" lon="-71.13407368312615">
        <time>2019-03-07T04:32:33Z</time>
      </trkpt>
      <trkpt lat="-31.91130674283578" lon="-71.13427044557318">
        <time>2019-03-07T04:32:33Z</time>
      </trkpt>
      <trkpt lat="-31.9114369756738" lon="-71.13479618595234">
        <time>2019-03-07T04:32:33Z</time>
      </trkpt>
      <trkpt lat="-31.91149085277595" lon="-71.13501191631433">
        <time>2019-03-07T04:32:33Z</time>
      </trkpt>
      <trkpt lat="-31.91156027705404" lon="-71.13517300768673">
        <time>2019-03-07T04:32:33Z</time>
      </trkpt>
      <trkpt lat="-31.91164033995831" lon="-71.13529370470765">
        <time>2019-03-07T04:32:33Z</time>
      </trkpt>
      <trkpt lat="-31.91171624580279" lon="-71.13540072756673">
        <time>2019-03-07T04:32:33Z</time>
      </trkpt>
      <trkpt lat="-31.91185139439477" lon="-71.13554437367876">
        <time>2019-03-07T04:32:33Z</time>
      </trkpt>
      <trkpt lat="-31.91229106316557" lon="-71.13597058618703">
        <time>2019-03-07T04:32:33Z</time>
      </trkpt>
      <trkpt lat="-31.91238860231358" lon="-71.1361012728747">
        <time>2019-03-07T04:32:33Z</time>
      </trkpt>
      <trkpt lat="-31.91247057991275" lon="-71.13624186724925">
        <time>2019-03-07T04:32:33Z</time>
      </trkpt>
      <trkpt lat="-31.91259845274525" lon="-71.13652577982859">
        <time>2019-03-07T04:32:33Z</time>
      </trkpt>
      <trkpt lat="-31.91268165120678" lon="-71.13677456839173">
        <time>2019-03-07T04:32:33Z</time>
      </trkpt>
      <trkpt lat="-31.9127371647428" lon="-71.13688921438583">
        <time>2019-03-07T04:32:33Z</time>
      </trkpt>
      <trkpt lat="-31.91284828222135" lon="-71.13708324810244">
        <time>2019-03-07T04:32:33Z</time>
      </trkpt>
      <trkpt lat="-31.91321353516091" lon="-71.13759351812458">
        <time>2019-03-07T04:32:33Z</time>
      </trkpt>
      <trkpt lat="-31.91325046458097" lon="-71.13763320074311">
        <time>2019-03-07T04:32:33Z</time>
      </trkpt>
      <trkpt lat="-31.91335105545392" lon="-71.13767891051111">
        <time>2019-03-07T04:32:33Z</time>
      </trkpt>
      <trkpt lat="-31.91347489902024" lon="-71.13773731004417">
        <time>2019-03-07T04:32:33Z</time>
      </trkpt>
      <trkpt lat="-31.9135797466603" lon="-71.13779664117122">
        <time>2019-03-07T04:32:33Z</time>
      </trkpt>
      <trkpt lat="-31.91367886734414" lon="-71.13789226151552">
        <time>2019-03-07T04:32:33Z</time>
      </trkpt>
      <trkpt lat="-31.91380956301867" lon="-71.13807774100714">
        <time>2019-03-07T04:32:33Z</time>
      </trkpt>
      <trkpt lat="-31.91389426241213" lon="-71.13824779899174">
        <time>2019-03-07T04:32:33Z</time>
      </trkpt>
      <trkpt lat="-31.9139630970097" lon="-71.13843901397621">
        <time>2019-03-07T04:32:33Z</time>
      </trkpt>
      <trkpt lat="-31.91398622862816" lon="-71.1386183537394">
        <time>2019-03-07T04:32:33Z</time>
      </trkpt>
      <trkpt lat="-31.91397933854227" lon="-71.1387677794733">
        <time>2019-03-07T04:32:33Z</time>
      </trkpt>
      <trkpt lat="-31.91393441117072" lon="-71.13894249844648">
        <time>2019-03-07T04:32:33Z</time>
      </trkpt>
      <trkpt lat="-31.91388777565416" lon="-71.13905964313094">
        <time>2019-03-07T04:32:33Z</time>
      </trkpt>
      <trkpt lat="-31.91379686311316" lon="-71.1391978585774">
        <time>2019-03-07T04:32:33Z</time>
      </trkpt>
      <trkpt lat="-31.91369069022442" lon="-71.13930233849419">
        <time>2019-03-07T04:32:33Z</time>
      </trkpt>
      <trkpt lat="-31.91358281626457" lon="-71.13939030330276">
        <time>2019-03-07T04:32:33Z</time>
      </trkpt>
      <trkpt lat="-31.91339337007029" lon="-71.13950551613462">
        <time>2019-03-07T04:32:33Z</time>
      </trkpt>
      <trkpt lat="-31.91315194552274" lon="-71.13961495617514">
        <time>2019-03-07T04:32:33Z</time>
      </trkpt>
      <trkpt lat="-31.91292458322463" lon="-71.13969744959536">
        <time>2019-03-07T04:32:33Z</time>
      </trkpt>
      <trkpt lat="-31.91271306277523" lon="-71.13981144467172">
        <time>2019-03-07T04:32:33Z</time>
      </trkpt>
      <trkpt lat="-31.91253551178231" lon="-71.13995561691174">
        <time>2019-03-07T04:32:33Z</time>
      </trkpt>
      <trkpt lat="-31.9123394678485" lon="-71.14016368112526">
        <time>2019-03-07T04:32:33Z</time>
      </trkpt>
      <trkpt lat="-31.91224204744698" lon="-71.14031490653828">
        <time>2019-03-07T04:32:33Z</time>
      </trkpt>
      <trkpt lat="-31.91219849774778" lon="-71.1404613063803">
        <time>2019-03-07T04:32:33Z</time>
      </trkpt>
      <trkpt lat="-31.91216084208782" lon="-71.1406677078471">
        <time>2019-03-07T04:32:33Z</time>
      </trkpt>
      <trkpt lat="-31.91208935562252" lon="-71.14107399747454">
        <time>2019-03-07T04:32:33Z</time>
      </trkpt>
      <trkpt lat="-31.91203693967634" lon="-71.14127864441626">
        <time>2019-03-07T04:32:33Z</time>
      </trkpt>
      <trkpt lat="-31.91188534956455" lon="-71.14163598858212">
        <time>2019-03-07T04:32:33Z</time>
      </trkpt>
      <trkpt lat="-31.91176667672494" lon="-71.14183351550757">
        <time>2019-03-07T04:32:33Z</time>
      </trkpt>
      <trkpt lat="-31.91164877921561" lon="-71.14195667644549">
        <time>2019-03-07T04:32:33Z</time>
      </trkpt>
      <trkpt lat="-31.91154086740849" lon="-71.14202312110383">
        <time>2019-03-07T04:32:33Z</time>
      </trkpt>
      <trkpt lat="-31.91142402331109" lon="-71.14207312187411">
        <time>2019-03-07T04:32:33Z</time>
      </trkpt>
      <trkpt lat="-31.91123552590718" lon="-71.142147613186">
        <time>2019-03-07T04:32:33Z</time>
      </trkpt>
      <trkpt lat="-31.91095543169129" lon="-71.14222719153682">
        <time>2019-03-07T04:32:33Z</time>
      </trkpt>
      <trkpt lat="-31.9105749991867" lon="-71.14232526386468">
        <time>2019-03-07T04:32:33Z</time>
      </trkpt>
      <trkpt lat="-31.91027859058385" lon="-71.14242811728602">
        <time>2019-03-07T04:32:33Z</time>
      </trkpt>
      <trkpt lat="-31.9100396646888" lon="-71.14255618284159">
        <time>2019-03-07T04:32:33Z</time>
      </trkpt>
      <trkpt lat="-31.90974771172514" lon="-71.14270435014213">
        <time>2019-03-07T04:32:33Z</time>
      </trkpt>
      <trkpt lat="-31.90948337423778" lon="-71.1427674433054">
        <time>2019-03-07T04:32:33Z</time>
      </trkpt>
      <trkpt lat="-31.90915227118306" lon="-71.14278343853532">
        <time>2019-03-07T04:32:33Z</time>
      </trkpt>
      <trkpt lat="-31.90882598160389" lon="-71.14273994895279">
        <time>2019-03-07T04:32:33Z</time>
      </trkpt>
      <trkpt lat="-31.90853829340355" lon="-71.14267603636714">
        <time>2019-03-07T04:32:33Z</time>
      </trkpt>
      <trkpt lat="-31.90836078972245" lon="-71.14265925427606">
        <time>2019-03-07T04:32:33Z</time>
      </trkpt>
      <trkpt lat="-31.90820127321537" lon="-71.14269552077676">
        <time>2019-03-07T04:32:33Z</time>
      </trkpt>
      <trkpt lat="-31.9080154997295" lon="-71.14276759918927">
        <time>2019-03-07T04:32:33Z</time>
      </trkpt>
      <trkpt lat="-31.90775175834997" lon="-71.14291711244886">
        <time>2019-03-07T04:32:33Z</time>
      </trkpt>
      <trkpt lat="-31.9073706594295" lon="-71.14320540050741">
        <time>2019-03-07T04:32:33Z</time>
      </trkpt>
      <trkpt lat="-31.90701334260602" lon="-71.14343775276201">
        <time>2019-03-07T04:32:33Z</time>
      </trkpt>
      <trkpt lat="-31.90670551972097" lon="-71.14358707629206">
        <time>2019-03-07T04:32:33Z</time>
      </trkpt>
      <trkpt lat="-31.90636456594185" lon="-71.14366889398849">
        <time>2019-03-07T04:32:33Z</time>
      </trkpt>
      <trkpt lat="-31.90610636722587" lon="-71.14370061768378">
        <time>2019-03-07T04:32:33Z</time>
      </trkpt>
      <trkpt lat="-31.90566668827815" lon="-71.14376379606031">
        <time>2019-03-07T04:32:33Z</time>
      </trkpt>
      <trkpt lat="-31.90552240841293" lon="-71.14381414158471">
        <time>2019-03-07T04:32:33Z</time>
      </trkpt>
      <trkpt lat="-31.9053757727028" lon="-71.14390789097874">
        <time>2019-03-07T04:32:33Z</time>
      </trkpt>
      <trkpt lat="-31.90524218221675" lon="-71.14402598141595">
        <time>2019-03-07T04:32:33Z</time>
      </trkpt>
      <trkpt lat="-31.90504730884438" lon="-71.14425286265102">
        <time>2019-03-07T04:32:33Z</time>
      </trkpt>
      <trkpt lat="-31.90495540185007" lon="-71.14440501761138">
        <time>2019-03-07T04:32:33Z</time>
      </trkpt>
      <trkpt lat="-31.90458006631565" lon="-71.14550361421932">
        <time>2019-03-07T04:32:33Z</time>
      </trkpt>
      <trkpt lat="-31.90456348377017" lon="-71.14567955365729">
        <time>2019-03-07T04:32:33Z</time>
      </trkpt>
      <trkpt lat="-31.90457550766547" lon="-71.14619319565706">
        <time>2019-03-07T04:32:33Z</time>
      </trkpt>
      <trkpt lat="-31.90461182691424" lon="-71.14631322578379">
        <time>2019-03-07T04:32:33Z</time>
      </trkpt>
      <trkpt lat="-31.90467328535102" lon="-71.14649981265181">
        <time>2019-03-07T04:32:33Z</time>
      </trkpt>
      <trkpt lat="-31.9047873390007" lon="-71.14669743756816">
        <time>2019-03-07T04:32:33Z</time>
      </trkpt>
      <trkpt lat="-31.90496469235617" lon="-71.14690268792114">
        <time>2019-03-07T04:32:33Z</time>
      </trkpt>
      <trkpt lat="-31.90600083271258" lon="-71.1476846296956">
        <time>2019-03-07T04:32:33Z</time>
      </trkpt>
      <trkpt lat="-31.90696091657304" lon="-71.14837132640936">
        <time>2019-03-07T04:32:33Z</time>
      </trkpt>
      <trkpt lat="-31.90709064005388" lon="-71.1484943592461">
        <time>2019-03-07T04:32:33Z</time>
      </trkpt>
      <trkpt lat="-31.90729195629953" lon="-71.14871898467968">
        <time>2019-03-07T04:32:33Z</time>
      </trkpt>
      <trkpt lat="-31.90741215398343" lon="-71.1489024940439">
        <time>2019-03-07T04:32:33Z</time>
      </trkpt>
      <trkpt lat="-31.90748352181456" lon="-71.14907947407798">
        <time>2019-03-07T04:32:33Z</time>
      </trkpt>
      <trkpt lat="-31.90755059618916" lon="-71.14938749639278">
        <time>2019-03-07T04:32:33Z</time>
      </trkpt>
      <trkpt lat="-31.90756645928181" lon="-71.14958638436508">
        <time>2019-03-07T04:32:33Z</time>
      </trkpt>
      <trkpt lat="-31.90756650403444" lon="-71.14970781131225">
        <time>2019-03-07T04:32:33Z</time>
      </trkpt>
      <trkpt lat="-31.90755182679273" lon="-71.14989265828315">
        <time>2019-03-07T04:32:33Z</time>
      </trkpt>
      <trkpt lat="-31.90751544769245" lon="-71.15002855526213">
        <time>2019-03-07T04:32:33Z</time>
      </trkpt>
      <trkpt lat="-31.90744331233639" lon="-71.15015890229209">
        <time>2019-03-07T04:32:33Z</time>
      </trkpt>
      <trkpt lat="-31.90733081922043" lon="-71.15028989298168">
        <time>2019-03-07T04:32:33Z</time>
      </trkpt>
      <trkpt lat="-31.90723554045137" lon="-71.15039564218249">
        <time>2019-03-07T04:32:33Z</time>
      </trkpt>
      <trkpt lat="-31.90713620072536" lon="-71.15049246567851">
        <time>2019-03-07T04:32:33Z</time>
      </trkpt>
      <trkpt lat="-31.90701584551777" lon="-71.15062370095693">
        <time>2019-03-07T04:32:33Z</time>
      </trkpt>
      <trkpt lat="-31.90691690634858" lon="-71.15072822735733">
        <time>2019-03-07T04:32:33Z</time>
      </trkpt>
      <trkpt lat="-31.90681785993803" lon="-71.15082075745018">
        <time>2019-03-07T04:32:33Z</time>
      </trkpt>
      <trkpt lat="-31.90673435781538" lon="-71.1509142728213">
        <time>2019-03-07T04:32:33Z</time>
      </trkpt>
      <trkpt lat="-31.90665298918707" lon="-71.15100214037068">
        <time>2019-03-07T04:32:33Z</time>
      </trkpt>
      <trkpt lat="-31.90656975577529" lon="-71.15108436665163">
        <time>2019-03-07T04:32:33Z</time>
      </trkpt>
      <trkpt lat="-31.90638948737873" lon="-71.15104691352848">
        <time>2019-03-07T04:32:33Z</time>
      </trkpt>
      <trkpt lat="-31.90617971840761" lon="-71.15100720339606">
        <time>2019-03-07T04:32:33Z</time>
      </trkpt>
      <trkpt lat="-31.90599143225944" lon="-71.15095905079814">
        <time>2019-03-07T04:32:33Z</time>
      </trkpt>
      <trkpt lat="-31.90586434646442" lon="-71.1509245681182">
        <time>2019-03-07T04:32:33Z</time>
      </trkpt>
      <trkpt lat="-31.90574675356197" lon="-71.15089290570866">
        <time>2019-03-07T04:32:33Z</time>
      </trkpt>
      <trkpt lat="-31.90561380304069" lon="-71.15086016396631">
        <time>2019-03-07T04:32:33Z</time>
      </trkpt>
      <trkpt lat="-31.90547760260984" lon="-71.15083997447064">
        <time>2019-03-07T04:32:33Z</time>
      </trkpt>
      <trkpt lat="-31.9053593768795" lon="-71.15082609554976">
        <time>2019-03-07T04:32:33Z</time>
      </trkpt>
      <trkpt lat="-31.90528972355772" lon="-71.15082417076998">
        <time>2019-03-07T04:32:33Z</time>
      </trkpt>
      <trkpt lat="-31.90516873098192" lon="-71.15081753828427">
        <time>2019-03-07T04:32:33Z</time>
      </trkpt>
      <trkpt lat="-31.90507051646921" lon="-71.15081431013451">
        <time>2019-03-07T04:32:33Z</time>
      </trkpt>
      <trkpt lat="-31.90500583077425" lon="-71.15081707234094">
        <time>2019-03-07T04:32:33Z</time>
      </trkpt>
      <trkpt lat="-31.90495111113047" lon="-71.15082245598229">
        <time>2019-03-07T04:32:33Z</time>
      </trkpt>
      <trkpt lat="-31.90491341677478" lon="-71.15082968546984">
        <time>2019-03-07T04:32:33Z</time>
      </trkpt>
      <trkpt lat="-31.90484891793293" lon="-71.15084866305075">
        <time>2019-03-07T04:32:33Z</time>
      </trkpt>
      <trkpt lat="-31.90477632566648" lon="-71.15087193254097">
        <time>2019-03-07T04:32:33Z</time>
      </trkpt>
      <trkpt lat="-31.90471410760657" lon="-71.15089120870938">
        <time>2019-03-07T04:32:33Z</time>
      </trkpt>
      <trkpt lat="-31.9046507222616" lon="-71.15090919770057">
        <time>2019-03-07T04:32:33Z</time>
      </trkpt>
      <trkpt lat="-31.90457561250254" lon="-71.15093575169816">
        <time>2019-03-07T04:32:33Z</time>
      </trkpt>
      <trkpt lat="-31.9045002687761" lon="-71.15095614752835">
        <time>2019-03-07T04:32:33Z</time>
      </trkpt>
      <trkpt lat="-31.90443873292033" lon="-71.15097661840092">
        <time>2019-03-07T04:32:33Z</time>
      </trkpt>
      <trkpt lat="-31.90439512358145" lon="-71.15099362850974">
        <time>2019-03-07T04:32:33Z</time>
      </trkpt>
      <trkpt lat="-31.90432589085585" lon="-71.15101734128797">
        <time>2019-03-07T04:32:33Z</time>
      </trkpt>
      <trkpt lat="-31.90425623382916" lon="-71.15103733161713">
        <time>2019-03-07T04:32:33Z</time>
      </trkpt>
      <trkpt lat="-31.90420844885282" lon="-71.15104977123362">
        <time>2019-03-07T04:32:33Z</time>
      </trkpt>
      <trkpt lat="-31.90413009543656" lon="-71.1510762002146">
        <time>2019-03-07T04:32:33Z</time>
      </trkpt>
      <trkpt lat="-31.90409286778946" lon="-71.15109025466893">
        <time>2019-03-07T04:32:33Z</time>
      </trkpt>
      <trkpt lat="-31.90405605345251" lon="-71.15110381107202">
        <time>2019-03-07T04:32:33Z</time>
      </trkpt>
      <trkpt lat="-31.90401611289233" lon="-71.15111981190972">
        <time>2019-03-07T04:32:33Z</time>
      </trkpt>
      <trkpt lat="-31.90395664019098" lon="-71.15114595068239">
        <time>2019-03-07T04:32:33Z</time>
      </trkpt>
      <trkpt lat="-31.90389514290848" lon="-71.15117798276441">
        <time>2019-03-07T04:32:33Z</time>
      </trkpt>
      <trkpt lat="-31.90384405741908" lon="-71.15120084553207">
        <time>2019-03-07T04:32:33Z</time>
      </trkpt>
      <trkpt lat="-31.90375129282853" lon="-71.15123923482979">
        <time>2019-03-07T04:32:33Z</time>
      </trkpt>
      <trkpt lat="-31.90365490129629" lon="-71.15126514449608">
        <time>2019-03-07T04:32:33Z</time>
      </trkpt>
      <trkpt lat="-31.90357962426852" lon="-71.15128537907167">
        <time>2019-03-07T04:32:33Z</time>
      </trkpt>
      <trkpt lat="-31.90346253658806" lon="-71.15131335867716">
        <time>2019-03-07T04:32:33Z</time>
      </trkpt>
      <trkpt lat="-31.90332069936315" lon="-71.15132639262075">
        <time>2019-03-07T04:32:33Z</time>
      </trkpt>
      <trkpt lat="-31.90305749651371" lon="-71.15135374728145">
        <time>2019-03-07T04:32:33Z</time>
      </trkpt>
      <trkpt lat="-31.9027502330771" lon="-71.15141638135221">
        <time>2019-03-07T04:32:33Z</time>
      </trkpt>
      <trkpt lat="-31.9022904305243" lon="-71.15159209434884">
        <time>2019-03-07T04:32:33Z</time>
      </trkpt>
      <trkpt lat="-31.9020587101397" lon="-71.1516979963039">
        <time>2019-03-07T04:32:33Z</time>
      </trkpt>
      <trkpt lat="-31.90181255364684" lon="-71.15182296167627">
        <time>2019-03-07T04:32:33Z</time>
      </trkpt>
      <trkpt lat="-31.9012635037774" lon="-71.15201410454833">
        <time>2019-03-07T04:32:33Z</time>
      </trkpt>
      <trkpt lat="-31.90087246458651" lon="-71.15223397283292">
        <time>2019-03-07T04:32:33Z</time>
      </trkpt>
      <trkpt lat="-31.90066074895169" lon="-71.15242898719339">
        <time>2019-03-07T04:32:33Z</time>
      </trkpt>
      <trkpt lat="-31.90038633173256" lon="-71.15279132704599">
        <time>2019-03-07T04:32:33Z</time>
      </trkpt>
      <trkpt lat="-31.90010917041876" lon="-71.15329116073883">
        <time>2019-03-07T04:32:33Z</time>
      </trkpt>
      <trkpt lat="-31.899956575172" lon="-71.15360350047573">
        <time>2019-03-07T04:32:33Z</time>
      </trkpt>
      <trkpt lat="-31.89983380055229" lon="-71.15382849054055">
        <time>2019-03-07T04:32:33Z</time>
      </trkpt>
      <trkpt lat="-31.8996388887435" lon="-71.15418069460348">
        <time>2019-03-07T04:32:33Z</time>
      </trkpt>
      <trkpt lat="-31.89928527980505" lon="-71.15471272745833">
        <time>2019-03-07T04:32:33Z</time>
      </trkpt>
      <trkpt lat="-31.89882851107025" lon="-71.15541549140117">
        <time>2019-03-07T04:32:33Z</time>
      </trkpt>
      <trkpt lat="-31.8984398434258" lon="-71.15593266341131">
        <time>2019-03-07T04:32:33Z</time>
      </trkpt>
      <trkpt lat="-31.89808950286801" lon="-71.15650493069728">
        <time>2019-03-07T04:32:33Z</time>
      </trkpt>
      <trkpt lat="-31.89773807333007" lon="-71.15707440271576">
        <time>2019-03-07T04:32:33Z</time>
      </trkpt>
      <trkpt lat="-31.89755934127085" lon="-71.15742173226273">
        <time>2019-03-07T04:32:33Z</time>
      </trkpt>
      <trkpt lat="-31.89744532675854" lon="-71.1577913586803">
        <time>2019-03-07T04:32:33Z</time>
      </trkpt>
      <trkpt lat="-31.89744472423698" lon="-71.15796830936176">
        <time>2019-03-07T04:32:33Z</time>
      </trkpt>
      <trkpt lat="-31.89740493960069" lon="-71.15807737867482">
        <time>2019-03-07T04:32:33Z</time>
      </trkpt>
      <trkpt lat="-31.8973378760412" lon="-71.15818871650311">
        <time>2019-03-07T04:32:33Z</time>
      </trkpt>
      <trkpt lat="-31.89656273837201" lon="-71.15824994804703">
        <time>2019-03-07T04:32:33Z</time>
      </trkpt>
      <trkpt lat="-31.89594135356088" lon="-71.15830873304144">
        <time>2019-03-07T04:32:33Z</time>
      </trkpt>
      <trkpt lat="-31.89540626303169" lon="-71.15840406223377">
        <time>2019-03-07T04:32:33Z</time>
      </trkpt>
      <trkpt lat="-31.89508447446205" lon="-71.15843116891284">
        <time>2019-03-07T04:32:33Z</time>
      </trkpt>
      <trkpt lat="-31.89457731504735" lon="-71.15849763495262">
        <time>2019-03-07T04:32:33Z</time>
      </trkpt>
      <trkpt lat="-31.89409836351559" lon="-71.1585821096395">
        <time>2019-03-07T04:32:33Z</time>
      </trkpt>
      <trkpt lat="-31.89351988418729" lon="-71.15868117783812">
        <time>2019-03-07T04:32:33Z</time>
      </trkpt>
      <trkpt lat="-31.89280511844645" lon="-71.15880453377125">
        <time>2019-03-07T04:32:33Z</time>
      </trkpt>
      <trkpt lat="-31.89227449185981" lon="-71.15887937946928">
        <time>2019-03-07T04:32:33Z</time>
      </trkpt>
      <trkpt lat="-31.89194664857605" lon="-71.15890775216469">
        <time>2019-03-07T04:32:33Z</time>
      </trkpt>
      <trkpt lat="-31.8916971697171" lon="-71.15895167771102">
        <time>2019-03-07T04:32:33Z</time>
      </trkpt>
      <trkpt lat="-31.89136384678718" lon="-71.15899122717472">
        <time>2019-03-07T04:32:33Z</time>
      </trkpt>
      <trkpt lat="-31.89104801143688" lon="-71.15901952476871">
        <time>2019-03-07T04:32:33Z</time>
      </trkpt>
      <trkpt lat="-31.89071941390444" lon="-71.15906778363491">
        <time>2019-03-07T04:32:33Z</time>
      </trkpt>
      <trkpt lat="-31.89015759039796" lon="-71.15913916293657">
        <time>2019-03-07T04:32:33Z</time>
      </trkpt>
      <trkpt lat="-31.88977477470244" lon="-71.15920419086808">
        <time>2019-03-07T04:32:33Z</time>
      </trkpt>
      <trkpt lat="-31.88917565986659" lon="-71.15929895253478">
        <time>2019-03-07T04:32:33Z</time>
      </trkpt>
      <trkpt lat="-31.88876598951228" lon="-71.15935752821625">
        <time>2019-03-07T04:32:33Z</time>
      </trkpt>
      <trkpt lat="-31.88846310159253" lon="-71.15941286854948">
        <time>2019-03-07T04:32:33Z</time>
      </trkpt>
      <trkpt lat="-31.88807709606589" lon="-71.15945883709935">
        <time>2019-03-07T04:32:33Z</time>
      </trkpt>
      <trkpt lat="-31.88785305160674" lon="-71.15950232610233">
        <time>2019-03-07T04:32:33Z</time>
      </trkpt>
      <trkpt lat="-31.88755656571549" lon="-71.15954049797928">
        <time>2019-03-07T04:32:33Z</time>
      </trkpt>
      <trkpt lat="-31.88719961291303" lon="-71.15958387113166">
        <time>2019-03-07T04:32:33Z</time>
      </trkpt>
      <trkpt lat="-31.88692061325443" lon="-71.15962674944767">
        <time>2019-03-07T04:32:33Z</time>
      </trkpt>
      <trkpt lat="-31.88648193223857" lon="-71.15966939271971">
        <time>2019-03-07T04:32:33Z</time>
      </trkpt>
      <trkpt lat="-31.88620793995121" lon="-71.15971390770368">
        <time>2019-03-07T04:32:33Z</time>
      </trkpt>
      <trkpt lat="-31.88602232902641" lon="-71.159625760457">
        <time>2019-03-07T04:32:33Z</time>
      </trkpt>
      <trkpt lat="-31.88578888019321" lon="-71.15949642638016">
        <time>2019-03-07T04:32:33Z</time>
      </trkpt>
      <trkpt lat="-31.88559248484906" lon="-71.1594200406834">
        <time>2019-03-07T04:32:33Z</time>
      </trkpt>
      <trkpt lat="-31.88544097486201" lon="-71.15939786870953">
        <time>2019-03-07T04:32:33Z</time>
      </trkpt>
      <trkpt lat="-31.88522050456424" lon="-71.15938563835226">
        <time>2019-03-07T04:32:33Z</time>
      </trkpt>
      <trkpt lat="-31.88506910500332" lon="-71.1593701966773">
        <time>2019-03-07T04:32:33Z</time>
      </trkpt>
      <trkpt lat="-31.88493440811169" lon="-71.15931443878687">
        <time>2019-03-07T04:32:33Z</time>
      </trkpt>
      <trkpt lat="-31.88478025801775" lon="-71.15923626758078">
        <time>2019-03-07T04:32:33Z</time>
      </trkpt>
      <trkpt lat="-31.8846335723123" lon="-71.15914491838699">
        <time>2019-03-07T04:32:33Z</time>
      </trkpt>
      <trkpt lat="-31.88453655096094" lon="-71.15905631510441">
        <time>2019-03-07T04:32:33Z</time>
      </trkpt>
      <trkpt lat="-31.88441295577928" lon="-71.15892386550883">
        <time>2019-03-07T04:32:33Z</time>
      </trkpt>
      <trkpt lat="-31.88430850123406" lon="-71.15876484193591">
        <time>2019-03-07T04:32:33Z</time>
      </trkpt>
      <trkpt lat="-31.88417606854178" lon="-71.15850428855732">
        <time>2019-03-07T04:32:33Z</time>
      </trkpt>
      <trkpt lat="-31.88409663746851" lon="-71.15831871944921">
        <time>2019-03-07T04:32:33Z</time>
      </trkpt>
      <trkpt lat="-31.88393663798233" lon="-71.15789725664784">
        <time>2019-03-07T04:32:33Z</time>
      </trkpt>
      <trkpt lat="-31.88379541496829" lon="-71.15767502697638">
        <time>2019-03-07T04:32:33Z</time>
      </trkpt>
      <trkpt lat="-31.88365974897803" lon="-71.15750325456865">
        <time>2019-03-07T04:32:33Z</time>
      </trkpt>
      <trkpt lat="-31.88352559802322" lon="-71.15739245600142">
        <time>2019-03-07T04:32:33Z</time>
      </trkpt>
      <trkpt lat="-31.88342750017082" lon="-71.15732529967063">
        <time>2019-03-07T04:32:33Z</time>
      </trkpt>
      <trkpt lat="-31.88316864508961" lon="-71.15718836121833">
        <time>2019-03-07T04:32:33Z</time>
      </trkpt>
      <trkpt lat="-31.88298592966895" lon="-71.15713398352258">
        <time>2019-03-07T04:32:33Z</time>
      </trkpt>
      <trkpt lat="-31.88291058635775" lon="-71.15712538780282">
        <time>2019-03-07T04:32:33Z</time>
      </trkpt>
      <trkpt lat="-31.88262132087481" lon="-71.15714716664485">
        <time>2019-03-07T04:32:33Z</time>
      </trkpt>
      <trkpt lat="-31.88255406824442" lon="-71.15716373492002">
        <time>2019-03-07T04:32:33Z</time>
      </trkpt>
      <trkpt lat="-31.88231901435637" lon="-71.15725080924713">
        <time>2019-03-07T04:32:33Z</time>
      </trkpt>
      <trkpt lat="-31.88201068919798" lon="-71.15740893831047">
        <time>2019-03-07T04:32:33Z</time>
      </trkpt>
      <trkpt lat="-31.88182126377726" lon="-71.15751075688">
        <time>2019-03-07T04:32:33Z</time>
      </trkpt>
      <trkpt lat="-31.88164200313254" lon="-71.15758320983244">
        <time>2019-03-07T04:32:33Z</time>
      </trkpt>
      <trkpt lat="-31.88146137740738" lon="-71.15761758029603">
        <time>2019-03-07T04:32:33Z</time>
      </trkpt>
      <trkpt lat="-31.88106175478366" lon="-71.1576536537353">
        <time>2019-03-07T04:32:33Z</time>
      </trkpt>
      <trkpt lat="-31.87967853274936" lon="-71.15773701401909">
        <time>2019-03-07T04:32:33Z</time>
      </trkpt>
      <trkpt lat="-31.87867907053678" lon="-71.15782157888042">
        <time>2019-03-07T04:32:33Z</time>
      </trkpt>
      <trkpt lat="-31.87849106639183" lon="-71.1578379728826">
        <time>2019-03-07T04:32:33Z</time>
      </trkpt>
      <trkpt lat="-31.87828740840291" lon="-71.15784967464138">
        <time>2019-03-07T04:32:33Z</time>
      </trkpt>
      <trkpt lat="-31.87812141341027" lon="-71.15782935686953">
        <time>2019-03-07T04:32:33Z</time>
      </trkpt>
      <trkpt lat="-31.87726548051315" lon="-71.15764855935528">
        <time>2019-03-07T04:32:33Z</time>
      </trkpt>
      <trkpt lat="-31.87704814482185" lon="-71.15760676950539">
        <time>2019-03-07T04:32:33Z</time>
      </trkpt>
      <trkpt lat="-31.87696559667234" lon="-71.15760195466515">
        <time>2019-03-07T04:32:33Z</time>
      </trkpt>
      <trkpt lat="-31.87684323249576" lon="-71.15761436199459">
        <time>2019-03-07T04:32:33Z</time>
      </trkpt>
      <trkpt lat="-31.87666029839814" lon="-71.15766387746471">
        <time>2019-03-07T04:32:33Z</time>
      </trkpt>
      <trkpt lat="-31.87629457962582" lon="-71.15777000177486">
        <time>2019-03-07T04:32:33Z</time>
      </trkpt>
      <trkpt lat="-31.87622856659264" lon="-71.15779678799468">
        <time>2019-03-07T04:32:33Z</time>
      </trkpt>
      <trkpt lat="-31.87615583905951" lon="-71.15783809863085">
        <time>2019-03-07T04:32:33Z</time>
      </trkpt>
      <trkpt lat="-31.87606036524479" lon="-71.15789287070764">
        <time>2019-03-07T04:32:33Z</time>
      </trkpt>
      <trkpt lat="-31.87573389698329" lon="-71.15799330585341">
        <time>2019-03-07T04:32:33Z</time>
      </trkpt>
      <trkpt lat="-31.87554417117864" lon="-71.15801530782244">
        <time>2019-03-07T04:32:33Z</time>
      </trkpt>
      <trkpt lat="-31.87404978345655" lon="-71.15794799499913">
        <time>2019-03-07T04:32:33Z</time>
      </trkpt>
      <trkpt lat="-31.87381183149391" lon="-71.1579792964626">
        <time>2019-03-07T04:32:33Z</time>
      </trkpt>
      <trkpt lat="-31.87366962892954" lon="-71.15800599889569">
        <time>2019-03-07T04:32:33Z</time>
      </trkpt>
      <trkpt lat="-31.87307142435818" lon="-71.15814542150373">
        <time>2019-03-07T04:32:33Z</time>
      </trkpt>
      <trkpt lat="-31.87255636267615" lon="-71.1582751433732">
        <time>2019-03-07T04:32:33Z</time>
      </trkpt>
      <trkpt lat="-31.87236772276327" lon="-71.15828341944925">
        <time>2019-03-07T04:32:33Z</time>
      </trkpt>
      <trkpt lat="-31.87217914196082" lon="-71.15823494929518">
        <time>2019-03-07T04:32:33Z</time>
      </trkpt>
      <trkpt lat="-31.87207226766756" lon="-71.15818329513922">
        <time>2019-03-07T04:32:33Z</time>
      </trkpt>
      <trkpt lat="-31.87198900146906" lon="-71.15811539940687">
        <time>2019-03-07T04:32:33Z</time>
      </trkpt>
      <trkpt lat="-31.87192537528997" lon="-71.15804614261508">
        <time>2019-03-07T04:32:33Z</time>
      </trkpt>
      <trkpt lat="-31.87187324184895" lon="-71.15798492155267">
        <time>2019-03-07T04:32:33Z</time>
      </trkpt>
      <trkpt lat="-31.87180214115119" lon="-71.15786213970482">
        <time>2019-03-07T04:32:33Z</time>
      </trkpt>
      <trkpt lat="-31.87174419938037" lon="-71.15771354455377">
        <time>2019-03-07T04:32:33Z</time>
      </trkpt>
      <trkpt lat="-31.87171484050886" lon="-71.1575504359753">
        <time>2019-03-07T04:32:33Z</time>
      </trkpt>
      <trkpt lat="-31.8717208686839" lon="-71.15738978375988">
        <time>2019-03-07T04:32:33Z</time>
      </trkpt>
      <trkpt lat="-31.87173339891608" lon="-71.15724583839047">
        <time>2019-03-07T04:32:33Z</time>
      </trkpt>
      <trkpt lat="-31.87175898239902" lon="-71.15713812208622">
        <time>2019-03-07T04:32:33Z</time>
      </trkpt>
      <trkpt lat="-31.8718183820532" lon="-71.15700835705574">
        <time>2019-03-07T04:32:33Z</time>
      </trkpt>
      <trkpt lat="-31.87195824412444" lon="-71.156819203433">
        <time>2019-03-07T04:32:33Z</time>
      </trkpt>
      <trkpt lat="-31.87212258810022" lon="-71.15668842113915">
        <time>2019-03-07T04:32:33Z</time>
      </trkpt>
      <trkpt lat="-31.8722867480091" lon="-71.15656976173884">
        <time>2019-03-07T04:32:33Z</time>
      </trkpt>
      <trkpt lat="-31.87258441235682" lon="-71.15643891384012">
        <time>2019-03-07T04:32:33Z</time>
      </trkpt>
      <trkpt lat="-31.87287407525883" lon="-71.15629113002635">
        <time>2019-03-07T04:32:33Z</time>
      </trkpt>
      <trkpt lat="-31.87294292010088" lon="-71.15622626813681">
        <time>2019-03-07T04:32:33Z</time>
      </trkpt>
      <trkpt lat="-31.87300899859664" lon="-71.15616433031694">
        <time>2019-03-07T04:32:33Z</time>
      </trkpt>
      <trkpt lat="-31.87313772964253" lon="-71.15596676412032">
        <time>2019-03-07T04:32:33Z</time>
      </trkpt>
      <trkpt lat="-31.87320294049827" lon="-71.15582591744236">
        <time>2019-03-07T04:32:33Z</time>
      </trkpt>
      <trkpt lat="-31.87325466183441" lon="-71.15565485254584">
        <time>2019-03-07T04:32:33Z</time>
      </trkpt>
      <trkpt lat="-31.87326482974276" lon="-71.15539643222537">
        <time>2019-03-07T04:32:33Z</time>
      </trkpt>
      <trkpt lat="-31.87323597162249" lon="-71.15521535250664">
        <time>2019-03-07T04:32:33Z</time>
      </trkpt>
      <trkpt lat="-31.87318688151246" lon="-71.15507641125031">
        <time>2019-03-07T04:32:33Z</time>
      </trkpt>
      <trkpt lat="-31.87312161692178" lon="-71.15495724723755">
        <time>2019-03-07T04:32:33Z</time>
      </trkpt>
      <trkpt lat="-31.87306874958966" lon="-71.15487530061587">
        <time>2019-03-07T04:32:33Z</time>
      </trkpt>
      <trkpt lat="-31.87299958475009" lon="-71.15479363032628">
        <time>2019-03-07T04:32:33Z</time>
      </trkpt>
      <trkpt lat="-31.87292390882313" lon="-71.1547201322323">
        <time>2019-03-07T04:32:33Z</time>
      </trkpt>
      <trkpt lat="-31.87264716432455" lon="-71.15455679056721">
        <time>2019-03-07T04:32:33Z</time>
      </trkpt>
      <trkpt lat="-31.87227271226496" lon="-71.1543755330439">
        <time>2019-03-07T04:32:33Z</time>
      </trkpt>
      <trkpt lat="-31.87192811082066" lon="-71.15423391802801">
        <time>2019-03-07T04:32:33Z</time>
      </trkpt>
      <trkpt lat="-31.87173837214817" lon="-71.15421017741201">
        <time>2019-03-07T04:32:33Z</time>
      </trkpt>
      <trkpt lat="-31.87050318704736" lon="-71.15409427193939">
        <time>2019-03-07T04:32:33Z</time>
      </trkpt>
      <trkpt lat="-31.87010257475843" lon="-71.15407377355911">
        <time>2019-03-07T04:32:33Z</time>
      </trkpt>
      <trkpt lat="-31.86969104713936" lon="-71.15402939002885">
        <time>2019-03-07T04:32:33Z</time>
      </trkpt>
      <trkpt lat="-31.86934697873704" lon="-71.15398232825206">
        <time>2019-03-07T04:32:33Z</time>
      </trkpt>
      <trkpt lat="-31.86927144711613" lon="-71.15395635550925">
        <time>2019-03-07T04:32:33Z</time>
      </trkpt>
      <trkpt lat="-31.86915609412217" lon="-71.15389970191392">
        <time>2019-03-07T04:32:33Z</time>
      </trkpt>
      <trkpt lat="-31.8689921926584" lon="-71.15380307202048">
        <time>2019-03-07T04:32:33Z</time>
      </trkpt>
      <trkpt lat="-31.86883736726303" lon="-71.15366349081366">
        <time>2019-03-07T04:32:33Z</time>
      </trkpt>
      <trkpt lat="-31.86869900094581" lon="-71.15350805308889">
        <time>2019-03-07T04:32:33Z</time>
      </trkpt>
      <trkpt lat="-31.86852255217627" lon="-71.15326826200149">
        <time>2019-03-07T04:32:33Z</time>
      </trkpt>
      <trkpt lat="-31.86826261465107" lon="-71.15293393871745">
        <time>2019-03-07T04:32:33Z</time>
      </trkpt>
      <trkpt lat="-31.86808307420055" lon="-71.15276186879386">
        <time>2019-03-07T04:32:33Z</time>
      </trkpt>
      <trkpt lat="-31.86796923445687" lon="-71.15268832205152">
        <time>2019-03-07T04:32:33Z</time>
      </trkpt>
      <trkpt lat="-31.86781462689685" lon="-71.15261705442083">
        <time>2019-03-07T04:32:33Z</time>
      </trkpt>
      <trkpt lat="-31.86740487225496" lon="-71.15255695883023">
        <time>2019-03-07T04:32:33Z</time>
      </trkpt>
      <trkpt lat="-31.86733381675505" lon="-71.15255287520716">
        <time>2019-03-07T04:32:33Z</time>
      </trkpt>
      <trkpt lat="-31.86721679598943" lon="-71.15256432521865">
        <time>2019-03-07T04:32:33Z</time>
      </trkpt>
      <trkpt lat="-31.86712394047878" lon="-71.15259797934988">
        <time>2019-03-07T04:32:33Z</time>
      </trkpt>
      <trkpt lat="-31.86695518082971" lon="-71.15264966809058">
        <time>2019-03-07T04:32:33Z</time>
      </trkpt>
      <trkpt lat="-31.86684159014123" lon="-71.15268735429002">
        <time>2019-03-07T04:32:33Z</time>
      </trkpt>
      <trkpt lat="-31.86642500895415" lon="-71.15277996231436">
        <time>2019-03-07T04:32:33Z</time>
      </trkpt>
      <trkpt lat="-31.86636190164457" lon="-71.15278345983349">
        <time>2019-03-07T04:32:33Z</time>
      </trkpt>
      <trkpt lat="-31.86618560025459" lon="-71.15275627706726">
        <time>2019-03-07T04:32:33Z</time>
      </trkpt>
      <trkpt lat="-31.86575620920699" lon="-71.1526757331508">
        <time>2019-03-07T04:32:33Z</time>
      </trkpt>
      <trkpt lat="-31.86499851712655" lon="-71.1525923720249">
        <time>2019-03-07T04:32:33Z</time>
      </trkpt>
      <trkpt lat="-31.86408276543337" lon="-71.15243724745592">
        <time>2019-03-07T04:32:33Z</time>
      </trkpt>
      <trkpt lat="-31.86325094249234" lon="-71.15230702960058">
        <time>2019-03-07T04:32:33Z</time>
      </trkpt>
      <trkpt lat="-31.86305445890925" lon="-71.15228570685781">
        <time>2019-03-07T04:32:33Z</time>
      </trkpt>
      <trkpt lat="-31.86293818469451" lon="-71.15225917021503">
        <time>2019-03-07T04:32:33Z</time>
      </trkpt>
      <trkpt lat="-31.862650765359" lon="-71.15209978188361">
        <time>2019-03-07T04:32:33Z</time>
      </trkpt>
      <trkpt lat="-31.86248102400565" lon="-71.15196210392958">
        <time>2019-03-07T04:32:33Z</time>
      </trkpt>
      <trkpt lat="-31.86232762447797" lon="-71.15178440650877">
        <time>2019-03-07T04:32:33Z</time>
      </trkpt>
      <trkpt lat="-31.86210820996061" lon="-71.15146442446142">
        <time>2019-03-07T04:32:33Z</time>
      </trkpt>
      <trkpt lat="-31.86192198821049" lon="-71.15120950042036">
        <time>2019-03-07T04:32:33Z</time>
      </trkpt>
      <trkpt lat="-31.86169373490002" lon="-71.15099836490273">
        <time>2019-03-07T04:32:33Z</time>
      </trkpt>
      <trkpt lat="-31.86157864102783" lon="-71.15093908861878">
        <time>2019-03-07T04:32:33Z</time>
      </trkpt>
      <trkpt lat="-31.86136011477937" lon="-71.15085826447306">
        <time>2019-03-07T04:32:33Z</time>
      </trkpt>
      <trkpt lat="-31.8611430956761" lon="-71.15081851626732">
        <time>2019-03-07T04:32:33Z</time>
      </trkpt>
      <trkpt lat="-31.86073274160906" lon="-71.15086047960185">
        <time>2019-03-07T04:32:33Z</time>
      </trkpt>
      <trkpt lat="-31.86052136773414" lon="-71.15093664156365">
        <time>2019-03-07T04:32:33Z</time>
      </trkpt>
      <trkpt lat="-31.86037617116561" lon="-71.15102999482977">
        <time>2019-03-07T04:32:33Z</time>
      </trkpt>
      <trkpt lat="-31.85995532081676" lon="-71.15146119245988">
        <time>2019-03-07T04:32:33Z</time>
      </trkpt>
      <trkpt lat="-31.85982991756084" lon="-71.15158438859581">
        <time>2019-03-07T04:32:33Z</time>
      </trkpt>
      <trkpt lat="-31.85971488266346" lon="-71.15166584973325">
        <time>2019-03-07T04:32:33Z</time>
      </trkpt>
      <trkpt lat="-31.85961896407545" lon="-71.15172507215364">
        <time>2019-03-07T04:32:33Z</time>
      </trkpt>
      <trkpt lat="-31.85938674196541" lon="-71.15181277596648">
        <time>2019-03-07T04:32:33Z</time>
      </trkpt>
      <trkpt lat="-31.85927133653665" lon="-71.15183848143508">
        <time>2019-03-07T04:32:33Z</time>
      </trkpt>
      <trkpt lat="-31.85911269910029" lon="-71.15186149236307">
        <time>2019-03-07T04:32:33Z</time>
      </trkpt>
      <trkpt lat="-31.85894994745845" lon="-71.15186640475996">
        <time>2019-03-07T04:32:33Z</time>
      </trkpt>
      <trkpt lat="-31.85880707947035" lon="-71.15185381499634">
        <time>2019-03-07T04:32:33Z</time>
      </trkpt>
      <trkpt lat="-31.8586205563506" lon="-71.15180244352382">
        <time>2019-03-07T04:32:33Z</time>
      </trkpt>
      <trkpt lat="-31.85847170792728" lon="-71.15173357249809">
        <time>2019-03-07T04:32:33Z</time>
      </trkpt>
      <trkpt lat="-31.85827232833854" lon="-71.15158855247378">
        <time>2019-03-07T04:32:33Z</time>
      </trkpt>
      <trkpt lat="-31.85812791360277" lon="-71.15142224148653">
        <time>2019-03-07T04:32:33Z</time>
      </trkpt>
      <trkpt lat="-31.85807522909721" lon="-71.15135975454467">
        <time>2019-03-07T04:32:33Z</time>
      </trkpt>
      <trkpt lat="-31.85774844986742" lon="-71.15094033243942">
        <time>2019-03-07T04:32:33Z</time>
      </trkpt>
      <trkpt lat="-31.85760464107272" lon="-71.15076837557659">
        <time>2019-03-07T04:32:33Z</time>
      </trkpt>
      <trkpt lat="-31.8574308127383" lon="-71.15063555401933">
        <time>2019-03-07T04:32:33Z</time>
      </trkpt>
      <trkpt lat="-31.85732890416355" lon="-71.1505936922205">
        <time>2019-03-07T04:32:33Z</time>
      </trkpt>
      <trkpt lat="-31.85706386590958" lon="-71.15054395636309">
        <time>2019-03-07T04:32:33Z</time>
      </trkpt>
      <trkpt lat="-31.8568100735071" lon="-71.15053354508662">
        <time>2019-03-07T04:32:33Z</time>
      </trkpt>
      <trkpt lat="-31.85664027575178" lon="-71.15054086020018">
        <time>2019-03-07T04:32:33Z</time>
      </trkpt>
      <trkpt lat="-31.85632791941893" lon="-71.1505533799774">
        <time>2019-03-07T04:32:33Z</time>
      </trkpt>
      <trkpt lat="-31.85608688259809" lon="-71.15054096097572">
        <time>2019-03-07T04:32:33Z</time>
      </trkpt>
      <trkpt lat="-31.85588956680644" lon="-71.15050746887708">
        <time>2019-03-07T04:32:33Z</time>
      </trkpt>
      <trkpt lat="-31.85570018757169" lon="-71.1504286374374">
        <time>2019-03-07T04:32:33Z</time>
      </trkpt>
      <trkpt lat="-31.85558021524931" lon="-71.15036653256178">
        <time>2019-03-07T04:32:33Z</time>
      </trkpt>
      <trkpt lat="-31.85547707996714" lon="-71.15030127039098">
        <time>2019-03-07T04:32:33Z</time>
      </trkpt>
      <trkpt lat="-31.855232302921" lon="-71.15009600618916">
        <time>2019-03-07T04:32:33Z</time>
      </trkpt>
      <trkpt lat="-31.85501492588855" lon="-71.14985946450331">
        <time>2019-03-07T04:32:33Z</time>
      </trkpt>
      <trkpt lat="-31.85417684287062" lon="-71.14902822174287">
        <time>2019-03-07T04:32:33Z</time>
      </trkpt>
      <trkpt lat="-31.85397688414183" lon="-71.14886759706381">
        <time>2019-03-07T04:32:33Z</time>
      </trkpt>
      <trkpt lat="-31.8537998557155" lon="-71.14876671661057">
        <time>2019-03-07T04:32:33Z</time>
      </trkpt>
      <trkpt lat="-31.85369972251051" lon="-71.14872883443219">
        <time>2019-03-07T04:32:33Z</time>
      </trkpt>
      <trkpt lat="-31.85360622230192" lon="-71.1487026184917">
        <time>2019-03-07T04:32:33Z</time>
      </trkpt>
      <trkpt lat="-31.85351854165541" lon="-71.14868873293464">
        <time>2019-03-07T04:32:33Z</time>
      </trkpt>
      <trkpt lat="-31.85343425014811" lon="-71.14868168596277">
        <time>2019-03-07T04:32:33Z</time>
      </trkpt>
      <trkpt lat="-31.85333058501067" lon="-71.14867886856993">
        <time>2019-03-07T04:32:33Z</time>
      </trkpt>
      <trkpt lat="-31.85315629405601" lon="-71.14869206524529">
        <time>2019-03-07T04:32:33Z</time>
      </trkpt>
      <trkpt lat="-31.85136380780713" lon="-71.14893593566768">
        <time>2019-03-07T04:32:33Z</time>
      </trkpt>
      <trkpt lat="-31.8512503307303" lon="-71.14896585031765">
        <time>2019-03-07T04:32:33Z</time>
      </trkpt>
      <trkpt lat="-31.8511072278789" lon="-71.14900127716368">
        <time>2019-03-07T04:32:33Z</time>
      </trkpt>
      <trkpt lat="-31.85101183356093" lon="-71.14903923300902">
        <time>2019-03-07T04:32:33Z</time>
      </trkpt>
      <trkpt lat="-31.85088481434764" lon="-71.14909858845347">
        <time>2019-03-07T04:32:33Z</time>
      </trkpt>
      <trkpt lat="-31.84894075244147" lon="-71.15039171860202">
        <time>2019-03-07T04:32:33Z</time>
      </trkpt>
      <trkpt lat="-31.84757906428178" lon="-71.1512087458074">
        <time>2019-03-07T04:32:33Z</time>
      </trkpt>
      <trkpt lat="-31.84734934235614" lon="-71.15132696890417">
        <time>2019-03-07T04:32:33Z</time>
      </trkpt>
      <trkpt lat="-31.8472221304854" lon="-71.15133440973419">
        <time>2019-03-07T04:32:33Z</time>
      </trkpt>
      <trkpt lat="-31.8470594060077" lon="-71.15130749199027">
        <time>2019-03-07T04:32:33Z</time>
      </trkpt>
      <trkpt lat="-31.84693673416975" lon="-71.15126310559825">
        <time>2019-03-07T04:32:33Z</time>
      </trkpt>
      <trkpt lat="-31.84685751416225" lon="-71.15121521184018">
        <time>2019-03-07T04:32:33Z</time>
      </trkpt>
      <trkpt lat="-31.84673818122419" lon="-71.15111451131372">
        <time>2019-03-07T04:32:33Z</time>
      </trkpt>
      <trkpt lat="-31.84666346864874" lon="-71.1510211904329">
        <time>2019-03-07T04:32:33Z</time>
      </trkpt>
      <trkpt lat="-31.84657539899632" lon="-71.15087089642339">
        <time>2019-03-07T04:32:33Z</time>
      </trkpt>
      <trkpt lat="-31.84654374356471" lon="-71.15077270472106">
        <time>2019-03-07T04:32:33Z</time>
      </trkpt>
      <trkpt lat="-31.84651540115354" lon="-71.15065241315297">
        <time>2019-03-07T04:32:33Z</time>
      </trkpt>
      <trkpt lat="-31.84650502367402" lon="-71.1505459752203">
        <time>2019-03-07T04:32:33Z</time>
      </trkpt>
      <trkpt lat="-31.8465110125844" lon="-71.15043613434489">
        <time>2019-03-07T04:32:33Z</time>
      </trkpt>
      <trkpt lat="-31.84658330536639" lon="-71.15012987287804">
        <time>2019-03-07T04:32:33Z</time>
      </trkpt>
      <trkpt lat="-31.84665135840422" lon="-71.14996324659727">
        <time>2019-03-07T04:32:33Z</time>
      </trkpt>
      <trkpt lat="-31.84676865067908" lon="-71.14976260422033">
        <time>2019-03-07T04:32:33Z</time>
      </trkpt>
      <trkpt lat="-31.84689252514992" lon="-71.14955937992789">
        <time>2019-03-07T04:32:33Z</time>
      </trkpt>
      <trkpt lat="-31.84705814593385" lon="-71.1492599863921">
        <time>2019-03-07T04:32:33Z</time>
      </trkpt>
      <trkpt lat="-31.84718317231048" lon="-71.14895417951239">
        <time>2019-03-07T04:32:33Z</time>
      </trkpt>
      <trkpt lat="-31.84721582750013" lon="-71.1488213832601">
        <time>2019-03-07T04:32:33Z</time>
      </trkpt>
      <trkpt lat="-31.84720687961476" lon="-71.14865670263943">
        <time>2019-03-07T04:32:33Z</time>
      </trkpt>
      <trkpt lat="-31.84716233457247" lon="-71.14849422304069">
        <time>2019-03-07T04:32:33Z</time>
      </trkpt>
      <trkpt lat="-31.84708477214585" lon="-71.14832263964559">
        <time>2019-03-07T04:32:33Z</time>
      </trkpt>
      <trkpt lat="-31.84696148077184" lon="-71.14814083124951">
        <time>2019-03-07T04:32:33Z</time>
      </trkpt>
      <trkpt lat="-31.84676457673673" lon="-71.14797141065895">
        <time>2019-03-07T04:32:33Z</time>
      </trkpt>
      <trkpt lat="-31.84664364921767" lon="-71.14791327473476">
        <time>2019-03-07T04:32:33Z</time>
      </trkpt>
      <trkpt lat="-31.84643631410792" lon="-71.14784514911703">
        <time>2019-03-07T04:32:33Z</time>
      </trkpt>
      <trkpt lat="-31.84628404068663" lon="-71.14781529529533">
        <time>2019-03-07T04:32:33Z</time>
      </trkpt>
      <trkpt lat="-31.8461504316566" lon="-71.14779889422869">
        <time>2019-03-07T04:32:33Z</time>
      </trkpt>
      <trkpt lat="-31.84602670106501" lon="-71.14781359658024">
        <time>2019-03-07T04:32:33Z</time>
      </trkpt>
      <trkpt lat="-31.84566666327349" lon="-71.14788244470719">
        <time>2019-03-07T04:32:33Z</time>
      </trkpt>
      <trkpt lat="-31.84558067478488" lon="-71.14791641375884">
        <time>2019-03-07T04:32:33Z</time>
      </trkpt>
      <trkpt lat="-31.84549004401051" lon="-71.14796678581989">
        <time>2019-03-07T04:32:33Z</time>
      </trkpt>
      <trkpt lat="-31.84541982970332" lon="-71.14801183745124">
        <time>2019-03-07T04:32:33Z</time>
      </trkpt>
      <trkpt lat="-31.84510219855941" lon="-71.14830082091231">
        <time>2019-03-07T04:32:33Z</time>
      </trkpt>
      <trkpt lat="-31.84499012830284" lon="-71.14845064742498">
        <time>2019-03-07T04:32:33Z</time>
      </trkpt>
      <trkpt lat="-31.84488250036374" lon="-71.14861520854942">
        <time>2019-03-07T04:32:33Z</time>
      </trkpt>
      <trkpt lat="-31.84436525872286" lon="-71.1495459450546">
        <time>2019-03-07T04:32:33Z</time>
      </trkpt>
      <trkpt lat="-31.84418315826342" lon="-71.14979184156371">
        <time>2019-03-07T04:32:33Z</time>
      </trkpt>
      <trkpt lat="-31.84413125751679" lon="-71.14983882049411">
        <time>2019-03-07T04:32:33Z</time>
      </trkpt>
      <trkpt lat="-31.84397504910927" lon="-71.14996513175564">
        <time>2019-03-07T04:32:33Z</time>
      </trkpt>
      <trkpt lat="-31.84381291596856" lon="-71.15006312557433">
        <time>2019-03-07T04:32:33Z</time>
      </trkpt>
      <trkpt lat="-31.84370488533385" lon="-71.15009947955144">
        <time>2019-03-07T04:32:33Z</time>
      </trkpt>
      <trkpt lat="-31.84356263080339" lon="-71.15014588439803">
        <time>2019-03-07T04:32:33Z</time>
      </trkpt>
      <trkpt lat="-31.8433934568406" lon="-71.15017062287456">
        <time>2019-03-07T04:32:33Z</time>
      </trkpt>
      <trkpt lat="-31.84316151368413" lon="-71.15016219759313">
        <time>2019-03-07T04:32:33Z</time>
      </trkpt>
      <trkpt lat="-31.84295970124841" lon="-71.15010705677082">
        <time>2019-03-07T04:32:33Z</time>
      </trkpt>
      <trkpt lat="-31.84279607036105" lon="-71.15004612202716">
        <time>2019-03-07T04:32:33Z</time>
      </trkpt>
      <trkpt lat="-31.84273343359124" lon="-71.15001254547805">
        <time>2019-03-07T04:32:33Z</time>
      </trkpt>
      <trkpt lat="-31.84254256443744" lon="-71.14983499613099">
        <time>2019-03-07T04:32:33Z</time>
      </trkpt>
      <trkpt lat="-31.84204808559641" lon="-71.14927985293014">
        <time>2019-03-07T04:32:33Z</time>
      </trkpt>
      <trkpt lat="-31.84185667485676" lon="-71.14910590784842">
        <time>2019-03-07T04:32:33Z</time>
      </trkpt>
      <trkpt lat="-31.8417328886051" lon="-71.14901370235322">
        <time>2019-03-07T04:32:33Z</time>
      </trkpt>
      <trkpt lat="-31.84157475904538" lon="-71.14894422398996">
        <time>2019-03-07T04:32:33Z</time>
      </trkpt>
      <trkpt lat="-31.84142390000202" lon="-71.14889337586645">
        <time>2019-03-07T04:32:33Z</time>
      </trkpt>
      <trkpt lat="-31.84117215905925" lon="-71.14885989724634">
        <time>2019-03-07T04:32:33Z</time>
      </trkpt>
      <trkpt lat="-31.84098182778104" lon="-71.14885544153913">
        <time>2019-03-07T04:32:33Z</time>
      </trkpt>
      <trkpt lat="-31.84082033338296" lon="-71.14886869091399">
        <time>2019-03-07T04:32:33Z</time>
      </trkpt>
      <trkpt lat="-31.83922090524449" lon="-71.14904700949887">
        <time>2019-03-07T04:32:33Z</time>
      </trkpt>
      <trkpt lat="-31.83887574238041" lon="-71.14907190870892">
        <time>2019-03-07T04:32:33Z</time>
      </trkpt>
      <trkpt lat="-31.83872615553496" lon="-71.14906745642691">
        <time>2019-03-07T04:32:33Z</time>
      </trkpt>
      <trkpt lat="-31.83847691973892" lon="-71.14903770018709">
        <time>2019-03-07T04:32:33Z</time>
      </trkpt>
      <trkpt lat="-31.83785688678578" lon="-71.14886819853116">
        <time>2019-03-07T04:32:33Z</time>
      </trkpt>
      <trkpt lat="-31.8360127565278" lon="-71.14809533717087">
        <time>2019-03-07T04:32:33Z</time>
      </trkpt>
      <trkpt lat="-31.83572751670595" lon="-71.14797246138785">
        <time>2019-03-07T04:32:33Z</time>
      </trkpt>
      <trkpt lat="-31.83527804444089" lon="-71.14780483282506">
        <time>2019-03-07T04:32:33Z</time>
      </trkpt>
      <trkpt lat="-31.8351312217234" lon="-71.14777502564115">
        <time>2019-03-07T04:32:33Z</time>
      </trkpt>
      <trkpt lat="-31.834917430725" lon="-71.14775640208407">
        <time>2019-03-07T04:32:33Z</time>
      </trkpt>
      <trkpt lat="-31.83473188130601" lon="-71.14776597868119">
        <time>2019-03-07T04:32:33Z</time>
      </trkpt>
      <trkpt lat="-31.83454425439552" lon="-71.14779499556281">
        <time>2019-03-07T04:32:33Z</time>
      </trkpt>
      <trkpt lat="-31.83430266140336" lon="-71.14788750387055">
        <time>2019-03-07T04:32:33Z</time>
      </trkpt>
      <trkpt lat="-31.83383134038335" lon="-71.14810379458875">
        <time>2019-03-07T04:32:33Z</time>
      </trkpt>
      <trkpt lat="-31.83325939518429" lon="-71.14836923860202">
        <time>2019-03-07T04:32:33Z</time>
      </trkpt>
      <trkpt lat="-31.833132739043" lon="-71.14843476353413">
        <time>2019-03-07T04:32:33Z</time>
      </trkpt>
      <trkpt lat="-31.83208702052611" lon="-71.14890865474818">
        <time>2019-03-07T04:32:33Z</time>
      </trkpt>
      <trkpt lat="-31.83173732016043" lon="-71.14908405211787">
        <time>2019-03-07T04:32:33Z</time>
      </trkpt>
      <trkpt lat="-31.8295336307416" lon="-71.15009496956063">
        <time>2019-03-07T04:32:33Z</time>
      </trkpt>
      <trkpt lat="-31.82913950940776" lon="-71.1502785108645">
        <time>2019-03-07T04:32:33Z</time>
      </trkpt>
      <trkpt lat="-31.82876241974023" lon="-71.15049002245813">
        <time>2019-03-07T04:32:33Z</time>
      </trkpt>
      <trkpt lat="-31.82844333736271" lon="-71.15071280485034">
        <time>2019-03-07T04:32:33Z</time>
      </trkpt>
      <trkpt lat="-31.82814960419984" lon="-71.1509431802716">
        <time>2019-03-07T04:32:33Z</time>
      </trkpt>
      <trkpt lat="-31.82767384288414" lon="-71.15136009790975">
        <time>2019-03-07T04:32:33Z</time>
      </trkpt>
      <trkpt lat="-31.82742607538647" lon="-71.15159560963575">
        <time>2019-03-07T04:32:33Z</time>
      </trkpt>
      <trkpt lat="-31.82719163602453" lon="-71.15185780178321">
        <time>2019-03-07T04:32:33Z</time>
      </trkpt>
      <trkpt lat="-31.82696820602571" lon="-71.15213904215543">
        <time>2019-03-07T04:32:33Z</time>
      </trkpt>
      <trkpt lat="-31.82657427553416" lon="-71.15268407629435">
        <time>2019-03-07T04:32:33Z</time>
      </trkpt>
      <trkpt lat="-31.82633960796372" lon="-71.15304831179587">
        <time>2019-03-07T04:32:33Z</time>
      </trkpt>
      <trkpt lat="-31.8261013522386" lon="-71.15344812922868">
        <time>2019-03-07T04:32:33Z</time>
      </trkpt>
      <trkpt lat="-31.82591039058039" lon="-71.15380755652568">
        <time>2019-03-07T04:32:33Z</time>
      </trkpt>
      <trkpt lat="-31.82580648963835" lon="-71.15402925431785">
        <time>2019-03-07T04:32:33Z</time>
      </trkpt>
      <trkpt lat="-31.82456285602364" lon="-71.15707659275503">
        <time>2019-03-07T04:32:33Z</time>
      </trkpt>
      <trkpt lat="-31.82341817813137" lon="-71.15986906634052">
        <time>2019-03-07T04:32:33Z</time>
      </trkpt>
      <trkpt lat="-31.82320043784101" lon="-71.16042973783375">
        <time>2019-03-07T04:32:33Z</time>
      </trkpt>
      <trkpt lat="-31.82315042739485" lon="-71.16057015468424">
        <time>2019-03-07T04:32:33Z</time>
      </trkpt>
      <trkpt lat="-31.82313540787439" lon="-71.16062507852605">
        <time>2019-03-07T04:32:33Z</time>
      </trkpt>
      <trkpt lat="-31.82310012907275" lon="-71.16079460428419">
        <time>2019-03-07T04:32:33Z</time>
      </trkpt>
      <trkpt lat="-31.82306213094205" lon="-71.16107212261827">
        <time>2019-03-07T04:32:33Z</time>
      </trkpt>
      <trkpt lat="-31.8230568825895" lon="-71.16112760448991">
        <time>2019-03-07T04:32:33Z</time>
      </trkpt>
      <trkpt lat="-31.82304709379141" lon="-71.1614949808685">
        <time>2019-03-07T04:32:33Z</time>
      </trkpt>
      <trkpt lat="-31.82306313124303" lon="-71.16217188524539">
        <time>2019-03-07T04:32:33Z</time>
      </trkpt>
      <trkpt lat="-31.82306598894403" lon="-71.16258910156071">
        <time>2019-03-07T04:32:33Z</time>
      </trkpt>
      <trkpt lat="-31.82306223984165" lon="-71.16266990625344">
        <time>2019-03-07T04:32:33Z</time>
      </trkpt>
      <trkpt lat="-31.82305462311109" lon="-71.16273996622866">
        <time>2019-03-07T04:32:33Z</time>
      </trkpt>
      <trkpt lat="-31.8230389359622" lon="-71.16281544322789">
        <time>2019-03-07T04:32:33Z</time>
      </trkpt>
      <trkpt lat="-31.82299528480604" lon="-71.16294660895073">
        <time>2019-03-07T04:32:33Z</time>
      </trkpt>
      <trkpt lat="-31.82292113174049" lon="-71.16309460470286">
        <time>2019-03-07T04:32:33Z</time>
      </trkpt>
      <trkpt lat="-31.82286556862788" lon="-71.16318638068452">
        <time>2019-03-07T04:32:33Z</time>
      </trkpt>
      <trkpt lat="-31.82276206973073" lon="-71.16330672818924">
        <time>2019-03-07T04:32:33Z</time>
      </trkpt>
      <trkpt lat="-31.8225675171069" lon="-71.1634682088264">
        <time>2019-03-07T04:32:33Z</time>
      </trkpt>
      <trkpt lat="-31.82252292831656" lon="-71.1634958630833">
        <time>2019-03-07T04:32:33Z</time>
      </trkpt>
      <trkpt lat="-31.82240589834006" lon="-71.1635378039131">
        <time>2019-03-07T04:32:33Z</time>
      </trkpt>
      <trkpt lat="-31.82234847296487" lon="-71.16355318631135">
        <time>2019-03-07T04:32:33Z</time>
      </trkpt>
      <trkpt lat="-31.822233737365" lon="-71.1635623053342">
        <time>2019-03-07T04:32:33Z</time>
      </trkpt>
      <trkpt lat="-31.82164126488144" lon="-71.16356552865082">
        <time>2019-03-07T04:32:33Z</time>
      </trkpt>
      <trkpt lat="-31.82065932840637" lon="-71.16357768030279">
        <time>2019-03-07T04:32:33Z</time>
      </trkpt>
      <trkpt lat="-31.82000587339246" lon="-71.16358583249883">
        <time>2019-03-07T04:32:33Z</time>
      </trkpt>
      <trkpt lat="-31.81977609977549" lon="-71.16357958520317">
        <time>2019-03-07T04:32:33Z</time>
      </trkpt>
      <trkpt lat="-31.81969482996888" lon="-71.16356064509937">
        <time>2019-03-07T04:32:33Z</time>
      </trkpt>
      <trkpt lat="-31.81956257187803" lon="-71.16353362957537">
        <time>2019-03-07T04:32:33Z</time>
      </trkpt>
      <trkpt lat="-31.81924056269647" lon="-71.1634330616258">
        <time>2019-03-07T04:32:33Z</time>
      </trkpt>
      <trkpt lat="-31.81759081076831" lon="-71.16282444728225">
        <time>2019-03-07T04:32:33Z</time>
      </trkpt>
      <trkpt lat="-31.81750776558246" lon="-71.16279040833803">
        <time>2019-03-07T04:32:33Z</time>
      </trkpt>
      <trkpt lat="-31.81731701118282" lon="-71.16270513822425">
        <time>2019-03-07T04:32:33Z</time>
      </trkpt>
      <trkpt lat="-31.81724939144727" lon="-71.16266301072432">
        <time>2019-03-07T04:32:33Z</time>
      </trkpt>
      <trkpt lat="-31.8171823380164" lon="-71.16262326890539">
        <time>2019-03-07T04:32:33Z</time>
      </trkpt>
      <trkpt lat="-31.81712605142152" lon="-71.1625779576319">
        <time>2019-03-07T04:32:33Z</time>
      </trkpt>
      <trkpt lat="-31.81664135979088" lon="-71.16209684076463">
        <time>2019-03-07T04:32:33Z</time>
      </trkpt>
      <trkpt lat="-31.81595510395692" lon="-71.16144036082183">
        <time>2019-03-07T04:32:33Z</time>
      </trkpt>
      <trkpt lat="-31.8158303041241" lon="-71.16134046057644">
        <time>2019-03-07T04:32:33Z</time>
      </trkpt>
      <trkpt lat="-31.81566807942551" lon="-71.16120678270714">
        <time>2019-03-07T04:32:33Z</time>
      </trkpt>
      <trkpt lat="-31.81555490238961" lon="-71.16112022081542">
        <time>2019-03-07T04:32:33Z</time>
      </trkpt>
      <trkpt lat="-31.81541565298551" lon="-71.16103501135014">
        <time>2019-03-07T04:32:33Z</time>
      </trkpt>
      <trkpt lat="-31.81526819807898" lon="-71.16096041175898">
        <time>2019-03-07T04:32:33Z</time>
      </trkpt>
      <trkpt lat="-31.81511471151944" lon="-71.16091139938807">
        <time>2019-03-07T04:32:33Z</time>
      </trkpt>
      <trkpt lat="-31.81483433819502" lon="-71.16085081346832">
        <time>2019-03-07T04:32:33Z</time>
      </trkpt>
      <trkpt lat="-31.81464685829718" lon="-71.16082991482104">
        <time>2019-03-07T04:32:33Z</time>
      </trkpt>
      <trkpt lat="-31.8143159477825" lon="-71.16080259528434">
        <time>2019-03-07T04:32:33Z</time>
      </trkpt>
      <trkpt lat="-31.81269134040915" lon="-71.16068240604835">
        <time>2019-03-07T04:32:33Z</time>
      </trkpt>
      <trkpt lat="-31.81123963470529" lon="-71.16059408286164">
        <time>2019-03-07T04:32:33Z</time>
      </trkpt>
      <trkpt lat="-31.81101242248401" lon="-71.16056882150429">
        <time>2019-03-07T04:32:33Z</time>
      </trkpt>
      <trkpt lat="-31.81090067785736" lon="-71.16055644050437">
        <time>2019-03-07T04:32:33Z</time>
      </trkpt>
      <trkpt lat="-31.81078141355357" lon="-71.16052560579037">
        <time>2019-03-07T04:32:33Z</time>
      </trkpt>
      <trkpt lat="-31.81068896542308" lon="-71.16048892348863">
        <time>2019-03-07T04:32:33Z</time>
      </trkpt>
      <trkpt lat="-31.81061592938814" lon="-71.16045932007927">
        <time>2019-03-07T04:32:33Z</time>
      </trkpt>
      <trkpt lat="-31.8104955031618" lon="-71.16040727926236">
        <time>2019-03-07T04:32:33Z</time>
      </trkpt>
      <trkpt lat="-31.81036077030412" lon="-71.16033265482709">
        <time>2019-03-07T04:32:33Z</time>
      </trkpt>
      <trkpt lat="-31.81030364267676" lon="-71.16029611492959">
        <time>2019-03-07T04:32:33Z</time>
      </trkpt>
      <trkpt lat="-31.80905613005077" lon="-71.15938213677534">
        <time>2019-03-07T04:32:33Z</time>
      </trkpt>
      <trkpt lat="-31.80855629290732" lon="-71.15900134622348">
        <time>2019-03-07T04:32:33Z</time>
      </trkpt>
      <trkpt lat="-31.80841693225665" lon="-71.15890454116968">
        <time>2019-03-07T04:32:33Z</time>
      </trkpt>
      <trkpt lat="-31.80833178988377" lon="-71.1588570008749">
        <time>2019-03-07T04:32:33Z</time>
      </trkpt>
      <trkpt lat="-31.8082468523777" lon="-71.15882035179507">
        <time>2019-03-07T04:32:33Z</time>
      </trkpt>
      <trkpt lat="-31.80813078188924" lon="-71.15878532422815">
        <time>2019-03-07T04:32:33Z</time>
      </trkpt>
      <trkpt lat="-31.80789419791378" lon="-71.15872218226366">
        <time>2019-03-07T04:32:33Z</time>
      </trkpt>
      <trkpt lat="-31.80783433089666" lon="-71.15871415687104">
        <time>2019-03-07T04:32:33Z</time>
      </trkpt>
      <trkpt lat="-31.80738598411606" lon="-71.15867090272424">
        <time>2019-03-07T04:32:33Z</time>
      </trkpt>
      <trkpt lat="-31.80599090108326" lon="-71.15856471737618">
        <time>2019-03-07T04:32:33Z</time>
      </trkpt>
      <trkpt lat="-31.80467616502506" lon="-71.15845627952932">
        <time>2019-03-07T04:32:33Z</time>
      </trkpt>
      <trkpt lat="-31.80438898718474" lon="-71.15841739374567">
        <time>2019-03-07T04:32:33Z</time>
      </trkpt>
      <trkpt lat="-31.80432514445057" lon="-71.15840740992373">
        <time>2019-03-07T04:32:33Z</time>
      </trkpt>
      <trkpt lat="-31.80419663019103" lon="-71.15836674506227">
        <time>2019-03-07T04:32:33Z</time>
      </trkpt>
      <trkpt lat="-31.80411925416874" lon="-71.15833622714784">
        <time>2019-03-07T04:32:33Z</time>
      </trkpt>
      <trkpt lat="-31.80401696039218" lon="-71.15827752007246">
        <time>2019-03-07T04:32:33Z</time>
      </trkpt>
      <trkpt lat="-31.80384117205701" lon="-71.15814645084068">
        <time>2019-03-07T04:32:33Z</time>
      </trkpt>
      <trkpt lat="-31.80363736948079" lon="-71.157981320053">
        <time>2019-03-07T04:32:33Z</time>
      </trkpt>
      <trkpt lat="-31.80355459729864" lon="-71.15790657350364">
        <time>2019-03-07T04:32:33Z</time>
      </trkpt>
      <trkpt lat="-31.80342553081305" lon="-71.15775937630649">
        <time>2019-03-07T04:32:33Z</time>
      </trkpt>
      <trkpt lat="-31.80287671738432" lon="-71.15697564902344">
        <time>2019-03-07T04:32:33Z</time>
      </trkpt>
      <trkpt lat="-31.8025670509126" lon="-71.1565270927762">
        <time>2019-03-07T04:32:33Z</time>
      </trkpt>
      <trkpt lat="-31.80244013099951" lon="-71.1563975913115">
        <time>2019-03-07T04:32:33Z</time>
      </trkpt>
      <trkpt lat="-31.80231326808153" lon="-71.15630721688358">
        <time>2019-03-07T04:32:33Z</time>
      </trkpt>
      <trkpt lat="-31.80217258477389" lon="-71.15623243855268">
        <time>2019-03-07T04:32:33Z</time>
      </trkpt>
      <trkpt lat="-31.80211740631097" lon="-71.15621679048047">
        <time>2019-03-07T04:32:33Z</time>
      </trkpt>
      <trkpt lat="-31.80200253713196" lon="-71.15619845107803">
        <time>2019-03-07T04:32:33Z</time>
      </trkpt>
      <trkpt lat="-31.80186647769719" lon="-71.15620120656922">
        <time>2019-03-07T04:32:33Z</time>
      </trkpt>
      <trkpt lat="-31.80110309943686" lon="-71.15627922235356">
        <time>2019-03-07T04:32:33Z</time>
      </trkpt>
      <trkpt lat="-31.79946895579949" lon="-71.15644133961534">
        <time>2019-03-07T04:32:33Z</time>
      </trkpt>
      <trkpt lat="-31.79896416605272" lon="-71.15648084800516">
        <time>2019-03-07T04:32:33Z</time>
      </trkpt>
      <trkpt lat="-31.79886003221898" lon="-71.15648276818543">
        <time>2019-03-07T04:32:33Z</time>
      </trkpt>
      <trkpt lat="-31.79868538380998" lon="-71.15647613206006">
        <time>2019-03-07T04:32:33Z</time>
      </trkpt>
      <trkpt lat="-31.79849794984794" lon="-71.1564485854985">
        <time>2019-03-07T04:32:33Z</time>
      </trkpt>
      <trkpt lat="-31.79762068705657" lon="-71.15626697775986">
        <time>2019-03-07T04:32:33Z</time>
      </trkpt>
      <trkpt lat="-31.79753511985933" lon="-71.15624742146147">
        <time>2019-03-07T04:32:33Z</time>
      </trkpt>
      <trkpt lat="-31.79733294358514" lon="-71.15617730837343">
        <time>2019-03-07T04:32:33Z</time>
      </trkpt>
      <trkpt lat="-31.79716132485951" lon="-71.15610017056579">
        <time>2019-03-07T04:32:33Z</time>
      </trkpt>
      <trkpt lat="-31.79648635225336" lon="-71.15573466992139">
        <time>2019-03-07T04:32:33Z</time>
      </trkpt>
      <trkpt lat="-31.79601774255409" lon="-71.15540848601799">
        <time>2019-03-07T04:32:33Z</time>
      </trkpt>
      <trkpt lat="-31.79581944621523" lon="-71.1552555626142">
        <time>2019-03-07T04:32:33Z</time>
      </trkpt>
      <trkpt lat="-31.79521441629363" lon="-71.15477376191485">
        <time>2019-03-07T04:32:33Z</time>
      </trkpt>
      <trkpt lat="-31.79495808072841" lon="-71.15458925498471">
        <time>2019-03-07T04:32:33Z</time>
      </trkpt>
      <trkpt lat="-31.79482858509945" lon="-71.15450889412614">
        <time>2019-03-07T04:32:33Z</time>
      </trkpt>
      <trkpt lat="-31.79466300206407" lon="-71.15443429984815">
        <time>2019-03-07T04:32:33Z</time>
      </trkpt>
      <trkpt lat="-31.79433858959127" lon="-71.15434364865307">
        <time>2019-03-07T04:32:33Z</time>
      </trkpt>
      <trkpt lat="-31.79417181826753" lon="-71.15431007872913">
        <time>2019-03-07T04:32:33Z</time>
      </trkpt>
      <trkpt lat="-31.79401859185768" lon="-71.15429913270104">
        <time>2019-03-07T04:32:33Z</time>
      </trkpt>
      <trkpt lat="-31.79369014017093" lon="-71.15429742999653">
        <time>2019-03-07T04:32:33Z</time>
      </trkpt>
      <trkpt lat="-31.79315862197432" lon="-71.15436255874926">
        <time>2019-03-07T04:32:33Z</time>
      </trkpt>
      <trkpt lat="-31.79260682325832" lon="-71.15445146800219">
        <time>2019-03-07T04:32:33Z</time>
      </trkpt>
      <trkpt lat="-31.79220403390952" lon="-71.15451852248161">
        <time>2019-03-07T04:32:33Z</time>
      </trkpt>
      <trkpt lat="-31.79155373914108" lon="-71.15461827278978">
        <time>2019-03-07T04:32:33Z</time>
      </trkpt>
      <trkpt lat="-31.79113277488315" lon="-71.15469532872123">
        <time>2019-03-07T04:32:33Z</time>
      </trkpt>
      <trkpt lat="-31.79054541769815" lon="-71.15478387280658">
        <time>2019-03-07T04:32:33Z</time>
      </trkpt>
      <trkpt lat="-31.78991445565244" lon="-71.1548762887938">
        <time>2019-03-07T04:32:33Z</time>
      </trkpt>
      <trkpt lat="-31.78955685637277" lon="-71.15493762850349">
        <time>2019-03-07T04:32:33Z</time>
      </trkpt>
      <trkpt lat="-31.78881761867386" lon="-71.15505767912521">
        <time>2019-03-07T04:32:33Z</time>
      </trkpt>
      <trkpt lat="-31.78867243279845" lon="-71.15508341953772">
        <time>2019-03-07T04:32:33Z</time>
      </trkpt>
      <trkpt lat="-31.78802775640698" lon="-71.15518599714402">
        <time>2019-03-07T04:32:33Z</time>
      </trkpt>
      <trkpt lat="-31.7877370694115" lon="-71.15523582166246">
        <time>2019-03-07T04:32:33Z</time>
      </trkpt>
      <trkpt lat="-31.78687945473988" lon="-71.15537816959314">
        <time>2019-03-07T04:32:33Z</time>
      </trkpt>
      <trkpt lat="-31.78609170290655" lon="-71.15550277589288">
        <time>2019-03-07T04:32:33Z</time>
      </trkpt>
      <trkpt lat="-31.78586961916904" lon="-71.15554087342608">
        <time>2019-03-07T04:32:33Z</time>
      </trkpt>
      <trkpt lat="-31.78499937539786" lon="-71.15567469923151">
        <time>2019-03-07T04:32:33Z</time>
      </trkpt>
      <trkpt lat="-31.78450569282271" lon="-71.15576023446501">
        <time>2019-03-07T04:32:33Z</time>
      </trkpt>
      <trkpt lat="-31.78394818208708" lon="-71.15585996058917">
        <time>2019-03-07T04:32:33Z</time>
      </trkpt>
      <trkpt lat="-31.78292135437941" lon="-71.15602378099284">
        <time>2019-03-07T04:32:33Z</time>
      </trkpt>
      <trkpt lat="-31.78185891823977" lon="-71.15617153559684">
        <time>2019-03-07T04:32:33Z</time>
      </trkpt>
      <trkpt lat="-31.78152248248707" lon="-71.15623735936288">
        <time>2019-03-07T04:32:33Z</time>
      </trkpt>
      <trkpt lat="-31.78137088710217" lon="-71.15626901870732">
        <time>2019-03-07T04:32:33Z</time>
      </trkpt>
      <trkpt lat="-31.78118399190042" lon="-71.15633263682489">
        <time>2019-03-07T04:32:33Z</time>
      </trkpt>
      <trkpt lat="-31.78107816558373" lon="-71.15638715224192">
        <time>2019-03-07T04:32:33Z</time>
      </trkpt>
      <trkpt lat="-31.78095521481603" lon="-71.15645525000774">
        <time>2019-03-07T04:32:33Z</time>
      </trkpt>
      <trkpt lat="-31.78006623780608" lon="-71.15726576505082">
        <time>2019-03-07T04:32:33Z</time>
      </trkpt>
      <trkpt lat="-31.77973176362378" lon="-71.15758961611498">
        <time>2019-03-07T04:32:33Z</time>
      </trkpt>
      <trkpt lat="-31.77961783940657" lon="-71.15768519551986">
        <time>2019-03-07T04:32:33Z</time>
      </trkpt>
      <trkpt lat="-31.77952712387982" lon="-71.15774224157578">
        <time>2019-03-07T04:32:33Z</time>
      </trkpt>
      <trkpt lat="-31.7793603204281" lon="-71.15780779936408">
        <time>2019-03-07T04:32:33Z</time>
      </trkpt>
      <trkpt lat="-31.77917408021234" lon="-71.15785520168727">
        <time>2019-03-07T04:32:33Z</time>
      </trkpt>
      <trkpt lat="-31.77892361189507" lon="-71.15788143416727">
        <time>2019-03-07T04:32:33Z</time>
      </trkpt>
      <trkpt lat="-31.77880723496058" lon="-71.15787728848837">
        <time>2019-03-07T04:32:33Z</time>
      </trkpt>
      <trkpt lat="-31.77869152150678" lon="-71.15786349481826">
        <time>2019-03-07T04:32:33Z</time>
      </trkpt>
      <trkpt lat="-31.77858402722771" lon="-71.15784046551191">
        <time>2019-03-07T04:32:33Z</time>
      </trkpt>
      <trkpt lat="-31.7783584013756" lon="-71.15774458728751">
        <time>2019-03-07T04:32:33Z</time>
      </trkpt>
      <trkpt lat="-31.77772142818157" lon="-71.15742133358612">
        <time>2019-03-07T04:32:33Z</time>
      </trkpt>
      <trkpt lat="-31.77611811376497" lon="-71.15656196003671">
        <time>2019-03-07T04:32:33Z</time>
      </trkpt>
      <trkpt lat="-31.7755248635155" lon="-71.15624583200086">
        <time>2019-03-07T04:32:33Z</time>
      </trkpt>
      <trkpt lat="-31.77544493297595" lon="-71.15620963576254">
        <time>2019-03-07T04:32:33Z</time>
      </trkpt>
      <trkpt lat="-31.77493218284602" lon="-71.15594412284952">
        <time>2019-03-07T04:32:33Z</time>
      </trkpt>
      <trkpt lat="-31.77467105192463" lon="-71.15577613967977">
        <time>2019-03-07T04:32:33Z</time>
      </trkpt>
      <trkpt lat="-31.77452358846982" lon="-71.15565573609223">
        <time>2019-03-07T04:32:33Z</time>
      </trkpt>
      <trkpt lat="-31.77442375727014" lon="-71.15555875911265">
        <time>2019-03-07T04:32:33Z</time>
      </trkpt>
      <trkpt lat="-31.77430101269296" lon="-71.15540606708242">
        <time>2019-03-07T04:32:33Z</time>
      </trkpt>
      <trkpt lat="-31.77394240792171" lon="-71.15491041546477">
        <time>2019-03-07T04:32:33Z</time>
      </trkpt>
      <trkpt lat="-31.77361149972783" lon="-71.15455580894351">
        <time>2019-03-07T04:32:33Z</time>
      </trkpt>
      <trkpt lat="-31.77341256988689" lon="-71.15435779425305">
        <time>2019-03-07T04:32:33Z</time>
      </trkpt>
      <trkpt lat="-31.7731823022385" lon="-71.15418682628933">
        <time>2019-03-07T04:32:33Z</time>
      </trkpt>
      <trkpt lat="-31.77288786136927" lon="-71.15402393905262">
        <time>2019-03-07T04:32:33Z</time>
      </trkpt>
      <trkpt lat="-31.77273512697649" lon="-71.15395694459176">
        <time>2019-03-07T04:32:33Z</time>
      </trkpt>
      <trkpt lat="-31.77246823439695" lon="-71.15384244180247">
        <time>2019-03-07T04:32:33Z</time>
      </trkpt>
      <trkpt lat="-31.77230273506671" lon="-71.15379865758699">
        <time>2019-03-07T04:32:33Z</time>
      </trkpt>
      <trkpt lat="-31.77215038133617" lon="-71.15376286285692">
        <time>2019-03-07T04:32:33Z</time>
      </trkpt>
      <trkpt lat="-31.77194611301077" lon="-71.15373226997049">
        <time>2019-03-07T04:32:33Z</time>
      </trkpt>
      <trkpt lat="-31.77169867033789" lon="-71.15373567738249">
        <time>2019-03-07T04:32:33Z</time>
      </trkpt>
      <trkpt lat="-31.77148752680018" lon="-71.15374285997655">
        <time>2019-03-07T04:32:33Z</time>
      </trkpt>
      <trkpt lat="-31.77115985335508" lon="-71.15377740121417">
        <time>2019-03-07T04:32:33Z</time>
      </trkpt>
      <trkpt lat="-31.7707951715271" lon="-71.15385711242016">
        <time>2019-03-07T04:32:33Z</time>
      </trkpt>
      <trkpt lat="-31.77053102198363" lon="-71.15395611133592">
        <time>2019-03-07T04:32:33Z</time>
      </trkpt>
      <trkpt lat="-31.77023945906771" lon="-71.15410683817866">
        <time>2019-03-07T04:32:33Z</time>
      </trkpt>
      <trkpt lat="-31.76957115669199" lon="-71.15449819977117">
        <time>2019-03-07T04:32:33Z</time>
      </trkpt>
      <trkpt lat="-31.76881910494717" lon="-71.15495296101052">
        <time>2019-03-07T04:32:33Z</time>
      </trkpt>
      <trkpt lat="-31.76651849722283" lon="-71.15637543137086">
        <time>2019-03-07T04:32:33Z</time>
      </trkpt>
      <trkpt lat="-31.76558878427761" lon="-71.15693987739735">
        <time>2019-03-07T04:32:33Z</time>
      </trkpt>
      <trkpt lat="-31.76549093731845" lon="-71.15698483721336">
        <time>2019-03-07T04:32:33Z</time>
      </trkpt>
      <trkpt lat="-31.76541638226297" lon="-71.15701514443352">
        <time>2019-03-07T04:32:33Z</time>
      </trkpt>
      <trkpt lat="-31.76520704454978" lon="-71.15707485240127">
        <time>2019-03-07T04:32:33Z</time>
      </trkpt>
      <trkpt lat="-31.76451083395705" lon="-71.15721078991285">
        <time>2019-03-07T04:32:33Z</time>
      </trkpt>
      <trkpt lat="-31.76253280574238" lon="-71.15752236811133">
        <time>2019-03-07T04:32:33Z</time>
      </trkpt>
      <trkpt lat="-31.76144183680396" lon="-71.15771906735147">
        <time>2019-03-07T04:32:33Z</time>
      </trkpt>
      <trkpt lat="-31.76122148398158" lon="-71.15776761373233">
        <time>2019-03-07T04:32:33Z</time>
      </trkpt>
      <trkpt lat="-31.76103166200715" lon="-71.15782189097513">
        <time>2019-03-07T04:32:33Z</time>
      </trkpt>
      <trkpt lat="-31.76084268875497" lon="-71.15787773661245">
        <time>2019-03-07T04:32:33Z</time>
      </trkpt>
      <trkpt lat="-31.76052663142835" lon="-71.15798447528174">
        <time>2019-03-07T04:32:33Z</time>
      </trkpt>
      <trkpt lat="-31.75857524086567" lon="-71.15860701025514">
        <time>2019-03-07T04:32:33Z</time>
      </trkpt>
      <trkpt lat="-31.75645064891213" lon="-71.15919837295361">
        <time>2019-03-07T04:32:33Z</time>
      </trkpt>
      <trkpt lat="-31.75615026220122" lon="-71.15926682762226">
        <time>2019-03-07T04:32:33Z</time>
      </trkpt>
      <trkpt lat="-31.75546599336422" lon="-71.15943721333075">
        <time>2019-03-07T04:32:33Z</time>
      </trkpt>
      <trkpt lat="-31.75529399864609" lon="-71.1594749706188">
        <time>2019-03-07T04:32:33Z</time>
      </trkpt>
      <trkpt lat="-31.7551963489027" lon="-71.15950837498333">
        <time>2019-03-07T04:32:33Z</time>
      </trkpt>
      <trkpt lat="-31.75507217010546" lon="-71.15955479055408">
        <time>2019-03-07T04:32:33Z</time>
      </trkpt>
      <trkpt lat="-31.75487711741781" lon="-71.15965425074622">
        <time>2019-03-07T04:32:33Z</time>
      </trkpt>
      <trkpt lat="-31.75469895588351" lon="-71.15976823772385">
        <time>2019-03-07T04:32:33Z</time>
      </trkpt>
      <trkpt lat="-31.75449492070926" lon="-71.15993734277731">
        <time>2019-03-07T04:32:33Z</time>
      </trkpt>
      <trkpt lat="-31.75436140954994" lon="-71.16006143100492">
        <time>2019-03-07T04:32:33Z</time>
      </trkpt>
      <trkpt lat="-31.75421387488288" lon="-71.16022709732047">
        <time>2019-03-07T04:32:33Z</time>
      </trkpt>
      <trkpt lat="-31.75415004572667" lon="-71.16031190427866">
        <time>2019-03-07T04:32:33Z</time>
      </trkpt>
      <trkpt lat="-31.75412234125987" lon="-71.16033553360502">
        <time>2019-03-07T04:32:33Z</time>
      </trkpt>
      <trkpt lat="-31.7540969578175" lon="-71.1603478155774">
        <time>2019-03-07T04:32:33Z</time>
      </trkpt>
      <trkpt lat="-31.75406302520331" lon="-71.16032723181478">
        <time>2019-03-07T04:32:33Z</time>
      </trkpt>
      <trkpt lat="-31.75316646809496" lon="-71.15943195961067">
        <time>2019-03-07T04:32:33Z</time>
      </trkpt>
      <trkpt lat="-31.75313376339092" lon="-71.15941017806486">
        <time>2019-03-07T04:32:33Z</time>
      </trkpt>
      <trkpt lat="-31.75311080735522" lon="-71.15939851101621">
        <time>2019-03-07T04:32:33Z</time>
      </trkpt>
      <trkpt lat="-31.75309327474856" lon="-71.15940539815206">
        <time>2019-03-07T04:32:33Z</time>
      </trkpt>
      <trkpt lat="-31.75307019768847" lon="-71.15943516525854">
        <time>2019-03-07T04:32:33Z</time>
      </trkpt>
      <trkpt lat="-31.75230422735377" lon="-71.16100518691215">
        <time>2019-03-07T04:32:33Z</time>
      </trkpt>
      <trkpt lat="-31.75251938500748" lon="-71.16111277536098">
        <time>2019-03-07T04:32:33Z</time>
      </trkpt>
    </trkseg>
  </trk>
</gpx>
